<?xml version='1.0' encoding='UTF-8'?>
<gpx version="1.1" creator="https://www.komoot.de" xmlns="http://www.topografix.com/GPX/1/1" xmlns:xsi="http://www.w3.org/2001/XMLSchema-instance" xsi:schemaLocation="http://www.topografix.com/GPX/1/1 http://www.topografix.com/GPX/1/1/gpx.xsd">
  <metadata>
    <name>29 GWR SALITE IRTE</name>
    <author>
      <link href="https://www.komoot.de">
        <text>komoot</text>
        <type>text/html</type>
      </link>
    </author>
  </metadata>
  <trk>
    <name>29 GWR SALITE IRTE</name>
    <trkseg>
      <trkpt lat="45.580724" lon="10.228325">
        <ele>179.803498</ele>
        <time>2021-01-28T10:57:49.716Z</time>
      </trkpt>
      <trkpt lat="45.580719" lon="10.228311">
        <ele>179.803498</ele>
        <time>2021-01-28T10:57:49.891Z</time>
      </trkpt>
      <trkpt lat="45.580638" lon="10.228259">
        <ele>179.803498</ele>
        <time>2021-01-28T10:57:51.280Z</time>
      </trkpt>
      <trkpt lat="45.580561" lon="10.228320">
        <ele>179.803498</ele>
        <time>2021-01-28T10:57:52.654Z</time>
      </trkpt>
      <trkpt lat="45.580548" lon="10.228360">
        <ele>179.803498</ele>
        <time>2021-01-28T10:57:53.109Z</time>
      </trkpt>
      <trkpt lat="45.580544" lon="10.228403">
        <ele>179.803498</ele>
        <time>2021-01-28T10:57:53.600Z</time>
      </trkpt>
      <trkpt lat="45.580506" lon="10.228858">
        <ele>179.803498</ele>
        <time>2021-01-28T10:57:59.103Z</time>
      </trkpt>
      <trkpt lat="45.580492" lon="10.228924">
        <ele>179.803498</ele>
        <time>2021-01-28T10:57:59.965Z</time>
      </trkpt>
      <trkpt lat="45.580465" lon="10.228986">
        <ele>179.803498</ele>
        <time>2021-01-28T10:58:00.881Z</time>
      </trkpt>
      <trkpt lat="45.580308" lon="10.229043">
        <ele>179.803498</ele>
        <time>2021-01-28T10:58:03.653Z</time>
      </trkpt>
      <trkpt lat="45.580220" lon="10.229109">
        <ele>179.821391</ele>
        <time>2021-01-28T10:58:05.432Z</time>
      </trkpt>
      <trkpt lat="45.580190" lon="10.229191">
        <ele>179.858506</ele>
        <time>2021-01-28T10:58:06.634Z</time>
      </trkpt>
      <trkpt lat="45.580136" lon="10.229266">
        <ele>179.901666</ele>
        <time>2021-01-28T10:58:08.136Z</time>
      </trkpt>
      <trkpt lat="45.580081" lon="10.229443">
        <ele>179.979347</ele>
        <time>2021-01-28T10:58:10.559Z</time>
      </trkpt>
      <trkpt lat="45.580061" lon="10.229475">
        <ele>179.996555</ele>
        <time>2021-01-28T10:58:11.082Z</time>
      </trkpt>
      <trkpt lat="45.580044" lon="10.229527">
        <ele>180.019577</ele>
        <time>2021-01-28T10:58:11.824Z</time>
      </trkpt>
      <trkpt lat="45.580050" lon="10.229643">
        <ele>180.066234</ele>
        <time>2021-01-28T10:58:13.296Z</time>
      </trkpt>
      <trkpt lat="45.580079" lon="10.229699">
        <ele>180.094177</ele>
        <time>2021-01-28T10:58:14.243Z</time>
      </trkpt>
      <trkpt lat="45.580107" lon="10.229727">
        <ele>180.113763</ele>
        <time>2021-01-28T10:58:14.889Z</time>
      </trkpt>
      <trkpt lat="45.580139" lon="10.229742">
        <ele>180.133064</ele>
        <time>2021-01-28T10:58:15.470Z</time>
      </trkpt>
      <trkpt lat="45.580175" lon="10.229743">
        <ele>180.153700</ele>
        <time>2021-01-28T10:58:16.083Z</time>
      </trkpt>
      <trkpt lat="45.580212" lon="10.229727">
        <ele>180.175855</ele>
        <time>2021-01-28T10:58:16.698Z</time>
      </trkpt>
      <trkpt lat="45.580254" lon="10.229680">
        <ele>180.206429</ele>
        <time>2021-01-28T10:58:17.528Z</time>
      </trkpt>
      <trkpt lat="45.580274" lon="10.229627">
        <ele>180.230582</ele>
        <time>2021-01-28T10:58:18.248Z</time>
      </trkpt>
      <trkpt lat="45.580280" lon="10.229578">
        <ele>180.250535</ele>
        <time>2021-01-28T10:58:18.816Z</time>
      </trkpt>
      <trkpt lat="45.580331" lon="10.229556">
        <ele>180.281066</ele>
        <time>2021-01-28T10:58:19.784Z</time>
      </trkpt>
      <trkpt lat="45.580507" lon="10.229545">
        <ele>180.382029</ele>
        <time>2021-01-28T10:58:22.766Z</time>
      </trkpt>
      <trkpt lat="45.580661" lon="10.229458">
        <ele>180.476935</ele>
        <time>2021-01-28T10:58:25.380Z</time>
      </trkpt>
      <trkpt lat="45.580987" lon="10.229462">
        <ele>180.663773</ele>
        <time>2021-01-28T10:58:30.652Z</time>
      </trkpt>
      <trkpt lat="45.581156" lon="10.229306">
        <ele>180.779082</ele>
        <time>2021-01-28T10:58:34.309Z</time>
      </trkpt>
      <trkpt lat="45.581322" lon="10.229213">
        <ele>180.875464</ele>
        <time>2021-01-28T10:58:37.212Z</time>
      </trkpt>
      <trkpt lat="45.581424" lon="10.229104">
        <ele>180.939439</ele>
        <time>2021-01-28T10:58:39.557Z</time>
      </trkpt>
      <trkpt lat="45.581584" lon="10.229025">
        <ele>181.024464</ele>
        <time>2021-01-28T10:58:42.229Z</time>
      </trkpt>
      <trkpt lat="45.581880" lon="10.228856">
        <ele>181.184563</ele>
        <time>2021-01-28T10:58:47.798Z</time>
      </trkpt>
      <trkpt lat="45.582193" lon="10.228590">
        <ele>181.367477</ele>
        <time>2021-01-28T10:58:53.845Z</time>
      </trkpt>
      <trkpt lat="45.582423" lon="10.228349">
        <ele>181.510732</ele>
        <time>2021-01-28T10:58:58.473Z</time>
      </trkpt>
      <trkpt lat="45.582888" lon="10.227768">
        <ele>181.862420</ele>
        <time>2021-01-28T10:59:08.506Z</time>
      </trkpt>
      <trkpt lat="45.582998" lon="10.227584">
        <ele>181.989797</ele>
        <time>2021-01-28T10:59:11.606Z</time>
      </trkpt>
      <trkpt lat="45.583481" lon="10.227014">
        <ele>182.460946</ele>
        <time>2021-01-28T10:59:23.274Z</time>
      </trkpt>
      <trkpt lat="45.583887" lon="10.226555">
        <ele>182.850321</ele>
        <time>2021-01-28T10:59:32.615Z</time>
      </trkpt>
      <trkpt lat="45.583907" lon="10.226298">
        <ele>182.986431</ele>
        <time>2021-01-28T10:59:35.783Z</time>
      </trkpt>
      <trkpt lat="45.583917" lon="10.226238">
        <ele>183.018897</ele>
        <time>2021-01-28T10:59:36.672Z</time>
      </trkpt>
      <trkpt lat="45.584209" lon="10.224484">
        <ele>183.493557</ele>
        <time>2021-01-28T10:59:59.129Z</time>
      </trkpt>
      <trkpt lat="45.584541" lon="10.224570">
        <ele>183.610139</ele>
        <time>2021-01-28T11:00:04.127Z</time>
      </trkpt>
      <trkpt lat="45.584634" lon="10.224574">
        <ele>183.642287</ele>
        <time>2021-01-28T11:00:05.677Z</time>
      </trkpt>
      <trkpt lat="45.584650" lon="10.224468">
        <ele>183.668508</ele>
        <time>2021-01-28T11:00:06.620Z</time>
      </trkpt>
      <trkpt lat="45.584775" lon="10.223612">
        <ele>183.319246</ele>
        <time>2021-01-28T11:00:14.497Z</time>
      </trkpt>
      <trkpt lat="45.584831" lon="10.223252">
        <ele>183.110863</ele>
        <time>2021-01-28T11:00:17.515Z</time>
      </trkpt>
      <trkpt lat="45.584856" lon="10.223093">
        <ele>183.018780</ele>
        <time>2021-01-28T11:00:18.991Z</time>
      </trkpt>
      <trkpt lat="45.584892" lon="10.222741">
        <ele>182.817769</ele>
        <time>2021-01-28T11:00:21.941Z</time>
      </trkpt>
      <trkpt lat="45.584910" lon="10.222419">
        <ele>182.635243</ele>
        <time>2021-01-28T11:00:24.729Z</time>
      </trkpt>
      <trkpt lat="45.584921" lon="10.221940">
        <ele>182.364437</ele>
        <time>2021-01-28T11:00:28.918Z</time>
      </trkpt>
      <trkpt lat="45.584918" lon="10.221640">
        <ele>182.246900</ele>
        <time>2021-01-28T11:00:31.628Z</time>
      </trkpt>
      <trkpt lat="45.584919" lon="10.221596">
        <ele>182.241982</ele>
        <time>2021-01-28T11:00:32.069Z</time>
      </trkpt>
      <trkpt lat="45.584921" lon="10.221432">
        <ele>182.223658</ele>
        <time>2021-01-28T11:00:33.578Z</time>
      </trkpt>
      <trkpt lat="45.584926" lon="10.221151">
        <ele>182.192257</ele>
        <time>2021-01-28T11:00:36.099Z</time>
      </trkpt>
      <trkpt lat="45.584926" lon="10.221081">
        <ele>182.184437</ele>
        <time>2021-01-28T11:00:36.794Z</time>
      </trkpt>
      <trkpt lat="45.584927" lon="10.221016">
        <ele>182.177174</ele>
        <time>2021-01-28T11:00:37.409Z</time>
      </trkpt>
      <trkpt lat="45.584934" lon="10.220297">
        <ele>182.096845</ele>
        <time>2021-01-28T11:00:44.100Z</time>
      </trkpt>
      <trkpt lat="45.584934" lon="10.220251">
        <ele>182.091706</ele>
        <time>2021-01-28T11:00:44.537Z</time>
      </trkpt>
      <trkpt lat="45.584938" lon="10.219853">
        <ele>182.047240</ele>
        <time>2021-01-28T11:00:48.380Z</time>
      </trkpt>
      <trkpt lat="45.584941" lon="10.219690">
        <ele>182.029025</ele>
        <time>2021-01-28T11:00:50.097Z</time>
      </trkpt>
      <trkpt lat="45.584941" lon="10.219530">
        <ele>182.011151</ele>
        <time>2021-01-28T11:00:51.873Z</time>
      </trkpt>
      <trkpt lat="45.584950" lon="10.218541">
        <ele>182.419052</ele>
        <time>2021-01-28T11:01:05.259Z</time>
      </trkpt>
      <trkpt lat="45.584952" lon="10.218310">
        <ele>182.579186</ele>
        <time>2021-01-28T11:01:08.474Z</time>
      </trkpt>
      <trkpt lat="45.584958" lon="10.217960">
        <ele>182.821867</ele>
        <time>2021-01-28T11:01:13.468Z</time>
      </trkpt>
      <trkpt lat="45.584960" lon="10.217854">
        <ele>182.895370</ele>
        <time>2021-01-28T11:01:14.921Z</time>
      </trkpt>
      <trkpt lat="45.584970" lon="10.217076">
        <ele>183.434745</ele>
        <time>2021-01-28T11:01:24.955Z</time>
      </trkpt>
      <trkpt lat="45.584979" lon="10.216531">
        <ele>183.791395</ele>
        <time>2021-01-28T11:01:31.994Z</time>
      </trkpt>
      <trkpt lat="45.585008" lon="10.216522">
        <ele>183.810130</ele>
        <time>2021-01-28T11:01:32.542Z</time>
      </trkpt>
      <trkpt lat="45.585054" lon="10.216467">
        <ele>183.847996</ele>
        <time>2021-01-28T11:01:33.515Z</time>
      </trkpt>
      <trkpt lat="45.585065" lon="10.216428">
        <ele>183.866573</ele>
        <time>2021-01-28T11:01:34.086Z</time>
      </trkpt>
      <trkpt lat="45.585067" lon="10.216386">
        <ele>183.885172</ele>
        <time>2021-01-28T11:01:34.676Z</time>
      </trkpt>
      <trkpt lat="45.585044" lon="10.216308">
        <ele>183.922568</ele>
        <time>2021-01-28T11:01:35.728Z</time>
      </trkpt>
      <trkpt lat="45.585021" lon="10.216282">
        <ele>183.941083</ele>
        <time>2021-01-28T11:01:36.317Z</time>
      </trkpt>
      <trkpt lat="45.584961" lon="10.216126">
        <ele>184.019729</ele>
        <time>2021-01-28T11:01:38.595Z</time>
      </trkpt>
      <trkpt lat="45.584955" lon="10.215846">
        <ele>184.143496</ele>
        <time>2021-01-28T11:01:42.255Z</time>
      </trkpt>
      <trkpt lat="45.584959" lon="10.215782">
        <ele>184.171885</ele>
        <time>2021-01-28T11:01:43.154Z</time>
      </trkpt>
      <trkpt lat="45.584976" lon="10.215644">
        <ele>184.233793</ele>
        <time>2021-01-28T11:01:45.008Z</time>
      </trkpt>
      <trkpt lat="45.585032" lon="10.215303">
        <ele>184.388545</ele>
        <time>2021-01-28T11:01:49.575Z</time>
      </trkpt>
      <trkpt lat="45.585088" lon="10.215019">
        <ele>184.518906</ele>
        <time>2021-01-28T11:01:53.225Z</time>
      </trkpt>
      <trkpt lat="45.585120" lon="10.214869">
        <ele>184.588189</ele>
        <time>2021-01-28T11:01:55.191Z</time>
      </trkpt>
      <trkpt lat="45.585362" lon="10.213744">
        <ele>184.895251</ele>
        <time>2021-01-28T11:02:07.622Z</time>
      </trkpt>
      <trkpt lat="45.585384" lon="10.213620">
        <ele>184.896721</ele>
        <time>2021-01-28T11:02:08.788Z</time>
      </trkpt>
      <trkpt lat="45.585417" lon="10.213453">
        <ele>184.898715</ele>
        <time>2021-01-28T11:02:10.555Z</time>
      </trkpt>
      <trkpt lat="45.585373" lon="10.213295">
        <ele>184.900669</ele>
        <time>2021-01-28T11:02:12.338Z</time>
      </trkpt>
      <trkpt lat="45.584748" lon="10.213084">
        <ele>184.911216</ele>
        <time>2021-01-28T11:02:21.995Z</time>
      </trkpt>
      <trkpt lat="45.584668" lon="10.213005">
        <ele>184.912812</ele>
        <time>2021-01-28T11:02:23.456Z</time>
      </trkpt>
      <trkpt lat="45.584279" lon="10.212902">
        <ele>184.919339</ele>
        <time>2021-01-28T11:02:29.314Z</time>
      </trkpt>
      <trkpt lat="45.584167" lon="10.212873">
        <ele>184.921474</ele>
        <time>2021-01-28T11:02:31.001Z</time>
      </trkpt>
      <trkpt lat="45.584234" lon="10.212550">
        <ele>184.925895</ele>
        <time>2021-01-28T11:02:34.680Z</time>
      </trkpt>
      <trkpt lat="45.584275" lon="10.212369">
        <ele>184.928392</ele>
        <time>2021-01-28T11:02:36.502Z</time>
      </trkpt>
      <trkpt lat="45.584308" lon="10.212219">
        <ele>184.930456</ele>
        <time>2021-01-28T11:02:38.306Z</time>
      </trkpt>
      <trkpt lat="45.584361" lon="10.212120">
        <ele>184.932092</ele>
        <time>2021-01-28T11:02:39.529Z</time>
      </trkpt>
      <trkpt lat="45.584386" lon="10.212088">
        <ele>184.932722</ele>
        <time>2021-01-28T11:02:40.015Z</time>
      </trkpt>
      <trkpt lat="45.584420" lon="10.212045">
        <ele>184.933573</ele>
        <time>2021-01-28T11:02:40.623Z</time>
      </trkpt>
      <trkpt lat="45.584551" lon="10.211864">
        <ele>184.936991</ele>
        <time>2021-01-28T11:02:43.300Z</time>
      </trkpt>
      <trkpt lat="45.584571" lon="10.211836">
        <ele>184.937516</ele>
        <time>2021-01-28T11:02:43.758Z</time>
      </trkpt>
      <trkpt lat="45.584648" lon="10.211718">
        <ele>184.939633</ele>
        <time>2021-01-28T11:02:45.275Z</time>
      </trkpt>
      <trkpt lat="45.584750" lon="10.211493">
        <ele>184.943152</ele>
        <time>2021-01-28T11:02:47.899Z</time>
      </trkpt>
      <trkpt lat="45.584788" lon="10.211326">
        <ele>184.945457</ele>
        <time>2021-01-28T11:02:49.618Z</time>
      </trkpt>
      <trkpt lat="45.584840" lon="10.210888">
        <ele>184.951288</ele>
        <time>2021-01-28T11:02:54.196Z</time>
      </trkpt>
      <trkpt lat="45.584856" lon="10.210568">
        <ele>185.146128</ele>
        <time>2021-01-28T11:02:57.898Z</time>
      </trkpt>
      <trkpt lat="45.584855" lon="10.210125">
        <ele>185.567727</ele>
        <time>2021-01-28T11:03:03.112Z</time>
      </trkpt>
      <trkpt lat="45.584647" lon="10.209466">
        <ele>186.255720</ele>
        <time>2021-01-28T11:03:12.489Z</time>
      </trkpt>
      <trkpt lat="45.584572" lon="10.209069">
        <ele>186.647065</ele>
        <time>2021-01-28T11:03:18.427Z</time>
      </trkpt>
      <trkpt lat="45.584536" lon="10.208846">
        <ele>186.864865</ele>
        <time>2021-01-28T11:03:22.506Z</time>
      </trkpt>
      <trkpt lat="45.584529" lon="10.208656">
        <ele>187.045937</ele>
        <time>2021-01-28T11:03:25.059Z</time>
      </trkpt>
      <trkpt lat="45.584516" lon="10.208326">
        <ele>187.360492</ele>
        <time>2021-01-28T11:03:30.696Z</time>
      </trkpt>
      <trkpt lat="45.584471" lon="10.208051">
        <ele>188.390822</ele>
        <time>2021-01-28T11:03:35.017Z</time>
      </trkpt>
      <trkpt lat="45.584421" lon="10.207930">
        <ele>188.966253</ele>
        <time>2021-01-28T11:03:38.150Z</time>
      </trkpt>
      <trkpt lat="45.584389" lon="10.207851">
        <ele>189.340044</ele>
        <time>2021-01-28T11:03:40.090Z</time>
      </trkpt>
      <trkpt lat="45.584223" lon="10.207560">
        <ele>190.877426</ele>
        <time>2021-01-28T11:03:47.761Z</time>
      </trkpt>
      <trkpt lat="45.584177" lon="10.207393">
        <ele>191.612370</ele>
        <time>2021-01-28T11:03:52.752Z</time>
      </trkpt>
      <trkpt lat="45.583723" lon="10.206343">
        <ele>196.666670</ele>
        <time>2021-01-28T11:04:29.443Z</time>
      </trkpt>
      <trkpt lat="45.583534" lon="10.205893">
        <ele>199.306868</ele>
        <time>2021-01-28T11:04:47.623Z</time>
      </trkpt>
      <trkpt lat="45.583536" lon="10.205792">
        <ele>199.948230</ele>
        <time>2021-01-28T11:04:51.199Z</time>
      </trkpt>
      <trkpt lat="45.583581" lon="10.205171">
        <ele>203.911145</ele>
        <time>2021-01-28T11:05:14.321Z</time>
      </trkpt>
      <trkpt lat="45.583635" lon="10.204533">
        <ele>207.990401</ele>
        <time>2021-01-28T11:05:38.168Z</time>
      </trkpt>
      <trkpt lat="45.583694" lon="10.204008">
        <ele>211.365560</ele>
        <time>2021-01-28T11:05:58.128Z</time>
      </trkpt>
      <trkpt lat="45.583695" lon="10.203889">
        <ele>212.120974</ele>
        <time>2021-01-28T11:06:02.320Z</time>
      </trkpt>
      <trkpt lat="45.583683" lon="10.203591">
        <ele>214.015674</ele>
        <time>2021-01-28T11:06:13.188Z</time>
      </trkpt>
      <trkpt lat="45.583641" lon="10.202971">
        <ele>217.199073</ele>
        <time>2021-01-28T11:06:34.759Z</time>
      </trkpt>
      <trkpt lat="45.583639" lon="10.202951">
        <ele>217.300847</ele>
        <time>2021-01-28T11:06:35.423Z</time>
      </trkpt>
      <trkpt lat="45.583440" lon="10.202278">
        <ele>220.981298</ele>
        <time>2021-01-28T11:06:58.803Z</time>
      </trkpt>
      <trkpt lat="45.583301" lon="10.201596">
        <ele>224.559645</ele>
        <time>2021-01-28T11:07:18.757Z</time>
      </trkpt>
      <trkpt lat="45.583214" lon="10.201055">
        <ele>227.388741</ele>
        <time>2021-01-28T11:07:32.892Z</time>
      </trkpt>
      <trkpt lat="45.583197" lon="10.200552">
        <ele>230.404687</ele>
        <time>2021-01-28T11:07:44.962Z</time>
      </trkpt>
      <trkpt lat="45.583194" lon="10.200113">
        <ele>233.033956</ele>
        <time>2021-01-28T11:07:58.259Z</time>
      </trkpt>
      <trkpt lat="45.583211" lon="10.200029">
        <ele>233.557638</ele>
        <time>2021-01-28T11:08:02.194Z</time>
      </trkpt>
      <trkpt lat="45.583314" lon="10.199959">
        <ele>234.533649</ele>
        <time>2021-01-28T11:08:07.082Z</time>
      </trkpt>
      <trkpt lat="45.583356" lon="10.200091">
        <ele>235.402049</ele>
        <time>2021-01-28T11:08:11.434Z</time>
      </trkpt>
      <trkpt lat="45.583410" lon="10.200945">
        <ele>240.537418</ele>
        <time>2021-01-28T11:08:45.474Z</time>
      </trkpt>
      <trkpt lat="45.583445" lon="10.201144">
        <ele>241.766268</ele>
        <time>2021-01-28T11:08:52.973Z</time>
      </trkpt>
      <trkpt lat="45.583510" lon="10.201187">
        <ele>242.379208</ele>
        <time>2021-01-28T11:08:57.742Z</time>
      </trkpt>
      <trkpt lat="45.583529" lon="10.201176">
        <ele>242.554634</ele>
        <time>2021-01-28T11:08:59.299Z</time>
      </trkpt>
      <trkpt lat="45.583542" lon="10.201163">
        <ele>242.721388</ele>
        <time>2021-01-28T11:09:00.557Z</time>
      </trkpt>
      <trkpt lat="45.583557" lon="10.201148">
        <ele>242.919724</ele>
        <time>2021-01-28T11:09:01.806Z</time>
      </trkpt>
      <trkpt lat="45.583575" lon="10.201120">
        <ele>243.207971</ele>
        <time>2021-01-28T11:09:03.505Z</time>
      </trkpt>
      <trkpt lat="45.583576" lon="10.201070">
        <ele>243.587205</ele>
        <time>2021-01-28T11:09:05.000Z</time>
      </trkpt>
      <trkpt lat="45.583560" lon="10.200894">
        <ele>244.932773</ele>
        <time>2021-01-28T11:09:10.744Z</time>
      </trkpt>
      <trkpt lat="45.583542" lon="10.200659">
        <ele>246.725084</ele>
        <time>2021-01-28T11:09:22.380Z</time>
      </trkpt>
      <trkpt lat="45.583548" lon="10.200426">
        <ele>248.492789</ele>
        <time>2021-01-28T11:09:33.986Z</time>
      </trkpt>
      <trkpt lat="45.583657" lon="10.199999">
        <ele>251.938740</ele>
        <time>2021-01-28T11:09:55.853Z</time>
      </trkpt>
      <trkpt lat="45.583852" lon="10.199726">
        <ele>254.896138</ele>
        <time>2021-01-28T11:10:10.899Z</time>
      </trkpt>
      <trkpt lat="45.584154" lon="10.199531">
        <ele>258.486200</ele>
        <time>2021-01-28T11:10:28.134Z</time>
      </trkpt>
      <trkpt lat="45.584538" lon="10.199585">
        <ele>262.533314</ele>
        <time>2021-01-28T11:10:49.657Z</time>
      </trkpt>
      <trkpt lat="45.584548" lon="10.199582">
        <ele>262.619814</ele>
        <time>2021-01-28T11:10:51.401Z</time>
      </trkpt>
      <trkpt lat="45.584574" lon="10.199573">
        <ele>262.846283</ele>
        <time>2021-01-28T11:10:52.611Z</time>
      </trkpt>
      <trkpt lat="45.584616" lon="10.199500">
        <ele>263.406166</ele>
        <time>2021-01-28T11:10:53.227Z</time>
      </trkpt>
      <trkpt lat="45.584647" lon="10.199389">
        <ele>264.114225</ele>
        <time>2021-01-28T11:10:56.305Z</time>
      </trkpt>
      <trkpt lat="45.584620" lon="10.199150">
        <ele>265.548533</ele>
        <time>2021-01-28T11:11:02.879Z</time>
      </trkpt>
      <trkpt lat="45.584304" lon="10.198630">
        <ele>269.628660</ele>
        <time>2021-01-28T11:11:25.396Z</time>
      </trkpt>
      <trkpt lat="45.583947" lon="10.198226">
        <ele>273.483871</ele>
        <time>2021-01-28T11:11:46.878Z</time>
      </trkpt>
      <trkpt lat="45.583698" lon="10.197979">
        <ele>276.049954</ele>
        <time>2021-01-28T11:12:00.975Z</time>
      </trkpt>
      <trkpt lat="45.583566" lon="10.197743">
        <ele>277.933727</ele>
        <time>2021-01-28T11:12:13.321Z</time>
      </trkpt>
      <trkpt lat="45.583264" lon="10.196594">
        <ele>286.435319</ele>
        <time>2021-01-28T11:12:56.733Z</time>
      </trkpt>
      <trkpt lat="45.583241" lon="10.196487">
        <ele>287.210654</ele>
        <time>2021-01-28T11:13:05.048Z</time>
      </trkpt>
      <trkpt lat="45.583233" lon="10.196455">
        <ele>287.446028</ele>
        <time>2021-01-28T11:13:07.097Z</time>
      </trkpt>
      <trkpt lat="45.583009" lon="10.196322">
        <ele>289.846798</ele>
        <time>2021-01-28T11:13:16.306Z</time>
      </trkpt>
      <trkpt lat="45.582958" lon="10.196287">
        <ele>290.406759</ele>
        <time>2021-01-28T11:13:21.617Z</time>
      </trkpt>
      <trkpt lat="45.582930" lon="10.196233">
        <ele>290.872279</ele>
        <time>2021-01-28T11:13:26.510Z</time>
      </trkpt>
      <trkpt lat="45.582895" lon="10.196060">
        <ele>292.119681</ele>
        <time>2021-01-28T11:13:30.673Z</time>
      </trkpt>
      <trkpt lat="45.582914" lon="10.195952">
        <ele>292.891050</ele>
        <time>2021-01-28T11:13:34.842Z</time>
      </trkpt>
      <trkpt lat="45.582937" lon="10.195902">
        <ele>293.305502</ele>
        <time>2021-01-28T11:13:35.947Z</time>
      </trkpt>
      <trkpt lat="45.583137" lon="10.195783">
        <ele>295.330259</ele>
        <time>2021-01-28T11:13:49.566Z</time>
      </trkpt>
      <trkpt lat="45.583852" lon="10.195794">
        <ele>300.080873</ele>
        <time>2021-01-28T11:14:28.901Z</time>
      </trkpt>
      <trkpt lat="45.583867" lon="10.195791">
        <ele>300.181502</ele>
        <time>2021-01-28T11:14:29.159Z</time>
      </trkpt>
      <trkpt lat="45.583948" lon="10.195774">
        <ele>300.725426</ele>
        <time>2021-01-28T11:14:33.727Z</time>
      </trkpt>
      <trkpt lat="45.584018" lon="10.195690">
        <ele>301.332750</ele>
        <time>2021-01-28T11:14:37.369Z</time>
      </trkpt>
      <trkpt lat="45.583988" lon="10.195540">
        <ele>302.058135</ele>
        <time>2021-01-28T11:14:41.418Z</time>
      </trkpt>
      <trkpt lat="45.583668" lon="10.195269">
        <ele>304.529535</ele>
        <time>2021-01-28T11:14:52.937Z</time>
      </trkpt>
      <trkpt lat="45.583111" lon="10.194863">
        <ele>306.929414</ele>
        <time>2021-01-28T11:15:10.233Z</time>
      </trkpt>
      <trkpt lat="45.582938" lon="10.194765">
        <ele>306.849282</ele>
        <time>2021-01-28T11:15:12.698Z</time>
      </trkpt>
      <trkpt lat="45.582839" lon="10.194686">
        <ele>306.800457</ele>
        <time>2021-01-28T11:15:16.616Z</time>
      </trkpt>
      <trkpt lat="45.582807" lon="10.194661">
        <ele>306.784753</ele>
        <time>2021-01-28T11:15:17.612Z</time>
      </trkpt>
      <trkpt lat="45.582802" lon="10.194758">
        <ele>306.755442</ele>
        <time>2021-01-28T11:15:18.477Z</time>
      </trkpt>
      <trkpt lat="45.582807" lon="10.194661">
        <ele>306.726132</ele>
        <time>2021-01-28T11:15:19.150Z</time>
      </trkpt>
      <trkpt lat="45.582839" lon="10.194686">
        <ele>306.710428</ele>
        <time>2021-01-28T11:15:19.584Z</time>
      </trkpt>
      <trkpt lat="45.582826" lon="10.194563">
        <ele>306.672941</ele>
        <time>2021-01-28T11:15:21.545Z</time>
      </trkpt>
      <trkpt lat="45.582845" lon="10.194353">
        <ele>306.609129</ele>
        <time>2021-01-28T11:15:23.975Z</time>
      </trkpt>
      <trkpt lat="45.582866" lon="10.194314">
        <ele>306.594301</ele>
        <time>2021-01-28T11:15:24.334Z</time>
      </trkpt>
      <trkpt lat="45.582890" lon="10.194264">
        <ele>306.576030</ele>
        <time>2021-01-28T11:15:24.735Z</time>
      </trkpt>
      <trkpt lat="45.582897" lon="10.194246">
        <ele>306.569824</ele>
        <time>2021-01-28T11:15:24.858Z</time>
      </trkpt>
      <trkpt lat="45.583012" lon="10.194158">
        <ele>306.513653</ele>
        <time>2021-01-28T11:15:27.132Z</time>
      </trkpt>
      <trkpt lat="45.583451" lon="10.194131">
        <ele>306.324452</ele>
        <time>2021-01-28T11:15:32.256Z</time>
      </trkpt>
      <trkpt lat="45.583536" lon="10.194075">
        <ele>306.284149</ele>
        <time>2021-01-28T11:15:33.134Z</time>
      </trkpt>
      <trkpt lat="45.583555" lon="10.194001">
        <ele>306.238928</ele>
        <time>2021-01-28T11:15:33.613Z</time>
      </trkpt>
      <trkpt lat="45.583551" lon="10.193929">
        <ele>305.867557</ele>
        <time>2021-01-28T11:15:34.123Z</time>
      </trkpt>
      <trkpt lat="45.583477" lon="10.193279">
        <ele>302.481484</ele>
        <time>2021-01-28T11:15:38.629Z</time>
      </trkpt>
      <trkpt lat="45.583486" lon="10.193192">
        <ele>302.029291</ele>
        <time>2021-01-28T11:15:39.218Z</time>
      </trkpt>
      <trkpt lat="45.583497" lon="10.193169">
        <ele>301.886055</ele>
        <time>2021-01-28T11:15:39.389Z</time>
      </trkpt>
      <trkpt lat="45.583555" lon="10.192946">
        <ele>300.662825</ele>
        <time>2021-01-28T11:15:40.840Z</time>
      </trkpt>
      <trkpt lat="45.583642" lon="10.192668">
        <ele>299.097023</ele>
        <time>2021-01-28T11:15:42.774Z</time>
      </trkpt>
      <trkpt lat="45.583643" lon="10.192355">
        <ele>297.487639</ele>
        <time>2021-01-28T11:15:44.688Z</time>
      </trkpt>
      <trkpt lat="45.583696" lon="10.192150">
        <ele>296.363961</ele>
        <time>2021-01-28T11:15:45.999Z</time>
      </trkpt>
      <trkpt lat="45.583710" lon="10.192120">
        <ele>296.178562</ele>
        <time>2021-01-28T11:15:46.209Z</time>
      </trkpt>
      <trkpt lat="45.583900" lon="10.191708">
        <ele>293.641619</ele>
        <time>2021-01-28T11:15:49.165Z</time>
      </trkpt>
      <trkpt lat="45.584098" lon="10.191423">
        <ele>291.142477</ele>
        <time>2021-01-28T11:15:51.606Z</time>
      </trkpt>
      <trkpt lat="45.584108" lon="10.191394">
        <ele>290.927161</ele>
        <time>2021-01-28T11:15:51.795Z</time>
      </trkpt>
      <trkpt lat="45.584128" lon="10.191336">
        <ele>290.496527</ele>
        <time>2021-01-28T11:15:52.190Z</time>
      </trkpt>
      <trkpt lat="45.584136" lon="10.191237">
        <ele>289.832790</ele>
        <time>2021-01-28T11:15:52.810Z</time>
      </trkpt>
      <trkpt lat="45.584140" lon="10.191143">
        <ele>289.205577</ele>
        <time>2021-01-28T11:15:53.416Z</time>
      </trkpt>
      <trkpt lat="45.584143" lon="10.191060">
        <ele>288.652046</ele>
        <time>2021-01-28T11:15:53.933Z</time>
      </trkpt>
      <trkpt lat="45.584139" lon="10.191015">
        <ele>288.349930</ele>
        <time>2021-01-28T11:15:54.198Z</time>
      </trkpt>
      <trkpt lat="45.584115" lon="10.190732">
        <ele>286.451313</ele>
        <time>2021-01-28T11:15:55.933Z</time>
      </trkpt>
      <trkpt lat="45.584126" lon="10.190588">
        <ele>285.486552</ele>
        <time>2021-01-28T11:15:56.898Z</time>
      </trkpt>
      <trkpt lat="45.584161" lon="10.190521">
        <ele>284.929721</ele>
        <time>2021-01-28T11:15:57.398Z</time>
      </trkpt>
      <trkpt lat="45.584175" lon="10.190495">
        <ele>284.711235</ele>
        <time>2021-01-28T11:15:57.584Z</time>
      </trkpt>
      <trkpt lat="45.584465" lon="10.190129">
        <ele>281.029080</ele>
        <time>2021-01-28T11:16:00.918Z</time>
      </trkpt>
      <trkpt lat="45.584478" lon="10.190112">
        <ele>280.861377</ele>
        <time>2021-01-28T11:16:01.068Z</time>
      </trkpt>
      <trkpt lat="45.584859" lon="10.189748">
        <ele>276.499813</ele>
        <time>2021-01-28T11:16:05.034Z</time>
      </trkpt>
      <trkpt lat="45.585423" lon="10.189488">
        <ele>271.595041</ele>
        <time>2021-01-28T11:16:10.176Z</time>
      </trkpt>
      <trkpt lat="45.585655" lon="10.189415">
        <ele>269.661978</ele>
        <time>2021-01-28T11:16:12.336Z</time>
      </trkpt>
      <trkpt lat="45.585783" lon="10.189359">
        <ele>268.572688</ele>
        <time>2021-01-28T11:16:13.524Z</time>
      </trkpt>
      <trkpt lat="45.585868" lon="10.189211">
        <ele>267.482392</ele>
        <time>2021-01-28T11:16:14.744Z</time>
      </trkpt>
      <trkpt lat="45.585957" lon="10.188310">
        <ele>262.300579</ele>
        <time>2021-01-28T11:16:20.507Z</time>
      </trkpt>
      <trkpt lat="45.586282" lon="10.187910">
        <ele>257.624011</ele>
        <time>2021-01-28T11:16:24.270Z</time>
      </trkpt>
      <trkpt lat="45.586297" lon="10.187892">
        <ele>257.388529</ele>
        <time>2021-01-28T11:16:24.435Z</time>
      </trkpt>
      <trkpt lat="45.586568" lon="10.187553">
        <ele>253.058573</ele>
        <time>2021-01-28T11:16:27.487Z</time>
      </trkpt>
      <trkpt lat="45.586727" lon="10.187354">
        <ele>250.517550</ele>
        <time>2021-01-28T11:16:29.297Z</time>
      </trkpt>
      <trkpt lat="45.586787" lon="10.187213">
        <ele>249.129201</ele>
        <time>2021-01-28T11:16:30.298Z</time>
      </trkpt>
      <trkpt lat="45.586827" lon="10.187068">
        <ele>247.817928</ele>
        <time>2021-01-28T11:16:31.207Z</time>
      </trkpt>
      <trkpt lat="45.587008" lon="10.186168">
        <ele>239.939591</ele>
        <time>2021-01-28T11:16:36.682Z</time>
      </trkpt>
      <trkpt lat="45.587065" lon="10.185788">
        <ele>236.161824</ele>
        <time>2021-01-28T11:16:38.952Z</time>
      </trkpt>
      <trkpt lat="45.587085" lon="10.185347">
        <ele>231.814492</ele>
        <time>2021-01-28T11:16:41.525Z</time>
      </trkpt>
      <trkpt lat="45.587055" lon="10.184577">
        <ele>224.228070</ele>
        <time>2021-01-28T11:16:46.047Z</time>
      </trkpt>
      <trkpt lat="45.587031" lon="10.184397">
        <ele>222.425510</ele>
        <time>2021-01-28T11:16:47.113Z</time>
      </trkpt>
      <trkpt lat="45.586927" lon="10.184129">
        <ele>219.410926</ele>
        <time>2021-01-28T11:16:48.916Z</time>
      </trkpt>
      <trkpt lat="45.586803" lon="10.184065">
        <ele>217.557670</ele>
        <time>2021-01-28T11:16:50.009Z</time>
      </trkpt>
      <trkpt lat="45.586409" lon="10.184100">
        <ele>212.471393</ele>
        <time>2021-01-28T11:16:53.318Z</time>
      </trkpt>
      <trkpt lat="45.585913" lon="10.184293">
        <ele>206.650257</ele>
        <time>2021-01-28T11:16:57.657Z</time>
      </trkpt>
      <trkpt lat="45.585786" lon="10.184326">
        <ele>205.188549</ele>
        <time>2021-01-28T11:16:58.761Z</time>
      </trkpt>
      <trkpt lat="45.585660" lon="10.184330">
        <ele>203.761397</ele>
        <time>2021-01-28T11:16:59.835Z</time>
      </trkpt>
      <trkpt lat="45.585595" lon="10.184285">
        <ele>202.943507</ele>
        <time>2021-01-28T11:17:00.452Z</time>
      </trkpt>
      <trkpt lat="45.585549" lon="10.184201">
        <ele>202.098240</ele>
        <time>2021-01-28T11:17:01.101Z</time>
      </trkpt>
      <trkpt lat="45.585431" lon="10.183946">
        <ele>199.675579</ele>
        <time>2021-01-28T11:17:02.951Z</time>
      </trkpt>
      <trkpt lat="45.585399" lon="10.183853">
        <ele>198.854299</ele>
        <time>2021-01-28T11:17:03.567Z</time>
      </trkpt>
      <trkpt lat="45.585297" lon="10.183557">
        <ele>196.239579</ele>
        <time>2021-01-28T11:17:05.564Z</time>
      </trkpt>
      <trkpt lat="45.585254" lon="10.183052">
        <ele>192.657641</ele>
        <time>2021-01-28T11:17:08.650Z</time>
      </trkpt>
      <trkpt lat="45.585225" lon="10.182810">
        <ele>191.194373</ele>
        <time>2021-01-28T11:17:10.115Z</time>
      </trkpt>
      <trkpt lat="45.585172" lon="10.182358">
        <ele>188.462981</ele>
        <time>2021-01-28T11:17:12.875Z</time>
      </trkpt>
      <trkpt lat="45.585151" lon="10.182180">
        <ele>187.387162</ele>
        <time>2021-01-28T11:17:13.975Z</time>
      </trkpt>
      <trkpt lat="45.585083" lon="10.181859">
        <ele>185.388333</ele>
        <time>2021-01-28T11:17:16.014Z</time>
      </trkpt>
      <trkpt lat="45.585011" lon="10.181056">
        <ele>180.563459</ele>
        <time>2021-01-28T11:17:21.112Z</time>
      </trkpt>
      <trkpt lat="45.584999" lon="10.180845">
        <ele>179.301785</ele>
        <time>2021-01-28T11:17:22.452Z</time>
      </trkpt>
      <trkpt lat="45.584948" lon="10.180306">
        <ele>177.022490</ele>
        <time>2021-01-28T11:17:25.954Z</time>
      </trkpt>
      <trkpt lat="45.584974" lon="10.180026">
        <ele>175.951746</ele>
        <time>2021-01-28T11:17:31.273Z</time>
      </trkpt>
      <trkpt lat="45.584927" lon="10.180091">
        <ele>175.597446</ele>
        <time>2021-01-28T11:17:33.052Z</time>
      </trkpt>
      <trkpt lat="45.584864" lon="10.180154">
        <ele>175.180926</ele>
        <time>2021-01-28T11:17:35.129Z</time>
      </trkpt>
      <trkpt lat="45.584786" lon="10.180197">
        <ele>174.728070</ele>
        <time>2021-01-28T11:17:37.406Z</time>
      </trkpt>
      <trkpt lat="45.584465" lon="10.180299">
        <ele>172.946842</ele>
        <time>2021-01-28T11:17:46.434Z</time>
      </trkpt>
      <trkpt lat="45.584254" lon="10.180351">
        <ele>171.787049</ele>
        <time>2021-01-28T11:17:52.282Z</time>
      </trkpt>
      <trkpt lat="45.584219" lon="10.180334">
        <ele>171.586811</ele>
        <time>2021-01-28T11:17:53.289Z</time>
      </trkpt>
      <trkpt lat="45.584174" lon="10.180077">
        <ele>170.582517</ele>
        <time>2021-01-28T11:17:58.382Z</time>
      </trkpt>
      <trkpt lat="45.584104" lon="10.179703">
        <ele>169.114889</ele>
        <time>2021-01-28T11:18:06.072Z</time>
      </trkpt>
      <trkpt lat="45.584091" lon="10.179642">
        <ele>168.875142</ele>
        <time>2021-01-28T11:18:07.259Z</time>
      </trkpt>
      <trkpt lat="45.584032" lon="10.179380">
        <ele>167.855145</ele>
        <time>2021-01-28T11:18:12.639Z</time>
      </trkpt>
      <trkpt lat="45.583943" lon="10.178981">
        <ele>166.303165</ele>
        <time>2021-01-28T11:18:15.409Z</time>
      </trkpt>
      <trkpt lat="45.583526" lon="10.177209">
        <ele>159.385794</ele>
        <time>2021-01-28T11:18:27.571Z</time>
      </trkpt>
      <trkpt lat="45.583402" lon="10.176673">
        <ele>157.661734</ele>
        <time>2021-01-28T11:18:31.302Z</time>
      </trkpt>
      <trkpt lat="45.583237" lon="10.175975">
        <ele>155.411719</ele>
        <time>2021-01-28T11:18:36.251Z</time>
      </trkpt>
      <trkpt lat="45.583137" lon="10.175549">
        <ele>154.039474</ele>
        <time>2021-01-28T11:18:39.309Z</time>
      </trkpt>
      <trkpt lat="45.583078" lon="10.175297">
        <ele>153.227938</ele>
        <time>2021-01-28T11:18:41.139Z</time>
      </trkpt>
      <trkpt lat="45.583061" lon="10.175219">
        <ele>152.978440</ele>
        <time>2021-01-28T11:18:41.685Z</time>
      </trkpt>
      <trkpt lat="45.582996" lon="10.174916">
        <ele>152.010575</ele>
        <time>2021-01-28T11:18:43.849Z</time>
      </trkpt>
      <trkpt lat="45.582992" lon="10.174772">
        <ele>151.578594</ele>
        <time>2021-01-28T11:18:45.306Z</time>
      </trkpt>
      <trkpt lat="45.583012" lon="10.174584">
        <ele>151.258821</ele>
        <time>2021-01-28T11:18:47.229Z</time>
      </trkpt>
      <trkpt lat="45.583041" lon="10.174542">
        <ele>151.159607</ele>
        <time>2021-01-28T11:18:47.842Z</time>
      </trkpt>
      <trkpt lat="45.583064" lon="10.174373">
        <ele>150.870093</ele>
        <time>2021-01-28T11:18:49.657Z</time>
      </trkpt>
      <trkpt lat="45.583048" lon="10.174319">
        <ele>150.771484</ele>
        <time>2021-01-28T11:18:50.293Z</time>
      </trkpt>
      <trkpt lat="45.583021" lon="10.174273">
        <ele>150.670527</ele>
        <time>2021-01-28T11:18:50.913Z</time>
      </trkpt>
      <trkpt lat="45.582986" lon="10.174241">
        <ele>150.570689</ele>
        <time>2021-01-28T11:18:51.523Z</time>
      </trkpt>
      <trkpt lat="45.582906" lon="10.174160">
        <ele>150.335102</ele>
        <time>2021-01-28T11:18:52.992Z</time>
      </trkpt>
      <trkpt lat="45.582863" lon="10.174114">
        <ele>150.206036</ele>
        <time>2021-01-28T11:18:53.786Z</time>
      </trkpt>
      <trkpt lat="45.582798" lon="10.173935">
        <ele>149.866924</ele>
        <time>2021-01-28T11:18:55.981Z</time>
      </trkpt>
      <trkpt lat="45.582786" lon="10.173596">
        <ele>149.296128</ele>
        <time>2021-01-28T11:18:59.575Z</time>
      </trkpt>
      <trkpt lat="45.582836" lon="10.173032">
        <ele>148.340120</ele>
        <time>2021-01-28T11:19:03.880Z</time>
      </trkpt>
      <trkpt lat="45.582855" lon="10.172827">
        <ele>147.992380</ele>
        <time>2021-01-28T11:19:05.493Z</time>
      </trkpt>
      <trkpt lat="45.582908" lon="10.172521">
        <ele>147.462284</ele>
        <time>2021-01-28T11:19:07.983Z</time>
      </trkpt>
      <trkpt lat="45.583003" lon="10.171303">
        <ele>146.953837</ele>
        <time>2021-01-28T11:19:18.482Z</time>
      </trkpt>
      <trkpt lat="45.582985" lon="10.170973">
        <ele>146.860419</ele>
        <time>2021-01-28T11:19:21.689Z</time>
      </trkpt>
      <trkpt lat="45.582995" lon="10.170373">
        <ele>146.691034</ele>
        <time>2021-01-28T11:19:28.459Z</time>
      </trkpt>
      <trkpt lat="45.582995" lon="10.170290">
        <ele>146.667609</ele>
        <time>2021-01-28T11:19:29.459Z</time>
      </trkpt>
      <trkpt lat="45.582995" lon="10.169858">
        <ele>146.545686</ele>
        <time>2021-01-28T11:19:34.328Z</time>
      </trkpt>
      <trkpt lat="45.582994" lon="10.169683">
        <ele>146.624709</ele>
        <time>2021-01-28T11:19:36.394Z</time>
      </trkpt>
      <trkpt lat="45.582988" lon="10.168618">
        <ele>147.175717</ele>
        <time>2021-01-28T11:19:48.753Z</time>
      </trkpt>
      <trkpt lat="45.582987" lon="10.168145">
        <ele>147.420430</ele>
        <time>2021-01-28T11:19:54.763Z</time>
      </trkpt>
      <trkpt lat="45.583020" lon="10.167756">
        <ele>147.623157</ele>
        <time>2021-01-28T11:19:59.946Z</time>
      </trkpt>
      <trkpt lat="45.582991" lon="10.167309">
        <ele>147.855409</ele>
        <time>2021-01-28T11:20:06.111Z</time>
      </trkpt>
      <trkpt lat="45.582977" lon="10.167201">
        <ele>147.949455</ele>
        <time>2021-01-28T11:20:07.560Z</time>
      </trkpt>
      <trkpt lat="45.582959" lon="10.167060">
        <ele>148.090888</ele>
        <time>2021-01-28T11:20:09.700Z</time>
      </trkpt>
      <trkpt lat="45.582828" lon="10.166439">
        <ele>148.730914</ele>
        <time>2021-01-28T11:20:18.753Z</time>
      </trkpt>
      <trkpt lat="45.582755" lon="10.166276">
        <ele>148.921873</ele>
        <time>2021-01-28T11:20:21.469Z</time>
      </trkpt>
      <trkpt lat="45.582597" lon="10.165649">
        <ele>149.579475</ele>
        <time>2021-01-28T11:20:31.325Z</time>
      </trkpt>
      <trkpt lat="45.582591" lon="10.165623">
        <ele>149.606490</ele>
        <time>2021-01-28T11:20:31.748Z</time>
      </trkpt>
      <trkpt lat="45.582577" lon="10.165569">
        <ele>149.663315</ele>
        <time>2021-01-28T11:20:32.592Z</time>
      </trkpt>
      <trkpt lat="45.582421" lon="10.164944">
        <ele>150.318110</ele>
        <time>2021-01-28T11:20:42.516Z</time>
      </trkpt>
      <trkpt lat="45.582257" lon="10.164213">
        <ele>150.991754</ele>
        <time>2021-01-28T11:20:53.365Z</time>
      </trkpt>
      <trkpt lat="45.582227" lon="10.163920">
        <ele>151.247303</ele>
        <time>2021-01-28T11:20:57.571Z</time>
      </trkpt>
      <trkpt lat="45.582228" lon="10.163754">
        <ele>151.390566</ele>
        <time>2021-01-28T11:20:59.676Z</time>
      </trkpt>
      <trkpt lat="45.582228" lon="10.163526">
        <ele>151.587329</ele>
        <time>2021-01-28T11:21:02.660Z</time>
      </trkpt>
      <trkpt lat="45.582293" lon="10.163332">
        <ele>151.772946</ele>
        <time>2021-01-28T11:21:05.586Z</time>
      </trkpt>
      <trkpt lat="45.582368" lon="10.163153">
        <ele>151.952988</ele>
        <time>2021-01-28T11:21:08.201Z</time>
      </trkpt>
      <trkpt lat="45.582396" lon="10.163133">
        <ele>151.991587</ele>
        <time>2021-01-28T11:21:08.803Z</time>
      </trkpt>
      <trkpt lat="45.582423" lon="10.163100">
        <ele>152.035398</ele>
        <time>2021-01-28T11:21:09.511Z</time>
      </trkpt>
      <trkpt lat="45.582453" lon="10.163029">
        <ele>152.106971</ele>
        <time>2021-01-28T11:21:10.671Z</time>
      </trkpt>
      <trkpt lat="45.582457" lon="10.162931">
        <ele>152.191688</ele>
        <time>2021-01-28T11:21:11.958Z</time>
      </trkpt>
      <trkpt lat="45.582434" lon="10.162855">
        <ele>152.263145</ele>
        <time>2021-01-28T11:21:13.047Z</time>
      </trkpt>
      <trkpt lat="45.582424" lon="10.162668">
        <ele>152.424994</ele>
        <time>2021-01-28T11:21:15.573Z</time>
      </trkpt>
      <trkpt lat="45.582438" lon="10.162509">
        <ele>152.563292</ele>
        <time>2021-01-28T11:21:17.889Z</time>
      </trkpt>
      <trkpt lat="45.582513" lon="10.162307">
        <ele>152.793358</ele>
        <time>2021-01-28T11:21:21.070Z</time>
      </trkpt>
      <trkpt lat="45.582739" lon="10.161790">
        <ele>153.446371</ele>
        <time>2021-01-28T11:21:30.064Z</time>
      </trkpt>
      <trkpt lat="45.582762" lon="10.161730">
        <ele>153.519658</ele>
        <time>2021-01-28T11:21:31.026Z</time>
      </trkpt>
      <trkpt lat="45.583030" lon="10.161162">
        <ele>154.253511</ele>
        <time>2021-01-28T11:21:41.040Z</time>
      </trkpt>
      <trkpt lat="45.583156" lon="10.160915">
        <ele>154.580946</ele>
        <time>2021-01-28T11:21:45.689Z</time>
      </trkpt>
      <trkpt lat="45.583272" lon="10.160695">
        <ele>154.876026</ele>
        <time>2021-01-28T11:21:49.715Z</time>
      </trkpt>
      <trkpt lat="45.583298" lon="10.160645">
        <ele>154.942757</ele>
        <time>2021-01-28T11:21:50.703Z</time>
      </trkpt>
      <trkpt lat="45.583497" lon="10.160288">
        <ele>155.430078</ele>
        <time>2021-01-28T11:21:57.565Z</time>
      </trkpt>
      <trkpt lat="45.583596" lon="10.160102">
        <ele>155.672911</ele>
        <time>2021-01-28T11:22:01.214Z</time>
      </trkpt>
      <trkpt lat="45.583864" lon="10.159632">
        <ele>156.302905</ele>
        <time>2021-01-28T11:22:10.471Z</time>
      </trkpt>
      <trkpt lat="45.584367" lon="10.158740">
        <ele>157.493286</ele>
        <time>2021-01-28T11:22:26.846Z</time>
      </trkpt>
      <trkpt lat="45.584940" lon="10.157748">
        <ele>158.841663</ele>
        <time>2021-01-28T11:22:44.655Z</time>
      </trkpt>
      <trkpt lat="45.585285" lon="10.157312">
        <ele>159.535849</ele>
        <time>2021-01-28T11:22:53.970Z</time>
      </trkpt>
      <trkpt lat="45.585551" lon="10.157051">
        <ele>160.022191</ele>
        <time>2021-01-28T11:23:00.771Z</time>
      </trkpt>
      <trkpt lat="45.585710" lon="10.156924">
        <ele>160.296737</ele>
        <time>2021-01-28T11:23:04.649Z</time>
      </trkpt>
      <trkpt lat="45.585886" lon="10.156811">
        <ele>160.587554</ele>
        <time>2021-01-28T11:23:08.920Z</time>
      </trkpt>
      <trkpt lat="45.585942" lon="10.156791">
        <ele>160.674554</ele>
        <time>2021-01-28T11:23:10.214Z</time>
      </trkpt>
      <trkpt lat="45.586026" lon="10.156668">
        <ele>160.911262</ele>
        <time>2021-01-28T11:23:12.858Z</time>
      </trkpt>
      <trkpt lat="45.586068" lon="10.156634">
        <ele>161.025987</ele>
        <time>2021-01-28T11:23:14.043Z</time>
      </trkpt>
      <trkpt lat="45.586118" lon="10.156645">
        <ele>161.146219</ele>
        <time>2021-01-28T11:23:15.251Z</time>
      </trkpt>
      <trkpt lat="45.586216" lon="10.156607">
        <ele>161.387554</ele>
        <time>2021-01-28T11:23:17.461Z</time>
      </trkpt>
      <trkpt lat="45.586279" lon="10.156494">
        <ele>161.627852</ele>
        <time>2021-01-28T11:23:19.746Z</time>
      </trkpt>
      <trkpt lat="45.586288" lon="10.156388">
        <ele>161.805450</ele>
        <time>2021-01-28T11:23:21.558Z</time>
      </trkpt>
      <trkpt lat="45.586347" lon="10.156314">
        <ele>161.992027</ele>
        <time>2021-01-28T11:23:23.545Z</time>
      </trkpt>
      <trkpt lat="45.586500" lon="10.156214">
        <ele>162.391887</ele>
        <time>2021-01-28T11:23:27.414Z</time>
      </trkpt>
      <trkpt lat="45.586566" lon="10.156174">
        <ele>162.562272</ele>
        <time>2021-01-28T11:23:29.181Z</time>
      </trkpt>
      <trkpt lat="45.586761" lon="10.156180">
        <ele>163.025824</ele>
        <time>2021-01-28T11:23:34.224Z</time>
      </trkpt>
      <trkpt lat="45.586909" lon="10.156185">
        <ele>163.377666</ele>
        <time>2021-01-28T11:23:37.995Z</time>
      </trkpt>
      <trkpt lat="45.587729" lon="10.156209">
        <ele>165.308663</ele>
        <time>2021-01-28T11:23:58.986Z</time>
      </trkpt>
      <trkpt lat="45.587956" lon="10.156216">
        <ele>165.814593</ele>
        <time>2021-01-28T11:24:04.468Z</time>
      </trkpt>
      <trkpt lat="45.588608" lon="10.156206">
        <ele>167.267497</ele>
        <time>2021-01-28T11:24:20.315Z</time>
      </trkpt>
      <trkpt lat="45.588947" lon="10.156212">
        <ele>168.022933</ele>
        <time>2021-01-28T11:24:28.304Z</time>
      </trkpt>
      <trkpt lat="45.589203" lon="10.156222">
        <ele>168.593578</ele>
        <time>2021-01-28T11:24:34.107Z</time>
      </trkpt>
      <trkpt lat="45.590629" lon="10.156312">
        <ele>171.347202</ele>
        <time>2021-01-28T11:25:05.325Z</time>
      </trkpt>
      <trkpt lat="45.591342" lon="10.156380">
        <ele>172.726400</ele>
        <time>2021-01-28T11:25:21.273Z</time>
      </trkpt>
      <trkpt lat="45.591517" lon="10.156394">
        <ele>173.100091</ele>
        <time>2021-01-28T11:25:25.932Z</time>
      </trkpt>
      <trkpt lat="45.591619" lon="10.156367">
        <ele>173.321258</ele>
        <time>2021-01-28T11:25:28.229Z</time>
      </trkpt>
      <trkpt lat="45.592118" lon="10.156306">
        <ele>174.389029</ele>
        <time>2021-01-28T11:25:39.714Z</time>
      </trkpt>
      <trkpt lat="45.592192" lon="10.156318">
        <ele>174.547812</ele>
        <time>2021-01-28T11:25:41.922Z</time>
      </trkpt>
      <trkpt lat="45.592478" lon="10.156215">
        <ele>175.176640</ele>
        <time>2021-01-28T11:25:48.408Z</time>
      </trkpt>
      <trkpt lat="45.592533" lon="10.156203">
        <ele>175.295260</ele>
        <time>2021-01-28T11:25:50.388Z</time>
      </trkpt>
      <trkpt lat="45.592547" lon="10.156216">
        <ele>175.330857</ele>
        <time>2021-01-28T11:25:50.842Z</time>
      </trkpt>
      <trkpt lat="45.592596" lon="10.156228">
        <ele>175.436849</ele>
        <time>2021-01-28T11:25:51.882Z</time>
      </trkpt>
      <trkpt lat="45.592612" lon="10.156222">
        <ele>175.472117</ele>
        <time>2021-01-28T11:25:52.271Z</time>
      </trkpt>
      <trkpt lat="45.592671" lon="10.156220">
        <ele>175.597942</ele>
        <time>2021-01-28T11:25:53.535Z</time>
      </trkpt>
      <trkpt lat="45.592773" lon="10.156223">
        <ele>175.815456</ele>
        <time>2021-01-28T11:25:55.417Z</time>
      </trkpt>
      <trkpt lat="45.592811" lon="10.156213">
        <ele>175.897835</ele>
        <time>2021-01-28T11:25:56.385Z</time>
      </trkpt>
      <trkpt lat="45.593011" lon="10.156193">
        <ele>176.319723</ele>
        <time>2021-01-28T11:26:01.546Z</time>
      </trkpt>
      <trkpt lat="45.593415" lon="10.156102">
        <ele>177.119041</ele>
        <time>2021-01-28T11:26:10.722Z</time>
      </trkpt>
      <trkpt lat="45.593841" lon="10.155875">
        <ele>178.007602</ele>
        <time>2021-01-28T11:26:20.753Z</time>
      </trkpt>
      <trkpt lat="45.593885" lon="10.155855">
        <ele>178.097840</ele>
        <time>2021-01-28T11:26:21.918Z</time>
      </trkpt>
      <trkpt lat="45.593923" lon="10.155847">
        <ele>178.172908</ele>
        <time>2021-01-28T11:26:23.112Z</time>
      </trkpt>
      <trkpt lat="45.594474" lon="10.155749">
        <ele>179.258081</ele>
        <time>2021-01-28T11:26:35.068Z</time>
      </trkpt>
      <trkpt lat="45.594586" lon="10.155698">
        <ele>179.487815</ele>
        <time>2021-01-28T11:26:37.711Z</time>
      </trkpt>
      <trkpt lat="45.594898" lon="10.155549">
        <ele>180.139712</ele>
        <time>2021-01-28T11:26:45.027Z</time>
      </trkpt>
      <trkpt lat="45.595468" lon="10.155422">
        <ele>181.295546</ele>
        <time>2021-01-28T11:26:58.469Z</time>
      </trkpt>
      <trkpt lat="45.595702" lon="10.155380">
        <ele>181.768066</ele>
        <time>2021-01-28T11:27:03.775Z</time>
      </trkpt>
      <trkpt lat="45.595875" lon="10.155360">
        <ele>182.115817</ele>
        <time>2021-01-28T11:27:07.812Z</time>
      </trkpt>
      <trkpt lat="45.597786" lon="10.155569">
        <ele>185.844019</ele>
        <time>2021-01-28T11:27:51.687Z</time>
      </trkpt>
      <trkpt lat="45.597835" lon="10.155558">
        <ele>185.939087</ele>
        <time>2021-01-28T11:27:53.087Z</time>
      </trkpt>
      <trkpt lat="45.597885" lon="10.155439">
        <ele>186.125240</ele>
        <time>2021-01-28T11:27:55.064Z</time>
      </trkpt>
      <trkpt lat="45.597886" lon="10.155051">
        <ele>186.645582</ele>
        <time>2021-01-28T11:28:00.601Z</time>
      </trkpt>
      <trkpt lat="45.597769" lon="10.154027">
        <ele>188.132926</ele>
        <time>2021-01-28T11:28:16.610Z</time>
      </trkpt>
      <trkpt lat="45.597757" lon="10.153308">
        <ele>189.173737</ele>
        <time>2021-01-28T11:28:28.189Z</time>
      </trkpt>
      <trkpt lat="45.597760" lon="10.153284">
        <ele>189.209019</ele>
        <time>2021-01-28T11:28:28.553Z</time>
      </trkpt>
      <trkpt lat="45.597788" lon="10.153147">
        <ele>189.415566</ele>
        <time>2021-01-28T11:28:30.721Z</time>
      </trkpt>
      <trkpt lat="45.597831" lon="10.153053">
        <ele>189.578093</ele>
        <time>2021-01-28T11:28:32.480Z</time>
      </trkpt>
      <trkpt lat="45.597849" lon="10.153040">
        <ele>189.619806</ele>
        <time>2021-01-28T11:28:32.923Z</time>
      </trkpt>
      <trkpt lat="45.597864" lon="10.153021">
        <ele>189.661261</ele>
        <time>2021-01-28T11:28:33.371Z</time>
      </trkpt>
      <trkpt lat="45.597874" lon="10.153001">
        <ele>189.696835</ele>
        <time>2021-01-28T11:28:33.740Z</time>
      </trkpt>
      <trkpt lat="45.597895" lon="10.152963">
        <ele>189.766911</ele>
        <time>2021-01-28T11:28:34.608Z</time>
      </trkpt>
      <trkpt lat="45.597987" lon="10.152902">
        <ele>189.976675</ele>
        <time>2021-01-28T11:28:37.018Z</time>
      </trkpt>
      <trkpt lat="45.598045" lon="10.152868">
        <ele>190.106334</ele>
        <time>2021-01-28T11:28:38.642Z</time>
      </trkpt>
      <trkpt lat="45.598574" lon="10.152710">
        <ele>191.595588</ele>
        <time>2021-01-28T11:28:52.318Z</time>
      </trkpt>
      <trkpt lat="45.598848" lon="10.152588">
        <ele>192.513887</ele>
        <time>2021-01-28T11:28:59.873Z</time>
      </trkpt>
      <trkpt lat="45.599207" lon="10.152206">
        <ele>193.946006</ele>
        <time>2021-01-28T11:29:12.566Z</time>
      </trkpt>
      <trkpt lat="45.599406" lon="10.151975">
        <ele>194.766318</ele>
        <time>2021-01-28T11:29:20.135Z</time>
      </trkpt>
      <trkpt lat="45.599551" lon="10.151815">
        <ele>195.352473</ele>
        <time>2021-01-28T11:29:25.190Z</time>
      </trkpt>
      <trkpt lat="45.599747" lon="10.151674">
        <ele>196.054592</ele>
        <time>2021-01-28T11:29:31.573Z</time>
      </trkpt>
      <trkpt lat="45.599787" lon="10.151660">
        <ele>196.186364</ele>
        <time>2021-01-28T11:29:32.681Z</time>
      </trkpt>
      <trkpt lat="45.599866" lon="10.151670">
        <ele>196.478410</ele>
        <time>2021-01-28T11:29:34.919Z</time>
      </trkpt>
      <trkpt lat="45.600027" lon="10.151732">
        <ele>197.157966</ele>
        <time>2021-01-28T11:29:39.955Z</time>
      </trkpt>
      <trkpt lat="45.600071" lon="10.151776">
        <ele>197.376822</ele>
        <time>2021-01-28T11:29:41.634Z</time>
      </trkpt>
      <trkpt lat="45.600085" lon="10.151823">
        <ele>197.522481</ele>
        <time>2021-01-28T11:29:42.552Z</time>
      </trkpt>
      <trkpt lat="45.600111" lon="10.151856">
        <ele>197.664195</ele>
        <time>2021-01-28T11:29:43.546Z</time>
      </trkpt>
      <trkpt lat="45.600131" lon="10.151868">
        <ele>197.752596</ele>
        <time>2021-01-28T11:29:44.201Z</time>
      </trkpt>
      <trkpt lat="45.600173" lon="10.151867">
        <ele>197.923791</ele>
        <time>2021-01-28T11:29:45.492Z</time>
      </trkpt>
      <trkpt lat="45.600192" lon="10.151855">
        <ele>198.008449</ele>
        <time>2021-01-28T11:29:46.175Z</time>
      </trkpt>
      <trkpt lat="45.600214" lon="10.151827">
        <ele>198.128506</ele>
        <time>2021-01-28T11:29:47.043Z</time>
      </trkpt>
      <trkpt lat="45.600227" lon="10.151791">
        <ele>198.244025</ele>
        <time>2021-01-28T11:29:47.812Z</time>
      </trkpt>
      <trkpt lat="45.600231" lon="10.151750">
        <ele>198.362066</ele>
        <time>2021-01-28T11:29:48.654Z</time>
      </trkpt>
      <trkpt lat="45.600317" lon="10.151757">
        <ele>198.713127</ele>
        <time>2021-01-28T11:29:51.553Z</time>
      </trkpt>
      <trkpt lat="45.600766" lon="10.151800">
        <ele>200.547131</ele>
        <time>2021-01-28T11:30:04.815Z</time>
      </trkpt>
      <trkpt lat="45.601195" lon="10.151798">
        <ele>202.295531</ele>
        <time>2021-01-28T11:30:17.897Z</time>
      </trkpt>
      <trkpt lat="45.601591" lon="10.151761">
        <ele>204.074334</ele>
        <time>2021-01-28T11:30:30.993Z</time>
      </trkpt>
      <trkpt lat="45.602391" lon="10.151580">
        <ele>209.263906</ele>
        <time>2021-01-28T11:31:02.510Z</time>
      </trkpt>
      <trkpt lat="45.602433" lon="10.151579">
        <ele>209.533046</ele>
        <time>2021-01-28T11:31:04.998Z</time>
      </trkpt>
      <trkpt lat="45.602485" lon="10.151582">
        <ele>209.866491</ele>
        <time>2021-01-28T11:31:07.024Z</time>
      </trkpt>
      <trkpt lat="45.602502" lon="10.151583">
        <ele>209.975505</ele>
        <time>2021-01-28T11:31:07.776Z</time>
      </trkpt>
      <trkpt lat="45.602697" lon="10.151485">
        <ele>211.299889</ele>
        <time>2021-01-28T11:31:16.279Z</time>
      </trkpt>
      <trkpt lat="45.603538" lon="10.151112">
        <ele>216.726720</ele>
        <time>2021-01-28T11:31:55.550Z</time>
      </trkpt>
      <trkpt lat="45.603779" lon="10.151013">
        <ele>218.139984</ele>
        <time>2021-01-28T11:32:06.313Z</time>
      </trkpt>
      <trkpt lat="45.604167" lon="10.150835">
        <ele>220.436635</ele>
        <time>2021-01-28T11:32:23.167Z</time>
      </trkpt>
      <trkpt lat="45.604327" lon="10.150786">
        <ele>221.358865</ele>
        <time>2021-01-28T11:32:28.971Z</time>
      </trkpt>
      <trkpt lat="45.604405" lon="10.150790">
        <ele>221.798758</ele>
        <time>2021-01-28T11:32:32.261Z</time>
      </trkpt>
      <trkpt lat="45.604571" lon="10.150800">
        <ele>222.735169</ele>
        <time>2021-01-28T11:32:38.029Z</time>
      </trkpt>
      <trkpt lat="45.604760" lon="10.150811">
        <ele>223.801260</ele>
        <time>2021-01-28T11:32:44.408Z</time>
      </trkpt>
      <trkpt lat="45.604977" lon="10.150823">
        <ele>225.025193</ele>
        <time>2021-01-28T11:32:50.530Z</time>
      </trkpt>
      <trkpt lat="45.605030" lon="10.150825">
        <ele>225.300921</ele>
        <time>2021-01-28T11:32:51.844Z</time>
      </trkpt>
      <trkpt lat="45.605362" lon="10.150803">
        <ele>225.818224</ele>
        <time>2021-01-28T11:33:00.689Z</time>
      </trkpt>
      <trkpt lat="45.605806" lon="10.150913">
        <ele>226.519600</ele>
        <time>2021-01-28T11:33:09.960Z</time>
      </trkpt>
      <trkpt lat="45.605961" lon="10.150821">
        <ele>226.780825</ele>
        <time>2021-01-28T11:33:13.669Z</time>
      </trkpt>
      <trkpt lat="45.606174" lon="10.150544">
        <ele>227.229028</ele>
        <time>2021-01-28T11:33:19.048Z</time>
      </trkpt>
      <trkpt lat="45.606437" lon="10.150566">
        <ele>227.639080</ele>
        <time>2021-01-28T11:33:22.926Z</time>
      </trkpt>
      <trkpt lat="45.606476" lon="10.150573">
        <ele>227.700259</ele>
        <time>2021-01-28T11:33:23.994Z</time>
      </trkpt>
      <trkpt lat="45.606616" lon="10.150629">
        <ele>227.926536</ele>
        <time>2021-01-28T11:33:25.928Z</time>
      </trkpt>
      <trkpt lat="45.606840" lon="10.150669">
        <ele>228.258316</ele>
        <time>2021-01-28T11:33:29.988Z</time>
      </trkpt>
      <trkpt lat="45.606950" lon="10.150659">
        <ele>228.411839</ele>
        <time>2021-01-28T11:33:31.537Z</time>
      </trkpt>
      <trkpt lat="45.607078" lon="10.150656">
        <ele>228.590148</ele>
        <time>2021-01-28T11:33:33.766Z</time>
      </trkpt>
      <trkpt lat="45.607147" lon="10.150640">
        <ele>228.687511</ele>
        <time>2021-01-28T11:33:34.864Z</time>
      </trkpt>
      <trkpt lat="45.607173" lon="10.150635">
        <ele>228.724052</ele>
        <time>2021-01-28T11:33:35.619Z</time>
      </trkpt>
      <trkpt lat="45.607296" lon="10.150618">
        <ele>228.896171</ele>
        <time>2021-01-28T11:33:37.733Z</time>
      </trkpt>
      <trkpt lat="45.607311" lon="10.150626">
        <ele>228.918471</ele>
        <time>2021-01-28T11:33:37.951Z</time>
      </trkpt>
      <trkpt lat="45.607541" lon="10.150751">
        <ele>229.261199</ele>
        <time>2021-01-28T11:33:42.822Z</time>
      </trkpt>
      <trkpt lat="45.607785" lon="10.150836">
        <ele>229.611001</ele>
        <time>2021-01-28T11:33:47.966Z</time>
      </trkpt>
      <trkpt lat="45.608037" lon="10.150904">
        <ele>229.968199</ele>
        <time>2021-01-28T11:33:53.821Z</time>
      </trkpt>
      <trkpt lat="45.608593" lon="10.150980">
        <ele>230.952628</ele>
        <time>2021-01-28T11:34:06.716Z</time>
      </trkpt>
      <trkpt lat="45.608966" lon="10.151010">
        <ele>232.192749</ele>
        <time>2021-01-28T11:34:16.262Z</time>
      </trkpt>
      <trkpt lat="45.609073" lon="10.151009">
        <ele>232.547940</ele>
        <time>2021-01-28T11:34:19.029Z</time>
      </trkpt>
      <trkpt lat="45.609264" lon="10.150964">
        <ele>233.190513</ele>
        <time>2021-01-28T11:34:24.378Z</time>
      </trkpt>
      <trkpt lat="45.610031" lon="10.150831">
        <ele>235.755212</ele>
        <time>2021-01-28T11:34:46.980Z</time>
      </trkpt>
      <trkpt lat="45.610241" lon="10.150863">
        <ele>236.456250</ele>
        <time>2021-01-28T11:34:53.611Z</time>
      </trkpt>
      <trkpt lat="45.610373" lon="10.150892">
        <ele>237.081812</ele>
        <time>2021-01-28T11:34:57.812Z</time>
      </trkpt>
      <trkpt lat="45.610466" lon="10.150912">
        <ele>237.565298</ele>
        <time>2021-01-28T11:35:01.569Z</time>
      </trkpt>
      <trkpt lat="45.610753" lon="10.150955">
        <ele>239.048828</ele>
        <time>2021-01-28T11:35:10.555Z</time>
      </trkpt>
      <trkpt lat="45.610768" lon="10.150955">
        <ele>239.125942</ele>
        <time>2021-01-28T11:35:11.385Z</time>
      </trkpt>
      <trkpt lat="45.610887" lon="10.150956">
        <ele>239.737724</ele>
        <time>2021-01-28T11:35:15.238Z</time>
      </trkpt>
      <trkpt lat="45.611034" lon="10.150930">
        <ele>240.499203</ele>
        <time>2021-01-28T11:35:19.258Z</time>
      </trkpt>
      <trkpt lat="45.611148" lon="10.150900">
        <ele>241.095117</ele>
        <time>2021-01-28T11:35:23.872Z</time>
      </trkpt>
      <trkpt lat="45.611509" lon="10.150806">
        <ele>242.981530</ele>
        <time>2021-01-28T11:35:37.910Z</time>
      </trkpt>
      <trkpt lat="45.611541" lon="10.150803">
        <ele>243.146393</ele>
        <time>2021-01-28T11:35:39.419Z</time>
      </trkpt>
      <trkpt lat="45.611776" lon="10.150785">
        <ele>244.356245</ele>
        <time>2021-01-28T11:35:47.854Z</time>
      </trkpt>
      <trkpt lat="45.612036" lon="10.150766">
        <ele>245.694633</ele>
        <time>2021-01-28T11:35:57.578Z</time>
      </trkpt>
      <trkpt lat="45.612516" lon="10.150610">
        <ele>249.130389</ele>
        <time>2021-01-28T11:36:15.906Z</time>
      </trkpt>
      <trkpt lat="45.612595" lon="10.150572">
        <ele>249.719760</ele>
        <time>2021-01-28T11:36:20.461Z</time>
      </trkpt>
      <trkpt lat="45.612613" lon="10.150564">
        <ele>249.853045</ele>
        <time>2021-01-28T11:36:21.336Z</time>
      </trkpt>
      <trkpt lat="45.612687" lon="10.150541">
        <ele>250.388513</ele>
        <time>2021-01-28T11:36:24.488Z</time>
      </trkpt>
      <trkpt lat="45.612735" lon="10.150536">
        <ele>250.728814</ele>
        <time>2021-01-28T11:36:25.987Z</time>
      </trkpt>
      <trkpt lat="45.612767" lon="10.150533">
        <ele>250.955568</ele>
        <time>2021-01-28T11:36:28.088Z</time>
      </trkpt>
      <trkpt lat="45.613274" lon="10.150654">
        <ele>254.590109</ele>
        <time>2021-01-28T11:36:50.066Z</time>
      </trkpt>
      <trkpt lat="45.613898" lon="10.150448">
        <ele>259.233182</ele>
        <time>2021-01-28T11:37:18.868Z</time>
      </trkpt>
      <trkpt lat="45.613926" lon="10.150444">
        <ele>259.471088</ele>
        <time>2021-01-28T11:37:20.597Z</time>
      </trkpt>
      <trkpt lat="45.614092" lon="10.150469">
        <ele>260.882306</ele>
        <time>2021-01-28T11:37:29.785Z</time>
      </trkpt>
      <trkpt lat="45.615045" lon="10.150652">
        <ele>269.011835</ele>
        <time>2021-01-28T11:38:17.199Z</time>
      </trkpt>
      <trkpt lat="45.615420" lon="10.150618">
        <ele>272.188655</ele>
        <time>2021-01-28T11:38:36.727Z</time>
      </trkpt>
      <trkpt lat="45.615993" lon="10.150566">
        <ele>276.347445</ele>
        <time>2021-01-28T11:39:02.426Z</time>
      </trkpt>
      <trkpt lat="45.616199" lon="10.150546">
        <ele>277.725683</ele>
        <time>2021-01-28T11:39:12.261Z</time>
      </trkpt>
      <trkpt lat="45.616452" lon="10.150599">
        <ele>279.432517</ele>
        <time>2021-01-28T11:39:22.448Z</time>
      </trkpt>
      <trkpt lat="45.616806" lon="10.150880">
        <ele>282.135287</ele>
        <time>2021-01-28T11:39:39.703Z</time>
      </trkpt>
      <trkpt lat="45.617432" lon="10.151231">
        <ele>286.450974</ele>
        <time>2021-01-28T11:40:03.306Z</time>
      </trkpt>
      <trkpt lat="45.617591" lon="10.151270">
        <ele>287.316101</ele>
        <time>2021-01-28T11:40:11.150Z</time>
      </trkpt>
      <trkpt lat="45.617629" lon="10.151278">
        <ele>287.522082</ele>
        <time>2021-01-28T11:40:11.997Z</time>
      </trkpt>
      <trkpt lat="45.618142" lon="10.151449">
        <ele>290.346930</ele>
        <time>2021-01-28T11:40:28.407Z</time>
      </trkpt>
      <trkpt lat="45.618241" lon="10.151482">
        <ele>290.892076</ele>
        <time>2021-01-28T11:40:33.361Z</time>
      </trkpt>
      <trkpt lat="45.618751" lon="10.151978">
        <ele>294.199838</ele>
        <time>2021-01-28T11:40:55.642Z</time>
      </trkpt>
      <trkpt lat="45.618766" lon="10.152029">
        <ele>294.407355</ele>
        <time>2021-01-28T11:40:58.076Z</time>
      </trkpt>
      <trkpt lat="45.618826" lon="10.152019">
        <ele>294.731296</ele>
        <time>2021-01-28T11:41:00.438Z</time>
      </trkpt>
      <trkpt lat="45.618973" lon="10.151992">
        <ele>295.517619</ele>
        <time>2021-01-28T11:41:05.301Z</time>
      </trkpt>
      <trkpt lat="45.619188" lon="10.151989">
        <ele>296.598597</ele>
        <time>2021-01-28T11:41:13.787Z</time>
      </trkpt>
      <trkpt lat="45.619217" lon="10.151989">
        <ele>296.744396</ele>
        <time>2021-01-28T11:41:14.787Z</time>
      </trkpt>
      <trkpt lat="45.619243" lon="10.151989">
        <ele>296.875113</ele>
        <time>2021-01-28T11:41:15.844Z</time>
      </trkpt>
      <trkpt lat="45.619635" lon="10.152048">
        <ele>298.856808</ele>
        <time>2021-01-28T11:41:28.801Z</time>
      </trkpt>
      <trkpt lat="45.619696" lon="10.152052">
        <ele>299.163812</ele>
        <time>2021-01-28T11:41:30.441Z</time>
      </trkpt>
      <trkpt lat="45.619755" lon="10.152050">
        <ele>299.460522</ele>
        <time>2021-01-28T11:41:33.001Z</time>
      </trkpt>
      <trkpt lat="45.620087" lon="10.151796">
        <ele>301.353612</ele>
        <time>2021-01-28T11:41:45.593Z</time>
      </trkpt>
      <trkpt lat="45.620404" lon="10.151656">
        <ele>303.021648</ele>
        <time>2021-01-28T11:41:56.941Z</time>
      </trkpt>
      <trkpt lat="45.620462" lon="10.151632">
        <ele>303.325213</ele>
        <time>2021-01-28T11:41:59.995Z</time>
      </trkpt>
      <trkpt lat="45.620481" lon="10.151616">
        <ele>303.436074</ele>
        <time>2021-01-28T11:42:00.683Z</time>
      </trkpt>
      <trkpt lat="45.620492" lon="10.151578">
        <ele>303.580687</ele>
        <time>2021-01-28T11:42:01.530Z</time>
      </trkpt>
      <trkpt lat="45.620486" lon="10.151535">
        <ele>303.734868</ele>
        <time>2021-01-28T11:42:01.796Z</time>
      </trkpt>
      <trkpt lat="45.620425" lon="10.151467">
        <ele>304.123747</ele>
        <time>2021-01-28T11:42:04.374Z</time>
      </trkpt>
      <trkpt lat="45.620324" lon="10.151484">
        <ele>304.675063</ele>
        <time>2021-01-28T11:42:08.576Z</time>
      </trkpt>
      <trkpt lat="45.619821" lon="10.151693">
        <ele>307.831067</ele>
        <time>2021-01-28T11:42:28.685Z</time>
      </trkpt>
      <trkpt lat="45.619718" lon="10.151665">
        <ele>308.462770</ele>
        <time>2021-01-28T11:42:31.005Z</time>
      </trkpt>
      <trkpt lat="45.619712" lon="10.151610">
        <ele>308.697345</ele>
        <time>2021-01-28T11:42:32.165Z</time>
      </trkpt>
      <trkpt lat="45.619719" lon="10.151603">
        <ele>308.748813</ele>
        <time>2021-01-28T11:42:32.237Z</time>
      </trkpt>
      <trkpt lat="45.619743" lon="10.151572">
        <ele>308.943686</ele>
        <time>2021-01-28T11:42:35.641Z</time>
      </trkpt>
      <trkpt lat="45.620349" lon="10.151215">
        <ele>312.892682</ele>
        <time>2021-01-28T11:43:00.396Z</time>
      </trkpt>
      <trkpt lat="45.620660" lon="10.151208">
        <ele>314.766718</ele>
        <time>2021-01-28T11:43:13.785Z</time>
      </trkpt>
      <trkpt lat="45.621379" lon="10.151038">
        <ele>319.826416</ele>
        <time>2021-01-28T11:43:48.922Z</time>
      </trkpt>
      <trkpt lat="45.622368" lon="10.150965">
        <ele>326.819771</ele>
        <time>2021-01-28T11:44:31.013Z</time>
      </trkpt>
      <trkpt lat="45.622417" lon="10.150906">
        <ele>327.272146</ele>
        <time>2021-01-28T11:44:33.483Z</time>
      </trkpt>
      <trkpt lat="45.622396" lon="10.150845">
        <ele>327.607937</ele>
        <time>2021-01-28T11:44:35.340Z</time>
      </trkpt>
      <trkpt lat="45.622108" lon="10.150875">
        <ele>329.510011</ele>
        <time>2021-01-28T11:44:45.663Z</time>
      </trkpt>
      <trkpt lat="45.620724" lon="10.150573">
        <ele>338.587542</ele>
        <time>2021-01-28T11:45:41.533Z</time>
      </trkpt>
      <trkpt lat="45.620702" lon="10.150532">
        <ele>338.821885</ele>
        <time>2021-01-28T11:45:42.613Z</time>
      </trkpt>
      <trkpt lat="45.620712" lon="10.150475">
        <ele>339.088379</ele>
        <time>2021-01-28T11:45:46.307Z</time>
      </trkpt>
      <trkpt lat="45.621034" lon="10.150406">
        <ele>341.862472</ele>
        <time>2021-01-28T11:45:58.073Z</time>
      </trkpt>
      <trkpt lat="45.622188" lon="10.150432">
        <ele>352.514795</ele>
        <time>2021-01-28T11:46:59.119Z</time>
      </trkpt>
      <trkpt lat="45.622703" lon="10.150242">
        <ele>357.711310</ele>
        <time>2021-01-28T11:47:29.490Z</time>
      </trkpt>
      <trkpt lat="45.622764" lon="10.150208">
        <ele>358.461738</ele>
        <time>2021-01-28T11:47:33.488Z</time>
      </trkpt>
      <trkpt lat="45.622739" lon="10.150103">
        <ele>359.350887</ele>
        <time>2021-01-28T11:47:38.230Z</time>
      </trkpt>
      <trkpt lat="45.622398" lon="10.150228">
        <ele>363.385833</ele>
        <time>2021-01-28T11:47:59.379Z</time>
      </trkpt>
      <trkpt lat="45.622166" lon="10.150250">
        <ele>366.050858</ele>
        <time>2021-01-28T11:48:13.340Z</time>
      </trkpt>
      <trkpt lat="45.622141" lon="10.150184">
        <ele>366.652554</ele>
        <time>2021-01-28T11:48:16.656Z</time>
      </trkpt>
      <trkpt lat="45.622313" lon="10.150035">
        <ele>368.957625</ele>
        <time>2021-01-28T11:48:29.283Z</time>
      </trkpt>
      <trkpt lat="45.622915" lon="10.149816">
        <ele>376.077578</ele>
        <time>2021-01-28T11:49:07.534Z</time>
      </trkpt>
      <trkpt lat="45.622995" lon="10.149642">
        <ele>377.694248</ele>
        <time>2021-01-28T11:49:16.658Z</time>
      </trkpt>
      <trkpt lat="45.622980" lon="10.149219">
        <ele>380.890271</ele>
        <time>2021-01-28T11:49:35.751Z</time>
      </trkpt>
      <trkpt lat="45.623043" lon="10.149026">
        <ele>382.497452</ele>
        <time>2021-01-28T11:49:46.125Z</time>
      </trkpt>
      <trkpt lat="45.623176" lon="10.148959">
        <ele>384.018911</ele>
        <time>2021-01-28T11:49:54.961Z</time>
      </trkpt>
      <trkpt lat="45.623579" lon="10.149263">
        <ele>388.935078</ele>
        <time>2021-01-28T11:50:21.880Z</time>
      </trkpt>
      <trkpt lat="45.623687" lon="10.149280">
        <ele>390.107383</ele>
        <time>2021-01-28T11:50:29.055Z</time>
      </trkpt>
      <trkpt lat="45.623759" lon="10.149229">
        <ele>390.974322</ele>
        <time>2021-01-28T11:50:33.153Z</time>
      </trkpt>
      <trkpt lat="45.623831" lon="10.149048">
        <ele>392.545586</ele>
        <time>2021-01-28T11:50:40.412Z</time>
      </trkpt>
      <trkpt lat="45.623868" lon="10.148984">
        <ele>393.172158</ele>
        <time>2021-01-28T11:50:43.101Z</time>
      </trkpt>
      <trkpt lat="45.623916" lon="10.148901">
        <ele>393.984850</ele>
        <time>2021-01-28T11:50:48.244Z</time>
      </trkpt>
      <trkpt lat="45.624002" lon="10.148807">
        <ele>395.152798</ele>
        <time>2021-01-28T11:50:53.406Z</time>
      </trkpt>
      <trkpt lat="45.624278" lon="10.148768">
        <ele>397.272646</ele>
        <time>2021-01-28T11:51:07.004Z</time>
      </trkpt>
      <trkpt lat="45.624443" lon="10.148784">
        <ele>398.232316</ele>
        <time>2021-01-28T11:51:14.496Z</time>
      </trkpt>
      <trkpt lat="45.624708" lon="10.148750">
        <ele>399.776251</ele>
        <time>2021-01-28T11:51:26.354Z</time>
      </trkpt>
      <trkpt lat="45.624900" lon="10.148802">
        <ele>400.910209</ele>
        <time>2021-01-28T11:51:33.740Z</time>
      </trkpt>
      <trkpt lat="45.625146" lon="10.148978">
        <ele>402.506428</ele>
        <time>2021-01-28T11:51:44.883Z</time>
      </trkpt>
      <trkpt lat="45.625455" lon="10.148972">
        <ele>404.299676</ele>
        <time>2021-01-28T11:51:56.465Z</time>
      </trkpt>
      <trkpt lat="45.625743" lon="10.148801">
        <ele>406.109249</ele>
        <time>2021-01-28T11:52:04.793Z</time>
      </trkpt>
      <trkpt lat="45.625998" lon="10.148789">
        <ele>407.030441</ele>
        <time>2021-01-28T11:52:11.007Z</time>
      </trkpt>
      <trkpt lat="45.626347" lon="10.148877">
        <ele>407.802044</ele>
        <time>2021-01-28T11:52:17.776Z</time>
      </trkpt>
      <trkpt lat="45.626511" lon="10.148949">
        <ele>408.175573</ele>
        <time>2021-01-28T11:52:20.977Z</time>
      </trkpt>
      <trkpt lat="45.626638" lon="10.148983">
        <ele>408.456895</ele>
        <time>2021-01-28T11:52:23.040Z</time>
      </trkpt>
      <trkpt lat="45.627177" lon="10.149052">
        <ele>409.635155</ele>
        <time>2021-01-28T11:52:34.234Z</time>
      </trkpt>
      <trkpt lat="45.628253" lon="10.149313">
        <ele>414.251390</ele>
        <time>2021-01-28T11:53:04.983Z</time>
      </trkpt>
      <trkpt lat="45.628312" lon="10.149298">
        <ele>414.590524</ele>
        <time>2021-01-28T11:53:08.428Z</time>
      </trkpt>
      <trkpt lat="45.628351" lon="10.149254">
        <ele>414.871659</ele>
        <time>2021-01-28T11:53:11.102Z</time>
      </trkpt>
      <trkpt lat="45.628334" lon="10.149156">
        <ele>415.271259</ele>
        <time>2021-01-28T11:53:13.049Z</time>
      </trkpt>
      <trkpt lat="45.628049" lon="10.149067">
        <ele>416.922171</ele>
        <time>2021-01-28T11:53:24.669Z</time>
      </trkpt>
      <trkpt lat="45.627861" lon="10.148930">
        <ele>418.116307</ele>
        <time>2021-01-28T11:53:30.909Z</time>
      </trkpt>
      <trkpt lat="45.627807" lon="10.148885">
        <ele>418.470016</ele>
        <time>2021-01-28T11:53:33.794Z</time>
      </trkpt>
      <trkpt lat="45.627769" lon="10.148854">
        <ele>418.717604</ele>
        <time>2021-01-28T11:53:37.230Z</time>
      </trkpt>
      <trkpt lat="45.627454" lon="10.148792">
        <ele>420.517091</ele>
        <time>2021-01-28T11:53:50.001Z</time>
      </trkpt>
      <trkpt lat="45.627392" lon="10.148728">
        <ele>421.034605</ele>
        <time>2021-01-28T11:53:55.546Z</time>
      </trkpt>
      <trkpt lat="45.627499" lon="10.148632">
        <ele>422.128075</ele>
        <time>2021-01-28T11:54:00.645Z</time>
      </trkpt>
      <trkpt lat="45.627711" lon="10.148590">
        <ele>423.980788</ele>
        <time>2021-01-28T11:54:12.410Z</time>
      </trkpt>
      <trkpt lat="45.628429" lon="10.148728">
        <ele>430.252067</ele>
        <time>2021-01-28T11:54:49.792Z</time>
      </trkpt>
      <trkpt lat="45.628851" lon="10.148878">
        <ele>434.016285</ele>
        <time>2021-01-28T11:55:10.773Z</time>
      </trkpt>
      <trkpt lat="45.629116" lon="10.148861">
        <ele>436.312572</ele>
        <time>2021-01-28T11:55:23.653Z</time>
      </trkpt>
      <trkpt lat="45.630284" lon="10.149080">
        <ele>447.586369</ele>
        <time>2021-01-28T11:56:21.295Z</time>
      </trkpt>
      <trkpt lat="45.630727" lon="10.149324">
        <ele>452.131633</ele>
        <time>2021-01-28T11:56:49.304Z</time>
      </trkpt>
      <trkpt lat="45.631022" lon="10.149619">
        <ele>456.663063</ele>
        <time>2021-01-28T11:57:11.358Z</time>
      </trkpt>
      <trkpt lat="45.631236" lon="10.149785">
        <ele>460.260215</ele>
        <time>2021-01-28T11:57:25.815Z</time>
      </trkpt>
      <trkpt lat="45.631262" lon="10.149814">
        <ele>460.747408</ele>
        <time>2021-01-28T11:57:29.394Z</time>
      </trkpt>
      <trkpt lat="45.631568" lon="10.149939">
        <ele>465.449526</ele>
        <time>2021-01-28T11:57:49.995Z</time>
      </trkpt>
      <trkpt lat="45.631949" lon="10.149958">
        <ele>471.082379</ele>
        <time>2021-01-28T11:58:19.351Z</time>
      </trkpt>
      <trkpt lat="45.632165" lon="10.149917">
        <ele>474.301857</ele>
        <time>2021-01-28T11:58:37.203Z</time>
      </trkpt>
      <trkpt lat="45.632388" lon="10.149762">
        <ele>477.965337</ele>
        <time>2021-01-28T11:59:01.748Z</time>
      </trkpt>
      <trkpt lat="45.632764" lon="10.149400">
        <ele>484.968733</ele>
        <time>2021-01-28T11:59:39.337Z</time>
      </trkpt>
      <trkpt lat="45.633094" lon="10.148549">
        <ele>495.705725</ele>
        <time>2021-01-28T12:00:31.757Z</time>
      </trkpt>
      <trkpt lat="45.633224" lon="10.148350">
        <ele>498.710576</ele>
        <time>2021-01-28T12:00:39.629Z</time>
      </trkpt>
      <trkpt lat="45.633242" lon="10.148310">
        <ele>499.235422</ele>
        <time>2021-01-28T12:00:44.249Z</time>
      </trkpt>
      <trkpt lat="45.633241" lon="10.148243">
        <ele>499.974851</ele>
        <time>2021-01-28T12:00:45.608Z</time>
      </trkpt>
      <trkpt lat="45.633212" lon="10.148164">
        <ele>500.959333</ele>
        <time>2021-01-28T12:00:49.331Z</time>
      </trkpt>
      <trkpt lat="45.633153" lon="10.148186">
        <ele>501.921446</ele>
        <time>2021-01-28T12:00:52.747Z</time>
      </trkpt>
      <trkpt lat="45.632649" lon="10.149089">
        <ele>513.976433</ele>
        <time>2021-01-28T12:01:51.998Z</time>
      </trkpt>
      <trkpt lat="45.632589" lon="10.149106">
        <ele>514.832463</ele>
        <time>2021-01-28T12:01:52.561Z</time>
      </trkpt>
      <trkpt lat="45.632547" lon="10.149080">
        <ele>515.472965</ele>
        <time>2021-01-28T12:01:58.466Z</time>
      </trkpt>
      <trkpt lat="45.632540" lon="10.148977">
        <ele>516.485694</ele>
        <time>2021-01-28T12:02:00.645Z</time>
      </trkpt>
      <trkpt lat="45.632953" lon="10.148235">
        <ele>525.766602</ele>
        <time>2021-01-28T12:02:45.244Z</time>
      </trkpt>
      <trkpt lat="45.633166" lon="10.147694">
        <ele>531.842422</ele>
        <time>2021-01-28T12:03:13.881Z</time>
      </trkpt>
      <trkpt lat="45.633183" lon="10.147389">
        <ele>534.450053</ele>
        <time>2021-01-28T12:03:23.016Z</time>
      </trkpt>
      <trkpt lat="45.633135" lon="10.147340">
        <ele>534.992064</ele>
        <time>2021-01-28T12:03:29.573Z</time>
      </trkpt>
      <trkpt lat="45.633092" lon="10.147454">
        <ele>535.824483</ele>
        <time>2021-01-28T12:03:36.074Z</time>
      </trkpt>
      <trkpt lat="45.633095" lon="10.147706">
        <ele>537.444208</ele>
        <time>2021-01-28T12:03:46.928Z</time>
      </trkpt>
      <trkpt lat="45.633045" lon="10.147817">
        <ele>538.292756</ele>
        <time>2021-01-28T12:03:52.911Z</time>
      </trkpt>
      <trkpt lat="45.632964" lon="10.147767">
        <ele>539.103584</ele>
        <time>2021-01-28T12:03:58.582Z</time>
      </trkpt>
      <trkpt lat="45.633095" lon="10.146987">
        <ele>544.258858</ele>
        <time>2021-01-28T12:04:28.538Z</time>
      </trkpt>
      <trkpt lat="45.633094" lon="10.146578">
        <ele>546.887332</ele>
        <time>2021-01-28T12:04:41.386Z</time>
      </trkpt>
      <trkpt lat="45.633151" lon="10.146274">
        <ele>548.910018</ele>
        <time>2021-01-28T12:04:50.374Z</time>
      </trkpt>
      <trkpt lat="45.633374" lon="10.145616">
        <ele>551.117256</ele>
        <time>2021-01-28T12:05:04.668Z</time>
      </trkpt>
      <trkpt lat="45.633294" lon="10.144998">
        <ele>552.167891</ele>
        <time>2021-01-28T12:05:14.359Z</time>
      </trkpt>
      <trkpt lat="45.633398" lon="10.144708">
        <ele>552.712708</ele>
        <time>2021-01-28T12:05:18.623Z</time>
      </trkpt>
      <trkpt lat="45.633466" lon="10.144268">
        <ele>553.465984</ele>
        <time>2021-01-28T12:05:24.670Z</time>
      </trkpt>
      <trkpt lat="45.633607" lon="10.143970">
        <ele>554.067464</ele>
        <time>2021-01-28T12:05:29.470Z</time>
      </trkpt>
      <trkpt lat="45.633763" lon="10.143910">
        <ele>554.453656</ele>
        <time>2021-01-28T12:05:32.223Z</time>
      </trkpt>
      <trkpt lat="45.633820" lon="10.143928">
        <ele>554.702655</ele>
        <time>2021-01-28T12:05:33.219Z</time>
      </trkpt>
      <trkpt lat="45.634118" lon="10.144073">
        <ele>557.035855</ele>
        <time>2021-01-28T12:05:40.613Z</time>
      </trkpt>
      <trkpt lat="45.634587" lon="10.144543">
        <ele>561.280727</ele>
        <time>2021-01-28T12:06:03.380Z</time>
      </trkpt>
      <trkpt lat="45.635388" lon="10.144392">
        <ele>567.269302</ele>
        <time>2021-01-28T12:06:48.676Z</time>
      </trkpt>
      <trkpt lat="45.635568" lon="10.144349">
        <ele>568.985487</ele>
        <time>2021-01-28T12:07:01.285Z</time>
      </trkpt>
      <trkpt lat="45.635734" lon="10.144308">
        <ele>570.840202</ele>
        <time>2021-01-28T12:07:11.202Z</time>
      </trkpt>
      <trkpt lat="45.635959" lon="10.144419">
        <ele>573.460693</ele>
        <time>2021-01-28T12:07:26.872Z</time>
      </trkpt>
      <trkpt lat="45.636109" lon="10.144613">
        <ele>575.687334</ele>
        <time>2021-01-28T12:07:37.740Z</time>
      </trkpt>
      <trkpt lat="45.636184" lon="10.144712">
        <ele>576.811039</ele>
        <time>2021-01-28T12:07:45.906Z</time>
      </trkpt>
      <trkpt lat="45.636249" lon="10.144801">
        <ele>577.801790</ele>
        <time>2021-01-28T12:07:51.573Z</time>
      </trkpt>
      <trkpt lat="45.636502" lon="10.145123">
        <ele>581.530582</ele>
        <time>2021-01-28T12:08:12.326Z</time>
      </trkpt>
      <trkpt lat="45.636677" lon="10.145187">
        <ele>583.519327</ele>
        <time>2021-01-28T12:08:21.849Z</time>
      </trkpt>
      <trkpt lat="45.636786" lon="10.145203">
        <ele>584.725722</ele>
        <time>2021-01-28T12:08:30.251Z</time>
      </trkpt>
      <trkpt lat="45.636976" lon="10.145312">
        <ele>586.979640</ele>
        <time>2021-01-28T12:08:41.478Z</time>
      </trkpt>
      <trkpt lat="45.637216" lon="10.145668">
        <ele>589.311117</ele>
        <time>2021-01-28T12:08:57.507Z</time>
      </trkpt>
      <trkpt lat="45.637615" lon="10.145895">
        <ele>591.796207</ele>
        <time>2021-01-28T12:09:16.251Z</time>
      </trkpt>
      <trkpt lat="45.637697" lon="10.146079">
        <ele>592.679120</ele>
        <time>2021-01-28T12:09:20.906Z</time>
      </trkpt>
      <trkpt lat="45.637734" lon="10.146524">
        <ele>594.492451</ele>
        <time>2021-01-28T12:09:31.671Z</time>
      </trkpt>
      <trkpt lat="45.637679" lon="10.148120">
        <ele>599.803770</ele>
        <time>2021-01-28T12:10:04.800Z</time>
      </trkpt>
      <trkpt lat="45.637697" lon="10.148929">
        <ele>601.762771</ele>
        <time>2021-01-28T12:10:18.402Z</time>
      </trkpt>
      <trkpt lat="45.637743" lon="10.149097">
        <ele>602.199445</ele>
        <time>2021-01-28T12:10:23.004Z</time>
      </trkpt>
      <trkpt lat="45.637756" lon="10.149148">
        <ele>602.330826</ele>
        <time>2021-01-28T12:10:23.357Z</time>
      </trkpt>
      <trkpt lat="45.638139" lon="10.149431">
        <ele>603.823074</ele>
        <time>2021-01-28T12:10:34.646Z</time>
      </trkpt>
      <trkpt lat="45.638374" lon="10.149587">
        <ele>605.076229</ele>
        <time>2021-01-28T12:10:43.406Z</time>
      </trkpt>
      <trkpt lat="45.638587" lon="10.149761">
        <ele>606.666048</ele>
        <time>2021-01-28T12:10:51.936Z</time>
      </trkpt>
      <trkpt lat="45.638626" lon="10.149793">
        <ele>606.957459</ele>
        <time>2021-01-28T12:10:55.733Z</time>
      </trkpt>
      <trkpt lat="45.639049" lon="10.150176">
        <ele>610.202219</ele>
        <time>2021-01-28T12:11:16.933Z</time>
      </trkpt>
      <trkpt lat="45.639160" lon="10.150353">
        <ele>611.279669</ele>
        <time>2021-01-28T12:11:23.299Z</time>
      </trkpt>
      <trkpt lat="45.639177" lon="10.150378">
        <ele>611.437701</ele>
        <time>2021-01-28T12:11:25.344Z</time>
      </trkpt>
      <trkpt lat="45.639568" lon="10.150977">
        <ele>615.151170</ele>
        <time>2021-01-28T12:11:49.317Z</time>
      </trkpt>
      <trkpt lat="45.639655" lon="10.151064">
        <ele>615.839191</ele>
        <time>2021-01-28T12:11:54.051Z</time>
      </trkpt>
      <trkpt lat="45.639766" lon="10.151143">
        <ele>616.330409</ele>
        <time>2021-01-28T12:12:01.754Z</time>
      </trkpt>
      <trkpt lat="45.639988" lon="10.151367">
        <ele>617.275101</ele>
        <time>2021-01-28T12:12:12.121Z</time>
      </trkpt>
      <trkpt lat="45.640190" lon="10.151986">
        <ele>618.935812</ele>
        <time>2021-01-28T12:12:31.164Z</time>
      </trkpt>
      <trkpt lat="45.640387" lon="10.152239">
        <ele>619.856434</ele>
        <time>2021-01-28T12:12:39.478Z</time>
      </trkpt>
      <trkpt lat="45.640533" lon="10.152615">
        <ele>620.902042</ele>
        <time>2021-01-28T12:12:46.188Z</time>
      </trkpt>
      <trkpt lat="45.640719" lon="10.152595">
        <ele>621.550623</ele>
        <time>2021-01-28T12:12:49.688Z</time>
      </trkpt>
      <trkpt lat="45.640770" lon="10.152330">
        <ele>622.218824</ele>
        <time>2021-01-28T12:12:51.585Z</time>
      </trkpt>
      <trkpt lat="45.640730" lon="10.151299">
        <ele>622.850146</ele>
        <time>2021-01-28T12:12:58.916Z</time>
      </trkpt>
      <trkpt lat="45.640633" lon="10.150870">
        <ele>623.124419</ele>
        <time>2021-01-28T12:13:03.911Z</time>
      </trkpt>
      <trkpt lat="45.640505" lon="10.150564">
        <ele>623.341334</ele>
        <time>2021-01-28T12:13:08.226Z</time>
      </trkpt>
      <trkpt lat="45.640500" lon="10.150435">
        <ele>623.419926</ele>
        <time>2021-01-28T12:13:11.154Z</time>
      </trkpt>
      <trkpt lat="45.640554" lon="10.150340">
        <ele>623.494405</ele>
        <time>2021-01-28T12:13:13.648Z</time>
      </trkpt>
      <trkpt lat="45.640708" lon="10.150371">
        <ele>623.629715</ele>
        <time>2021-01-28T12:13:16.293Z</time>
      </trkpt>
      <trkpt lat="45.640774" lon="10.150385">
        <ele>623.687768</ele>
        <time>2021-01-28T12:13:19.507Z</time>
      </trkpt>
      <trkpt lat="45.640902" lon="10.150408">
        <ele>623.887313</ele>
        <time>2021-01-28T12:13:24.139Z</time>
      </trkpt>
      <trkpt lat="45.641458" lon="10.150528">
        <ele>627.936315</ele>
        <time>2021-01-28T12:13:51.057Z</time>
      </trkpt>
      <trkpt lat="45.642472" lon="10.150767">
        <ele>635.336461</ele>
        <time>2021-01-28T12:14:42.778Z</time>
      </trkpt>
      <trkpt lat="45.642558" lon="10.150811">
        <ele>635.994160</ele>
        <time>2021-01-28T12:14:47.390Z</time>
      </trkpt>
      <trkpt lat="45.642645" lon="10.150886">
        <ele>636.725621</ele>
        <time>2021-01-28T12:14:51.524Z</time>
      </trkpt>
      <trkpt lat="45.642995" lon="10.151107">
        <ele>637.493585</ele>
        <time>2021-01-28T12:15:02.700Z</time>
      </trkpt>
      <trkpt lat="45.643018" lon="10.151086">
        <ele>637.547624</ele>
        <time>2021-01-28T12:15:04.633Z</time>
      </trkpt>
      <trkpt lat="45.643026" lon="10.151042">
        <ele>637.610572</ele>
        <time>2021-01-28T12:15:04.904Z</time>
      </trkpt>
      <trkpt lat="45.643005" lon="10.150883">
        <ele>637.834615</ele>
        <time>2021-01-28T12:15:06.842Z</time>
      </trkpt>
      <trkpt lat="45.642974" lon="10.150817">
        <ele>637.944705</ele>
        <time>2021-01-28T12:15:07.866Z</time>
      </trkpt>
      <trkpt lat="45.642819" lon="10.150511">
        <ele>638.467904</ele>
        <time>2021-01-28T12:15:13.815Z</time>
      </trkpt>
      <trkpt lat="45.642730" lon="10.150345">
        <ele>638.757550</ele>
        <time>2021-01-28T12:15:16.676Z</time>
      </trkpt>
      <trkpt lat="45.642678" lon="10.150235">
        <ele>638.941404</ele>
        <time>2021-01-28T12:15:19.114Z</time>
      </trkpt>
      <trkpt lat="45.642530" lon="10.149984">
        <ele>639.396035</ele>
        <time>2021-01-28T12:15:23.648Z</time>
      </trkpt>
      <trkpt lat="45.642454" lon="10.149745">
        <ele>639.759575</ele>
        <time>2021-01-28T12:15:27.278Z</time>
      </trkpt>
      <trkpt lat="45.642441" lon="10.149299">
        <ele>640.347568</ele>
        <time>2021-01-28T12:15:30.693Z</time>
      </trkpt>
      <trkpt lat="45.642474" lon="10.148879">
        <ele>640.700402</ele>
        <time>2021-01-28T12:15:33.770Z</time>
      </trkpt>
      <trkpt lat="45.642448" lon="10.148812">
        <ele>640.764374</ele>
        <time>2021-01-28T12:15:34.400Z</time>
      </trkpt>
      <trkpt lat="45.642424" lon="10.148653">
        <ele>640.900169</ele>
        <time>2021-01-28T12:15:37.756Z</time>
      </trkpt>
      <trkpt lat="45.642450" lon="10.148525">
        <ele>641.011445</ele>
        <time>2021-01-28T12:15:38.953Z</time>
      </trkpt>
      <trkpt lat="45.642633" lon="10.148286">
        <ele>641.307349</ele>
        <time>2021-01-28T12:15:46.617Z</time>
      </trkpt>
      <trkpt lat="45.642984" lon="10.147950">
        <ele>641.811674</ele>
        <time>2021-01-28T12:15:55.887Z</time>
      </trkpt>
      <trkpt lat="45.643202" lon="10.147861">
        <ele>642.082380</ele>
        <time>2021-01-28T12:16:03.218Z</time>
      </trkpt>
      <trkpt lat="45.643693" lon="10.147896">
        <ele>642.033540</ele>
        <time>2021-01-28T12:16:12.942Z</time>
      </trkpt>
      <trkpt lat="45.643975" lon="10.147945">
        <ele>641.391315</ele>
        <time>2021-01-28T12:16:19.985Z</time>
      </trkpt>
      <trkpt lat="45.644010" lon="10.147916">
        <ele>641.299870</ele>
        <time>2021-01-28T12:16:20.318Z</time>
      </trkpt>
      <trkpt lat="45.643957" lon="10.147342">
        <ele>640.384761</ele>
        <time>2021-01-28T12:16:24.774Z</time>
      </trkpt>
      <trkpt lat="45.644006" lon="10.147189">
        <ele>640.118772</ele>
        <time>2021-01-28T12:16:26.285Z</time>
      </trkpt>
      <trkpt lat="45.644042" lon="10.147075">
        <ele>639.921062</ele>
        <time>2021-01-28T12:16:27.417Z</time>
      </trkpt>
      <trkpt lat="45.644135" lon="10.146952">
        <ele>639.634706</ele>
        <time>2021-01-28T12:16:28.537Z</time>
      </trkpt>
      <trkpt lat="45.644146" lon="10.146820">
        <ele>639.424598</ele>
        <time>2021-01-28T12:16:29.499Z</time>
      </trkpt>
      <trkpt lat="45.643968" lon="10.146591">
        <ele>638.883356</ele>
        <time>2021-01-28T12:16:31.762Z</time>
      </trkpt>
      <trkpt lat="45.643874" lon="10.146297">
        <ele>638.372431</ele>
        <time>2021-01-28T12:16:33.937Z</time>
      </trkpt>
      <trkpt lat="45.643622" lon="10.146227">
        <ele>637.794415</ele>
        <time>2021-01-28T12:16:36.198Z</time>
      </trkpt>
      <trkpt lat="45.642847" lon="10.145560">
        <ele>635.757853</ele>
        <time>2021-01-28T12:16:45.603Z</time>
      </trkpt>
      <trkpt lat="45.642474" lon="10.144904">
        <ele>634.426767</ele>
        <time>2021-01-28T12:16:53.436Z</time>
      </trkpt>
      <trkpt lat="45.642456" lon="10.144820">
        <ele>634.360628</ele>
        <time>2021-01-28T12:16:54.469Z</time>
      </trkpt>
      <trkpt lat="45.642482" lon="10.144734">
        <ele>634.450052</ele>
        <time>2021-01-28T12:16:57.351Z</time>
      </trkpt>
      <trkpt lat="45.642982" lon="10.144181">
        <ele>635.312860</ele>
        <time>2021-01-28T12:17:11.434Z</time>
      </trkpt>
      <trkpt lat="45.644182" lon="10.143409">
        <ele>636.638107</ele>
        <time>2021-01-28T12:17:41.101Z</time>
      </trkpt>
      <trkpt lat="45.644279" lon="10.142834">
        <ele>636.372622</ele>
        <time>2021-01-28T12:17:45.524Z</time>
      </trkpt>
      <trkpt lat="45.644415" lon="10.142441">
        <ele>636.175805</ele>
        <time>2021-01-28T12:17:48.363Z</time>
      </trkpt>
      <trkpt lat="45.644845" lon="10.142277">
        <ele>635.890100</ele>
        <time>2021-01-28T12:17:53.003Z</time>
      </trkpt>
      <trkpt lat="45.644889" lon="10.142194">
        <ele>635.843348</ele>
        <time>2021-01-28T12:17:55.382Z</time>
      </trkpt>
      <trkpt lat="45.644899" lon="10.142027">
        <ele>635.768120</ele>
        <time>2021-01-28T12:17:58.667Z</time>
      </trkpt>
      <trkpt lat="45.644818" lon="10.141556">
        <ele>636.476597</ele>
        <time>2021-01-28T12:18:07.438Z</time>
      </trkpt>
      <trkpt lat="45.644835" lon="10.141351">
        <ele>637.410480</ele>
        <time>2021-01-28T12:18:09.811Z</time>
      </trkpt>
      <trkpt lat="45.645004" lon="10.140926">
        <ele>639.622349</ele>
        <time>2021-01-28T12:18:21.057Z</time>
      </trkpt>
      <trkpt lat="45.645109" lon="10.140738">
        <ele>640.710901</ele>
        <time>2021-01-28T12:18:28.790Z</time>
      </trkpt>
      <trkpt lat="45.645310" lon="10.140556">
        <ele>642.250234</ele>
        <time>2021-01-28T12:18:37.252Z</time>
      </trkpt>
      <trkpt lat="45.645471" lon="10.140496">
        <ele>643.326821</ele>
        <time>2021-01-28T12:18:47.058Z</time>
      </trkpt>
      <trkpt lat="45.645827" lon="10.140471">
        <ele>645.633225</ele>
        <time>2021-01-28T12:19:04.514Z</time>
      </trkpt>
      <trkpt lat="45.646529" lon="10.140944">
        <ele>649.719350</ele>
        <time>2021-01-28T12:19:48.394Z</time>
      </trkpt>
      <trkpt lat="45.647027" lon="10.141141">
        <ele>652.138227</ele>
        <time>2021-01-28T12:20:12.062Z</time>
      </trkpt>
      <trkpt lat="45.647567" lon="10.141089">
        <ele>654.671944</ele>
        <time>2021-01-28T12:20:22.084Z</time>
      </trkpt>
      <trkpt lat="45.648305" lon="10.140901">
        <ele>652.537789</ele>
        <time>2021-01-28T12:20:29.657Z</time>
      </trkpt>
      <trkpt lat="45.649085" lon="10.140669">
        <ele>647.808052</ele>
        <time>2021-01-28T12:20:36.822Z</time>
      </trkpt>
      <trkpt lat="45.649491" lon="10.140469">
        <ele>645.258804</ele>
        <time>2021-01-28T12:20:40.589Z</time>
      </trkpt>
      <trkpt lat="45.649865" lon="10.140411">
        <ele>641.958576</ele>
        <time>2021-01-28T12:20:43.881Z</time>
      </trkpt>
      <trkpt lat="45.650757" lon="10.140411">
        <ele>633.823197</ele>
        <time>2021-01-28T12:20:51.612Z</time>
      </trkpt>
      <trkpt lat="45.651464" lon="10.140483">
        <ele>627.567185</ele>
        <time>2021-01-28T12:20:57.725Z</time>
      </trkpt>
      <trkpt lat="45.652317" lon="10.140559">
        <ele>621.070136</ele>
        <time>2021-01-28T12:21:05.254Z</time>
      </trkpt>
      <trkpt lat="45.652475" lon="10.140576">
        <ele>619.865632</ele>
        <time>2021-01-28T12:21:06.655Z</time>
      </trkpt>
      <trkpt lat="45.652586" lon="10.140659">
        <ele>618.913500</ele>
        <time>2021-01-28T12:21:07.803Z</time>
      </trkpt>
      <trkpt lat="45.652683" lon="10.140832">
        <ele>617.735007</ele>
        <time>2021-01-28T12:21:09.207Z</time>
      </trkpt>
      <trkpt lat="45.652907" lon="10.142232">
        <ele>611.501312</ele>
        <time>2021-01-28T12:21:18.482Z</time>
      </trkpt>
      <trkpt lat="45.653007" lon="10.142632">
        <ele>609.896781</ele>
        <time>2021-01-28T12:21:21.377Z</time>
      </trkpt>
      <trkpt lat="45.653281" lon="10.143277">
        <ele>607.045999</ele>
        <time>2021-01-28T12:21:26.439Z</time>
      </trkpt>
      <trkpt lat="45.653368" lon="10.143303">
        <ele>606.565752</ele>
        <time>2021-01-28T12:21:27.277Z</time>
      </trkpt>
      <trkpt lat="45.653480" lon="10.143069">
        <ele>605.494592</ele>
        <time>2021-01-28T12:21:29.075Z</time>
      </trkpt>
      <trkpt lat="45.653654" lon="10.141968">
        <ele>600.549563</ele>
        <time>2021-01-28T12:21:36.272Z</time>
      </trkpt>
      <trkpt lat="45.653898" lon="10.141506">
        <ele>597.988654</ele>
        <time>2021-01-28T12:21:39.902Z</time>
      </trkpt>
      <trkpt lat="45.653966" lon="10.141068">
        <ele>596.004348</ele>
        <time>2021-01-28T12:21:42.682Z</time>
      </trkpt>
      <trkpt lat="45.654035" lon="10.140587">
        <ele>593.834030</ele>
        <time>2021-01-28T12:21:45.921Z</time>
      </trkpt>
      <trkpt lat="45.654102" lon="10.140236">
        <ele>592.601931</ele>
        <time>2021-01-28T12:21:48.350Z</time>
      </trkpt>
      <trkpt lat="45.654036" lon="10.139720">
        <ele>590.825608</ele>
        <time>2021-01-28T12:21:51.817Z</time>
      </trkpt>
      <trkpt lat="45.654025" lon="10.139309">
        <ele>589.432835</ele>
        <time>2021-01-28T12:21:54.623Z</time>
      </trkpt>
      <trkpt lat="45.653997" lon="10.139153">
        <ele>588.887440</ele>
        <time>2021-01-28T12:21:55.674Z</time>
      </trkpt>
      <trkpt lat="45.654056" lon="10.139112">
        <ele>588.569679</ele>
        <time>2021-01-28T12:21:56.352Z</time>
      </trkpt>
      <trkpt lat="45.654106" lon="10.139103">
        <ele>588.325544</ele>
        <time>2021-01-28T12:21:56.848Z</time>
      </trkpt>
      <trkpt lat="45.654157" lon="10.139091">
        <ele>588.075154</ele>
        <time>2021-01-28T12:21:57.409Z</time>
      </trkpt>
      <trkpt lat="45.654197" lon="10.139081">
        <ele>587.878438</ele>
        <time>2021-01-28T12:21:57.823Z</time>
      </trkpt>
      <trkpt lat="45.654260" lon="10.139205">
        <ele>587.359341</ele>
        <time>2021-01-28T12:21:58.893Z</time>
      </trkpt>
      <trkpt lat="45.654335" lon="10.139400">
        <ele>586.605661</ele>
        <time>2021-01-28T12:22:00.424Z</time>
      </trkpt>
      <trkpt lat="45.654478" lon="10.139546">
        <ele>585.754576</ele>
        <time>2021-01-28T12:22:02.230Z</time>
      </trkpt>
      <trkpt lat="45.654571" lon="10.139505">
        <ele>585.283130</ele>
        <time>2021-01-28T12:22:03.117Z</time>
      </trkpt>
      <trkpt lat="45.655329" lon="10.137969">
        <ele>574.998430</ele>
        <time>2021-01-28T12:22:14.955Z</time>
      </trkpt>
      <trkpt lat="45.655547" lon="10.137394">
        <ele>571.385613</ele>
        <time>2021-01-28T12:22:18.864Z</time>
      </trkpt>
      <trkpt lat="45.655575" lon="10.137223">
        <ele>570.334730</ele>
        <time>2021-01-28T12:22:19.904Z</time>
      </trkpt>
      <trkpt lat="45.655722" lon="10.136751">
        <ele>567.016266</ele>
        <time>2021-01-28T12:22:22.986Z</time>
      </trkpt>
      <trkpt lat="45.655938" lon="10.136359">
        <ele>563.810664</ele>
        <time>2021-01-28T12:22:25.970Z</time>
      </trkpt>
      <trkpt lat="45.656142" lon="10.135971">
        <ele>560.692700</ele>
        <time>2021-01-28T12:22:28.907Z</time>
      </trkpt>
      <trkpt lat="45.656237" lon="10.135741">
        <ele>558.977032</ele>
        <time>2021-01-28T12:22:30.558Z</time>
      </trkpt>
      <trkpt lat="45.656474" lon="10.135111">
        <ele>554.383642</ele>
        <time>2021-01-28T12:22:35.103Z</time>
      </trkpt>
      <trkpt lat="45.656540" lon="10.134979">
        <ele>553.618298</ele>
        <time>2021-01-28T12:22:36.143Z</time>
      </trkpt>
      <trkpt lat="45.656624" lon="10.134929">
        <ele>553.004479</ele>
        <time>2021-01-28T12:22:36.947Z</time>
      </trkpt>
      <trkpt lat="45.656725" lon="10.134917">
        <ele>552.320711</ele>
        <time>2021-01-28T12:22:37.840Z</time>
      </trkpt>
      <trkpt lat="45.656993" lon="10.134943">
        <ele>550.508428</ele>
        <time>2021-01-28T12:22:40.251Z</time>
      </trkpt>
      <trkpt lat="45.657221" lon="10.134856">
        <ele>548.916398</ele>
        <time>2021-01-28T12:22:42.361Z</time>
      </trkpt>
      <trkpt lat="45.657311" lon="10.134725">
        <ele>548.050191</ele>
        <time>2021-01-28T12:22:43.488Z</time>
      </trkpt>
      <trkpt lat="45.657382" lon="10.134513">
        <ele>546.941639</ele>
        <time>2021-01-28T12:22:45.003Z</time>
      </trkpt>
      <trkpt lat="45.657401" lon="10.134410">
        <ele>546.439299</ele>
        <time>2021-01-28T12:22:45.680Z</time>
      </trkpt>
      <trkpt lat="45.657471" lon="10.134040">
        <ele>544.631731</ele>
        <time>2021-01-28T12:22:48.147Z</time>
      </trkpt>
      <trkpt lat="45.657610" lon="10.133230">
        <ele>540.580753</ele>
        <time>2021-01-28T12:22:53.577Z</time>
      </trkpt>
      <trkpt lat="45.657728" lon="10.132341">
        <ele>535.989787</ele>
        <time>2021-01-28T12:22:59.220Z</time>
      </trkpt>
      <trkpt lat="45.657823" lon="10.131903">
        <ele>533.663054</ele>
        <time>2021-01-28T12:23:02.028Z</time>
      </trkpt>
      <trkpt lat="45.657908" lon="10.131711">
        <ele>532.509979</ele>
        <time>2021-01-28T12:23:03.433Z</time>
      </trkpt>
      <trkpt lat="45.657946" lon="10.131243">
        <ele>530.119616</ele>
        <time>2021-01-28T12:23:06.365Z</time>
      </trkpt>
      <trkpt lat="45.657967" lon="10.130501">
        <ele>526.797810</ele>
        <time>2021-01-28T12:23:11.059Z</time>
      </trkpt>
      <trkpt lat="45.658029" lon="10.129839">
        <ele>523.940358</ele>
        <time>2021-01-28T12:23:15.388Z</time>
      </trkpt>
      <trkpt lat="45.658089" lon="10.129628">
        <ele>522.965819</ele>
        <time>2021-01-28T12:23:16.872Z</time>
      </trkpt>
      <trkpt lat="45.658077" lon="10.129472">
        <ele>522.294398</ele>
        <time>2021-01-28T12:23:17.877Z</time>
      </trkpt>
      <trkpt lat="45.658003" lon="10.129431">
        <ele>521.808672</ele>
        <time>2021-01-28T12:23:18.601Z</time>
      </trkpt>
      <trkpt lat="45.657202" lon="10.130258">
        <ele>516.770107</ele>
        <time>2021-01-28T12:23:27.712Z</time>
      </trkpt>
      <trkpt lat="45.657117" lon="10.130262">
        <ele>516.465929</ele>
        <time>2021-01-28T12:23:28.505Z</time>
      </trkpt>
      <trkpt lat="45.657086" lon="10.130175">
        <ele>516.221808</ele>
        <time>2021-01-28T12:23:29.145Z</time>
      </trkpt>
      <trkpt lat="45.657449" lon="10.129129">
        <ele>513.302364</ele>
        <time>2021-01-28T12:23:37.260Z</time>
      </trkpt>
      <trkpt lat="45.657653" lon="10.128339">
        <ele>511.838870</ele>
        <time>2021-01-28T12:23:44.207Z</time>
      </trkpt>
      <trkpt lat="45.657763" lon="10.128050">
        <ele>511.965173</ele>
        <time>2021-01-28T12:23:46.926Z</time>
      </trkpt>
      <trkpt lat="45.657880" lon="10.127983">
        <ele>512.034376</ele>
        <time>2021-01-28T12:23:49.835Z</time>
      </trkpt>
      <trkpt lat="45.658240" lon="10.128095">
        <ele>512.236683</ele>
        <time>2021-01-28T12:23:56.072Z</time>
      </trkpt>
      <trkpt lat="45.658840" lon="10.128026">
        <ele>512.567223</ele>
        <time>2021-01-28T12:24:07.454Z</time>
      </trkpt>
      <trkpt lat="45.659302" lon="10.128043">
        <ele>512.807526</ele>
        <time>2021-01-28T12:24:18.736Z</time>
      </trkpt>
      <trkpt lat="45.660322" lon="10.127511">
        <ele>513.303089</ele>
        <time>2021-01-28T12:24:41.009Z</time>
      </trkpt>
      <trkpt lat="45.660634" lon="10.127465">
        <ele>513.446260</ele>
        <time>2021-01-28T12:24:45.265Z</time>
      </trkpt>
      <trkpt lat="45.660862" lon="10.127572">
        <ele>513.555789</ele>
        <time>2021-01-28T12:24:47.928Z</time>
      </trkpt>
      <trkpt lat="45.660986" lon="10.127730">
        <ele>512.883509</ele>
        <time>2021-01-28T12:24:49.677Z</time>
      </trkpt>
      <trkpt lat="45.661123" lon="10.128104">
        <ele>511.566957</ele>
        <time>2021-01-28T12:24:52.716Z</time>
      </trkpt>
      <trkpt lat="45.661408" lon="10.128583">
        <ele>509.605590</ele>
        <time>2021-01-28T12:24:56.996Z</time>
      </trkpt>
      <trkpt lat="45.661611" lon="10.128678">
        <ele>508.652771</ele>
        <time>2021-01-28T12:24:59.042Z</time>
      </trkpt>
      <trkpt lat="45.661807" lon="10.128824">
        <ele>507.666992</ele>
        <time>2021-01-28T12:25:01.066Z</time>
      </trkpt>
      <trkpt lat="45.663324" lon="10.129255">
        <ele>498.898492</ele>
        <time>2021-01-28T12:25:15.083Z</time>
      </trkpt>
      <trkpt lat="45.663403" lon="10.129362">
        <ele>498.223118</ele>
        <time>2021-01-28T12:25:16.088Z</time>
      </trkpt>
      <trkpt lat="45.664101" lon="10.131099">
        <ele>489.640745</ele>
        <time>2021-01-28T12:25:29.040Z</time>
      </trkpt>
      <trkpt lat="45.664207" lon="10.131456">
        <ele>487.996509</ele>
        <time>2021-01-28T12:25:31.544Z</time>
      </trkpt>
      <trkpt lat="45.664204" lon="10.131749">
        <ele>486.754355</ele>
        <time>2021-01-28T12:25:33.441Z</time>
      </trkpt>
      <trkpt lat="45.664180" lon="10.132060">
        <ele>485.428019</ele>
        <time>2021-01-28T12:25:35.453Z</time>
      </trkpt>
      <trkpt lat="45.664080" lon="10.132355">
        <ele>484.038178</ele>
        <time>2021-01-28T12:25:37.530Z</time>
      </trkpt>
      <trkpt lat="45.663898" lon="10.132742">
        <ele>481.617584</ele>
        <time>2021-01-28T12:25:40.489Z</time>
      </trkpt>
      <trkpt lat="45.663898" lon="10.132894">
        <ele>480.769313</ele>
        <time>2021-01-28T12:25:41.443Z</time>
      </trkpt>
      <trkpt lat="45.663963" lon="10.133030">
        <ele>479.849823</ele>
        <time>2021-01-28T12:25:42.487Z</time>
      </trkpt>
      <trkpt lat="45.664350" lon="10.133470">
        <ele>475.902696</ele>
        <time>2021-01-28T12:25:46.877Z</time>
      </trkpt>
      <trkpt lat="45.664436" lon="10.133689">
        <ele>474.500799</ele>
        <time>2021-01-28T12:25:48.422Z</time>
      </trkpt>
      <trkpt lat="45.664336" lon="10.134416">
        <ele>470.365805</ele>
        <time>2021-01-28T12:25:52.963Z</time>
      </trkpt>
      <trkpt lat="45.664451" lon="10.135972">
        <ele>459.798023</ele>
        <time>2021-01-28T12:26:02.440Z</time>
      </trkpt>
      <trkpt lat="45.664332" lon="10.136951">
        <ele>452.888648</ele>
        <time>2021-01-28T12:26:08.412Z</time>
      </trkpt>
      <trkpt lat="45.664379" lon="10.137692">
        <ele>448.460959</ele>
        <time>2021-01-28T12:26:12.871Z</time>
      </trkpt>
      <trkpt lat="45.664525" lon="10.138094">
        <ele>445.984445</ele>
        <time>2021-01-28T12:26:15.614Z</time>
      </trkpt>
      <trkpt lat="45.665320" lon="10.139184">
        <ele>437.372239</ele>
        <time>2021-01-28T12:26:25.481Z</time>
      </trkpt>
      <trkpt lat="45.665580" lon="10.139554">
        <ele>436.689159</ele>
        <time>2021-01-28T12:26:29.068Z</time>
      </trkpt>
      <trkpt lat="45.666128" lon="10.140198">
        <ele>435.750538</ele>
        <time>2021-01-28T12:26:37.044Z</time>
      </trkpt>
      <trkpt lat="45.666332" lon="10.140435">
        <ele>435.402727</ele>
        <time>2021-01-28T12:26:40.837Z</time>
      </trkpt>
      <trkpt lat="45.666403" lon="10.140504">
        <ele>435.289124</ele>
        <time>2021-01-28T12:26:43.020Z</time>
      </trkpt>
      <trkpt lat="45.667146" lon="10.141838">
        <ele>434.543957</ele>
        <time>2021-01-28T12:27:10.146Z</time>
      </trkpt>
      <trkpt lat="45.667478" lon="10.142780">
        <ele>434.347770</ele>
        <time>2021-01-28T12:27:19.970Z</time>
      </trkpt>
      <trkpt lat="45.667718" lon="10.143145">
        <ele>433.793922</ele>
        <time>2021-01-28T12:27:23.413Z</time>
      </trkpt>
      <trkpt lat="45.668098" lon="10.143704">
        <ele>430.358711</ele>
        <time>2021-01-28T12:27:28.644Z</time>
      </trkpt>
      <trkpt lat="45.668550" lon="10.144446">
        <ele>426.022778</ele>
        <time>2021-01-28T12:27:34.985Z</time>
      </trkpt>
      <trkpt lat="45.668596" lon="10.144649">
        <ele>425.082750</ele>
        <time>2021-01-28T12:27:36.280Z</time>
      </trkpt>
      <trkpt lat="45.668548" lon="10.145499">
        <ele>420.212095</ele>
        <time>2021-01-28T12:27:41.472Z</time>
      </trkpt>
      <trkpt lat="45.668574" lon="10.145769">
        <ele>418.181069</ele>
        <time>2021-01-28T12:27:43.067Z</time>
      </trkpt>
      <trkpt lat="45.668913" lon="10.146351">
        <ele>412.535029</ele>
        <time>2021-01-28T12:27:47.596Z</time>
      </trkpt>
      <trkpt lat="45.669115" lon="10.146826">
        <ele>408.391483</ele>
        <time>2021-01-28T12:27:50.903Z</time>
      </trkpt>
      <trkpt lat="45.669137" lon="10.146944">
        <ele>407.481409</ele>
        <time>2021-01-28T12:27:51.613Z</time>
      </trkpt>
      <trkpt lat="45.669241" lon="10.147510">
        <ele>403.297563</ele>
        <time>2021-01-28T12:27:55.149Z</time>
      </trkpt>
      <trkpt lat="45.669220" lon="10.148117">
        <ele>400.029540</ele>
        <time>2021-01-28T12:27:58.862Z</time>
      </trkpt>
      <trkpt lat="45.669199" lon="10.148306">
        <ele>399.000462</ele>
        <time>2021-01-28T12:28:00.018Z</time>
      </trkpt>
      <trkpt lat="45.669169" lon="10.148376">
        <ele>398.558899</ele>
        <time>2021-01-28T12:28:00.503Z</time>
      </trkpt>
      <trkpt lat="45.669088" lon="10.148566">
        <ele>397.362089</ele>
        <time>2021-01-28T12:28:01.873Z</time>
      </trkpt>
      <trkpt lat="45.668290" lon="10.149453">
        <ele>389.676664</ele>
        <time>2021-01-28T12:28:11.065Z</time>
      </trkpt>
      <trkpt lat="45.668068" lon="10.149795">
        <ele>387.852051</ele>
        <time>2021-01-28T12:28:14.200Z</time>
      </trkpt>
      <trkpt lat="45.667766" lon="10.150453">
        <ele>384.774832</ele>
        <time>2021-01-28T12:28:19.790Z</time>
      </trkpt>
      <trkpt lat="45.667646" lon="10.150846">
        <ele>383.098370</ele>
        <time>2021-01-28T12:28:22.572Z</time>
      </trkpt>
      <trkpt lat="45.667610" lon="10.151072">
        <ele>382.192285</ele>
        <time>2021-01-28T12:28:24.041Z</time>
      </trkpt>
      <trkpt lat="45.667581" lon="10.151475">
        <ele>380.608645</ele>
        <time>2021-01-28T12:28:26.613Z</time>
      </trkpt>
      <trkpt lat="45.667562" lon="10.151741">
        <ele>379.436891</ele>
        <time>2021-01-28T12:28:28.255Z</time>
      </trkpt>
      <trkpt lat="45.667557" lon="10.151819">
        <ele>378.997972</ele>
        <time>2021-01-28T12:28:28.746Z</time>
      </trkpt>
      <trkpt lat="45.667550" lon="10.151905">
        <ele>378.512800</ele>
        <time>2021-01-28T12:28:29.289Z</time>
      </trkpt>
      <trkpt lat="45.667520" lon="10.152171">
        <ele>377.002943</ele>
        <time>2021-01-28T12:28:30.939Z</time>
      </trkpt>
      <trkpt lat="45.667475" lon="10.152599">
        <ele>374.577589</ele>
        <time>2021-01-28T12:28:33.605Z</time>
      </trkpt>
      <trkpt lat="45.667474" lon="10.152782">
        <ele>373.552089</ele>
        <time>2021-01-28T12:28:34.716Z</time>
      </trkpt>
      <trkpt lat="45.667473" lon="10.153074">
        <ele>371.915803</ele>
        <time>2021-01-28T12:28:36.507Z</time>
      </trkpt>
      <trkpt lat="45.667581" lon="10.153499">
        <ele>369.381682</ele>
        <time>2021-01-28T12:28:39.291Z</time>
      </trkpt>
      <trkpt lat="45.667641" lon="10.153710">
        <ele>368.105174</ele>
        <time>2021-01-28T12:28:40.680Z</time>
      </trkpt>
      <trkpt lat="45.667929" lon="10.154734">
        <ele>363.334576</ele>
        <time>2021-01-28T12:28:47.569Z</time>
      </trkpt>
      <trkpt lat="45.668534" lon="10.156934">
        <ele>355.961406</ele>
        <time>2021-01-28T12:29:03.901Z</time>
      </trkpt>
      <trkpt lat="45.668591" lon="10.157205">
        <ele>355.379946</ele>
        <time>2021-01-28T12:29:05.997Z</time>
      </trkpt>
      <trkpt lat="45.668921" lon="10.158759">
        <ele>352.043006</ele>
        <time>2021-01-28T12:29:17.975Z</time>
      </trkpt>
      <trkpt lat="45.669064" lon="10.159437">
        <ele>350.537946</ele>
        <time>2021-01-28T12:29:23.003Z</time>
      </trkpt>
      <trkpt lat="45.669133" lon="10.159760">
        <ele>349.807192</ele>
        <time>2021-01-28T12:29:25.396Z</time>
      </trkpt>
      <trkpt lat="45.669151" lon="10.159845">
        <ele>349.615031</ele>
        <time>2021-01-28T12:29:26.025Z</time>
      </trkpt>
      <trkpt lat="45.669227" lon="10.160146">
        <ele>348.922593</ele>
        <time>2021-01-28T12:29:28.321Z</time>
      </trkpt>
      <trkpt lat="45.669296" lon="10.160476">
        <ele>348.177345</ele>
        <time>2021-01-28T12:29:30.765Z</time>
      </trkpt>
      <trkpt lat="45.669493" lon="10.161422">
        <ele>346.041678</ele>
        <time>2021-01-28T12:29:37.906Z</time>
      </trkpt>
      <trkpt lat="45.669675" lon="10.162230">
        <ele>343.882734</ele>
        <time>2021-01-28T12:29:43.831Z</time>
      </trkpt>
      <trkpt lat="45.669836" lon="10.163193">
        <ele>341.347500</ele>
        <time>2021-01-28T12:29:50.669Z</time>
      </trkpt>
      <trkpt lat="45.670380" lon="10.166675">
        <ele>332.386120</ele>
        <time>2021-01-28T12:30:15.330Z</time>
      </trkpt>
      <trkpt lat="45.670390" lon="10.166740">
        <ele>332.275422</ele>
        <time>2021-01-28T12:30:15.769Z</time>
      </trkpt>
      <trkpt lat="45.670551" lon="10.167771">
        <ele>330.518347</ele>
        <time>2021-01-28T12:30:23.649Z</time>
      </trkpt>
      <trkpt lat="45.670617" lon="10.168191">
        <ele>329.802351</ele>
        <time>2021-01-28T12:30:27.048Z</time>
      </trkpt>
      <trkpt lat="45.670904" lon="10.170029">
        <ele>326.791215</ele>
        <time>2021-01-28T12:30:41.745Z</time>
      </trkpt>
      <trkpt lat="45.671159" lon="10.171658">
        <ele>324.096747</ele>
        <time>2021-01-28T12:30:54.236Z</time>
      </trkpt>
      <trkpt lat="45.671370" lon="10.173089">
        <ele>320.980991</ele>
        <time>2021-01-28T12:31:04.655Z</time>
      </trkpt>
      <trkpt lat="45.671355" lon="10.173504">
        <ele>320.095688</ele>
        <time>2021-01-28T12:31:07.652Z</time>
      </trkpt>
      <trkpt lat="45.670983" lon="10.174844">
        <ele>316.744835</ele>
        <time>2021-01-28T12:31:17.781Z</time>
      </trkpt>
      <trkpt lat="45.671016" lon="10.176045">
        <ele>313.822173</ele>
        <time>2021-01-28T12:31:26.224Z</time>
      </trkpt>
      <trkpt lat="45.671021" lon="10.176247">
        <ele>313.330672</ele>
        <time>2021-01-28T12:31:27.593Z</time>
      </trkpt>
      <trkpt lat="45.671025" lon="10.176401">
        <ele>312.955941</ele>
        <time>2021-01-28T12:31:28.616Z</time>
      </trkpt>
      <trkpt lat="45.670993" lon="10.176762">
        <ele>312.149335</ele>
        <time>2021-01-28T12:31:31.219Z</time>
      </trkpt>
      <trkpt lat="45.670730" lon="10.177595">
        <ele>310.187210</ele>
        <time>2021-01-28T12:31:37.642Z</time>
      </trkpt>
      <trkpt lat="45.670699" lon="10.177741">
        <ele>309.859663</ele>
        <time>2021-01-28T12:31:38.676Z</time>
      </trkpt>
      <trkpt lat="45.670698" lon="10.177748">
        <ele>309.844327</ele>
        <time>2021-01-28T12:31:38.717Z</time>
      </trkpt>
      <trkpt lat="45.670639" lon="10.178021">
        <ele>309.230928</ele>
        <time>2021-01-28T12:31:40.841Z</time>
      </trkpt>
      <trkpt lat="45.670400" lon="10.180906">
        <ele>303.849390</ele>
        <time>2021-01-28T12:32:02.505Z</time>
      </trkpt>
      <trkpt lat="45.670392" lon="10.181007">
        <ele>303.675403</ele>
        <time>2021-01-28T12:32:03.215Z</time>
      </trkpt>
      <trkpt lat="45.670382" lon="10.181123">
        <ele>303.475342</ele>
        <time>2021-01-28T12:32:04.148Z</time>
      </trkpt>
      <trkpt lat="45.670340" lon="10.181398">
        <ele>302.993517</ele>
        <time>2021-01-28T12:32:06.322Z</time>
      </trkpt>
      <trkpt lat="45.670197" lon="10.181967">
        <ele>301.828735</ele>
        <time>2021-01-28T12:32:10.796Z</time>
      </trkpt>
      <trkpt lat="45.669961" lon="10.182910">
        <ele>299.852181</ele>
        <time>2021-01-28T12:32:17.963Z</time>
      </trkpt>
      <trkpt lat="45.669898" lon="10.183878">
        <ele>297.933762</ele>
        <time>2021-01-28T12:32:25.023Z</time>
      </trkpt>
      <trkpt lat="45.669909" lon="10.184404">
        <ele>297.040583</ele>
        <time>2021-01-28T12:32:28.773Z</time>
      </trkpt>
      <trkpt lat="45.669911" lon="10.184477">
        <ele>296.921557</ele>
        <time>2021-01-28T12:32:29.286Z</time>
      </trkpt>
      <trkpt lat="45.669941" lon="10.184657">
        <ele>296.620065</ele>
        <time>2021-01-28T12:32:30.638Z</time>
      </trkpt>
      <trkpt lat="45.669965" lon="10.184798">
        <ele>296.383624</ele>
        <time>2021-01-28T12:32:31.715Z</time>
      </trkpt>
      <trkpt lat="45.670023" lon="10.185019">
        <ele>295.999003</ele>
        <time>2021-01-28T12:32:33.424Z</time>
      </trkpt>
      <trkpt lat="45.670129" lon="10.185273">
        <ele>295.516993</ele>
        <time>2021-01-28T12:32:35.676Z</time>
      </trkpt>
      <trkpt lat="45.670355" lon="10.185658">
        <ele>294.697783</ele>
        <time>2021-01-28T12:32:39.501Z</time>
      </trkpt>
      <trkpt lat="45.670470" lon="10.185854">
        <ele>294.280813</ele>
        <time>2021-01-28T12:32:41.427Z</time>
      </trkpt>
      <trkpt lat="45.670639" lon="10.186144">
        <ele>293.665595</ele>
        <time>2021-01-28T12:32:44.345Z</time>
      </trkpt>
      <trkpt lat="45.670757" lon="10.186346">
        <ele>293.414794</ele>
        <time>2021-01-28T12:32:46.488Z</time>
      </trkpt>
      <trkpt lat="45.670945" lon="10.186702">
        <ele>293.122195</ele>
        <time>2021-01-28T12:32:50.140Z</time>
      </trkpt>
      <trkpt lat="45.671080" lon="10.186959">
        <ele>292.911372</ele>
        <time>2021-01-28T12:32:52.760Z</time>
      </trkpt>
      <trkpt lat="45.671213" lon="10.187186">
        <ele>292.717126</ele>
        <time>2021-01-28T12:32:55.250Z</time>
      </trkpt>
      <trkpt lat="45.671254" lon="10.187288">
        <ele>292.639967</ele>
        <time>2021-01-28T12:32:56.214Z</time>
      </trkpt>
      <trkpt lat="45.671281" lon="10.187402">
        <ele>292.561039</ele>
        <time>2021-01-28T12:32:57.243Z</time>
      </trkpt>
      <trkpt lat="45.671295" lon="10.187484">
        <ele>292.505689</ele>
        <time>2021-01-28T12:32:57.979Z</time>
      </trkpt>
      <trkpt lat="45.671314" lon="10.187598">
        <ele>292.428842</ele>
        <time>2021-01-28T12:32:59.019Z</time>
      </trkpt>
      <trkpt lat="45.671219" lon="10.187725">
        <ele>292.306851</ele>
        <time>2021-01-28T12:33:00.593Z</time>
      </trkpt>
      <trkpt lat="45.671162" lon="10.187800">
        <ele>292.234191</ele>
        <time>2021-01-28T12:33:01.599Z</time>
      </trkpt>
      <trkpt lat="45.670984" lon="10.188037">
        <ele>292.006047</ele>
        <time>2021-01-28T12:33:04.885Z</time>
      </trkpt>
      <trkpt lat="45.670881" lon="10.188175">
        <ele>291.873647</ele>
        <time>2021-01-28T12:33:06.882Z</time>
      </trkpt>
      <trkpt lat="45.670733" lon="10.188395">
        <ele>292.498825</ele>
        <time>2021-01-28T12:33:09.778Z</time>
      </trkpt>
      <trkpt lat="45.670687" lon="10.188465">
        <ele>292.735427</ele>
        <time>2021-01-28T12:33:10.680Z</time>
      </trkpt>
      <trkpt lat="45.670189" lon="10.189201">
        <ele>295.258025</ele>
        <time>2021-01-28T12:33:26.028Z</time>
      </trkpt>
      <trkpt lat="45.670100" lon="10.189320">
        <ele>295.687217</ele>
        <time>2021-01-28T12:33:31.803Z</time>
      </trkpt>
      <trkpt lat="45.669864" lon="10.189638">
        <ele>296.829428</ele>
        <time>2021-01-28T12:33:45.684Z</time>
      </trkpt>
      <trkpt lat="45.670173" lon="10.189479">
        <ele>297.986490</ele>
        <time>2021-01-28T12:34:02.183Z</time>
      </trkpt>
      <trkpt lat="45.670397" lon="10.189378">
        <ele>298.584845</ele>
        <time>2021-01-28T12:34:10.693Z</time>
      </trkpt>
      <trkpt lat="45.670516" lon="10.189326">
        <ele>298.863575</ele>
        <time>2021-01-28T12:34:13.032Z</time>
      </trkpt>
      <trkpt lat="45.670593" lon="10.189316">
        <ele>299.036776</ele>
        <time>2021-01-28T12:34:15.714Z</time>
      </trkpt>
      <trkpt lat="45.670593" lon="10.189316">
        <ele>299.036776</ele>
        <time>2021-01-28T12:34:15.987Z</time>
      </trkpt>
      <trkpt lat="45.670658" lon="10.189307">
        <ele>299.183067</ele>
        <time>2021-01-28T12:34:17.476Z</time>
      </trkpt>
      <trkpt lat="45.670821" lon="10.189328">
        <ele>299.549690</ele>
        <time>2021-01-28T12:34:20.764Z</time>
      </trkpt>
      <trkpt lat="45.670939" lon="10.189354">
        <ele>299.817144</ele>
        <time>2021-01-28T12:34:23.898Z</time>
      </trkpt>
      <trkpt lat="45.671392" lon="10.189487">
        <ele>300.853073</ele>
        <time>2021-01-28T12:34:33.500Z</time>
      </trkpt>
      <trkpt lat="45.671488" lon="10.189500">
        <ele>301.069089</ele>
        <time>2021-01-28T12:34:35.331Z</time>
      </trkpt>
      <trkpt lat="45.671524" lon="10.189471">
        <ele>301.161634</ele>
        <time>2021-01-28T12:34:35.710Z</time>
      </trkpt>
      <trkpt lat="45.671645" lon="10.189078">
        <ele>301.833888</ele>
        <time>2021-01-28T12:34:42.130Z</time>
      </trkpt>
      <trkpt lat="45.671691" lon="10.188990">
        <ele>302.005918</ele>
        <time>2021-01-28T12:34:42.928Z</time>
      </trkpt>
      <trkpt lat="45.671697" lon="10.188979">
        <ele>302.027762</ele>
        <time>2021-01-28T12:34:43.010Z</time>
      </trkpt>
      <trkpt lat="45.671795" lon="10.188931">
        <ele>302.154941</ele>
        <time>2021-01-28T12:34:47.307Z</time>
      </trkpt>
      <trkpt lat="45.671888" lon="10.188907">
        <ele>301.881267</ele>
        <time>2021-01-28T12:34:48.514Z</time>
      </trkpt>
      <trkpt lat="45.671990" lon="10.188911">
        <ele>301.585763</ele>
        <time>2021-01-28T12:34:49.945Z</time>
      </trkpt>
      <trkpt lat="45.672196" lon="10.188871">
        <ele>300.983717</ele>
        <time>2021-01-28T12:34:52.178Z</time>
      </trkpt>
      <trkpt lat="45.672286" lon="10.188825">
        <ele>300.706952</ele>
        <time>2021-01-28T12:34:53.221Z</time>
      </trkpt>
      <trkpt lat="45.672356" lon="10.188790">
        <ele>300.492214</ele>
        <time>2021-01-28T12:34:53.975Z</time>
      </trkpt>
      <trkpt lat="45.672699" lon="10.188581">
        <ele>299.412591</ele>
        <time>2021-01-28T12:34:57.459Z</time>
      </trkpt>
      <trkpt lat="45.672725" lon="10.188571">
        <ele>299.334622</ele>
        <time>2021-01-28T12:34:57.678Z</time>
      </trkpt>
      <trkpt lat="45.672962" lon="10.188483">
        <ele>298.625541</ele>
        <time>2021-01-28T12:34:59.852Z</time>
      </trkpt>
      <trkpt lat="45.673195" lon="10.188423">
        <ele>297.939933</ele>
        <time>2021-01-28T12:35:02.132Z</time>
      </trkpt>
      <trkpt lat="45.673636" lon="10.188310">
        <ele>297.066790</ele>
        <time>2021-01-28T12:35:07.475Z</time>
      </trkpt>
      <trkpt lat="45.674326" lon="10.188149">
        <ele>297.410806</ele>
        <time>2021-01-28T12:35:19.409Z</time>
      </trkpt>
      <trkpt lat="45.674584" lon="10.188144">
        <ele>297.537773</ele>
        <time>2021-01-28T12:35:24.621Z</time>
      </trkpt>
      <trkpt lat="45.674715" lon="10.188141">
        <ele>297.602244</ele>
        <time>2021-01-28T12:35:27.753Z</time>
      </trkpt>
      <trkpt lat="45.675934" lon="10.188284">
        <ele>298.730208</ele>
        <time>2021-01-28T12:35:51.723Z</time>
      </trkpt>
      <trkpt lat="45.676004" lon="10.188292">
        <ele>298.822686</ele>
        <time>2021-01-28T12:35:53.054Z</time>
      </trkpt>
      <trkpt lat="45.676229" lon="10.188310">
        <ele>299.119455</ele>
        <time>2021-01-28T12:35:57.872Z</time>
      </trkpt>
      <trkpt lat="45.676247" lon="10.188416">
        <ele>299.219830</ele>
        <time>2021-01-28T12:35:59.398Z</time>
      </trkpt>
      <trkpt lat="45.676369" lon="10.188389">
        <ele>299.382404</ele>
        <time>2021-01-28T12:36:01.751Z</time>
      </trkpt>
      <trkpt lat="45.676550" lon="10.188331">
        <ele>299.626668</ele>
        <time>2021-01-28T12:36:05.487Z</time>
      </trkpt>
      <trkpt lat="45.677146" lon="10.188168">
        <ele>300.477288</ele>
        <time>2021-01-28T12:36:17.884Z</time>
      </trkpt>
      <trkpt lat="45.677927" lon="10.187920">
        <ele>301.856208</ele>
        <time>2021-01-28T12:36:34.611Z</time>
      </trkpt>
      <trkpt lat="45.678286" lon="10.187806">
        <ele>302.490053</ele>
        <time>2021-01-28T12:36:42.921Z</time>
      </trkpt>
      <trkpt lat="45.678279" lon="10.187754">
        <ele>302.553829</ele>
        <time>2021-01-28T12:36:43.672Z</time>
      </trkpt>
      <trkpt lat="45.678417" lon="10.187715">
        <ele>302.796288</ele>
        <time>2021-01-28T12:36:46.929Z</time>
      </trkpt>
      <trkpt lat="45.678668" lon="10.187637">
        <ele>303.239009</ele>
        <time>2021-01-28T12:36:52.772Z</time>
      </trkpt>
      <trkpt lat="45.678671" lon="10.187692">
        <ele>303.305447</ele>
        <time>2021-01-28T12:36:53.610Z</time>
      </trkpt>
      <trkpt lat="45.678705" lon="10.187683">
        <ele>303.365663</ele>
        <time>2021-01-28T12:36:56.039Z</time>
      </trkpt>
      <trkpt lat="45.679220" lon="10.187560">
        <ele>304.360313</ele>
        <time>2021-01-28T12:37:08.104Z</time>
      </trkpt>
      <trkpt lat="45.679386" lon="10.187519">
        <ele>304.681220</ele>
        <time>2021-01-28T12:37:11.817Z</time>
      </trkpt>
      <trkpt lat="45.679519" lon="10.187486">
        <ele>304.938367</ele>
        <time>2021-01-28T12:37:14.961Z</time>
      </trkpt>
      <trkpt lat="45.679580" lon="10.187464">
        <ele>305.058205</ele>
        <time>2021-01-28T12:37:16.515Z</time>
      </trkpt>
      <trkpt lat="45.679599" lon="10.187457">
        <ele>305.095580</ele>
        <time>2021-01-28T12:37:17.860Z</time>
      </trkpt>
      <trkpt lat="45.679611" lon="10.187509">
        <ele>305.168469</ele>
        <time>2021-01-28T12:37:18.646Z</time>
      </trkpt>
      <trkpt lat="45.679755" lon="10.187413">
        <ele>305.471089</ele>
        <time>2021-01-28T12:37:22.023Z</time>
      </trkpt>
      <trkpt lat="45.679769" lon="10.187403">
        <ele>305.500896</ele>
        <time>2021-01-28T12:37:22.322Z</time>
      </trkpt>
      <trkpt lat="45.679997" lon="10.187366">
        <ele>305.938023</ele>
        <time>2021-01-28T12:37:27.504Z</time>
      </trkpt>
      <trkpt lat="45.680156" lon="10.187371">
        <ele>306.240994</ele>
        <time>2021-01-28T12:37:30.778Z</time>
      </trkpt>
      <trkpt lat="45.680264" lon="10.187374">
        <ele>306.446775</ele>
        <time>2021-01-28T12:37:33.324Z</time>
      </trkpt>
      <trkpt lat="45.680460" lon="10.187410">
        <ele>306.820955</ele>
        <time>2021-01-28T12:37:37.549Z</time>
      </trkpt>
      <trkpt lat="45.680459" lon="10.187358">
        <ele>306.886018</ele>
        <time>2021-01-28T12:37:38.264Z</time>
      </trkpt>
      <trkpt lat="45.680519" lon="10.187367">
        <ele>306.994019</ele>
        <time>2021-01-28T12:37:42.506Z</time>
      </trkpt>
      <trkpt lat="45.680680" lon="10.187391">
        <ele>307.283803</ele>
        <time>2021-01-28T12:37:46.207Z</time>
      </trkpt>
      <trkpt lat="45.681227" lon="10.187417">
        <ele>308.263590</ele>
        <time>2021-01-28T12:37:58.399Z</time>
      </trkpt>
      <trkpt lat="45.681764" lon="10.187467">
        <ele>309.226967</ele>
        <time>2021-01-28T12:38:10.821Z</time>
      </trkpt>
      <trkpt lat="45.682229" lon="10.187510">
        <ele>310.040281</ele>
        <time>2021-01-28T12:38:20.639Z</time>
      </trkpt>
      <trkpt lat="45.682945" lon="10.187588">
        <ele>310.843005</ele>
        <time>2021-01-28T12:38:34.760Z</time>
      </trkpt>
      <trkpt lat="45.682984" lon="10.187593">
        <ele>310.886777</ele>
        <time>2021-01-28T12:38:37.501Z</time>
      </trkpt>
      <trkpt lat="45.682987" lon="10.187488">
        <ele>310.968850</ele>
        <time>2021-01-28T12:38:39.033Z</time>
      </trkpt>
      <trkpt lat="45.683374" lon="10.187534">
        <ele>311.402963</ele>
        <time>2021-01-28T12:38:46.426Z</time>
      </trkpt>
      <trkpt lat="45.683768" lon="10.187581">
        <ele>311.844938</ele>
        <time>2021-01-28T12:38:53.558Z</time>
      </trkpt>
      <trkpt lat="45.683863" lon="10.187581">
        <ele>311.951138</ele>
        <time>2021-01-28T12:38:55.130Z</time>
      </trkpt>
      <trkpt lat="45.683977" lon="10.187570">
        <ele>312.087121</ele>
        <time>2021-01-28T12:38:57.071Z</time>
      </trkpt>
      <trkpt lat="45.684053" lon="10.187559">
        <ele>312.183772</ele>
        <time>2021-01-28T12:38:58.406Z</time>
      </trkpt>
      <trkpt lat="45.684052" lon="10.187631">
        <ele>312.247429</ele>
        <time>2021-01-28T12:38:59.184Z</time>
      </trkpt>
      <trkpt lat="45.684127" lon="10.187628">
        <ele>312.342362</ele>
        <time>2021-01-28T12:39:00.483Z</time>
      </trkpt>
      <trkpt lat="45.685433" lon="10.186781">
        <ele>314.156515</ele>
        <time>2021-01-28T12:39:29.190Z</time>
      </trkpt>
      <trkpt lat="45.685542" lon="10.186797">
        <ele>314.297566</ele>
        <time>2021-01-28T12:39:31.765Z</time>
      </trkpt>
      <trkpt lat="45.685651" lon="10.186839">
        <ele>314.551435</ele>
        <time>2021-01-28T12:39:34.138Z</time>
      </trkpt>
      <trkpt lat="45.685738" lon="10.186807">
        <ele>314.753456</ele>
        <time>2021-01-28T12:39:36.075Z</time>
      </trkpt>
      <trkpt lat="45.685778" lon="10.186811">
        <ele>314.843636</ele>
        <time>2021-01-28T12:39:36.917Z</time>
      </trkpt>
      <trkpt lat="45.685811" lon="10.186802">
        <ele>314.919189</ele>
        <time>2021-01-28T12:39:37.697Z</time>
      </trkpt>
      <trkpt lat="45.685862" lon="10.186757">
        <ele>315.053928</ele>
        <time>2021-01-28T12:39:39.083Z</time>
      </trkpt>
      <trkpt lat="45.685896" lon="10.186676">
        <ele>315.202397</ele>
        <time>2021-01-28T12:39:40.781Z</time>
      </trkpt>
      <trkpt lat="45.685902" lon="10.186612">
        <ele>315.303852</ele>
        <time>2021-01-28T12:39:41.746Z</time>
      </trkpt>
      <trkpt lat="45.685898" lon="10.186575">
        <ele>315.362676</ele>
        <time>2021-01-28T12:39:42.286Z</time>
      </trkpt>
      <trkpt lat="45.685967" lon="10.186369">
        <ele>315.721612</ele>
        <time>2021-01-28T12:39:45.820Z</time>
      </trkpt>
      <trkpt lat="45.686101" lon="10.186235">
        <ele>316.089236</ele>
        <time>2021-01-28T12:39:49.756Z</time>
      </trkpt>
      <trkpt lat="45.686421" lon="10.186071">
        <ele>316.853657</ele>
        <time>2021-01-28T12:39:57.693Z</time>
      </trkpt>
      <trkpt lat="45.686846" lon="10.185857">
        <ele>317.866900</ele>
        <time>2021-01-28T12:40:09.318Z</time>
      </trkpt>
      <trkpt lat="45.687034" lon="10.185825">
        <ele>318.292694</ele>
        <time>2021-01-28T12:40:14.419Z</time>
      </trkpt>
      <trkpt lat="45.687086" lon="10.185818">
        <ele>318.404179</ele>
        <time>2021-01-28T12:40:16.017Z</time>
      </trkpt>
      <trkpt lat="45.687844" lon="10.185757">
        <ele>319.971587</ele>
        <time>2021-01-28T12:40:35.237Z</time>
      </trkpt>
      <trkpt lat="45.688128" lon="10.185734">
        <ele>320.558860</ele>
        <time>2021-01-28T12:40:41.380Z</time>
      </trkpt>
      <trkpt lat="45.688425" lon="10.185711">
        <ele>321.172931</ele>
        <time>2021-01-28T12:40:47.702Z</time>
      </trkpt>
      <trkpt lat="45.688456" lon="10.185708">
        <ele>321.237078</ele>
        <time>2021-01-28T12:40:48.253Z</time>
      </trkpt>
      <trkpt lat="45.688583" lon="10.185697">
        <ele>321.499757</ele>
        <time>2021-01-28T12:40:50.955Z</time>
      </trkpt>
      <trkpt lat="45.688776" lon="10.185681">
        <ele>321.898885</ele>
        <time>2021-01-28T12:40:55.035Z</time>
      </trkpt>
      <trkpt lat="45.688875" lon="10.185673">
        <ele>322.080704</ele>
        <time>2021-01-28T12:40:56.854Z</time>
      </trkpt>
      <trkpt lat="45.688970" lon="10.185666">
        <ele>322.192179</ele>
        <time>2021-01-28T12:40:58.737Z</time>
      </trkpt>
      <trkpt lat="45.689064" lon="10.185659">
        <ele>322.302484</ele>
        <time>2021-01-28T12:41:00.712Z</time>
      </trkpt>
      <trkpt lat="45.689215" lon="10.185647">
        <ele>322.479709</ele>
        <time>2021-01-28T12:41:03.861Z</time>
      </trkpt>
      <trkpt lat="45.689347" lon="10.185638">
        <ele>322.634571</ele>
        <time>2021-01-28T12:41:06.666Z</time>
      </trkpt>
      <trkpt lat="45.689467" lon="10.185631">
        <ele>322.775312</ele>
        <time>2021-01-28T12:41:09.478Z</time>
      </trkpt>
      <trkpt lat="45.689770" lon="10.185613">
        <ele>323.130695</ele>
        <time>2021-01-28T12:41:15.580Z</time>
      </trkpt>
      <trkpt lat="45.690381" lon="10.185576">
        <ele>323.847348</ele>
        <time>2021-01-28T12:41:26.228Z</time>
      </trkpt>
      <trkpt lat="45.690473" lon="10.185574">
        <ele>323.955172</ele>
        <time>2021-01-28T12:41:27.784Z</time>
      </trkpt>
      <trkpt lat="45.690720" lon="10.185562">
        <ele>324.268701</ele>
        <time>2021-01-28T12:41:32.249Z</time>
      </trkpt>
      <trkpt lat="45.690893" lon="10.185530">
        <ele>324.529709</ele>
        <time>2021-01-28T12:41:35.720Z</time>
      </trkpt>
      <trkpt lat="45.691493" lon="10.185177">
        <ele>325.500333</ele>
        <time>2021-01-28T12:41:49.261Z</time>
      </trkpt>
      <trkpt lat="45.691607" lon="10.185103">
        <ele>325.687624</ele>
        <time>2021-01-28T12:41:52.265Z</time>
      </trkpt>
      <trkpt lat="45.691660" lon="10.185067">
        <ele>325.775401</ele>
        <time>2021-01-28T12:41:53.455Z</time>
      </trkpt>
      <trkpt lat="45.691724" lon="10.185023">
        <ele>325.881633</ele>
        <time>2021-01-28T12:41:54.912Z</time>
      </trkpt>
      <trkpt lat="45.691744" lon="10.185010">
        <ele>325.914498</ele>
        <time>2021-01-28T12:41:55.357Z</time>
      </trkpt>
      <trkpt lat="45.692052" lon="10.184799">
        <ele>326.425400</ele>
        <time>2021-01-28T12:42:03.042Z</time>
      </trkpt>
      <trkpt lat="45.692420" lon="10.184576">
        <ele>327.027613</ele>
        <time>2021-01-28T12:42:11.611Z</time>
      </trkpt>
      <trkpt lat="45.692748" lon="10.184589">
        <ele>327.530699</ele>
        <time>2021-01-28T12:42:18.423Z</time>
      </trkpt>
      <trkpt lat="45.694862" lon="10.185236">
        <ele>331.124471</ele>
        <time>2021-01-28T12:43:03.576Z</time>
      </trkpt>
      <trkpt lat="45.694940" lon="10.185261">
        <ele>331.274678</ele>
        <time>2021-01-28T12:43:05.543Z</time>
      </trkpt>
      <trkpt lat="45.695389" lon="10.185411">
        <ele>332.141114</ele>
        <time>2021-01-28T12:43:16.653Z</time>
      </trkpt>
      <trkpt lat="45.695597" lon="10.185481">
        <ele>332.542645</ele>
        <time>2021-01-28T12:43:21.699Z</time>
      </trkpt>
      <trkpt lat="45.695847" lon="10.185565">
        <ele>333.015658</ele>
        <time>2021-01-28T12:43:27.730Z</time>
      </trkpt>
      <trkpt lat="45.696066" lon="10.185639">
        <ele>333.331552</ele>
        <time>2021-01-28T12:43:32.813Z</time>
      </trkpt>
      <trkpt lat="45.696275" lon="10.185713">
        <ele>333.633800</ele>
        <time>2021-01-28T12:43:37.483Z</time>
      </trkpt>
      <trkpt lat="45.696470" lon="10.185791">
        <ele>333.918037</ele>
        <time>2021-01-28T12:43:41.833Z</time>
      </trkpt>
      <trkpt lat="45.696572" lon="10.185846">
        <ele>334.071051</ele>
        <time>2021-01-28T12:43:44.067Z</time>
      </trkpt>
      <trkpt lat="45.696788" lon="10.185938">
        <ele>334.387420</ele>
        <time>2021-01-28T12:43:48.657Z</time>
      </trkpt>
      <trkpt lat="45.697231" lon="10.186358">
        <ele>335.133327</ele>
        <time>2021-01-28T12:43:59.241Z</time>
      </trkpt>
      <trkpt lat="45.697327" lon="10.186486">
        <ele>335.317489</ele>
        <time>2021-01-28T12:44:01.727Z</time>
      </trkpt>
      <trkpt lat="45.697453" lon="10.186655">
        <ele>335.547102</ele>
        <time>2021-01-28T12:44:04.916Z</time>
      </trkpt>
      <trkpt lat="45.697994" lon="10.187294">
        <ele>336.266323</ele>
        <time>2021-01-28T12:44:16.552Z</time>
      </trkpt>
      <trkpt lat="45.698253" lon="10.187605">
        <ele>336.612972</ele>
        <time>2021-01-28T12:44:22.191Z</time>
      </trkpt>
      <trkpt lat="45.698417" lon="10.187814">
        <ele>336.838126</ele>
        <time>2021-01-28T12:44:25.975Z</time>
      </trkpt>
      <trkpt lat="45.698515" lon="10.187938">
        <ele>336.972246</ele>
        <time>2021-01-28T12:44:28.651Z</time>
      </trkpt>
      <trkpt lat="45.698598" lon="10.188057">
        <ele>337.092701</ele>
        <time>2021-01-28T12:44:30.885Z</time>
      </trkpt>
      <trkpt lat="45.698881" lon="10.188499">
        <ele>337.922416</ele>
        <time>2021-01-28T12:44:40.302Z</time>
      </trkpt>
      <trkpt lat="45.698925" lon="10.188588">
        <ele>338.189770</ele>
        <time>2021-01-28T12:44:42.185Z</time>
      </trkpt>
      <trkpt lat="45.698971" lon="10.188547">
        <ele>338.379989</ele>
        <time>2021-01-28T12:44:43.705Z</time>
      </trkpt>
      <trkpt lat="45.699107" lon="10.188590">
        <ele>338.868928</ele>
        <time>2021-01-28T12:44:47.013Z</time>
      </trkpt>
      <trkpt lat="45.699432" lon="10.188983">
        <ele>340.362319</ele>
        <time>2021-01-28T12:44:59.165Z</time>
      </trkpt>
      <trkpt lat="45.699914" lon="10.189537">
        <ele>342.532160</ele>
        <time>2021-01-28T12:45:18.395Z</time>
      </trkpt>
      <trkpt lat="45.700236" lon="10.189929">
        <ele>344.162556</ele>
        <time>2021-01-28T12:45:31.870Z</time>
      </trkpt>
      <trkpt lat="45.700402" lon="10.190170">
        <ele>345.345544</ele>
        <time>2021-01-28T12:45:41.061Z</time>
      </trkpt>
      <trkpt lat="45.700403" lon="10.190298">
        <ele>345.792922</ele>
        <time>2021-01-28T12:45:43.464Z</time>
      </trkpt>
      <trkpt lat="45.700404" lon="10.190527">
        <ele>346.593273</ele>
        <time>2021-01-28T12:45:49.879Z</time>
      </trkpt>
      <trkpt lat="45.700408" lon="10.190852">
        <ele>347.729298</ele>
        <time>2021-01-28T12:45:57.084Z</time>
      </trkpt>
      <trkpt lat="45.700408" lon="10.190880">
        <ele>347.827155</ele>
        <time>2021-01-28T12:45:57.458Z</time>
      </trkpt>
      <trkpt lat="45.700408" lon="10.190852">
        <ele>347.925013</ele>
        <time>2021-01-28T12:45:58.540Z</time>
      </trkpt>
      <trkpt lat="45.700471" lon="10.190955">
        <ele>348.403522</ele>
        <time>2021-01-28T12:46:03.084Z</time>
      </trkpt>
      <trkpt lat="45.700550" lon="10.190977">
        <ele>348.806254</ele>
        <time>2021-01-28T12:46:05.752Z</time>
      </trkpt>
      <trkpt lat="45.700648" lon="10.190875">
        <ele>349.412532</ele>
        <time>2021-01-28T12:46:09.322Z</time>
      </trkpt>
      <trkpt lat="45.700667" lon="10.189931">
        <ele>352.719996</ele>
        <time>2021-01-28T12:46:33.155Z</time>
      </trkpt>
      <trkpt lat="45.700635" lon="10.189579">
        <ele>354.168402</ele>
        <time>2021-01-28T12:46:41.832Z</time>
      </trkpt>
      <trkpt lat="45.700699" lon="10.189453">
        <ele>354.804120</ele>
        <time>2021-01-28T12:46:45.154Z</time>
      </trkpt>
      <trkpt lat="45.700774" lon="10.189524">
        <ele>355.329411</ele>
        <time>2021-01-28T12:46:47.894Z</time>
      </trkpt>
      <trkpt lat="45.700767" lon="10.189869">
        <ele>356.737729</ele>
        <time>2021-01-28T12:46:57.203Z</time>
      </trkpt>
      <trkpt lat="45.700980" lon="10.191119">
        <ele>361.987786</ele>
        <time>2021-01-28T12:47:30.599Z</time>
      </trkpt>
      <trkpt lat="45.701010" lon="10.191842">
        <ele>365.844540</ele>
        <time>2021-01-28T12:47:53.564Z</time>
      </trkpt>
      <trkpt lat="45.701045" lon="10.191984">
        <ele>366.773175</ele>
        <time>2021-01-28T12:47:59.152Z</time>
      </trkpt>
      <trkpt lat="45.701132" lon="10.192339">
        <ele>369.093295</ele>
        <time>2021-01-28T12:48:11.799Z</time>
      </trkpt>
      <trkpt lat="45.701331" lon="10.192837">
        <ele>372.631565</ele>
        <time>2021-01-28T12:48:33.166Z</time>
      </trkpt>
      <trkpt lat="45.701383" lon="10.192955">
        <ele>373.492008</ele>
        <time>2021-01-28T12:48:39.961Z</time>
      </trkpt>
      <trkpt lat="45.701560" lon="10.193351">
        <ele>376.391391</ele>
        <time>2021-01-28T12:48:56.366Z</time>
      </trkpt>
      <trkpt lat="45.701705" lon="10.193673">
        <ele>378.754100</ele>
        <time>2021-01-28T12:49:08.584Z</time>
      </trkpt>
      <trkpt lat="45.701902" lon="10.193992">
        <ele>381.295624</ele>
        <time>2021-01-28T12:49:25.049Z</time>
      </trkpt>
      <trkpt lat="45.701935" lon="10.194161">
        <ele>382.338346</ele>
        <time>2021-01-28T12:49:31.732Z</time>
      </trkpt>
      <trkpt lat="45.702018" lon="10.194192">
        <ele>383.068157</ele>
        <time>2021-01-28T12:49:37.169Z</time>
      </trkpt>
      <trkpt lat="45.702085" lon="10.194450">
        <ele>384.703761</ele>
        <time>2021-01-28T12:49:46.552Z</time>
      </trkpt>
      <trkpt lat="45.701990" lon="10.194772">
        <ele>386.780824</ele>
        <time>2021-01-28T12:50:00.368Z</time>
      </trkpt>
      <trkpt lat="45.701962" lon="10.194832">
        <ele>387.209616</ele>
        <time>2021-01-28T12:50:03.243Z</time>
      </trkpt>
      <trkpt lat="45.701872" lon="10.195020">
        <ele>388.563976</ele>
        <time>2021-01-28T12:50:10.595Z</time>
      </trkpt>
      <trkpt lat="45.701860" lon="10.195215">
        <ele>389.727169</ele>
        <time>2021-01-28T12:50:16.823Z</time>
      </trkpt>
      <trkpt lat="45.701965" lon="10.195436">
        <ele>391.315434</ele>
        <time>2021-01-28T12:50:25.192Z</time>
      </trkpt>
      <trkpt lat="45.702010" lon="10.195504">
        <ele>391.872079</ele>
        <time>2021-01-28T12:50:28.050Z</time>
      </trkpt>
      <trkpt lat="45.702045" lon="10.195562">
        <ele>392.327550</ele>
        <time>2021-01-28T12:50:30.280Z</time>
      </trkpt>
      <trkpt lat="45.702138" lon="10.195662">
        <ele>393.317084</ele>
        <time>2021-01-28T12:50:35.391Z</time>
      </trkpt>
      <trkpt lat="45.702208" lon="10.195781">
        <ele>394.241586</ele>
        <time>2021-01-28T12:50:39.599Z</time>
      </trkpt>
      <trkpt lat="45.702634" lon="10.197513">
        <ele>402.669030</ele>
        <time>2021-01-28T12:51:32.020Z</time>
      </trkpt>
      <trkpt lat="45.702723" lon="10.198112">
        <ele>405.470094</ele>
        <time>2021-01-28T12:51:48.586Z</time>
      </trkpt>
      <trkpt lat="45.702851" lon="10.198172">
        <ele>406.397292</ele>
        <time>2021-01-28T12:51:53.840Z</time>
      </trkpt>
      <trkpt lat="45.702895" lon="10.198042">
        <ele>407.202129</ele>
        <time>2021-01-28T12:51:57.534Z</time>
      </trkpt>
      <trkpt lat="45.702804" lon="10.197536">
        <ele>410.113157</ele>
        <time>2021-01-28T12:52:14.110Z</time>
      </trkpt>
      <trkpt lat="45.702790" lon="10.196874">
        <ele>413.803026</ele>
        <time>2021-01-28T12:52:36.519Z</time>
      </trkpt>
      <trkpt lat="45.702826" lon="10.196821">
        <ele>414.214930</ele>
        <time>2021-01-28T12:52:38.503Z</time>
      </trkpt>
      <trkpt lat="45.702882" lon="10.196811">
        <ele>414.665126</ele>
        <time>2021-01-28T12:52:40.863Z</time>
      </trkpt>
      <trkpt lat="45.702960" lon="10.196987">
        <ele>415.826435</ele>
        <time>2021-01-28T12:52:49.080Z</time>
      </trkpt>
      <trkpt lat="45.703099" lon="10.197756">
        <ele>420.251893</ele>
        <time>2021-01-28T12:53:16.117Z</time>
      </trkpt>
      <trkpt lat="45.703201" lon="10.197906">
        <ele>421.394290</ele>
        <time>2021-01-28T12:53:22.399Z</time>
      </trkpt>
      <trkpt lat="45.703220" lon="10.197935">
        <ele>421.610074</ele>
        <time>2021-01-28T12:53:25.509Z</time>
      </trkpt>
      <trkpt lat="45.703650" lon="10.198071">
        <ele>425.031865</ele>
        <time>2021-01-28T12:53:45.589Z</time>
      </trkpt>
      <trkpt lat="45.703690" lon="10.198147">
        <ele>425.548291</ele>
        <time>2021-01-28T12:53:47.409Z</time>
      </trkpt>
      <trkpt lat="45.703697" lon="10.198231">
        <ele>426.007358</ele>
        <time>2021-01-28T12:53:49.192Z</time>
      </trkpt>
      <trkpt lat="45.703474" lon="10.198821">
        <ele>429.647876</ele>
        <time>2021-01-28T12:54:09.027Z</time>
      </trkpt>
      <trkpt lat="45.703467" lon="10.198921">
        <ele>430.193255</ele>
        <time>2021-01-28T12:54:16.459Z</time>
      </trkpt>
      <trkpt lat="45.703461" lon="10.199189">
        <ele>431.648331</ele>
        <time>2021-01-28T12:54:21.136Z</time>
      </trkpt>
      <trkpt lat="45.703364" lon="10.200219">
        <ele>437.972380</ele>
        <time>2021-01-28T12:54:55.881Z</time>
      </trkpt>
      <trkpt lat="45.703578" lon="10.200906">
        <ele>443.045247</ele>
        <time>2021-01-28T12:55:19.061Z</time>
      </trkpt>
      <trkpt lat="45.703754" lon="10.201139">
        <ele>445.359810</ele>
        <time>2021-01-28T12:55:33.408Z</time>
      </trkpt>
      <trkpt lat="45.703791" lon="10.201121">
        <ele>445.737150</ele>
        <time>2021-01-28T12:55:35.820Z</time>
      </trkpt>
      <trkpt lat="45.703800" lon="10.201008">
        <ele>446.504120</ele>
        <time>2021-01-28T12:55:38.597Z</time>
      </trkpt>
      <trkpt lat="45.703774" lon="10.200754">
        <ele>448.235305</ele>
        <time>2021-01-28T12:55:52.534Z</time>
      </trkpt>
      <trkpt lat="45.703783" lon="10.200444">
        <ele>450.327637</ele>
        <time>2021-01-28T12:56:02.767Z</time>
      </trkpt>
      <trkpt lat="45.703882" lon="10.199981">
        <ele>454.291627</ele>
        <time>2021-01-28T12:56:23.970Z</time>
      </trkpt>
      <trkpt lat="45.703867" lon="10.199492">
        <ele>458.906464</ele>
        <time>2021-01-28T12:56:46.615Z</time>
      </trkpt>
      <trkpt lat="45.703891" lon="10.199407">
        <ele>459.770882</ele>
        <time>2021-01-28T12:56:51.736Z</time>
      </trkpt>
      <trkpt lat="45.703933" lon="10.199256">
        <ele>461.303301</ele>
        <time>2021-01-28T12:57:03.769Z</time>
      </trkpt>
      <trkpt lat="45.704184" lon="10.198970">
        <ele>465.633824</ele>
        <time>2021-01-28T12:57:26.806Z</time>
      </trkpt>
      <trkpt lat="45.704849" lon="10.198582">
        <ele>475.328229</ele>
        <time>2021-01-28T12:58:15.694Z</time>
      </trkpt>
      <trkpt lat="45.704929" lon="10.198483">
        <ele>476.671847</ele>
        <time>2021-01-28T12:58:21.629Z</time>
      </trkpt>
      <trkpt lat="45.705004" lon="10.198249">
        <ele>478.778885</ele>
        <time>2021-01-28T12:58:32.621Z</time>
      </trkpt>
      <trkpt lat="45.705039" lon="10.198081">
        <ele>480.213618</ele>
        <time>2021-01-28T12:58:44.925Z</time>
      </trkpt>
      <trkpt lat="45.705053" lon="10.198009">
        <ele>480.825256</ele>
        <time>2021-01-28T12:58:46.572Z</time>
      </trkpt>
      <trkpt lat="45.705066" lon="10.197924">
        <ele>481.537354</ele>
        <time>2021-01-28T12:58:48.888Z</time>
      </trkpt>
      <trkpt lat="45.705078" lon="10.197860">
        <ele>482.079659</ele>
        <time>2021-01-28T12:58:51.380Z</time>
      </trkpt>
      <trkpt lat="45.705089" lon="10.197717">
        <ele>483.257002</ele>
        <time>2021-01-28T12:58:58.729Z</time>
      </trkpt>
      <trkpt lat="45.704976" lon="10.197035">
        <ele>488.993207</ele>
        <time>2021-01-28T12:59:27.878Z</time>
      </trkpt>
      <trkpt lat="45.705043" lon="10.196948">
        <ele>490.053097</ele>
        <time>2021-01-28T12:59:31.731Z</time>
      </trkpt>
      <trkpt lat="45.705128" lon="10.196967">
        <ele>491.061237</ele>
        <time>2021-01-28T12:59:37.655Z</time>
      </trkpt>
      <trkpt lat="45.705172" lon="10.197088">
        <ele>492.177660</ele>
        <time>2021-01-28T12:59:44.903Z</time>
      </trkpt>
      <trkpt lat="45.705326" lon="10.197664">
        <ele>497.218912</ele>
        <time>2021-01-28T13:00:12.652Z</time>
      </trkpt>
      <trkpt lat="45.705453" lon="10.197876">
        <ele>498.985487</ele>
        <time>2021-01-28T13:00:23.258Z</time>
      </trkpt>
      <trkpt lat="45.705825" lon="10.198497">
        <ele>504.160121</ele>
        <time>2021-01-28T13:00:52.614Z</time>
      </trkpt>
      <trkpt lat="45.706021" lon="10.198638">
        <ele>506.146639</ele>
        <time>2021-01-28T13:01:04.029Z</time>
      </trkpt>
      <trkpt lat="45.706412" lon="10.198712">
        <ele>509.718584</ele>
        <time>2021-01-28T13:01:23.559Z</time>
      </trkpt>
      <trkpt lat="45.706495" lon="10.198759">
        <ele>510.526925</ele>
        <time>2021-01-28T13:01:28.438Z</time>
      </trkpt>
      <trkpt lat="45.706542" lon="10.198821">
        <ele>511.105673</ele>
        <time>2021-01-28T13:01:31.339Z</time>
      </trkpt>
      <trkpt lat="45.706540" lon="10.198966">
        <ele>512.022914</ele>
        <time>2021-01-28T13:01:35.738Z</time>
      </trkpt>
      <trkpt lat="45.706140" lon="10.199185">
        <ele>514.983019</ele>
        <time>2021-01-28T13:01:54.496Z</time>
      </trkpt>
      <trkpt lat="45.705991" lon="10.199369">
        <ele>516.087008</ele>
        <time>2021-01-28T13:02:03.234Z</time>
      </trkpt>
      <trkpt lat="45.706046" lon="10.199556">
        <ele>516.882087</ele>
        <time>2021-01-28T13:02:07.681Z</time>
      </trkpt>
      <trkpt lat="45.706093" lon="10.199565">
        <ele>517.148153</ele>
        <time>2021-01-28T13:02:08.668Z</time>
      </trkpt>
      <trkpt lat="45.706119" lon="10.199563">
        <ele>517.294250</ele>
        <time>2021-01-28T13:02:11.488Z</time>
      </trkpt>
      <trkpt lat="45.706346" lon="10.199350">
        <ele>518.817048</ele>
        <time>2021-01-28T13:02:19.262Z</time>
      </trkpt>
      <trkpt lat="45.706938" lon="10.199360">
        <ele>522.139011</ele>
        <time>2021-01-28T13:02:38.434Z</time>
      </trkpt>
      <trkpt lat="45.707053" lon="10.199253">
        <ele>522.908526</ele>
        <time>2021-01-28T13:02:43.220Z</time>
      </trkpt>
      <trkpt lat="45.707097" lon="10.199050">
        <ele>523.731495</ele>
        <time>2021-01-28T13:02:48.832Z</time>
      </trkpt>
      <trkpt lat="45.707049" lon="10.198856">
        <ele>524.488602</ele>
        <time>2021-01-28T13:02:54.588Z</time>
      </trkpt>
      <trkpt lat="45.706772" lon="10.198342">
        <ele>526.876933</ele>
        <time>2021-01-28T13:03:11.411Z</time>
      </trkpt>
      <trkpt lat="45.706772" lon="10.198178">
        <ele>527.480217</ele>
        <time>2021-01-28T13:03:14.949Z</time>
      </trkpt>
      <trkpt lat="45.706807" lon="10.198120">
        <ele>527.762197</ele>
        <time>2021-01-28T13:03:16.422Z</time>
      </trkpt>
      <trkpt lat="45.706900" lon="10.198115">
        <ele>528.252433</ele>
        <time>2021-01-28T13:03:21.232Z</time>
      </trkpt>
      <trkpt lat="45.707286" lon="10.198580">
        <ele>530.909546</ele>
        <time>2021-01-28T13:03:36.679Z</time>
      </trkpt>
      <trkpt lat="45.707475" lon="10.198614">
        <ele>531.912958</ele>
        <time>2021-01-28T13:03:44.413Z</time>
      </trkpt>
      <trkpt lat="45.707577" lon="10.198720">
        <ele>532.576834</ele>
        <time>2021-01-28T13:03:48.571Z</time>
      </trkpt>
      <trkpt lat="45.707749" lon="10.199757">
        <ele>536.921438</ele>
        <time>2021-01-28T13:04:18.247Z</time>
      </trkpt>
      <trkpt lat="45.707756" lon="10.199850">
        <ele>537.307879</ele>
        <time>2021-01-28T13:04:20.921Z</time>
      </trkpt>
      <trkpt lat="45.707760" lon="10.199916">
        <ele>537.581573</ele>
        <time>2021-01-28T13:04:21.441Z</time>
      </trkpt>
      <trkpt lat="45.707685" lon="10.200083">
        <ele>538.401872</ele>
        <time>2021-01-28T13:04:27.967Z</time>
      </trkpt>
      <trkpt lat="45.707652" lon="10.200173">
        <ele>538.821833</ele>
        <time>2021-01-28T13:04:29.939Z</time>
      </trkpt>
      <trkpt lat="45.707636" lon="10.200214">
        <ele>539.015873</ele>
        <time>2021-01-28T13:04:30.594Z</time>
      </trkpt>
      <trkpt lat="45.707632" lon="10.200233">
        <ele>539.097859</ele>
        <time>2021-01-28T13:04:30.881Z</time>
      </trkpt>
      <trkpt lat="45.707638" lon="10.200263">
        <ele>539.226782</ele>
        <time>2021-01-28T13:04:31.835Z</time>
      </trkpt>
      <trkpt lat="45.707651" lon="10.200292">
        <ele>539.369153</ele>
        <time>2021-01-28T13:04:32.877Z</time>
      </trkpt>
      <trkpt lat="45.707683" lon="10.200316">
        <ele>539.582863</ele>
        <time>2021-01-28T13:04:33.392Z</time>
      </trkpt>
      <trkpt lat="45.707686" lon="10.200319">
        <ele>539.604511</ele>
        <time>2021-01-28T13:04:33.648Z</time>
      </trkpt>
      <trkpt lat="45.707703" lon="10.200313">
        <ele>539.708095</ele>
        <time>2021-01-28T13:04:33.831Z</time>
      </trkpt>
      <trkpt lat="45.707737" lon="10.200290">
        <ele>539.930558</ele>
        <time>2021-01-28T13:04:35.003Z</time>
      </trkpt>
      <trkpt lat="45.707836" lon="10.200132">
        <ele>540.807557</ele>
        <time>2021-01-28T13:04:42.947Z</time>
      </trkpt>
      <trkpt lat="45.707929" lon="10.199849">
        <ele>542.099717</ele>
        <time>2021-01-28T13:04:48.649Z</time>
      </trkpt>
      <trkpt lat="45.707962" lon="10.199680">
        <ele>542.824695</ele>
        <time>2021-01-28T13:04:56.855Z</time>
      </trkpt>
      <trkpt lat="45.707976" lon="10.199607">
        <ele>543.137449</ele>
        <time>2021-01-28T13:04:58.497Z</time>
      </trkpt>
      <trkpt lat="45.707988" lon="10.199404">
        <ele>544.066601</ele>
        <time>2021-01-28T13:05:02.183Z</time>
      </trkpt>
      <trkpt lat="45.708028" lon="10.198697">
        <ele>547.901007</ele>
        <time>2021-01-28T13:05:27.070Z</time>
      </trkpt>
      <trkpt lat="45.708034" lon="10.198262">
        <ele>550.252977</ele>
        <time>2021-01-28T13:05:39.920Z</time>
      </trkpt>
      <trkpt lat="45.708034" lon="10.198220">
        <ele>550.480019</ele>
        <time>2021-01-28T13:05:42.629Z</time>
      </trkpt>
      <trkpt lat="45.707975" lon="10.197722">
        <ele>553.210563</ele>
        <time>2021-01-28T13:05:59.294Z</time>
      </trkpt>
      <trkpt lat="45.707959" lon="10.197587">
        <ele>553.950780</ele>
        <time>2021-01-28T13:06:04.916Z</time>
      </trkpt>
      <trkpt lat="45.707855" lon="10.196904">
        <ele>557.729133</ele>
        <time>2021-01-28T13:06:24.265Z</time>
      </trkpt>
      <trkpt lat="45.707805" lon="10.196833">
        <ele>558.271500</ele>
        <time>2021-01-28T13:06:27.911Z</time>
      </trkpt>
      <trkpt lat="45.707743" lon="10.196798">
        <ele>558.784821</ele>
        <time>2021-01-28T13:06:31.953Z</time>
      </trkpt>
      <trkpt lat="45.707705" lon="10.196744">
        <ele>559.197172</ele>
        <time>2021-01-28T13:06:34.940Z</time>
      </trkpt>
      <trkpt lat="45.707712" lon="10.196667">
        <ele>559.614834</ele>
        <time>2021-01-28T13:06:37.823Z</time>
      </trkpt>
      <trkpt lat="45.707787" lon="10.196666">
        <ele>560.192544</ele>
        <time>2021-01-28T13:06:40.039Z</time>
      </trkpt>
      <trkpt lat="45.707905" lon="10.196788">
        <ele>561.313569</ele>
        <time>2021-01-28T13:06:46.694Z</time>
      </trkpt>
      <trkpt lat="45.708169" lon="10.197296">
        <ele>564.719591</ele>
        <time>2021-01-28T13:07:08.719Z</time>
      </trkpt>
      <trkpt lat="45.708310" lon="10.197594">
        <ele>566.655740</ele>
        <time>2021-01-28T13:07:19.261Z</time>
      </trkpt>
      <trkpt lat="45.708362" lon="10.197703">
        <ele>567.365774</ele>
        <time>2021-01-28T13:07:23.837Z</time>
      </trkpt>
      <trkpt lat="45.708561" lon="10.198081">
        <ele>569.911980</ele>
        <time>2021-01-28T13:07:37.786Z</time>
      </trkpt>
      <trkpt lat="45.708652" lon="10.198105">
        <ele>570.624694</ele>
        <time>2021-01-28T13:07:41.471Z</time>
      </trkpt>
      <trkpt lat="45.708713" lon="10.198047">
        <ele>571.188681</ele>
        <time>2021-01-28T13:07:43.897Z</time>
      </trkpt>
      <trkpt lat="45.708666" lon="10.197882">
        <ele>572.188471</ele>
        <time>2021-01-28T13:07:49.759Z</time>
      </trkpt>
      <trkpt lat="45.708531" lon="10.197679">
        <ele>573.788673</ele>
        <time>2021-01-28T13:07:58.493Z</time>
      </trkpt>
      <trkpt lat="45.708456" lon="10.197374">
        <ele>575.634511</ele>
        <time>2021-01-28T13:08:10.988Z</time>
      </trkpt>
      <trkpt lat="45.708456" lon="10.196881">
        <ele>578.448728</ele>
        <time>2021-01-28T13:08:28.162Z</time>
      </trkpt>
      <trkpt lat="45.708402" lon="10.196691">
        <ele>579.619703</ele>
        <time>2021-01-28T13:08:34.154Z</time>
      </trkpt>
      <trkpt lat="45.708267" lon="10.196459">
        <ele>581.343572</ele>
        <time>2021-01-28T13:08:44.618Z</time>
      </trkpt>
      <trkpt lat="45.708125" lon="10.196347">
        <ele>582.668777</ele>
        <time>2021-01-28T13:08:50.008Z</time>
      </trkpt>
      <trkpt lat="45.708115" lon="10.196246">
        <ele>583.251091</ele>
        <time>2021-01-28T13:08:52.012Z</time>
      </trkpt>
      <trkpt lat="45.708135" lon="10.196159">
        <ele>583.773938</ele>
        <time>2021-01-28T13:08:55.345Z</time>
      </trkpt>
      <trkpt lat="45.708203" lon="10.196139">
        <ele>584.341409</ele>
        <time>2021-01-28T13:08:59.204Z</time>
      </trkpt>
      <trkpt lat="45.708436" lon="10.196241">
        <ele>586.383807</ele>
        <time>2021-01-28T13:09:11.239Z</time>
      </trkpt>
      <trkpt lat="45.708690" lon="10.196410">
        <ele>589.413283</ele>
        <time>2021-01-28T13:09:28.038Z</time>
      </trkpt>
      <trkpt lat="45.708889" lon="10.196788">
        <ele>592.988902</ele>
        <time>2021-01-28T13:09:46.630Z</time>
      </trkpt>
      <trkpt lat="45.708997" lon="10.197200">
        <ele>596.312880</ele>
        <time>2021-01-28T13:10:04.650Z</time>
      </trkpt>
      <trkpt lat="45.709021" lon="10.197626">
        <ele>599.541016</ele>
        <time>2021-01-28T13:10:22.794Z</time>
      </trkpt>
      <trkpt lat="45.709038" lon="10.197819">
        <ele>601.010342</ele>
        <time>2021-01-28T13:10:33.511Z</time>
      </trkpt>
      <trkpt lat="45.709116" lon="10.197911">
        <ele>602.103365</ele>
        <time>2021-01-28T13:10:37.649Z</time>
      </trkpt>
      <trkpt lat="45.709244" lon="10.197863">
        <ele>603.534569</ele>
        <time>2021-01-28T13:10:44.650Z</time>
      </trkpt>
      <trkpt lat="45.709528" lon="10.197495">
        <ele>607.902355</ele>
        <time>2021-01-28T13:11:08.392Z</time>
      </trkpt>
      <trkpt lat="45.709610" lon="10.197296">
        <ele>609.839545</ele>
        <time>2021-01-28T13:11:19.435Z</time>
      </trkpt>
      <trkpt lat="45.709606" lon="10.196962">
        <ele>612.640140</ele>
        <time>2021-01-28T13:11:34.014Z</time>
      </trkpt>
      <trkpt lat="45.709657" lon="10.196802">
        <ele>614.114687</ele>
        <time>2021-01-28T13:11:42.635Z</time>
      </trkpt>
      <trkpt lat="45.709773" lon="10.196807">
        <ele>615.508021</ele>
        <time>2021-01-28T13:11:48.723Z</time>
      </trkpt>
      <trkpt lat="45.709785" lon="10.196807">
        <ele>615.652094</ele>
        <time>2021-01-28T13:11:49.792Z</time>
      </trkpt>
      <trkpt lat="45.710276" lon="10.197616">
        <ele>624.638311</ele>
        <time>2021-01-28T13:12:39.530Z</time>
      </trkpt>
      <trkpt lat="45.710516" lon="10.198328">
        <ele>630.606500</ele>
        <time>2021-01-28T13:13:12.738Z</time>
      </trkpt>
      <trkpt lat="45.710512" lon="10.198623">
        <ele>632.676055</ele>
        <time>2021-01-28T13:13:23.441Z</time>
      </trkpt>
      <trkpt lat="45.710597" lon="10.198812">
        <ele>634.252882</ele>
        <time>2021-01-28T13:13:32.245Z</time>
      </trkpt>
      <trkpt lat="45.710759" lon="10.198996">
        <ele>636.329802</ele>
        <time>2021-01-28T13:13:41.662Z</time>
      </trkpt>
      <trkpt lat="45.710844" lon="10.199091">
        <ele>637.412850</ele>
        <time>2021-01-28T13:13:47.406Z</time>
      </trkpt>
      <trkpt lat="45.711093" lon="10.199369">
        <ele>640.584272</ele>
        <time>2021-01-28T13:14:05.277Z</time>
      </trkpt>
      <trkpt lat="45.711382" lon="10.199660">
        <ele>644.132950</ele>
        <time>2021-01-28T13:14:24.229Z</time>
      </trkpt>
      <trkpt lat="45.711490" lon="10.199769">
        <ele>645.463091</ele>
        <time>2021-01-28T13:14:30.014Z</time>
      </trkpt>
      <trkpt lat="45.711519" lon="10.199784">
        <ele>645.778318</ele>
        <time>2021-01-28T13:14:33.119Z</time>
      </trkpt>
      <trkpt lat="45.711828" lon="10.199950">
        <ele>649.152329</ele>
        <time>2021-01-28T13:14:49.048Z</time>
      </trkpt>
      <trkpt lat="45.711989" lon="10.200283">
        <ele>652.043748</ele>
        <time>2021-01-28T13:15:04.812Z</time>
      </trkpt>
      <trkpt lat="45.712061" lon="10.200320">
        <ele>652.825794</ele>
        <time>2021-01-28T13:15:08.086Z</time>
      </trkpt>
      <trkpt lat="45.712104" lon="10.200271">
        <ele>653.387590</ele>
        <time>2021-01-28T13:15:14.015Z</time>
      </trkpt>
      <trkpt lat="45.712040" lon="10.199823">
        <ele>656.651972</ele>
        <time>2021-01-28T13:15:29.233Z</time>
      </trkpt>
      <trkpt lat="45.711668" lon="10.198396">
        <ele>667.975756</ele>
        <time>2021-01-28T13:16:28.158Z</time>
      </trkpt>
      <trkpt lat="45.711666" lon="10.198390">
        <ele>668.028775</ele>
        <time>2021-01-28T13:16:28.951Z</time>
      </trkpt>
      <trkpt lat="45.711410" lon="10.197595">
        <ele>675.010138</ele>
        <time>2021-01-28T13:17:04.618Z</time>
      </trkpt>
      <trkpt lat="45.711304" lon="10.197159">
        <ele>678.691738</ele>
        <time>2021-01-28T13:17:23.425Z</time>
      </trkpt>
      <trkpt lat="45.711346" lon="10.197051">
        <ele>679.677545</ele>
        <time>2021-01-28T13:17:31.211Z</time>
      </trkpt>
      <trkpt lat="45.711515" lon="10.197196">
        <ele>681.927449</ele>
        <time>2021-01-28T13:17:42.736Z</time>
      </trkpt>
      <trkpt lat="45.711832" lon="10.197716">
        <ele>687.518854</ele>
        <time>2021-01-28T13:18:13.787Z</time>
      </trkpt>
      <trkpt lat="45.712124" lon="10.197959">
        <ele>691.479942</ele>
        <time>2021-01-28T13:18:33.960Z</time>
      </trkpt>
      <trkpt lat="45.712509" lon="10.198588">
        <ele>698.330343</ele>
        <time>2021-01-28T13:19:12.845Z</time>
      </trkpt>
      <trkpt lat="45.713380" lon="10.199315">
        <ele>709.178355</ele>
        <time>2021-01-28T13:20:11.067Z</time>
      </trkpt>
      <trkpt lat="45.713781" lon="10.200102">
        <ele>715.546503</ele>
        <time>2021-01-28T13:20:46.044Z</time>
      </trkpt>
      <trkpt lat="45.713904" lon="10.200180">
        <ele>716.805750</ele>
        <time>2021-01-28T13:20:51.496Z</time>
      </trkpt>
      <trkpt lat="45.713944" lon="10.200156">
        <ele>717.211729</ele>
        <time>2021-01-28T13:20:54.700Z</time>
      </trkpt>
      <trkpt lat="45.713984" lon="10.200132">
        <ele>717.617708</ele>
        <time>2021-01-28T13:20:57.717Z</time>
      </trkpt>
      <trkpt lat="45.713993" lon="10.199999">
        <ele>718.491114</ele>
        <time>2021-01-28T13:21:01.567Z</time>
      </trkpt>
      <trkpt lat="45.713773" lon="10.199538">
        <ele>722.140917</ele>
        <time>2021-01-28T13:21:20.040Z</time>
      </trkpt>
      <trkpt lat="45.713401" lon="10.198909">
        <ele>728.022723</ele>
        <time>2021-01-28T13:21:48.993Z</time>
      </trkpt>
      <trkpt lat="45.713088" lon="10.198552">
        <ele>732.112710</ele>
        <time>2021-01-28T13:22:11.240Z</time>
      </trkpt>
      <trkpt lat="45.712750" lon="10.197674">
        <ele>739.268487</ele>
        <time>2021-01-28T13:22:50.096Z</time>
      </trkpt>
      <trkpt lat="45.712830" lon="10.197583">
        <ele>740.312761</ele>
        <time>2021-01-28T13:22:56.729Z</time>
      </trkpt>
      <trkpt lat="45.712923" lon="10.197656">
        <ele>741.779515</ele>
        <time>2021-01-28T13:23:03.488Z</time>
      </trkpt>
      <trkpt lat="45.713481" lon="10.198437">
        <ele>753.320681</ele>
        <time>2021-01-28T13:24:00.803Z</time>
      </trkpt>
      <trkpt lat="45.714191" lon="10.198643">
        <ele>764.036411</ele>
        <time>2021-01-28T13:24:59.502Z</time>
      </trkpt>
      <trkpt lat="45.714779" lon="10.198982">
        <ele>772.532747</ele>
        <time>2021-01-28T13:25:46.589Z</time>
      </trkpt>
      <trkpt lat="45.714801" lon="10.199011">
        <ele>772.912936</ele>
        <time>2021-01-28T13:25:49.951Z</time>
      </trkpt>
      <trkpt lat="45.714827" lon="10.199047">
        <ele>773.372775</ele>
        <time>2021-01-28T13:25:51.888Z</time>
      </trkpt>
      <trkpt lat="45.714977" lon="10.199248">
        <ele>775.984738</ele>
        <time>2021-01-28T13:26:04.142Z</time>
      </trkpt>
      <trkpt lat="45.715096" lon="10.199393">
        <ele>777.971397</ele>
        <time>2021-01-28T13:26:15.957Z</time>
      </trkpt>
      <trkpt lat="45.715139" lon="10.199373">
        <ele>778.546268</ele>
        <time>2021-01-28T13:26:18.766Z</time>
      </trkpt>
      <trkpt lat="45.715172" lon="10.199315">
        <ele>779.210519</ele>
        <time>2021-01-28T13:26:22.137Z</time>
      </trkpt>
      <trkpt lat="45.715172" lon="10.199175">
        <ele>780.453467</ele>
        <time>2021-01-28T13:26:25.986Z</time>
      </trkpt>
      <trkpt lat="45.714931" lon="10.198818">
        <ele>784.862148</ele>
        <time>2021-01-28T13:26:44.556Z</time>
      </trkpt>
      <trkpt lat="45.714821" lon="10.198554">
        <ele>787.591618</ele>
        <time>2021-01-28T13:27:01.467Z</time>
      </trkpt>
      <trkpt lat="45.714787" lon="10.198473">
        <ele>788.430703</ele>
        <time>2021-01-28T13:27:04.819Z</time>
      </trkpt>
      <trkpt lat="45.714267" lon="10.197995">
        <ele>795.517281</ele>
        <time>2021-01-28T13:27:39.383Z</time>
      </trkpt>
      <trkpt lat="45.713878" lon="10.197910">
        <ele>799.906244</ele>
        <time>2021-01-28T13:28:00.295Z</time>
      </trkpt>
      <trkpt lat="45.713844" lon="10.197765">
        <ele>801.097467</ele>
        <time>2021-01-28T13:28:03.725Z</time>
      </trkpt>
      <trkpt lat="45.713881" lon="10.197736">
        <ele>801.567909</ele>
        <time>2021-01-28T13:28:04.861Z</time>
      </trkpt>
      <trkpt lat="45.713887" lon="10.197735">
        <ele>801.635282</ele>
        <time>2021-01-28T13:28:06.010Z</time>
      </trkpt>
      <trkpt lat="45.714622" lon="10.197850">
        <ele>809.881962</ele>
        <time>2021-01-28T13:28:50.368Z</time>
      </trkpt>
      <trkpt lat="45.715201" lon="10.198189">
        <ele>820.065081</ele>
        <time>2021-01-28T13:29:35.403Z</time>
      </trkpt>
      <trkpt lat="45.716199" lon="10.199169">
        <ele>839.977093</ele>
        <time>2021-01-28T13:31:19.278Z</time>
      </trkpt>
      <trkpt lat="45.716601" lon="10.199781">
        <ele>850.628093</ele>
        <time>2021-01-28T13:32:15.156Z</time>
      </trkpt>
      <trkpt lat="45.716985" lon="10.200562">
        <ele>862.736157</ele>
        <time>2021-01-28T13:33:16.215Z</time>
      </trkpt>
      <trkpt lat="45.716968" lon="10.200937">
        <ele>867.499543</ele>
        <time>2021-01-28T13:33:38.292Z</time>
      </trkpt>
      <trkpt lat="45.716839" lon="10.201221">
        <ele>871.794192</ele>
        <time>2021-01-28T13:33:58.137Z</time>
      </trkpt>
      <trkpt lat="45.716731" lon="10.201458">
        <ele>874.557059</ele>
        <time>2021-01-28T13:34:13.289Z</time>
      </trkpt>
      <trkpt lat="45.716639" lon="10.201796">
        <ele>877.932947</ele>
        <time>2021-01-28T13:34:30.676Z</time>
      </trkpt>
      <trkpt lat="45.716628" lon="10.201838">
        <ele>878.350379</ele>
        <time>2021-01-28T13:34:33.460Z</time>
      </trkpt>
      <trkpt lat="45.716558" lon="10.202093">
        <ele>880.900156</ele>
        <time>2021-01-28T13:34:47.017Z</time>
      </trkpt>
      <trkpt lat="45.716563" lon="10.202256">
        <ele>882.418454</ele>
        <time>2021-01-28T13:34:53.801Z</time>
      </trkpt>
      <trkpt lat="45.716567" lon="10.202414">
        <ele>883.889726</ele>
        <time>2021-01-28T13:35:01.700Z</time>
      </trkpt>
      <trkpt lat="45.716744" lon="10.202457">
        <ele>886.282481</ele>
        <time>2021-01-28T13:35:13.138Z</time>
      </trkpt>
      <trkpt lat="45.716871" lon="10.202287">
        <ele>888.599314</ele>
        <time>2021-01-28T13:35:24.390Z</time>
      </trkpt>
      <trkpt lat="45.717070" lon="10.201524">
        <ele>896.178742</ele>
        <time>2021-01-28T13:36:00.533Z</time>
      </trkpt>
      <trkpt lat="45.717158" lon="10.201427">
        <ele>897.384889</ele>
        <time>2021-01-28T13:36:07.305Z</time>
      </trkpt>
      <trkpt lat="45.717213" lon="10.201458">
        <ele>898.019223</ele>
        <time>2021-01-28T13:36:10.650Z</time>
      </trkpt>
      <trkpt lat="45.717218" lon="10.201676">
        <ele>899.653629</ele>
        <time>2021-01-28T13:36:20.360Z</time>
      </trkpt>
      <trkpt lat="45.717158" lon="10.202142">
        <ele>903.204355</ele>
        <time>2021-01-28T13:36:40.360Z</time>
      </trkpt>
      <trkpt lat="45.717195" lon="10.202556">
        <ele>906.331867</ele>
        <time>2021-01-28T13:36:54.855Z</time>
      </trkpt>
      <trkpt lat="45.717201" lon="10.202620">
        <ele>906.815738</ele>
        <time>2021-01-28T13:36:58.903Z</time>
      </trkpt>
      <trkpt lat="45.717429" lon="10.203425">
        <ele>913.325197</ele>
        <time>2021-01-28T13:37:32.983Z</time>
      </trkpt>
      <trkpt lat="45.717570" lon="10.203749">
        <ele>915.897450</ele>
        <time>2021-01-28T13:37:48.128Z</time>
      </trkpt>
      <trkpt lat="45.717678" lon="10.204000">
        <ele>917.094707</ele>
        <time>2021-01-28T13:38:01.083Z</time>
      </trkpt>
      <trkpt lat="45.718057" lon="10.204395">
        <ele>919.820821</ele>
        <time>2021-01-28T13:38:23.076Z</time>
      </trkpt>
      <trkpt lat="45.718249" lon="10.204485">
        <ele>920.995790</ele>
        <time>2021-01-28T13:38:30.462Z</time>
      </trkpt>
      <trkpt lat="45.718449" lon="10.204578">
        <ele>922.218772</ele>
        <time>2021-01-28T13:38:36.592Z</time>
      </trkpt>
      <trkpt lat="45.718469" lon="10.204588">
        <ele>922.341978</ele>
        <time>2021-01-28T13:38:37.706Z</time>
      </trkpt>
      <trkpt lat="45.718600" lon="10.204787">
        <ele>923.452603</ele>
        <time>2021-01-28T13:38:42.572Z</time>
      </trkpt>
      <trkpt lat="45.718591" lon="10.205023">
        <ele>924.412354</ele>
        <time>2021-01-28T13:38:45.718Z</time>
      </trkpt>
      <trkpt lat="45.718452" lon="10.205320">
        <ele>925.864271</ele>
        <time>2021-01-28T13:38:50.640Z</time>
      </trkpt>
      <trkpt lat="45.718405" lon="10.205786">
        <ele>928.110997</ele>
        <time>2021-01-28T13:38:57.509Z</time>
      </trkpt>
      <trkpt lat="45.718498" lon="10.206561">
        <ele>931.911938</ele>
        <time>2021-01-28T13:39:18.452Z</time>
      </trkpt>
      <trkpt lat="45.718584" lon="10.206873">
        <ele>933.533281</ele>
        <time>2021-01-28T13:39:26.844Z</time>
      </trkpt>
      <trkpt lat="45.718646" lon="10.207094">
        <ele>934.684507</ele>
        <time>2021-01-28T13:39:36.075Z</time>
      </trkpt>
      <trkpt lat="45.719031" lon="10.207481">
        <ele>937.940773</ele>
        <time>2021-01-28T13:40:01.041Z</time>
      </trkpt>
      <trkpt lat="45.719034" lon="10.207489">
        <ele>937.984666</ele>
        <time>2021-01-28T13:40:01.711Z</time>
      </trkpt>
      <trkpt lat="45.719254" lon="10.207639">
        <ele>941.021950</ele>
        <time>2021-01-28T13:40:18.196Z</time>
      </trkpt>
      <trkpt lat="45.719508" lon="10.207729">
        <ele>944.868148</ele>
        <time>2021-01-28T13:40:34.405Z</time>
      </trkpt>
      <trkpt lat="45.719634" lon="10.207773">
        <ele>946.774524</ele>
        <time>2021-01-28T13:40:43.832Z</time>
      </trkpt>
      <trkpt lat="45.719852" lon="10.207849">
        <ele>950.072548</ele>
        <time>2021-01-28T13:40:59.288Z</time>
      </trkpt>
      <trkpt lat="45.719955" lon="10.207885">
        <ele>951.631012</ele>
        <time>2021-01-28T13:41:09.237Z</time>
      </trkpt>
      <trkpt lat="45.720177" lon="10.207957">
        <ele>954.976889</ele>
        <time>2021-01-28T13:41:27.855Z</time>
      </trkpt>
      <trkpt lat="45.721256" lon="10.208146">
        <ele>969.872900</ele>
        <time>2021-01-28T13:42:55.577Z</time>
      </trkpt>
      <trkpt lat="45.721497" lon="10.208156">
        <ele>972.782384</ele>
        <time>2021-01-28T13:43:11.860Z</time>
      </trkpt>
      <trkpt lat="45.722195" lon="10.208183">
        <ele>981.208559</ele>
        <time>2021-01-28T13:43:51.784Z</time>
      </trkpt>
      <trkpt lat="45.722570" lon="10.208094">
        <ele>985.795563</ele>
        <time>2021-01-28T13:44:12.654Z</time>
      </trkpt>
      <trkpt lat="45.722931" lon="10.208224">
        <ele>988.506361</ele>
        <time>2021-01-28T13:44:33.197Z</time>
      </trkpt>
      <trkpt lat="45.723009" lon="10.208230">
        <ele>988.992029</ele>
        <time>2021-01-28T13:44:37.672Z</time>
      </trkpt>
      <trkpt lat="45.724276" lon="10.208334">
        <ele>996.882593</ele>
        <time>2021-01-28T13:45:24.784Z</time>
      </trkpt>
      <trkpt lat="45.724340" lon="10.208363">
        <ele>997.299951</ele>
        <time>2021-01-28T13:45:26.909Z</time>
      </trkpt>
      <trkpt lat="45.724405" lon="10.208439">
        <ele>997.794197</ele>
        <time>2021-01-28T13:45:30.569Z</time>
      </trkpt>
      <trkpt lat="45.724320" lon="10.208642">
        <ele>997.701497</ele>
        <time>2021-01-28T13:45:34.368Z</time>
      </trkpt>
      <trkpt lat="45.724317" lon="10.209038">
        <ele>997.546409</ele>
        <time>2021-01-28T13:45:42.971Z</time>
      </trkpt>
      <trkpt lat="45.724369" lon="10.209326">
        <ele>997.429914</ele>
        <time>2021-01-28T13:45:46.926Z</time>
      </trkpt>
      <trkpt lat="45.724395" lon="10.209480">
        <ele>997.367867</ele>
        <time>2021-01-28T13:45:50.593Z</time>
      </trkpt>
      <trkpt lat="45.724369" lon="10.209326">
        <ele>997.305821</ele>
        <time>2021-01-28T13:45:53.261Z</time>
      </trkpt>
      <trkpt lat="45.724317" lon="10.209038">
        <ele>997.189326</ele>
        <time>2021-01-28T13:45:57.766Z</time>
      </trkpt>
      <trkpt lat="45.724320" lon="10.208642">
        <ele>997.034238</ele>
        <time>2021-01-28T13:46:01.922Z</time>
      </trkpt>
      <trkpt lat="45.724405" lon="10.208439">
        <ele>996.941538</ele>
        <time>2021-01-28T13:46:04.920Z</time>
      </trkpt>
      <trkpt lat="45.724340" lon="10.208363">
        <ele>996.894471</ele>
        <time>2021-01-28T13:46:05.669Z</time>
      </trkpt>
      <trkpt lat="45.724276" lon="10.208334">
        <ele>996.856816</ele>
        <time>2021-01-28T13:46:06.322Z</time>
      </trkpt>
      <trkpt lat="45.723009" lon="10.208230">
        <ele>988.712296</ele>
        <time>2021-01-28T13:46:18.091Z</time>
      </trkpt>
      <trkpt lat="45.722931" lon="10.208224">
        <ele>988.161650</ele>
        <time>2021-01-28T13:46:18.758Z</time>
      </trkpt>
      <trkpt lat="45.722570" lon="10.208094">
        <ele>985.537625</ele>
        <time>2021-01-28T13:46:21.958Z</time>
      </trkpt>
      <trkpt lat="45.722195" lon="10.208183">
        <ele>981.790118</ele>
        <time>2021-01-28T13:46:25.231Z</time>
      </trkpt>
      <trkpt lat="45.721497" lon="10.208156">
        <ele>972.662760</ele>
        <time>2021-01-28T13:46:31.200Z</time>
      </trkpt>
      <trkpt lat="45.721256" lon="10.208146">
        <ele>969.511163</ele>
        <time>2021-01-28T13:46:33.222Z</time>
      </trkpt>
      <trkpt lat="45.720177" lon="10.207957">
        <ele>954.944445</ele>
        <time>2021-01-28T13:46:42.198Z</time>
      </trkpt>
      <trkpt lat="45.719955" lon="10.207885">
        <ele>951.768297</ele>
        <time>2021-01-28T13:46:44.079Z</time>
      </trkpt>
      <trkpt lat="45.719852" lon="10.207849">
        <ele>950.288891</ele>
        <time>2021-01-28T13:46:44.949Z</time>
      </trkpt>
      <trkpt lat="45.719508" lon="10.207729">
        <ele>945.348499</ele>
        <time>2021-01-28T13:46:47.908Z</time>
      </trkpt>
      <trkpt lat="45.719254" lon="10.207639">
        <ele>941.697410</ele>
        <time>2021-01-28T13:46:50.113Z</time>
      </trkpt>
      <trkpt lat="45.719034" lon="10.207489">
        <ele>938.297518</ele>
        <time>2021-01-28T13:46:52.162Z</time>
      </trkpt>
      <trkpt lat="45.719031" lon="10.207481">
        <ele>938.209050</ele>
        <time>2021-01-28T13:46:52.213Z</time>
      </trkpt>
      <trkpt lat="45.718646" lon="10.207094">
        <ele>933.902256</ele>
        <time>2021-01-28T13:46:56.283Z</time>
      </trkpt>
      <trkpt lat="45.718584" lon="10.206873">
        <ele>932.940670</ele>
        <time>2021-01-28T13:46:57.726Z</time>
      </trkpt>
      <trkpt lat="45.718498" lon="10.206561">
        <ele>931.586407</ele>
        <time>2021-01-28T13:46:59.915Z</time>
      </trkpt>
      <trkpt lat="45.718405" lon="10.205786">
        <ele>928.411589</ele>
        <time>2021-01-28T13:47:05.011Z</time>
      </trkpt>
      <trkpt lat="45.718452" lon="10.205320">
        <ele>926.510658</ele>
        <time>2021-01-28T13:47:08.803Z</time>
      </trkpt>
      <trkpt lat="45.718591" lon="10.205023">
        <ele>925.061646</ele>
        <time>2021-01-28T13:47:11.783Z</time>
      </trkpt>
      <trkpt lat="45.718600" lon="10.204787">
        <ele>923.940317</ele>
        <time>2021-01-28T13:47:13.793Z</time>
      </trkpt>
      <trkpt lat="45.718469" lon="10.204588">
        <ele>922.642712</ele>
        <time>2021-01-28T13:47:15.800Z</time>
      </trkpt>
      <trkpt lat="45.718449" lon="10.204578">
        <ele>922.498764</ele>
        <time>2021-01-28T13:47:15.976Z</time>
      </trkpt>
      <trkpt lat="45.718249" lon="10.204485">
        <ele>921.069887</ele>
        <time>2021-01-28T13:47:18.073Z</time>
      </trkpt>
      <trkpt lat="45.718057" lon="10.204395">
        <ele>919.697105</ele>
        <time>2021-01-28T13:47:19.951Z</time>
      </trkpt>
      <trkpt lat="45.717678" lon="10.204000">
        <ele>916.512037</ele>
        <time>2021-01-28T13:47:24.091Z</time>
      </trkpt>
      <trkpt lat="45.717570" lon="10.203749">
        <ele>915.113215</ele>
        <time>2021-01-28T13:47:25.839Z</time>
      </trkpt>
      <trkpt lat="45.717429" lon="10.203425">
        <ele>913.301872</ele>
        <time>2021-01-28T13:47:28.126Z</time>
      </trkpt>
      <trkpt lat="45.717201" lon="10.202620">
        <ele>906.886099</ele>
        <time>2021-01-28T13:47:33.349Z</time>
      </trkpt>
      <trkpt lat="45.717195" lon="10.202556">
        <ele>906.389538</ele>
        <time>2021-01-28T13:47:33.717Z</time>
      </trkpt>
      <trkpt lat="45.717158" lon="10.202142">
        <ele>903.180010</ele>
        <time>2021-01-28T13:47:36.276Z</time>
      </trkpt>
      <trkpt lat="45.717218" lon="10.201676">
        <ele>899.536169</ele>
        <time>2021-01-28T13:47:39.098Z</time>
      </trkpt>
      <trkpt lat="45.717213" lon="10.201458">
        <ele>897.858902</ele>
        <time>2021-01-28T13:47:40.387Z</time>
      </trkpt>
      <trkpt lat="45.717158" lon="10.201427">
        <ele>897.207933</ele>
        <time>2021-01-28T13:47:40.893Z</time>
      </trkpt>
      <trkpt lat="45.717070" lon="10.201524">
        <ele>895.984933</ele>
        <time>2021-01-28T13:47:41.841Z</time>
      </trkpt>
      <trkpt lat="45.716871" lon="10.202287">
        <ele>888.808130</ele>
        <time>2021-01-28T13:47:46.657Z</time>
      </trkpt>
      <trkpt lat="45.716744" lon="10.202457">
        <ele>886.370705</ele>
        <time>2021-01-28T13:47:48.121Z</time>
      </trkpt>
      <trkpt lat="45.716567" lon="10.202414">
        <ele>883.853406</ele>
        <time>2021-01-28T13:47:49.641Z</time>
      </trkpt>
      <trkpt lat="45.716563" lon="10.202256">
        <ele>882.305553</ele>
        <time>2021-01-28T13:47:50.567Z</time>
      </trkpt>
      <trkpt lat="45.716558" lon="10.202093">
        <ele>880.708227</ele>
        <time>2021-01-28T13:47:51.538Z</time>
      </trkpt>
      <trkpt lat="45.716628" lon="10.201838">
        <ele>878.025733</ele>
        <time>2021-01-28T13:47:53.138Z</time>
      </trkpt>
      <trkpt lat="45.716639" lon="10.201796">
        <ele>877.586573</ele>
        <time>2021-01-28T13:47:53.397Z</time>
      </trkpt>
      <trkpt lat="45.716731" lon="10.201458">
        <ele>874.034968</ele>
        <time>2021-01-28T13:47:55.529Z</time>
      </trkpt>
      <trkpt lat="45.716839" lon="10.201221">
        <ele>871.264266</ele>
        <time>2021-01-28T13:47:57.166Z</time>
      </trkpt>
      <trkpt lat="45.716968" lon="10.200937">
        <ele>867.947303</ele>
        <time>2021-01-28T13:47:59.121Z</time>
      </trkpt>
      <trkpt lat="45.716985" lon="10.200562">
        <ele>863.130637</ele>
        <time>2021-01-28T13:48:01.292Z</time>
      </trkpt>
      <trkpt lat="45.716601" lon="10.199781">
        <ele>850.805434</ele>
        <time>2021-01-28T13:48:06.769Z</time>
      </trkpt>
      <trkpt lat="45.716199" lon="10.199169">
        <ele>839.963424</ele>
        <time>2021-01-28T13:48:11.570Z</time>
      </trkpt>
      <trkpt lat="45.715201" lon="10.198189">
        <ele>820.299840</ele>
        <time>2021-01-28T13:48:21.529Z</time>
      </trkpt>
      <trkpt lat="45.714622" lon="10.197850">
        <ele>810.574441</ele>
        <time>2021-01-28T13:48:26.747Z</time>
      </trkpt>
      <trkpt lat="45.713887" lon="10.197735">
        <ele>801.357446</ele>
        <time>2021-01-28T13:48:33.038Z</time>
      </trkpt>
      <trkpt lat="45.713881" lon="10.197736">
        <ele>801.291826</ele>
        <time>2021-01-28T13:48:33.126Z</time>
      </trkpt>
      <trkpt lat="45.713844" lon="10.197765">
        <ele>800.833625</ele>
        <time>2021-01-28T13:48:33.558Z</time>
      </trkpt>
      <trkpt lat="45.713878" lon="10.197910">
        <ele>799.673398</ele>
        <time>2021-01-28T13:48:34.597Z</time>
      </trkpt>
      <trkpt lat="45.714267" lon="10.197995">
        <ele>795.398637</ele>
        <time>2021-01-28T13:48:37.997Z</time>
      </trkpt>
      <trkpt lat="45.714787" lon="10.198473">
        <ele>788.686214</ele>
        <time>2021-01-28T13:48:43.308Z</time>
      </trkpt>
      <trkpt lat="45.714821" lon="10.198554">
        <ele>787.969341</ele>
        <time>2021-01-28T13:48:43.884Z</time>
      </trkpt>
      <trkpt lat="45.714931" lon="10.198818">
        <ele>785.291627</ele>
        <time>2021-01-28T13:48:45.664Z</time>
      </trkpt>
      <trkpt lat="45.715172" lon="10.199175">
        <ele>780.636008</ele>
        <time>2021-01-28T13:48:48.665Z</time>
      </trkpt>
      <trkpt lat="45.715172" lon="10.199315">
        <ele>779.323440</ele>
        <time>2021-01-28T13:48:49.556Z</time>
      </trkpt>
      <trkpt lat="45.715139" lon="10.199373">
        <ele>778.621983</ele>
        <time>2021-01-28T13:48:49.999Z</time>
      </trkpt>
      <trkpt lat="45.715096" lon="10.199393">
        <ele>778.014913</ele>
        <time>2021-01-28T13:48:50.381Z</time>
      </trkpt>
      <trkpt lat="45.714977" lon="10.199248">
        <ele>775.916978</ele>
        <time>2021-01-28T13:48:51.676Z</time>
      </trkpt>
      <trkpt lat="45.714827" lon="10.199047">
        <ele>773.158714</ele>
        <time>2021-01-28T13:48:53.432Z</time>
      </trkpt>
      <trkpt lat="45.714801" lon="10.199011">
        <ele>772.673119</ele>
        <time>2021-01-28T13:48:53.747Z</time>
      </trkpt>
      <trkpt lat="45.714779" lon="10.198982">
        <ele>772.271634</ele>
        <time>2021-01-28T13:48:54.006Z</time>
      </trkpt>
      <trkpt lat="45.714191" lon="10.198643">
        <ele>763.760499</ele>
        <time>2021-01-28T13:48:59.273Z</time>
      </trkpt>
      <trkpt lat="45.713481" lon="10.198437">
        <ele>753.468532</ele>
        <time>2021-01-28T13:49:05.253Z</time>
      </trkpt>
      <trkpt lat="45.712923" lon="10.197656">
        <ele>742.328557</ele>
        <time>2021-01-28T13:49:11.756Z</time>
      </trkpt>
      <trkpt lat="45.712830" lon="10.197583">
        <ele>740.814347</ele>
        <time>2021-01-28T13:49:12.650Z</time>
      </trkpt>
      <trkpt lat="45.712750" lon="10.197674">
        <ele>739.355661</ele>
        <time>2021-01-28T13:49:13.513Z</time>
      </trkpt>
      <trkpt lat="45.713088" lon="10.198552">
        <ele>731.878409</ele>
        <time>2021-01-28T13:49:19.545Z</time>
      </trkpt>
      <trkpt lat="45.713401" lon="10.198909">
        <ele>727.984170</ele>
        <time>2021-01-28T13:49:22.988Z</time>
      </trkpt>
      <trkpt lat="45.713773" lon="10.199538">
        <ele>722.382556</ele>
        <time>2021-01-28T13:49:28.020Z</time>
      </trkpt>
      <trkpt lat="45.713993" lon="10.199999">
        <ele>718.594281</ele>
        <time>2021-01-28T13:49:31.459Z</time>
      </trkpt>
      <trkpt lat="45.713984" lon="10.200132">
        <ele>717.691065</ele>
        <time>2021-01-28T13:49:32.309Z</time>
      </trkpt>
      <trkpt lat="45.713944" lon="10.200156">
        <ele>717.271229</ele>
        <time>2021-01-28T13:49:32.670Z</time>
      </trkpt>
      <trkpt lat="45.713904" lon="10.200180">
        <ele>716.851394</ele>
        <time>2021-01-28T13:49:33.036Z</time>
      </trkpt>
      <trkpt lat="45.713781" lon="10.200102">
        <ele>715.549166</ele>
        <time>2021-01-28T13:49:34.257Z</time>
      </trkpt>
      <trkpt lat="45.713380" lon="10.199315">
        <ele>708.963662</ele>
        <time>2021-01-28T13:49:40.188Z</time>
      </trkpt>
      <trkpt lat="45.712509" lon="10.198588">
        <ele>698.493548</ele>
        <time>2021-01-28T13:49:48.807Z</time>
      </trkpt>
      <trkpt lat="45.712124" lon="10.197959">
        <ele>691.563235</ele>
        <time>2021-01-28T13:49:53.724Z</time>
      </trkpt>
      <trkpt lat="45.711832" lon="10.197716">
        <ele>687.555939</ele>
        <time>2021-01-28T13:49:56.595Z</time>
      </trkpt>
      <trkpt lat="45.711515" lon="10.197196">
        <ele>681.836573</ele>
        <time>2021-01-28T13:50:00.671Z</time>
      </trkpt>
      <trkpt lat="45.711346" lon="10.197051">
        <ele>679.579838</ele>
        <time>2021-01-28T13:50:02.355Z</time>
      </trkpt>
      <trkpt lat="45.711304" lon="10.197159">
        <ele>678.610402</ele>
        <time>2021-01-28T13:50:03.070Z</time>
      </trkpt>
      <trkpt lat="45.711410" lon="10.197595">
        <ele>674.989941</ele>
        <time>2021-01-28T13:50:05.830Z</time>
      </trkpt>
      <trkpt lat="45.711666" lon="10.198390">
        <ele>668.124513</ele>
        <time>2021-01-28T13:50:11.060Z</time>
      </trkpt>
      <trkpt lat="45.711668" lon="10.198396">
        <ele>668.072375</ele>
        <time>2021-01-28T13:50:11.121Z</time>
      </trkpt>
      <trkpt lat="45.712040" lon="10.199823">
        <ele>656.599877</ele>
        <time>2021-01-28T13:50:20.293Z</time>
      </trkpt>
      <trkpt lat="45.712104" lon="10.200271">
        <ele>653.375661</ele>
        <time>2021-01-28T13:50:23.117Z</time>
      </trkpt>
      <trkpt lat="45.712061" lon="10.200320">
        <ele>652.820778</ele>
        <time>2021-01-28T13:50:23.573Z</time>
      </trkpt>
      <trkpt lat="45.711989" lon="10.200283">
        <ele>652.048355</ele>
        <time>2021-01-28T13:50:24.256Z</time>
      </trkpt>
      <trkpt lat="45.711828" lon="10.199950">
        <ele>649.192513</ele>
        <time>2021-01-28T13:50:26.688Z</time>
      </trkpt>
      <trkpt lat="45.711519" lon="10.199784">
        <ele>645.860018</ele>
        <time>2021-01-28T13:50:29.596Z</time>
      </trkpt>
      <trkpt lat="45.711490" lon="10.199769">
        <ele>645.548670</ele>
        <time>2021-01-28T13:50:29.844Z</time>
      </trkpt>
      <trkpt lat="45.711382" lon="10.199660">
        <ele>644.214514</ele>
        <time>2021-01-28T13:50:31.025Z</time>
      </trkpt>
      <trkpt lat="45.711093" lon="10.199369">
        <ele>640.607351</ele>
        <time>2021-01-28T13:50:34.083Z</time>
      </trkpt>
      <trkpt lat="45.710844" lon="10.199091">
        <ele>637.355838</ele>
        <time>2021-01-28T13:50:36.789Z</time>
      </trkpt>
      <trkpt lat="45.710759" lon="10.198996">
        <ele>636.245439</ele>
        <time>2021-01-28T13:50:37.720Z</time>
      </trkpt>
      <trkpt lat="45.710597" lon="10.198812">
        <ele>634.116069</ele>
        <time>2021-01-28T13:50:39.559Z</time>
      </trkpt>
      <trkpt lat="45.710512" lon="10.198623">
        <ele>632.499421</ele>
        <time>2021-01-28T13:50:40.908Z</time>
      </trkpt>
      <trkpt lat="45.710516" lon="10.198328">
        <ele>630.377602</ele>
        <time>2021-01-28T13:50:42.705Z</time>
      </trkpt>
      <trkpt lat="45.710276" lon="10.197616">
        <ele>624.692073</ele>
        <time>2021-01-28T13:50:47.413Z</time>
      </trkpt>
      <trkpt lat="45.709785" lon="10.196807">
        <ele>615.776319</ele>
        <time>2021-01-28T13:50:53.709Z</time>
      </trkpt>
      <trkpt lat="45.709657" lon="10.196802">
        <ele>614.234633</ele>
        <time>2021-01-28T13:50:54.813Z</time>
      </trkpt>
      <trkpt lat="45.709606" lon="10.196962">
        <ele>612.755926</ele>
        <time>2021-01-28T13:50:55.840Z</time>
      </trkpt>
      <trkpt lat="45.709610" lon="10.197296">
        <ele>609.947430</ele>
        <time>2021-01-28T13:50:57.822Z</time>
      </trkpt>
      <trkpt lat="45.709528" lon="10.197495">
        <ele>608.004775</ele>
        <time>2021-01-28T13:50:59.171Z</time>
      </trkpt>
      <trkpt lat="45.709244" lon="10.197863">
        <ele>603.393439</ele>
        <time>2021-01-28T13:51:02.421Z</time>
      </trkpt>
      <trkpt lat="45.709116" lon="10.197911">
        <ele>601.891856</ele>
        <time>2021-01-28T13:51:03.575Z</time>
      </trkpt>
      <trkpt lat="45.709038" lon="10.197819">
        <ele>600.841466</ele>
        <time>2021-01-28T13:51:04.484Z</time>
      </trkpt>
      <trkpt lat="45.709021" lon="10.197626">
        <ele>599.429450</ele>
        <time>2021-01-28T13:51:05.616Z</time>
      </trkpt>
      <trkpt lat="45.708997" lon="10.197200">
        <ele>596.327226</ele>
        <time>2021-01-28T13:51:08.160Z</time>
      </trkpt>
      <trkpt lat="45.708889" lon="10.196788">
        <ele>593.132899</ele>
        <time>2021-01-28T13:51:10.788Z</time>
      </trkpt>
      <trkpt lat="45.708690" lon="10.196410">
        <ele>589.696746</ele>
        <time>2021-01-28T13:51:13.631Z</time>
      </trkpt>
      <trkpt lat="45.708436" lon="10.196241">
        <ele>586.785433</ele>
        <time>2021-01-28T13:51:16.013Z</time>
      </trkpt>
      <trkpt lat="45.708203" lon="10.196139">
        <ele>584.252834</ele>
        <time>2021-01-28T13:51:18.147Z</time>
      </trkpt>
      <trkpt lat="45.708135" lon="10.196159">
        <ele>583.586840</ele>
        <time>2021-01-28T13:51:18.737Z</time>
      </trkpt>
      <trkpt lat="45.708115" lon="10.196246">
        <ele>583.074521</ele>
        <time>2021-01-28T13:51:19.290Z</time>
      </trkpt>
      <trkpt lat="45.708125" lon="10.196347">
        <ele>582.503933</ele>
        <time>2021-01-28T13:51:20.018Z</time>
      </trkpt>
      <trkpt lat="45.708267" lon="10.196459">
        <ele>581.205413</ele>
        <time>2021-01-28T13:51:21.563Z</time>
      </trkpt>
      <trkpt lat="45.708402" lon="10.196691">
        <ele>579.516257</ele>
        <time>2021-01-28T13:51:23.415Z</time>
      </trkpt>
      <trkpt lat="45.708456" lon="10.196881">
        <ele>578.368860</ele>
        <time>2021-01-28T13:51:24.710Z</time>
      </trkpt>
      <trkpt lat="45.708456" lon="10.197374">
        <ele>575.611312</ele>
        <time>2021-01-28T13:51:27.730Z</time>
      </trkpt>
      <trkpt lat="45.708531" lon="10.197679">
        <ele>573.802643</ele>
        <time>2021-01-28T13:51:29.675Z</time>
      </trkpt>
      <trkpt lat="45.708666" lon="10.197882">
        <ele>572.234664</ele>
        <time>2021-01-28T13:51:31.428Z</time>
      </trkpt>
      <trkpt lat="45.708713" lon="10.198047">
        <ele>571.237926</ele>
        <time>2021-01-28T13:51:32.528Z</time>
      </trkpt>
      <trkpt lat="45.708652" lon="10.198105">
        <ele>570.651427</ele>
        <time>2021-01-28T13:51:33.226Z</time>
      </trkpt>
      <trkpt lat="45.708561" lon="10.198081">
        <ele>569.910266</ele>
        <time>2021-01-28T13:51:34.076Z</time>
      </trkpt>
      <trkpt lat="45.708362" lon="10.197703">
        <ele>567.333928</ele>
        <time>2021-01-28T13:51:37.063Z</time>
      </trkpt>
      <trkpt lat="45.708310" lon="10.197594">
        <ele>566.620643</ele>
        <time>2021-01-28T13:51:37.868Z</time>
      </trkpt>
      <trkpt lat="45.708169" lon="10.197296">
        <ele>564.675629</ele>
        <time>2021-01-28T13:51:40.142Z</time>
      </trkpt>
      <trkpt lat="45.707905" lon="10.196788">
        <ele>561.254012</ele>
        <time>2021-01-28T13:51:44.017Z</time>
      </trkpt>
      <trkpt lat="45.707787" lon="10.196666">
        <ele>560.127854</ele>
        <time>2021-01-28T13:51:45.313Z</time>
      </trkpt>
      <trkpt lat="45.707712" lon="10.196667">
        <ele>559.547498</ele>
        <time>2021-01-28T13:51:46.047Z</time>
      </trkpt>
      <trkpt lat="45.707705" lon="10.196744">
        <ele>559.127925</ele>
        <time>2021-01-28T13:51:46.520Z</time>
      </trkpt>
      <trkpt lat="45.707743" lon="10.196798">
        <ele>558.713685</ele>
        <time>2021-01-28T13:51:46.974Z</time>
      </trkpt>
      <trkpt lat="45.707805" lon="10.196833">
        <ele>558.198014</ele>
        <time>2021-01-28T13:51:47.542Z</time>
      </trkpt>
      <trkpt lat="45.707855" lon="10.196904">
        <ele>557.653164</ele>
        <time>2021-01-28T13:51:48.157Z</time>
      </trkpt>
      <trkpt lat="45.707959" lon="10.197587">
        <ele>553.919116</ele>
        <time>2021-01-28T13:51:52.632Z</time>
      </trkpt>
      <trkpt lat="45.707975" lon="10.197722">
        <ele>553.199538</ele>
        <time>2021-01-28T13:51:53.452Z</time>
      </trkpt>
      <trkpt lat="45.708034" lon="10.198220">
        <ele>550.545125</ele>
        <time>2021-01-28T13:51:56.575Z</time>
      </trkpt>
      <trkpt lat="45.708034" lon="10.198262">
        <ele>550.324413</ele>
        <time>2021-01-28T13:51:56.813Z</time>
      </trkpt>
      <trkpt lat="45.708028" lon="10.198697">
        <ele>548.038020</ele>
        <time>2021-01-28T13:51:59.556Z</time>
      </trkpt>
      <trkpt lat="45.707988" lon="10.199404">
        <ele>544.310523</ele>
        <time>2021-01-28T13:52:03.900Z</time>
      </trkpt>
      <trkpt lat="45.707976" lon="10.199607">
        <ele>543.239932</ele>
        <time>2021-01-28T13:52:05.376Z</time>
      </trkpt>
      <trkpt lat="45.707962" lon="10.199680">
        <ele>542.842109</ele>
        <time>2021-01-28T13:52:05.894Z</time>
      </trkpt>
      <trkpt lat="45.707929" lon="10.199849">
        <ele>541.919937</ele>
        <time>2021-01-28T13:52:06.927Z</time>
      </trkpt>
      <trkpt lat="45.707836" lon="10.200132">
        <ele>540.663244</ele>
        <time>2021-01-28T13:52:09.193Z</time>
      </trkpt>
      <trkpt lat="45.707737" lon="10.200290">
        <ele>539.811305</ele>
        <time>2021-01-28T13:52:10.482Z</time>
      </trkpt>
      <trkpt lat="45.707703" lon="10.200313">
        <ele>539.595199</ele>
        <time>2021-01-28T13:52:10.846Z</time>
      </trkpt>
      <trkpt lat="45.707686" lon="10.200319">
        <ele>539.494575</ele>
        <time>2021-01-28T13:52:11.320Z</time>
      </trkpt>
      <trkpt lat="45.707683" lon="10.200316">
        <ele>539.473546</ele>
        <time>2021-01-28T13:52:11.347Z</time>
      </trkpt>
      <trkpt lat="45.707651" lon="10.200292">
        <ele>539.265943</ele>
        <time>2021-01-28T13:52:11.898Z</time>
      </trkpt>
      <trkpt lat="45.707638" lon="10.200263">
        <ele>539.127641</ele>
        <time>2021-01-28T13:52:12.117Z</time>
      </trkpt>
      <trkpt lat="45.707632" lon="10.200233">
        <ele>539.002401</ele>
        <time>2021-01-28T13:52:12.315Z</time>
      </trkpt>
      <trkpt lat="45.707636" lon="10.200214">
        <ele>538.922758</ele>
        <time>2021-01-28T13:52:12.467Z</time>
      </trkpt>
      <trkpt lat="45.707652" lon="10.200173">
        <ele>538.734263</ele>
        <time>2021-01-28T13:52:12.871Z</time>
      </trkpt>
      <trkpt lat="45.707685" lon="10.200083">
        <ele>538.326302</ele>
        <time>2021-01-28T13:52:13.585Z</time>
      </trkpt>
      <trkpt lat="45.707760" lon="10.199916">
        <ele>537.529443</ele>
        <time>2021-01-28T13:52:14.811Z</time>
      </trkpt>
      <trkpt lat="45.707756" lon="10.199850">
        <ele>537.263570</ele>
        <time>2021-01-28T13:52:15.829Z</time>
      </trkpt>
      <trkpt lat="45.707749" lon="10.199757">
        <ele>536.888172</ele>
        <time>2021-01-28T13:52:16.425Z</time>
      </trkpt>
      <trkpt lat="45.707577" lon="10.198720">
        <ele>532.610596</ele>
        <time>2021-01-28T13:52:23.236Z</time>
      </trkpt>
      <trkpt lat="45.707475" lon="10.198614">
        <ele>531.886298</ele>
        <time>2021-01-28T13:52:24.443Z</time>
      </trkpt>
      <trkpt lat="45.707286" lon="10.198580">
        <ele>530.720205</ele>
        <time>2021-01-28T13:52:26.175Z</time>
      </trkpt>
      <trkpt lat="45.706900" lon="10.198115">
        <ele>527.557825</ele>
        <time>2021-01-28T13:52:31.114Z</time>
      </trkpt>
      <trkpt lat="45.706807" lon="10.198120">
        <ele>526.974367</ele>
        <time>2021-01-28T13:52:31.928Z</time>
      </trkpt>
      <trkpt lat="45.706772" lon="10.198178">
        <ele>526.638767</ele>
        <time>2021-01-28T13:52:32.469Z</time>
      </trkpt>
      <trkpt lat="45.706772" lon="10.198342">
        <ele>525.920765</ele>
        <time>2021-01-28T13:52:33.596Z</time>
      </trkpt>
      <trkpt lat="45.707049" lon="10.198856">
        <ele>523.078278</ele>
        <time>2021-01-28T13:52:37.705Z</time>
      </trkpt>
      <trkpt lat="45.707097" lon="10.199050">
        <ele>522.177203</ele>
        <time>2021-01-28T13:52:38.966Z</time>
      </trkpt>
      <trkpt lat="45.707053" lon="10.199253">
        <ele>521.246636</ele>
        <time>2021-01-28T13:52:40.256Z</time>
      </trkpt>
      <trkpt lat="45.706938" lon="10.199360">
        <ele>520.386840</ele>
        <time>2021-01-28T13:52:41.476Z</time>
      </trkpt>
      <trkpt lat="45.706346" lon="10.199350">
        <ele>515.772306</ele>
        <time>2021-01-28T13:52:46.709Z</time>
      </trkpt>
      <trkpt lat="45.706119" lon="10.199563">
        <ele>513.647139</ele>
        <time>2021-01-28T13:52:49.306Z</time>
      </trkpt>
      <trkpt lat="45.706093" lon="10.199565">
        <ele>513.443250</ele>
        <time>2021-01-28T13:52:49.523Z</time>
      </trkpt>
      <trkpt lat="45.706099" lon="10.199674">
        <ele>512.845345</ele>
        <time>2021-01-28T13:52:50.236Z</time>
      </trkpt>
      <trkpt lat="45.706115" lon="10.199854">
        <ele>511.853092</ele>
        <time>2021-01-28T13:52:51.453Z</time>
      </trkpt>
      <trkpt lat="45.706236" lon="10.200016">
        <ele>510.555964</ele>
        <time>2021-01-28T13:52:52.855Z</time>
      </trkpt>
      <trkpt lat="45.706306" lon="10.200147">
        <ele>509.653951</ele>
        <time>2021-01-28T13:52:53.941Z</time>
      </trkpt>
      <trkpt lat="45.706206" lon="10.200441">
        <ele>507.865685</ele>
        <time>2021-01-28T13:52:55.921Z</time>
      </trkpt>
      <trkpt lat="45.706235" lon="10.200539">
        <ele>507.283654</ele>
        <time>2021-01-28T13:52:56.580Z</time>
      </trkpt>
      <trkpt lat="45.706272" lon="10.200662">
        <ele>506.551295</ele>
        <time>2021-01-28T13:52:57.457Z</time>
      </trkpt>
      <trkpt lat="45.706590" lon="10.200809">
        <ele>503.616630</ele>
        <time>2021-01-28T13:53:00.356Z</time>
      </trkpt>
      <trkpt lat="45.706753" lon="10.200972">
        <ele>501.842826</ele>
        <time>2021-01-28T13:53:02.087Z</time>
      </trkpt>
      <trkpt lat="45.706928" lon="10.201143">
        <ele>499.952596</ele>
        <time>2021-01-28T13:53:03.923Z</time>
      </trkpt>
      <trkpt lat="45.707029" lon="10.201334">
        <ele>498.459879</ele>
        <time>2021-01-28T13:53:05.352Z</time>
      </trkpt>
      <trkpt lat="45.707252" lon="10.201968">
        <ele>494.036962</ele>
        <time>2021-01-28T13:53:09.815Z</time>
      </trkpt>
      <trkpt lat="45.707259" lon="10.202091">
        <ele>493.268071</ele>
        <time>2021-01-28T13:53:10.581Z</time>
      </trkpt>
      <trkpt lat="45.707054" lon="10.202220">
        <ele>491.270244</ele>
        <time>2021-01-28T13:53:12.534Z</time>
      </trkpt>
      <trkpt lat="45.706963" lon="10.202183">
        <ele>490.426243</ele>
        <time>2021-01-28T13:53:13.392Z</time>
      </trkpt>
      <trkpt lat="45.706561" lon="10.201649">
        <ele>484.841770</ele>
        <time>2021-01-28T13:53:18.028Z</time>
      </trkpt>
      <trkpt lat="45.705928" lon="10.201521">
        <ele>478.286123</ele>
        <time>2021-01-28T13:53:23.535Z</time>
      </trkpt>
      <trkpt lat="45.705832" lon="10.201447">
        <ele>477.168097</ele>
        <time>2021-01-28T13:53:24.442Z</time>
      </trkpt>
      <trkpt lat="45.705718" lon="10.201238">
        <ele>475.268935</ele>
        <time>2021-01-28T13:53:26.057Z</time>
      </trkpt>
      <trkpt lat="45.705655" lon="10.201247">
        <ele>474.619680</ele>
        <time>2021-01-28T13:53:26.624Z</time>
      </trkpt>
      <trkpt lat="45.705630" lon="10.201323">
        <ele>474.018061</ele>
        <time>2021-01-28T13:53:27.115Z</time>
      </trkpt>
      <trkpt lat="45.705685" lon="10.201498">
        <ele>472.643760</ele>
        <time>2021-01-28T13:53:28.251Z</time>
      </trkpt>
      <trkpt lat="45.705858" lon="10.202005">
        <ele>468.819950</ele>
        <time>2021-01-28T13:53:31.686Z</time>
      </trkpt>
      <trkpt lat="45.705862" lon="10.202176">
        <ele>467.679954</ele>
        <time>2021-01-28T13:53:32.789Z</time>
      </trkpt>
      <trkpt lat="45.705797" lon="10.202305">
        <ele>466.620061</ele>
        <time>2021-01-28T13:53:33.734Z</time>
      </trkpt>
      <trkpt lat="45.705482" lon="10.202554">
        <ele>463.187117</ele>
        <time>2021-01-28T13:53:36.812Z</time>
      </trkpt>
      <trkpt lat="45.705352" lon="10.202519">
        <ele>461.925050</ele>
        <time>2021-01-28T13:53:37.963Z</time>
      </trkpt>
      <trkpt lat="45.705254" lon="10.202371">
        <ele>460.566118</ele>
        <time>2021-01-28T13:53:39.193Z</time>
      </trkpt>
      <trkpt lat="45.705104" lon="10.201833">
        <ele>456.706301</ele>
        <time>2021-01-28T13:53:42.681Z</time>
      </trkpt>
      <trkpt lat="45.704958" lon="10.201541">
        <ele>454.329918</ele>
        <time>2021-01-28T13:53:44.921Z</time>
      </trkpt>
      <trkpt lat="45.704855" lon="10.201452">
        <ele>453.257914</ele>
        <time>2021-01-28T13:53:45.970Z</time>
      </trkpt>
      <trkpt lat="45.704732" lon="10.201490">
        <ele>452.136628</ele>
        <time>2021-01-28T13:53:47.114Z</time>
      </trkpt>
      <trkpt lat="45.704689" lon="10.201497">
        <ele>451.750982</ele>
        <time>2021-01-28T13:53:47.490Z</time>
      </trkpt>
      <trkpt lat="45.704812" lon="10.201647">
        <ele>450.311287</ele>
        <time>2021-01-28T13:53:48.878Z</time>
      </trkpt>
      <trkpt lat="45.704908" lon="10.201843">
        <ele>448.821467</ele>
        <time>2021-01-28T13:53:50.378Z</time>
      </trkpt>
      <trkpt lat="45.704871" lon="10.202186">
        <ele>446.661628</ele>
        <time>2021-01-28T13:53:52.480Z</time>
      </trkpt>
      <trkpt lat="45.704809" lon="10.202592">
        <ele>444.075343</ele>
        <time>2021-01-28T13:53:55.002Z</time>
      </trkpt>
      <trkpt lat="45.704756" lon="10.202744">
        <ele>443.018078</ele>
        <time>2021-01-28T13:53:56.057Z</time>
      </trkpt>
      <trkpt lat="45.704657" lon="10.202817">
        <ele>442.025781</ele>
        <time>2021-01-28T13:53:57.034Z</time>
      </trkpt>
      <trkpt lat="45.704560" lon="10.202808">
        <ele>441.159592</ele>
        <time>2021-01-28T13:53:57.862Z</time>
      </trkpt>
      <trkpt lat="45.704433" lon="10.202697">
        <ele>439.833722</ele>
        <time>2021-01-28T13:53:59.166Z</time>
      </trkpt>
      <trkpt lat="45.704112" lon="10.202108">
        <ele>435.085689</ele>
        <time>2021-01-28T13:54:03.717Z</time>
      </trkpt>
      <trkpt lat="45.704047" lon="10.201868">
        <ele>433.436630</ele>
        <time>2021-01-28T13:54:05.275Z</time>
      </trkpt>
      <trkpt lat="45.703957" lon="10.201779">
        <ele>432.433304</ele>
        <time>2021-01-28T13:54:06.236Z</time>
      </trkpt>
      <trkpt lat="45.703873" lon="10.201843">
        <ele>431.560470</ele>
        <time>2021-01-28T13:54:07.065Z</time>
      </trkpt>
      <trkpt lat="45.703845" lon="10.201942">
        <ele>430.876217</ele>
        <time>2021-01-28T13:54:07.693Z</time>
      </trkpt>
      <trkpt lat="45.704026" lon="10.202448">
        <ele>427.234189</ele>
        <time>2021-01-28T13:54:11.157Z</time>
      </trkpt>
      <trkpt lat="45.704026" lon="10.203076">
        <ele>423.211088</ele>
        <time>2021-01-28T13:54:15.011Z</time>
      </trkpt>
      <trkpt lat="45.704002" lon="10.203378">
        <ele>421.161544</ele>
        <time>2021-01-28T13:54:16.878Z</time>
      </trkpt>
      <trkpt lat="45.703998" lon="10.203426">
        <ele>420.810791</ele>
        <time>2021-01-28T13:54:17.159Z</time>
      </trkpt>
      <trkpt lat="45.703995" lon="10.203661">
        <ele>419.105376</ele>
        <time>2021-01-28T13:54:18.648Z</time>
      </trkpt>
      <trkpt lat="45.703994" lon="10.203723">
        <ele>418.655391</ele>
        <time>2021-01-28T13:54:19.026Z</time>
      </trkpt>
      <trkpt lat="45.704061" lon="10.204246">
        <ele>414.797252</ele>
        <time>2021-01-28T13:54:22.217Z</time>
      </trkpt>
      <trkpt lat="45.703998" lon="10.204364">
        <ele>413.719518</ele>
        <time>2021-01-28T13:54:23.118Z</time>
      </trkpt>
      <trkpt lat="45.703884" lon="10.204401">
        <ele>412.505037</ele>
        <time>2021-01-28T13:54:24.105Z</time>
      </trkpt>
      <trkpt lat="45.703113" lon="10.203374">
        <ele>401.622175</ele>
        <time>2021-01-28T13:54:33.097Z</time>
      </trkpt>
      <trkpt lat="45.703081" lon="10.203320">
        <ele>401.124960</ele>
        <time>2021-01-28T13:54:33.503Z</time>
      </trkpt>
      <trkpt lat="45.703054" lon="10.202985">
        <ele>398.757385</ele>
        <time>2021-01-28T13:54:35.556Z</time>
      </trkpt>
      <trkpt lat="45.702969" lon="10.202321">
        <ele>394.017909</ele>
        <time>2021-01-28T13:54:39.594Z</time>
      </trkpt>
      <trkpt lat="45.702903" lon="10.202196">
        <ele>392.917721</ele>
        <time>2021-01-28T13:54:40.534Z</time>
      </trkpt>
      <trkpt lat="45.702238" lon="10.201905">
        <ele>385.927249</ele>
        <time>2021-01-28T13:54:46.510Z</time>
      </trkpt>
      <trkpt lat="45.702127" lon="10.201777">
        <ele>384.855341</ele>
        <time>2021-01-28T13:54:47.761Z</time>
      </trkpt>
      <trkpt lat="45.702109" lon="10.201192">
        <ele>382.665674</ele>
        <time>2021-01-28T13:54:51.499Z</time>
      </trkpt>
      <trkpt lat="45.702002" lon="10.200746">
        <ele>380.902242</ele>
        <time>2021-01-28T13:54:54.574Z</time>
      </trkpt>
      <trkpt lat="45.701980" lon="10.199740">
        <ele>377.138560</ele>
        <time>2021-01-28T13:55:01.448Z</time>
      </trkpt>
      <trkpt lat="45.702030" lon="10.199346">
        <ele>375.641110</ele>
        <time>2021-01-28T13:55:04.382Z</time>
      </trkpt>
      <trkpt lat="45.701962" lon="10.198966">
        <ele>374.342083</ele>
        <time>2021-01-28T13:55:06.988Z</time>
      </trkpt>
      <trkpt lat="45.702061" lon="10.198351">
        <ele>372.253037</ele>
        <time>2021-01-28T13:55:11.326Z</time>
      </trkpt>
      <trkpt lat="45.701936" lon="10.197837">
        <ele>370.451482</ele>
        <time>2021-01-28T13:55:15.011Z</time>
      </trkpt>
      <trkpt lat="45.701699" lon="10.197328">
        <ele>368.426558</ele>
        <time>2021-01-28T13:55:19.135Z</time>
      </trkpt>
      <trkpt lat="45.701632" lon="10.197165">
        <ele>367.800508</ele>
        <time>2021-01-28T13:55:20.405Z</time>
      </trkpt>
      <trkpt lat="45.701575" lon="10.197153">
        <ele>367.527451</ele>
        <time>2021-01-28T13:55:20.892Z</time>
      </trkpt>
      <trkpt lat="45.701286" lon="10.196187">
        <ele>362.915795</ele>
        <time>2021-01-28T13:55:27.493Z</time>
      </trkpt>
      <trkpt lat="45.700886" lon="10.195533">
        <ele>358.973515</ele>
        <time>2021-01-28T13:55:32.941Z</time>
      </trkpt>
      <trkpt lat="45.700775" lon="10.195518">
        <ele>358.249573</ele>
        <time>2021-01-28T13:55:33.912Z</time>
      </trkpt>
      <trkpt lat="45.700701" lon="10.195625">
        <ele>357.566696</ele>
        <time>2021-01-28T13:55:34.814Z</time>
      </trkpt>
      <trkpt lat="45.700711" lon="10.195819">
        <ele>356.684541</ele>
        <time>2021-01-28T13:55:36.156Z</time>
      </trkpt>
      <trkpt lat="45.700751" lon="10.196303">
        <ele>355.207564</ele>
        <time>2021-01-28T13:55:39.338Z</time>
      </trkpt>
      <trkpt lat="45.700711" lon="10.196981">
        <ele>354.483203</ele>
        <time>2021-01-28T13:55:44.260Z</time>
      </trkpt>
      <trkpt lat="45.700619" lon="10.197762">
        <ele>353.640016</ele>
        <time>2021-01-28T13:55:50.358Z</time>
      </trkpt>
      <trkpt lat="45.700564" lon="10.197875">
        <ele>353.493386</ele>
        <time>2021-01-28T13:55:52.059Z</time>
      </trkpt>
      <trkpt lat="45.700550" lon="10.198067">
        <ele>353.287873</ele>
        <time>2021-01-28T13:55:55.089Z</time>
      </trkpt>
      <trkpt lat="45.700558" lon="10.198242">
        <ele>353.101171</ele>
        <time>2021-01-28T13:55:57.628Z</time>
      </trkpt>
      <trkpt lat="45.700549" lon="10.198288">
        <ele>353.050315</ele>
        <time>2021-01-28T13:55:58.209Z</time>
      </trkpt>
      <trkpt lat="45.700557" lon="10.198335">
        <ele>352.998815</ele>
        <time>2021-01-28T13:55:58.787Z</time>
      </trkpt>
      <trkpt lat="45.700561" lon="10.198361">
        <ele>352.970472</ele>
        <time>2021-01-28T13:55:59.110Z</time>
      </trkpt>
      <trkpt lat="45.700580" lon="10.198385">
        <ele>352.931850</ele>
        <time>2021-01-28T13:55:59.795Z</time>
      </trkpt>
      <trkpt lat="45.700634" lon="10.198394">
        <ele>352.848982</ele>
        <time>2021-01-28T13:56:00.920Z</time>
      </trkpt>
      <trkpt lat="45.700659" lon="10.198383">
        <ele>352.809115</ele>
        <time>2021-01-28T13:56:01.648Z</time>
      </trkpt>
      <trkpt lat="45.700812" lon="10.198399">
        <ele>352.887908</ele>
        <time>2021-01-28T13:56:05.183Z</time>
      </trkpt>
      <trkpt lat="45.701023" lon="10.198690">
        <ele>353.649794</ele>
        <time>2021-01-28T13:56:12.016Z</time>
      </trkpt>
      <trkpt lat="45.701416" lon="10.199890">
        <ele>356.057082</ele>
        <time>2021-01-28T13:56:36.226Z</time>
      </trkpt>
      <trkpt lat="45.701407" lon="10.201047">
        <ele>358.028557</ele>
        <time>2021-01-28T13:56:58.305Z</time>
      </trkpt>
      <trkpt lat="45.701640" lon="10.202307">
        <ele>360.006180</ele>
        <time>2021-01-28T13:57:19.442Z</time>
      </trkpt>
      <trkpt lat="45.701673" lon="10.202530">
        <ele>360.352039</ele>
        <time>2021-01-28T13:57:23.290Z</time>
      </trkpt>
      <trkpt lat="45.701796" lon="10.203372">
        <ele>361.531454</ele>
        <time>2021-01-28T13:57:36.200Z</time>
      </trkpt>
      <trkpt lat="45.702036" lon="10.205154">
        <ele>363.376705</ele>
        <time>2021-01-28T13:58:02.991Z</time>
      </trkpt>
      <trkpt lat="45.702110" lon="10.205893">
        <ele>363.992690</ele>
        <time>2021-01-28T13:58:12.832Z</time>
      </trkpt>
      <trkpt lat="45.702133" lon="10.206132">
        <ele>364.092492</ele>
        <time>2021-01-28T13:58:16.045Z</time>
      </trkpt>
      <trkpt lat="45.702164" lon="10.206420">
        <ele>364.213036</ele>
        <time>2021-01-28T13:58:19.629Z</time>
      </trkpt>
      <trkpt lat="45.702207" lon="10.206632">
        <ele>364.304358</ele>
        <time>2021-01-28T13:58:22.475Z</time>
      </trkpt>
      <trkpt lat="45.702276" lon="10.206815">
        <ele>364.390388</ele>
        <time>2021-01-28T13:58:24.965Z</time>
      </trkpt>
      <trkpt lat="45.702447" lon="10.207166">
        <ele>364.567424</ele>
        <time>2021-01-28T13:58:30.104Z</time>
      </trkpt>
      <trkpt lat="45.702478" lon="10.207513">
        <ele>364.712137</ele>
        <time>2021-01-28T13:58:34.043Z</time>
      </trkpt>
      <trkpt lat="45.702585" lon="10.207787">
        <ele>364.841999</ele>
        <time>2021-01-28T13:58:37.344Z</time>
      </trkpt>
      <trkpt lat="45.703384" lon="10.208534">
        <ele>365.315149</ele>
        <time>2021-01-28T13:58:52.156Z</time>
      </trkpt>
      <trkpt lat="45.703737" lon="10.208956">
        <ele>365.531467</ele>
        <time>2021-01-28T13:58:59.263Z</time>
      </trkpt>
      <trkpt lat="45.703911" lon="10.209165">
        <ele>365.638302</ele>
        <time>2021-01-28T13:59:03.588Z</time>
      </trkpt>
      <trkpt lat="45.704469" lon="10.209832">
        <ele>366.184227</ele>
        <time>2021-01-28T13:59:17.302Z</time>
      </trkpt>
      <trkpt lat="45.704797" lon="10.210372">
        <ele>366.694651</ele>
        <time>2021-01-28T13:59:26.626Z</time>
      </trkpt>
      <trkpt lat="45.704836" lon="10.210440">
        <ele>366.757407</ele>
        <time>2021-01-28T13:59:28.142Z</time>
      </trkpt>
      <trkpt lat="45.704950" lon="10.210604">
        <ele>366.922438</ele>
        <time>2021-01-28T13:59:34.853Z</time>
      </trkpt>
      <trkpt lat="45.705080" lon="10.210938">
        <ele>367.195146</ele>
        <time>2021-01-28T13:59:46.037Z</time>
      </trkpt>
      <trkpt lat="45.705140" lon="10.211057">
        <ele>367.299825</ele>
        <time>2021-01-28T13:59:47.918Z</time>
      </trkpt>
      <trkpt lat="45.705199" lon="10.211162">
        <ele>367.395942</ele>
        <time>2021-01-28T13:59:49.540Z</time>
      </trkpt>
      <trkpt lat="45.705725" lon="10.212118">
        <ele>368.092421</ele>
        <time>2021-01-28T14:00:05.152Z</time>
      </trkpt>
      <trkpt lat="45.705976" lon="10.212653">
        <ele>368.425132</ele>
        <time>2021-01-28T14:00:13.385Z</time>
      </trkpt>
      <trkpt lat="45.706012" lon="10.212927">
        <ele>368.569055</ele>
        <time>2021-01-28T14:00:16.661Z</time>
      </trkpt>
      <trkpt lat="45.706023" lon="10.213013">
        <ele>368.614188</ele>
        <time>2021-01-28T14:00:17.788Z</time>
      </trkpt>
      <trkpt lat="45.706057" lon="10.213231">
        <ele>368.729494</ele>
        <time>2021-01-28T14:00:20.167Z</time>
      </trkpt>
      <trkpt lat="45.706059" lon="10.213244">
        <ele>368.736366</ele>
        <time>2021-01-28T14:00:20.283Z</time>
      </trkpt>
      <trkpt lat="45.706138" lon="10.213416">
        <ele>368.842637</ele>
        <time>2021-01-28T14:00:22.716Z</time>
      </trkpt>
      <trkpt lat="45.706199" lon="10.213547">
        <ele>368.923915</ele>
        <time>2021-01-28T14:00:24.769Z</time>
      </trkpt>
      <trkpt lat="45.706577" lon="10.214012">
        <ele>369.363188</ele>
        <time>2021-01-28T14:00:33.306Z</time>
      </trkpt>
      <trkpt lat="45.706675" lon="10.214159">
        <ele>369.491357</ele>
        <time>2021-01-28T14:00:36.011Z</time>
      </trkpt>
      <trkpt lat="45.706931" lon="10.214556">
        <ele>369.832142</ele>
        <time>2021-01-28T14:00:42.944Z</time>
      </trkpt>
      <trkpt lat="45.706843" lon="10.214723">
        <ele>369.964081</ele>
        <time>2021-01-28T14:00:45.488Z</time>
      </trkpt>
      <trkpt lat="45.706960" lon="10.214882">
        <ele>370.109749</ele>
        <time>2021-01-28T14:00:48.602Z</time>
      </trkpt>
      <trkpt lat="45.707239" lon="10.215276">
        <ele>370.463620</ele>
        <time>2021-01-28T14:00:56.554Z</time>
      </trkpt>
      <trkpt lat="45.708065" lon="10.216515">
        <ele>373.042287</ele>
        <time>2021-01-28T14:01:19.376Z</time>
      </trkpt>
      <trkpt lat="45.708242" lon="10.216662">
        <ele>373.519414</ele>
        <time>2021-01-28T14:01:24.303Z</time>
      </trkpt>
      <trkpt lat="45.708280" lon="10.216693">
        <ele>373.621394</ele>
        <time>2021-01-28T14:01:25.393Z</time>
      </trkpt>
      <trkpt lat="45.708435" lon="10.216785">
        <ele>374.012648</ele>
        <time>2021-01-28T14:01:30.718Z</time>
      </trkpt>
      <trkpt lat="45.708427" lon="10.216880">
        <ele>374.168463</ele>
        <time>2021-01-28T14:01:32.749Z</time>
      </trkpt>
      <trkpt lat="45.708409" lon="10.217102">
        <ele>374.532387</ele>
        <time>2021-01-28T14:01:37.149Z</time>
      </trkpt>
      <trkpt lat="45.708413" lon="10.217169">
        <ele>374.641885</ele>
        <time>2021-01-28T14:01:39.918Z</time>
      </trkpt>
      <trkpt lat="45.708387" lon="10.217280">
        <ele>374.917422</ele>
        <time>2021-01-28T14:01:44.720Z</time>
      </trkpt>
      <trkpt lat="45.708332" lon="10.217364">
        <ele>375.487848</ele>
        <time>2021-01-28T14:01:49.440Z</time>
      </trkpt>
      <trkpt lat="45.708252" lon="10.217554">
        <ele>376.586925</ele>
        <time>2021-01-28T14:01:58.690Z</time>
      </trkpt>
      <trkpt lat="45.708196" lon="10.217799">
        <ele>377.863967</ele>
        <time>2021-01-28T14:02:07.340Z</time>
      </trkpt>
      <trkpt lat="45.708153" lon="10.217988">
        <ele>378.848674</ele>
        <time>2021-01-28T14:02:12.682Z</time>
      </trkpt>
      <trkpt lat="45.707985" lon="10.218736">
        <ele>382.741066</ele>
        <time>2021-01-28T14:02:37.749Z</time>
      </trkpt>
      <trkpt lat="45.707893" lon="10.219084">
        <ele>384.584400</ele>
        <time>2021-01-28T14:02:49.727Z</time>
      </trkpt>
      <trkpt lat="45.707818" lon="10.219433">
        <ele>386.393301</ele>
        <time>2021-01-28T14:03:01.955Z</time>
      </trkpt>
      <trkpt lat="45.707777" lon="10.219594">
        <ele>387.242247</ele>
        <time>2021-01-28T14:03:08.245Z</time>
      </trkpt>
      <trkpt lat="45.707768" lon="10.219624">
        <ele>387.403996</ele>
        <time>2021-01-28T14:03:09.765Z</time>
      </trkpt>
      <trkpt lat="45.707777" lon="10.219594">
        <ele>387.562364</ele>
        <time>2021-01-28T14:03:10.064Z</time>
      </trkpt>
      <trkpt lat="45.707847" lon="10.219631">
        <ele>387.974656</ele>
        <time>2021-01-28T14:03:14.548Z</time>
      </trkpt>
      <trkpt lat="45.708684" lon="10.220086">
        <ele>392.921511</ele>
        <time>2021-01-28T14:03:54.351Z</time>
      </trkpt>
      <trkpt lat="45.708791" lon="10.220228">
        <ele>393.727582</ele>
        <time>2021-01-28T14:04:00.348Z</time>
      </trkpt>
      <trkpt lat="45.708927" lon="10.220895">
        <ele>396.408655</ele>
        <time>2021-01-28T14:04:15.758Z</time>
      </trkpt>
      <trkpt lat="45.709150" lon="10.221166">
        <ele>397.389066</ele>
        <time>2021-01-28T14:04:21.079Z</time>
      </trkpt>
      <trkpt lat="45.709543" lon="10.221365">
        <ele>396.960174</ele>
        <time>2021-01-28T14:04:26.967Z</time>
      </trkpt>
      <trkpt lat="45.709653" lon="10.221405">
        <ele>396.843403</ele>
        <time>2021-01-28T14:04:28.179Z</time>
      </trkpt>
      <trkpt lat="45.710236" lon="10.221446">
        <ele>396.242830</ele>
        <time>2021-01-28T14:04:35.196Z</time>
      </trkpt>
      <trkpt lat="45.710451" lon="10.221585">
        <ele>396.000118</ele>
        <time>2021-01-28T14:04:37.717Z</time>
      </trkpt>
      <trkpt lat="45.710547" lon="10.221647">
        <ele>395.891763</ele>
        <time>2021-01-28T14:04:38.874Z</time>
      </trkpt>
      <trkpt lat="45.710730" lon="10.221763">
        <ele>395.685854</ele>
        <time>2021-01-28T14:04:40.887Z</time>
      </trkpt>
      <trkpt lat="45.710902" lon="10.221839">
        <ele>395.396027</ele>
        <time>2021-01-28T14:04:42.757Z</time>
      </trkpt>
      <trkpt lat="45.711147" lon="10.221853">
        <ele>394.951883</ele>
        <time>2021-01-28T14:04:45.225Z</time>
      </trkpt>
      <trkpt lat="45.711563" lon="10.221876">
        <ele>394.197783</ele>
        <time>2021-01-28T14:04:49.498Z</time>
      </trkpt>
      <trkpt lat="45.711864" lon="10.221970">
        <ele>393.639742</ele>
        <time>2021-01-28T14:04:52.897Z</time>
      </trkpt>
      <trkpt lat="45.712197" lon="10.222245">
        <ele>392.943447</ele>
        <time>2021-01-28T14:04:57.257Z</time>
      </trkpt>
      <trkpt lat="45.712211" lon="10.222249">
        <ele>392.917588</ele>
        <time>2021-01-28T14:04:57.382Z</time>
      </trkpt>
      <trkpt lat="45.712319" lon="10.222279">
        <ele>392.718312</ele>
        <time>2021-01-28T14:04:58.935Z</time>
      </trkpt>
      <trkpt lat="45.712692" lon="10.222341">
        <ele>392.806085</ele>
        <time>2021-01-28T14:05:04.801Z</time>
      </trkpt>
      <trkpt lat="45.713125" lon="10.222311">
        <ele>393.783856</ele>
        <time>2021-01-28T14:05:13.269Z</time>
      </trkpt>
      <trkpt lat="45.713551" lon="10.222575">
        <ele>394.830794</ele>
        <time>2021-01-28T14:05:24.665Z</time>
      </trkpt>
      <trkpt lat="45.714359" lon="10.222911">
        <ele>396.908599</ele>
        <time>2021-01-28T14:05:49.794Z</time>
      </trkpt>
      <trkpt lat="45.714776" lon="10.223084">
        <ele>398.492796</ele>
        <time>2021-01-28T14:06:03.825Z</time>
      </trkpt>
      <trkpt lat="45.715411" lon="10.223502">
        <ele>401.042953</ele>
        <time>2021-01-28T14:06:25.401Z</time>
      </trkpt>
      <trkpt lat="45.715689" lon="10.223720">
        <ele>402.199483</ele>
        <time>2021-01-28T14:06:33.992Z</time>
      </trkpt>
      <trkpt lat="45.715926" lon="10.224088">
        <ele>403.086342</ele>
        <time>2021-01-28T14:06:43.538Z</time>
      </trkpt>
      <trkpt lat="45.716512" lon="10.225260">
        <ele>403.752082</ele>
        <time>2021-01-28T14:07:07.204Z</time>
      </trkpt>
      <trkpt lat="45.716539" lon="10.225405">
        <ele>403.821388</ele>
        <time>2021-01-28T14:07:08.323Z</time>
      </trkpt>
      <trkpt lat="45.716599" lon="10.225465">
        <ele>403.869792</ele>
        <time>2021-01-28T14:07:09.685Z</time>
      </trkpt>
      <trkpt lat="45.716846" lon="10.226303">
        <ele>403.771773</ele>
        <time>2021-01-28T14:07:16.335Z</time>
      </trkpt>
      <trkpt lat="45.716921" lon="10.226562">
        <ele>403.229532</ele>
        <time>2021-01-28T14:07:18.539Z</time>
      </trkpt>
      <trkpt lat="45.717113" lon="10.226941">
        <ele>402.323993</ele>
        <time>2021-01-28T14:07:21.865Z</time>
      </trkpt>
      <trkpt lat="45.717232" lon="10.227063">
        <ele>401.918652</ele>
        <time>2021-01-28T14:07:23.300Z</time>
      </trkpt>
      <trkpt lat="45.717316" lon="10.226979">
        <ele>401.634893</ele>
        <time>2021-01-28T14:07:24.314Z</time>
      </trkpt>
      <trkpt lat="45.717532" lon="10.226732">
        <ele>400.869329</ele>
        <time>2021-01-28T14:07:27.175Z</time>
      </trkpt>
      <trkpt lat="45.717779" lon="10.226405">
        <ele>399.937704</ele>
        <time>2021-01-28T14:07:30.616Z</time>
      </trkpt>
      <trkpt lat="45.718034" lon="10.226788">
        <ele>399.083729</ele>
        <time>2021-01-28T14:07:34.348Z</time>
      </trkpt>
      <trkpt lat="45.719251" lon="10.228626">
        <ele>397.224234</ele>
        <time>2021-01-28T14:07:55.636Z</time>
      </trkpt>
      <trkpt lat="45.720176" lon="10.230098">
        <ele>399.504062</ele>
        <time>2021-01-28T14:08:24.760Z</time>
      </trkpt>
      <trkpt lat="45.720362" lon="10.230299">
        <ele>399.888242</ele>
        <time>2021-01-28T14:08:30.729Z</time>
      </trkpt>
      <trkpt lat="45.720660" lon="10.230451">
        <ele>400.900036</ele>
        <time>2021-01-28T14:08:40.443Z</time>
      </trkpt>
      <trkpt lat="45.720954" lon="10.230525">
        <ele>402.091021</ele>
        <time>2021-01-28T14:08:49.556Z</time>
      </trkpt>
      <trkpt lat="45.721226" lon="10.230489">
        <ele>403.180880</ele>
        <time>2021-01-28T14:08:58.114Z</time>
      </trkpt>
      <trkpt lat="45.721307" lon="10.230463">
        <ele>403.512073</ele>
        <time>2021-01-28T14:09:00.808Z</time>
      </trkpt>
      <trkpt lat="45.721443" lon="10.230419">
        <ele>404.068360</ele>
        <time>2021-01-28T14:09:05.862Z</time>
      </trkpt>
      <trkpt lat="45.721674" lon="10.230303">
        <ele>405.045011</ele>
        <time>2021-01-28T14:09:13.067Z</time>
      </trkpt>
      <trkpt lat="45.721863" lon="10.230171">
        <ele>405.883955</ele>
        <time>2021-01-28T14:09:19.592Z</time>
      </trkpt>
      <trkpt lat="45.722033" lon="10.229949">
        <ele>406.801800</ele>
        <time>2021-01-28T14:09:27.636Z</time>
      </trkpt>
      <trkpt lat="45.722260" lon="10.229459">
        <ele>408.262372</ele>
        <time>2021-01-28T14:09:40.491Z</time>
      </trkpt>
      <trkpt lat="45.722547" lon="10.229026">
        <ele>409.679310</ele>
        <time>2021-01-28T14:09:52.941Z</time>
      </trkpt>
      <trkpt lat="45.722796" lon="10.228884">
        <ele>410.590350</ele>
        <time>2021-01-28T14:10:01.018Z</time>
      </trkpt>
      <trkpt lat="45.723103" lon="10.228932">
        <ele>411.640132</ele>
        <time>2021-01-28T14:10:09.257Z</time>
      </trkpt>
      <trkpt lat="45.723226" lon="10.229060">
        <ele>412.156939</ele>
        <time>2021-01-28T14:10:13.276Z</time>
      </trkpt>
      <trkpt lat="45.723452" lon="10.229650">
        <ele>413.762598</ele>
        <time>2021-01-28T14:10:24.350Z</time>
      </trkpt>
      <trkpt lat="45.723526" lon="10.229841">
        <ele>414.292157</ele>
        <time>2021-01-28T14:10:28.551Z</time>
      </trkpt>
      <trkpt lat="45.723645" lon="10.230145">
        <ele>415.137080</ele>
        <time>2021-01-28T14:10:34.508Z</time>
      </trkpt>
      <trkpt lat="45.723718" lon="10.230331">
        <ele>415.654362</ele>
        <time>2021-01-28T14:10:39.075Z</time>
      </trkpt>
      <trkpt lat="45.723949" lon="10.230708">
        <ele>416.870400</ele>
        <time>2021-01-28T14:10:49.031Z</time>
      </trkpt>
      <trkpt lat="45.724057" lon="10.230843">
        <ele>417.368154</ele>
        <time>2021-01-28T14:10:53.173Z</time>
      </trkpt>
      <trkpt lat="45.725480" lon="10.232624">
        <ele>424.395548</ele>
        <time>2021-01-28T14:11:53.099Z</time>
      </trkpt>
      <trkpt lat="45.725803" lon="10.232727">
        <ele>425.668187</ele>
        <time>2021-01-28T14:12:01.802Z</time>
      </trkpt>
      <trkpt lat="45.726753" lon="10.232625">
        <ele>429.778403</ele>
        <time>2021-01-28T14:12:28.214Z</time>
      </trkpt>
      <trkpt lat="45.726938" lon="10.232651">
        <ele>430.606719</ele>
        <time>2021-01-28T14:12:34.423Z</time>
      </trkpt>
      <trkpt lat="45.727360" lon="10.232927">
        <ele>432.673863</ele>
        <time>2021-01-28T14:12:48.677Z</time>
      </trkpt>
      <trkpt lat="45.727440" lon="10.233029">
        <ele>433.151089</ele>
        <time>2021-01-28T14:12:52.223Z</time>
      </trkpt>
      <trkpt lat="45.727524" lon="10.233136">
        <ele>433.651970</ele>
        <time>2021-01-28T14:12:57.842Z</time>
      </trkpt>
      <trkpt lat="45.727967" lon="10.233846">
        <ele>436.869910</ele>
        <time>2021-01-28T14:13:25.724Z</time>
      </trkpt>
      <trkpt lat="45.728088" lon="10.234127">
        <ele>438.023137</ele>
        <time>2021-01-28T14:13:34.928Z</time>
      </trkpt>
      <trkpt lat="45.728346" lon="10.234818">
        <ele>440.760296</ele>
        <time>2021-01-28T14:13:56.642Z</time>
      </trkpt>
      <trkpt lat="45.728445" lon="10.235074">
        <ele>441.782525</ele>
        <time>2021-01-28T14:14:04.040Z</time>
      </trkpt>
      <trkpt lat="45.728663" lon="10.235544">
        <ele>443.503471</ele>
        <time>2021-01-28T14:14:13.393Z</time>
      </trkpt>
      <trkpt lat="45.728831" lon="10.235727">
        <ele>443.362567</ele>
        <time>2021-01-28T14:14:16.600Z</time>
      </trkpt>
      <trkpt lat="45.729037" lon="10.235849">
        <ele>443.213745</ele>
        <time>2021-01-28T14:14:19.955Z</time>
      </trkpt>
      <trkpt lat="45.729408" lon="10.235805">
        <ele>442.965207</ele>
        <time>2021-01-28T14:14:25.117Z</time>
      </trkpt>
      <trkpt lat="45.729854" lon="10.235403">
        <ele>442.613409</ele>
        <time>2021-01-28T14:14:31.189Z</time>
      </trkpt>
      <trkpt lat="45.730048" lon="10.235213">
        <ele>442.456514</ele>
        <time>2021-01-28T14:14:33.426Z</time>
      </trkpt>
      <trkpt lat="45.730074" lon="10.235188">
        <ele>442.435608</ele>
        <time>2021-01-28T14:14:33.890Z</time>
      </trkpt>
      <trkpt lat="45.730245" lon="10.235020">
        <ele>442.338691</ele>
        <time>2021-01-28T14:14:36.336Z</time>
      </trkpt>
      <trkpt lat="45.730706" lon="10.234807">
        <ele>442.399957</ele>
        <time>2021-01-28T14:14:41.524Z</time>
      </trkpt>
      <trkpt lat="45.731231" lon="10.234697">
        <ele>442.467065</ele>
        <time>2021-01-28T14:14:49.406Z</time>
      </trkpt>
      <trkpt lat="45.731339" lon="10.234728">
        <ele>442.480997</ele>
        <time>2021-01-28T14:14:50.649Z</time>
      </trkpt>
      <trkpt lat="45.731485" lon="10.234874">
        <ele>442.503517</ele>
        <time>2021-01-28T14:14:54.089Z</time>
      </trkpt>
      <trkpt lat="45.731880" lon="10.235460">
        <ele>442.882800</ele>
        <time>2021-01-28T14:15:09.748Z</time>
      </trkpt>
      <trkpt lat="45.732220" lon="10.235632">
        <ele>443.811987</ele>
        <time>2021-01-28T14:15:19.510Z</time>
      </trkpt>
      <trkpt lat="45.732526" lon="10.235611">
        <ele>444.601440</ele>
        <time>2021-01-28T14:15:27.850Z</time>
      </trkpt>
      <trkpt lat="45.732940" lon="10.235313">
        <ele>445.795389</ele>
        <time>2021-01-28T14:15:39.826Z</time>
      </trkpt>
      <trkpt lat="45.733643" lon="10.234413">
        <ele>447.411563</ele>
        <time>2021-01-28T14:16:01.645Z</time>
      </trkpt>
      <trkpt lat="45.733864" lon="10.233973">
        <ele>447.616884</ele>
        <time>2021-01-28T14:16:08.625Z</time>
      </trkpt>
      <trkpt lat="45.734041" lon="10.233431">
        <ele>447.843533</ele>
        <time>2021-01-28T14:16:14.492Z</time>
      </trkpt>
      <trkpt lat="45.734169" lon="10.233261">
        <ele>447.938246</ele>
        <time>2021-01-28T14:16:16.840Z</time>
      </trkpt>
      <trkpt lat="45.734488" lon="10.233004">
        <ele>448.136844</ele>
        <time>2021-01-28T14:16:21.850Z</time>
      </trkpt>
      <trkpt lat="45.734854" lon="10.232922">
        <ele>448.457364</ele>
        <time>2021-01-28T14:16:26.879Z</time>
      </trkpt>
      <trkpt lat="45.735234" lon="10.232932">
        <ele>448.810979</ele>
        <time>2021-01-28T14:16:32.237Z</time>
      </trkpt>
      <trkpt lat="45.735269" lon="10.232933">
        <ele>448.843550</ele>
        <time>2021-01-28T14:16:32.856Z</time>
      </trkpt>
      <trkpt lat="45.735607" lon="10.233054">
        <ele>449.167697</ele>
        <time>2021-01-28T14:16:38.965Z</time>
      </trkpt>
      <trkpt lat="45.736197" lon="10.233523">
        <ele>449.795468</ele>
        <time>2021-01-28T14:16:54.353Z</time>
      </trkpt>
      <trkpt lat="45.736432" lon="10.233838">
        <ele>450.479034</ele>
        <time>2021-01-28T14:17:02.197Z</time>
      </trkpt>
      <trkpt lat="45.736517" lon="10.234036">
        <ele>450.861227</ele>
        <time>2021-01-28T14:17:06.709Z</time>
      </trkpt>
      <trkpt lat="45.736848" lon="10.235007">
        <ele>452.637941</ele>
        <time>2021-01-28T14:17:26.918Z</time>
      </trkpt>
      <trkpt lat="45.736920" lon="10.235219">
        <ele>453.025576</ele>
        <time>2021-01-28T14:17:30.851Z</time>
      </trkpt>
      <trkpt lat="45.737270" lon="10.235776">
        <ele>454.114228</ele>
        <time>2021-01-28T14:17:42.399Z</time>
      </trkpt>
      <trkpt lat="45.737526" lon="10.236035">
        <ele>454.252534</ele>
        <time>2021-01-28T14:17:48.751Z</time>
      </trkpt>
      <trkpt lat="45.737749" lon="10.236187">
        <ele>454.361517</ele>
        <time>2021-01-28T14:17:53.171Z</time>
      </trkpt>
      <trkpt lat="45.737810" lon="10.236229">
        <ele>454.391384</ele>
        <time>2021-01-28T14:17:54.037Z</time>
      </trkpt>
      <trkpt lat="45.739296" lon="10.236946">
        <ele>455.366774</ele>
        <time>2021-01-28T14:18:16.234Z</time>
      </trkpt>
      <trkpt lat="45.740645" lon="10.237852">
        <ele>457.133295</ele>
        <time>2021-01-28T14:18:47.181Z</time>
      </trkpt>
      <trkpt lat="45.741258" lon="10.238264">
        <ele>458.729120</ele>
        <time>2021-01-28T14:19:02.873Z</time>
      </trkpt>
      <trkpt lat="45.741611" lon="10.238406">
        <ele>459.593271</ele>
        <time>2021-01-28T14:19:12.031Z</time>
      </trkpt>
      <trkpt lat="45.741908" lon="10.238409">
        <ele>460.293287</ele>
        <time>2021-01-28T14:19:19.672Z</time>
      </trkpt>
      <trkpt lat="45.742706" lon="10.238071">
        <ele>462.818574</ele>
        <time>2021-01-28T14:19:41.701Z</time>
      </trkpt>
      <trkpt lat="45.742782" lon="10.238032">
        <ele>463.093502</ele>
        <time>2021-01-28T14:19:44.415Z</time>
      </trkpt>
      <trkpt lat="45.743275" lon="10.237779">
        <ele>464.876921</ele>
        <time>2021-01-28T14:19:59.143Z</time>
      </trkpt>
      <trkpt lat="45.743522" lon="10.237744">
        <ele>465.722221</ele>
        <time>2021-01-28T14:20:06.691Z</time>
      </trkpt>
      <trkpt lat="45.743648" lon="10.237797">
        <ele>466.169441</ele>
        <time>2021-01-28T14:20:10.366Z</time>
      </trkpt>
      <trkpt lat="45.743968" lon="10.238013">
        <ele>467.343146</ele>
        <time>2021-01-28T14:20:21.211Z</time>
      </trkpt>
      <trkpt lat="45.744198" lon="10.238293">
        <ele>468.249286</ele>
        <time>2021-01-28T14:20:30.798Z</time>
      </trkpt>
      <trkpt lat="45.744871" lon="10.239902">
        <ele>472.179809</ele>
        <time>2021-01-28T14:21:06.282Z</time>
      </trkpt>
      <trkpt lat="45.745113" lon="10.240373">
        <ele>473.023958</ele>
        <time>2021-01-28T14:21:14.357Z</time>
      </trkpt>
      <trkpt lat="45.745335" lon="10.240522">
        <ele>473.445454</ele>
        <time>2021-01-28T14:21:19.718Z</time>
      </trkpt>
      <trkpt lat="45.745461" lon="10.240528">
        <ele>473.662216</ele>
        <time>2021-01-28T14:21:21.544Z</time>
      </trkpt>
      <trkpt lat="45.745742" lon="10.240407">
        <ele>474.166704</ele>
        <time>2021-01-28T14:21:26.747Z</time>
      </trkpt>
      <trkpt lat="45.745969" lon="10.240201">
        <ele>474.628686</ele>
        <time>2021-01-28T14:21:33.683Z</time>
      </trkpt>
      <trkpt lat="45.746036" lon="10.240169">
        <ele>474.750114</ele>
        <time>2021-01-28T14:21:34.372Z</time>
      </trkpt>
      <trkpt lat="45.746049" lon="10.240163">
        <ele>474.773597</ele>
        <time>2021-01-28T14:21:34.721Z</time>
      </trkpt>
      <trkpt lat="45.746083" lon="10.240148">
        <ele>474.834764</ele>
        <time>2021-01-28T14:21:35.673Z</time>
      </trkpt>
      <trkpt lat="45.746095" lon="10.240144">
        <ele>474.855947</ele>
        <time>2021-01-28T14:21:35.969Z</time>
      </trkpt>
      <trkpt lat="45.746278" lon="10.240095">
        <ele>475.176040</ele>
        <time>2021-01-28T14:21:42.028Z</time>
      </trkpt>
      <trkpt lat="45.746315" lon="10.240085">
        <ele>475.240779</ele>
        <time>2021-01-28T14:21:43.178Z</time>
      </trkpt>
      <trkpt lat="45.746337" lon="10.240079">
        <ele>475.279284</ele>
        <time>2021-01-28T14:21:43.553Z</time>
      </trkpt>
      <trkpt lat="45.746432" lon="10.240066">
        <ele>475.443368</ele>
        <time>2021-01-28T14:21:45.075Z</time>
      </trkpt>
      <trkpt lat="45.746528" lon="10.240052">
        <ele>475.611260</ele>
        <time>2021-01-28T14:21:47.795Z</time>
      </trkpt>
      <trkpt lat="45.746680" lon="10.240031">
        <ele>476.010301</ele>
        <time>2021-01-28T14:21:52.774Z</time>
      </trkpt>
      <trkpt lat="45.747057" lon="10.240009">
        <ele>476.996275</ele>
        <time>2021-01-28T14:22:03.866Z</time>
      </trkpt>
      <trkpt lat="45.747152" lon="10.240032">
        <ele>477.248043</ele>
        <time>2021-01-28T14:22:06.699Z</time>
      </trkpt>
      <trkpt lat="45.747248" lon="10.240084">
        <ele>477.516228</ele>
        <time>2021-01-28T14:22:11.305Z</time>
      </trkpt>
      <trkpt lat="45.747312" lon="10.240122">
        <ele>477.697257</ele>
        <time>2021-01-28T14:22:12.066Z</time>
      </trkpt>
      <trkpt lat="45.747950" lon="10.240541">
        <ele>479.531187</ele>
        <time>2021-01-28T14:22:30.163Z</time>
      </trkpt>
      <trkpt lat="45.748058" lon="10.240610">
        <ele>479.840184</ele>
        <time>2021-01-28T14:22:34.176Z</time>
      </trkpt>
      <trkpt lat="45.748149" lon="10.240668">
        <ele>480.100440</ele>
        <time>2021-01-28T14:22:37.509Z</time>
      </trkpt>
      <trkpt lat="45.748293" lon="10.240771">
        <ele>480.452946</ele>
        <time>2021-01-28T14:22:40.321Z</time>
      </trkpt>
      <trkpt lat="45.748439" lon="10.240859">
        <ele>480.736067</ele>
        <time>2021-01-28T14:22:44.471Z</time>
      </trkpt>
      <trkpt lat="45.748591" lon="10.240946">
        <ele>481.028639</ele>
        <time>2021-01-28T14:22:50.100Z</time>
      </trkpt>
      <trkpt lat="45.748593" lon="10.240932">
        <ele>481.046464</ele>
        <time>2021-01-28T14:22:50.195Z</time>
      </trkpt>
      <trkpt lat="45.748677" lon="10.240341">
        <ele>481.798777</ele>
        <time>2021-01-28T14:22:59.539Z</time>
      </trkpt>
      <trkpt lat="45.748814" lon="10.240354">
        <ele>482.044203</ele>
        <time>2021-01-28T14:23:03.126Z</time>
      </trkpt>
      <trkpt lat="45.749173" lon="10.240415">
        <ele>482.690414</ele>
        <time>2021-01-28T14:23:10.378Z</time>
      </trkpt>
      <trkpt lat="45.749296" lon="10.240449">
        <ele>482.914331</ele>
        <time>2021-01-28T14:23:14.488Z</time>
      </trkpt>
      <trkpt lat="45.750763" lon="10.240654">
        <ele>486.596190</ele>
        <time>2021-01-28T14:23:42.180Z</time>
      </trkpt>
      <trkpt lat="45.751037" lon="10.240788">
        <ele>487.380867</ele>
        <time>2021-01-28T14:23:53.109Z</time>
      </trkpt>
      <trkpt lat="45.751646" lon="10.241331">
        <ele>489.578554</ele>
        <time>2021-01-28T14:24:19.152Z</time>
      </trkpt>
      <trkpt lat="45.751779" lon="10.241687">
        <ele>490.550765</ele>
        <time>2021-01-28T14:24:26.858Z</time>
      </trkpt>
      <trkpt lat="45.751794" lon="10.241740">
        <ele>490.688462</ele>
        <time>2021-01-28T14:24:30.202Z</time>
      </trkpt>
      <trkpt lat="45.751841" lon="10.241788">
        <ele>490.887593</ele>
        <time>2021-01-28T14:24:31.693Z</time>
      </trkpt>
      <trkpt lat="45.751812" lon="10.241921">
        <ele>491.223068</ele>
        <time>2021-01-28T14:24:35.269Z</time>
      </trkpt>
      <trkpt lat="45.751984" lon="10.242014">
        <ele>491.857364</ele>
        <time>2021-01-28T14:24:39.885Z</time>
      </trkpt>
      <trkpt lat="45.752205" lon="10.242134">
        <ele>492.672790</ele>
        <time>2021-01-28T14:24:47.384Z</time>
      </trkpt>
      <trkpt lat="45.753210" lon="10.242655">
        <ele>494.027465</ele>
        <time>2021-01-28T14:25:09.688Z</time>
      </trkpt>
      <trkpt lat="45.753584" lon="10.242674">
        <ele>493.605950</ele>
        <time>2021-01-28T14:25:13.709Z</time>
      </trkpt>
      <trkpt lat="45.753749" lon="10.242645">
        <ele>493.418712</ele>
        <time>2021-01-28T14:25:15.356Z</time>
      </trkpt>
      <trkpt lat="45.755009" lon="10.242424">
        <ele>491.974119</ele>
        <time>2021-01-28T14:25:29.095Z</time>
      </trkpt>
      <trkpt lat="45.755402" lon="10.242511">
        <ele>491.514909</ele>
        <time>2021-01-28T14:25:33.561Z</time>
      </trkpt>
      <trkpt lat="45.755615" lon="10.242642">
        <ele>491.247250</ele>
        <time>2021-01-28T14:25:36.558Z</time>
      </trkpt>
      <trkpt lat="45.755780" lon="10.242743">
        <ele>491.040061</ele>
        <time>2021-01-28T14:25:38.963Z</time>
      </trkpt>
      <trkpt lat="45.755984" lon="10.242893">
        <ele>490.775293</ele>
        <time>2021-01-28T14:25:42.078Z</time>
      </trkpt>
      <trkpt lat="45.756655" lon="10.243025">
        <ele>490.901405</ele>
        <time>2021-01-28T14:25:52.017Z</time>
      </trkpt>
      <trkpt lat="45.756761" lon="10.243065">
        <ele>491.002255</ele>
        <time>2021-01-28T14:25:53.858Z</time>
      </trkpt>
      <trkpt lat="45.756920" lon="10.243126">
        <ele>491.153696</ele>
        <time>2021-01-28T14:25:56.800Z</time>
      </trkpt>
      <trkpt lat="45.757683" lon="10.243853">
        <ele>491.996674</ele>
        <time>2021-01-28T14:26:14.932Z</time>
      </trkpt>
      <trkpt lat="45.757777" lon="10.243934">
        <ele>492.097587</ele>
        <time>2021-01-28T14:26:17.354Z</time>
      </trkpt>
      <trkpt lat="45.758232" lon="10.244374">
        <ele>493.241366</ele>
        <time>2021-01-28T14:26:29.744Z</time>
      </trkpt>
      <trkpt lat="45.758543" lon="10.244553">
        <ele>493.988336</ele>
        <time>2021-01-28T14:26:37.527Z</time>
      </trkpt>
      <trkpt lat="45.759055" lon="10.244550">
        <ele>495.129514</ele>
        <time>2021-01-28T14:26:50.132Z</time>
      </trkpt>
      <trkpt lat="45.759424" lon="10.244840">
        <ele>496.067475</ele>
        <time>2021-01-28T14:27:01.191Z</time>
      </trkpt>
      <trkpt lat="45.759719" lon="10.245422">
        <ele>497.431911</ele>
        <time>2021-01-28T14:27:13.522Z</time>
      </trkpt>
      <trkpt lat="45.759819" lon="10.246047">
        <ele>498.668422</ele>
        <time>2021-01-28T14:27:25.019Z</time>
      </trkpt>
      <trkpt lat="45.759852" lon="10.246357">
        <ele>499.273130</ele>
        <time>2021-01-28T14:27:30.839Z</time>
      </trkpt>
      <trkpt lat="45.759993" lon="10.246307">
        <ele>499.674604</ele>
        <time>2021-01-28T14:27:35.094Z</time>
      </trkpt>
      <trkpt lat="45.760044" lon="10.246328">
        <ele>499.821270</ele>
        <time>2021-01-28T14:27:36.628Z</time>
      </trkpt>
      <trkpt lat="45.760167" lon="10.246771">
        <ele>500.740691</ele>
        <time>2021-01-28T14:27:45.480Z</time>
      </trkpt>
      <trkpt lat="45.760286" lon="10.247207">
        <ele>501.548037</ele>
        <time>2021-01-28T14:27:53.622Z</time>
      </trkpt>
      <trkpt lat="45.760327" lon="10.247390">
        <ele>501.849247</ele>
        <time>2021-01-28T14:27:57.153Z</time>
      </trkpt>
      <trkpt lat="45.760373" lon="10.247547">
        <ele>502.116102</ele>
        <time>2021-01-28T14:27:59.380Z</time>
      </trkpt>
      <trkpt lat="45.760562" lon="10.247754">
        <ele>502.650396</ele>
        <time>2021-01-28T14:28:05.949Z</time>
      </trkpt>
      <trkpt lat="45.760649" lon="10.247948">
        <ele>503.011810</ele>
        <time>2021-01-28T14:28:08.900Z</time>
      </trkpt>
      <trkpt lat="45.760660" lon="10.248059">
        <ele>503.187506</ele>
        <time>2021-01-28T14:28:11.424Z</time>
      </trkpt>
      <trkpt lat="45.761041" lon="10.248336">
        <ele>504.147127</ele>
        <time>2021-01-28T14:28:20.057Z</time>
      </trkpt>
      <trkpt lat="45.761353" lon="10.248542">
        <ele>504.918738</ele>
        <time>2021-01-28T14:28:28.364Z</time>
      </trkpt>
      <trkpt lat="45.761443" lon="10.248637">
        <ele>505.169803</ele>
        <time>2021-01-28T14:28:31.009Z</time>
      </trkpt>
      <trkpt lat="45.761493" lon="10.248712">
        <ele>505.386756</ele>
        <time>2021-01-28T14:28:32.319Z</time>
      </trkpt>
      <trkpt lat="45.761566" lon="10.248818">
        <ele>505.700377</ele>
        <time>2021-01-28T14:28:35.221Z</time>
      </trkpt>
      <trkpt lat="45.761693" lon="10.248981">
        <ele>506.214882</ele>
        <time>2021-01-28T14:28:40.004Z</time>
      </trkpt>
      <trkpt lat="45.761799" lon="10.249105">
        <ele>506.627823</ele>
        <time>2021-01-28T14:28:43.019Z</time>
      </trkpt>
      <trkpt lat="45.761851" lon="10.249198">
        <ele>506.878774</ele>
        <time>2021-01-28T14:28:45.516Z</time>
      </trkpt>
      <trkpt lat="45.762064" lon="10.249610">
        <ele>507.958509</ele>
        <time>2021-01-28T14:28:54.126Z</time>
      </trkpt>
      <trkpt lat="45.762272" lon="10.250019">
        <ele>509.024214</ele>
        <time>2021-01-28T14:29:03.045Z</time>
      </trkpt>
      <trkpt lat="45.762513" lon="10.250458">
        <ele>510.200427</ele>
        <time>2021-01-28T14:29:13.514Z</time>
      </trkpt>
      <trkpt lat="45.762635" lon="10.250589">
        <ele>510.712619</ele>
        <time>2021-01-28T14:29:19.715Z</time>
      </trkpt>
      <trkpt lat="45.762835" lon="10.250756">
        <ele>512.040800</ele>
        <time>2021-01-28T14:29:26.300Z</time>
      </trkpt>
      <trkpt lat="45.762979" lon="10.250902">
        <ele>513.052926</ele>
        <time>2021-01-28T14:29:33.604Z</time>
      </trkpt>
      <trkpt lat="45.763445" lon="10.251374">
        <ele>516.327180</ele>
        <time>2021-01-28T14:29:55.309Z</time>
      </trkpt>
      <trkpt lat="45.763461" lon="10.251402">
        <ele>516.472071</ele>
        <time>2021-01-28T14:29:56.943Z</time>
      </trkpt>
      <trkpt lat="45.763670" lon="10.251770">
        <ele>518.371685</ele>
        <time>2021-01-28T14:30:09.392Z</time>
      </trkpt>
      <trkpt lat="45.763814" lon="10.252021">
        <ele>519.672606</ele>
        <time>2021-01-28T14:30:19.483Z</time>
      </trkpt>
      <trkpt lat="45.764533" lon="10.253740">
        <ele>527.684011</ele>
        <time>2021-01-28T14:31:15.301Z</time>
      </trkpt>
      <trkpt lat="45.764833" lon="10.254746">
        <ele>531.737928</ele>
        <time>2021-01-28T14:31:41.880Z</time>
      </trkpt>
      <trkpt lat="45.765112" lon="10.255969">
        <ele>534.908347</ele>
        <time>2021-01-28T14:32:08.178Z</time>
      </trkpt>
      <trkpt lat="45.765583" lon="10.256890">
        <ele>537.705649</ele>
        <time>2021-01-28T14:32:29.003Z</time>
      </trkpt>
      <trkpt lat="45.766565" lon="10.258071">
        <ele>541.712003</ele>
        <time>2021-01-28T14:33:03.071Z</time>
      </trkpt>
      <trkpt lat="45.766617" lon="10.258161">
        <ele>541.966798</ele>
        <time>2021-01-28T14:33:06.156Z</time>
      </trkpt>
      <trkpt lat="45.766664" lon="10.258242">
        <ele>542.196513</ele>
        <time>2021-01-28T14:33:08.272Z</time>
      </trkpt>
      <trkpt lat="45.766781" lon="10.258521">
        <ele>542.906275</ele>
        <time>2021-01-28T14:33:14.106Z</time>
      </trkpt>
      <trkpt lat="45.767043" lon="10.259549">
        <ele>544.745006</ele>
        <time>2021-01-28T14:33:36.696Z</time>
      </trkpt>
      <trkpt lat="45.767030" lon="10.260104">
        <ele>545.638782</ele>
        <time>2021-01-28T14:33:46.772Z</time>
      </trkpt>
      <trkpt lat="45.766959" lon="10.260501">
        <ele>546.298419</ele>
        <time>2021-01-28T14:33:52.239Z</time>
      </trkpt>
      <trkpt lat="45.766890" lon="10.260890">
        <ele>546.944440</ele>
        <time>2021-01-28T14:33:57.176Z</time>
      </trkpt>
      <trkpt lat="45.766872" lon="10.260990">
        <ele>547.110662</ele>
        <time>2021-01-28T14:33:57.836Z</time>
      </trkpt>
      <trkpt lat="45.766866" lon="10.261448">
        <ele>548.203078</ele>
        <time>2021-01-28T14:34:03.140Z</time>
      </trkpt>
      <trkpt lat="45.766953" lon="10.261722">
        <ele>549.033938</ele>
        <time>2021-01-28T14:34:09.902Z</time>
      </trkpt>
      <trkpt lat="45.767324" lon="10.262020">
        <ele>550.716464</ele>
        <time>2021-01-28T14:34:22.127Z</time>
      </trkpt>
      <trkpt lat="45.767557" lon="10.262068">
        <ele>551.647770</ele>
        <time>2021-01-28T14:34:28.815Z</time>
      </trkpt>
      <trkpt lat="45.767811" lon="10.262069">
        <ele>552.652693</ele>
        <time>2021-01-28T14:34:36.127Z</time>
      </trkpt>
      <trkpt lat="45.767887" lon="10.262205">
        <ele>553.133619</ele>
        <time>2021-01-28T14:34:41.747Z</time>
      </trkpt>
      <trkpt lat="45.768012" lon="10.262478">
        <ele>554.034863</ele>
        <time>2021-01-28T14:34:49.300Z</time>
      </trkpt>
      <trkpt lat="45.768023" lon="10.262545">
        <ele>554.224824</ele>
        <time>2021-01-28T14:34:51.065Z</time>
      </trkpt>
      <trkpt lat="45.768156" lon="10.262557">
        <ele>555.057504</ele>
        <time>2021-01-28T14:34:58.795Z</time>
      </trkpt>
      <trkpt lat="45.769094" lon="10.262711">
        <ele>562.797820</ele>
        <time>2021-01-28T14:35:43.586Z</time>
      </trkpt>
      <trkpt lat="45.769425" lon="10.263015">
        <ele>566.020599</ele>
        <time>2021-01-28T14:36:08.481Z</time>
      </trkpt>
      <trkpt lat="45.770638" lon="10.263216">
        <ele>571.966835</ele>
        <time>2021-01-28T14:36:58.486Z</time>
      </trkpt>
      <trkpt lat="45.771211" lon="10.263127">
        <ele>573.875202</ele>
        <time>2021-01-28T14:37:09.859Z</time>
      </trkpt>
      <trkpt lat="45.771814" lon="10.263286">
        <ele>574.977089</ele>
        <time>2021-01-28T14:37:17.733Z</time>
      </trkpt>
      <trkpt lat="45.772544" lon="10.263168">
        <ele>574.344800</ele>
        <time>2021-01-28T14:37:25.952Z</time>
      </trkpt>
      <trkpt lat="45.773234" lon="10.262843">
        <ele>573.719691</ele>
        <time>2021-01-28T14:37:34.753Z</time>
      </trkpt>
      <trkpt lat="45.773589" lon="10.262859">
        <ele>573.813193</ele>
        <time>2021-01-28T14:37:40.464Z</time>
      </trkpt>
      <trkpt lat="45.773935" lon="10.263067">
        <ele>574.114500</ele>
        <time>2021-01-28T14:37:47.686Z</time>
      </trkpt>
      <trkpt lat="45.774268" lon="10.263098">
        <ele>574.382492</ele>
        <time>2021-01-28T14:37:54.816Z</time>
      </trkpt>
      <trkpt lat="45.774695" lon="10.263454">
        <ele>574.779176</ele>
        <time>2021-01-28T14:38:05.149Z</time>
      </trkpt>
      <trkpt lat="45.774948" lon="10.263580">
        <ele>574.994267</ele>
        <time>2021-01-28T14:38:10.256Z</time>
      </trkpt>
      <trkpt lat="45.775273" lon="10.263606">
        <ele>574.739774</ele>
        <time>2021-01-28T14:38:15.664Z</time>
      </trkpt>
      <trkpt lat="45.775976" lon="10.263388">
        <ele>573.754755</ele>
        <time>2021-01-28T14:38:24.555Z</time>
      </trkpt>
      <trkpt lat="45.776664" lon="10.262968">
        <ele>572.730690</ele>
        <time>2021-01-28T14:38:32.634Z</time>
      </trkpt>
      <trkpt lat="45.777389" lon="10.262761">
        <ele>571.209010</ele>
        <time>2021-01-28T14:38:39.952Z</time>
      </trkpt>
      <trkpt lat="45.777968" lon="10.262848">
        <ele>569.952092</ele>
        <time>2021-01-28T14:38:46.090Z</time>
      </trkpt>
      <trkpt lat="45.778086" lon="10.262761">
        <ele>569.665619</ele>
        <time>2021-01-28T14:38:47.668Z</time>
      </trkpt>
      <trkpt lat="45.778266" lon="10.262398">
        <ele>568.994948</ele>
        <time>2021-01-28T14:38:51.358Z</time>
      </trkpt>
      <trkpt lat="45.778305" lon="10.262321">
        <ele>568.851654</ele>
        <time>2021-01-28T14:38:52.196Z</time>
      </trkpt>
      <trkpt lat="45.778328" lon="10.262277">
        <ele>568.768857</ele>
        <time>2021-01-28T14:38:52.618Z</time>
      </trkpt>
      <trkpt lat="45.778625" lon="10.262606">
        <ele>569.462074</ele>
        <time>2021-01-28T14:38:58.203Z</time>
      </trkpt>
      <trkpt lat="45.779038" lon="10.262985">
        <ele>570.498121</ele>
        <time>2021-01-28T14:39:07.839Z</time>
      </trkpt>
      <trkpt lat="45.779198" lon="10.263028">
        <ele>570.842071</ele>
        <time>2021-01-28T14:39:11.246Z</time>
      </trkpt>
      <trkpt lat="45.780150" lon="10.262952">
        <ele>573.845458</ele>
        <time>2021-01-28T14:39:37.370Z</time>
      </trkpt>
      <trkpt lat="45.780316" lon="10.262939">
        <ele>575.224659</ele>
        <time>2021-01-28T14:39:45.055Z</time>
      </trkpt>
      <trkpt lat="45.780448" lon="10.262929">
        <ele>576.321269</ele>
        <time>2021-01-28T14:39:52.009Z</time>
      </trkpt>
      <trkpt lat="45.780948" lon="10.262848">
        <ele>580.495697</ele>
        <time>2021-01-28T14:40:17.336Z</time>
      </trkpt>
      <trkpt lat="45.781451" lon="10.262792">
        <ele>584.681184</ele>
        <time>2021-01-28T14:40:44.746Z</time>
      </trkpt>
      <trkpt lat="45.781448" lon="10.262844">
        <ele>584.983066</ele>
        <time>2021-01-28T14:40:46.605Z</time>
      </trkpt>
      <trkpt lat="45.781443" lon="10.262924">
        <ele>585.447774</ele>
        <time>2021-01-28T14:40:49.445Z</time>
      </trkpt>
      <trkpt lat="45.781424" lon="10.263142">
        <ele>586.718859</ele>
        <time>2021-01-28T14:40:57.068Z</time>
      </trkpt>
      <trkpt lat="45.781414" lon="10.263255">
        <ele>587.377882</ele>
        <time>2021-01-28T14:41:02.287Z</time>
      </trkpt>
      <trkpt lat="45.781384" lon="10.263428">
        <ele>588.717842</ele>
        <time>2021-01-28T14:41:08.858Z</time>
      </trkpt>
      <trkpt lat="45.781186" lon="10.263514">
        <ele>590.980809</ele>
        <time>2021-01-28T14:41:20.197Z</time>
      </trkpt>
      <trkpt lat="45.780746" lon="10.263716">
        <ele>596.034332</ele>
        <time>2021-01-28T14:41:46.159Z</time>
      </trkpt>
      <trkpt lat="45.780080" lon="10.264148">
        <ele>604.029980</ele>
        <time>2021-01-28T14:42:33.999Z</time>
      </trkpt>
      <trkpt lat="45.779900" lon="10.264384">
        <ele>606.697894</ele>
        <time>2021-01-28T14:42:49.177Z</time>
      </trkpt>
      <trkpt lat="45.779585" lon="10.264448">
        <ele>609.427069</ele>
        <time>2021-01-28T14:43:05.421Z</time>
      </trkpt>
      <trkpt lat="45.779364" lon="10.264471">
        <ele>611.256742</ele>
        <time>2021-01-28T14:43:15.837Z</time>
      </trkpt>
      <trkpt lat="45.779256" lon="10.264481">
        <ele>612.150392</ele>
        <time>2021-01-28T14:43:22.066Z</time>
      </trkpt>
      <trkpt lat="45.779098" lon="10.264533">
        <ele>613.488978</ele>
        <time>2021-01-28T14:43:30.534Z</time>
      </trkpt>
      <trkpt lat="45.778679" lon="10.264784">
        <ele>617.238621</ele>
        <time>2021-01-28T14:43:49.774Z</time>
      </trkpt>
      <trkpt lat="45.778637" lon="10.264845">
        <ele>617.732264</ele>
        <time>2021-01-28T14:43:54.049Z</time>
      </trkpt>
      <trkpt lat="45.778590" lon="10.264980">
        <ele>618.601204</ele>
        <time>2021-01-28T14:43:57.557Z</time>
      </trkpt>
      <trkpt lat="45.778448" lon="10.265066">
        <ele>619.874054</ele>
        <time>2021-01-28T14:44:04.101Z</time>
      </trkpt>
      <trkpt lat="45.778339" lon="10.265019">
        <ele>620.813922</ele>
        <time>2021-01-28T14:44:10.185Z</time>
      </trkpt>
      <trkpt lat="45.778111" lon="10.264711">
        <ele>622.934033</ele>
        <time>2021-01-28T14:44:22.810Z</time>
      </trkpt>
      <trkpt lat="45.777951" lon="10.264651">
        <ele>623.855356</ele>
        <time>2021-01-28T14:44:29.341Z</time>
      </trkpt>
      <trkpt lat="45.777710" lon="10.264707">
        <ele>625.215458</ele>
        <time>2021-01-28T14:44:39.662Z</time>
      </trkpt>
      <trkpt lat="45.777664" lon="10.264658">
        <ele>625.534700</ele>
        <time>2021-01-28T14:44:41.889Z</time>
      </trkpt>
      <trkpt lat="45.777656" lon="10.264649">
        <ele>625.591348</ele>
        <time>2021-01-28T14:44:41.973Z</time>
      </trkpt>
      <trkpt lat="45.777548" lon="10.264503">
        <ele>626.418260</ele>
        <time>2021-01-28T14:44:46.213Z</time>
      </trkpt>
      <trkpt lat="45.777310" lon="10.264357">
        <ele>627.860387</ele>
        <time>2021-01-28T14:44:55.997Z</time>
      </trkpt>
      <trkpt lat="45.776465" lon="10.264400">
        <ele>632.778604</ele>
        <time>2021-01-28T14:45:24.466Z</time>
      </trkpt>
      <trkpt lat="45.776248" lon="10.264583">
        <ele>634.680152</ele>
        <time>2021-01-28T14:45:34.387Z</time>
      </trkpt>
      <trkpt lat="45.776119" lon="10.264848">
        <ele>636.382598</ele>
        <time>2021-01-28T14:45:44.857Z</time>
      </trkpt>
      <trkpt lat="45.776016" lon="10.265254">
        <ele>638.658543</ele>
        <time>2021-01-28T14:45:59.316Z</time>
      </trkpt>
      <trkpt lat="45.775932" lon="10.265323">
        <ele>639.389763</ele>
        <time>2021-01-28T14:46:04.028Z</time>
      </trkpt>
      <trkpt lat="45.775835" lon="10.265142">
        <ele>640.592265</ele>
        <time>2021-01-28T14:46:11.392Z</time>
      </trkpt>
      <trkpt lat="45.775745" lon="10.264773">
        <ele>642.651636</ele>
        <time>2021-01-28T14:46:24.443Z</time>
      </trkpt>
      <trkpt lat="45.775672" lon="10.264687">
        <ele>643.365280</ele>
        <time>2021-01-28T14:46:28.833Z</time>
      </trkpt>
      <trkpt lat="45.775581" lon="10.264698">
        <ele>644.055061</ele>
        <time>2021-01-28T14:46:33.269Z</time>
      </trkpt>
      <trkpt lat="45.775498" lon="10.264816">
        <ele>644.937933</ele>
        <time>2021-01-28T14:46:39.009Z</time>
      </trkpt>
      <trkpt lat="45.775640" lon="10.265052">
        <ele>646.776661</ele>
        <time>2021-01-28T14:46:48.945Z</time>
      </trkpt>
      <trkpt lat="45.775719" lon="10.265605">
        <ele>650.330978</ele>
        <time>2021-01-28T14:47:09.659Z</time>
      </trkpt>
      <trkpt lat="45.775814" lon="10.265809">
        <ele>651.875487</ele>
        <time>2021-01-28T14:47:20.356Z</time>
      </trkpt>
      <trkpt lat="45.775798" lon="10.265929">
        <ele>652.644762</ele>
        <time>2021-01-28T14:47:24.071Z</time>
      </trkpt>
      <trkpt lat="45.775665" lon="10.265783">
        <ele>654.156977</ele>
        <time>2021-01-28T14:47:32.778Z</time>
      </trkpt>
      <trkpt lat="45.775521" lon="10.265320">
        <ele>657.349030</ele>
        <time>2021-01-28T14:47:49.993Z</time>
      </trkpt>
      <trkpt lat="45.775387" lon="10.265210">
        <ele>658.743007</ele>
        <time>2021-01-28T14:47:58.253Z</time>
      </trkpt>
      <trkpt lat="45.775213" lon="10.265302">
        <ele>660.417256</ele>
        <time>2021-01-28T14:48:05.579Z</time>
      </trkpt>
      <trkpt lat="45.775178" lon="10.265320">
        <ele>660.752942</ele>
        <time>2021-01-28T14:48:09.588Z</time>
      </trkpt>
      <trkpt lat="45.774837" lon="10.265352">
        <ele>664.147183</ele>
        <time>2021-01-28T14:48:25.930Z</time>
      </trkpt>
      <trkpt lat="45.774645" lon="10.265735">
        <ele>667.569877</ele>
        <time>2021-01-28T14:48:42.504Z</time>
      </trkpt>
      <trkpt lat="45.774569" lon="10.265795">
        <ele>668.472537</ele>
        <time>2021-01-28T14:48:49.652Z</time>
      </trkpt>
      <trkpt lat="45.774313" lon="10.265786">
        <ele>671.136783</ele>
        <time>2021-01-28T14:49:02.016Z</time>
      </trkpt>
      <trkpt lat="45.773187" lon="10.266289">
        <ele>682.682348</ele>
        <time>2021-01-28T14:50:15.706Z</time>
      </trkpt>
      <trkpt lat="45.773045" lon="10.266496">
        <ele>684.259696</ele>
        <time>2021-01-28T14:50:25.068Z</time>
      </trkpt>
      <trkpt lat="45.772942" lon="10.267085">
        <ele>687.558673</ele>
        <time>2021-01-28T14:50:46.277Z</time>
      </trkpt>
      <trkpt lat="45.772891" lon="10.267184">
        <ele>688.227315</ele>
        <time>2021-01-28T14:50:52.631Z</time>
      </trkpt>
      <trkpt lat="45.772872" lon="10.267222">
        <ele>688.481327</ele>
        <time>2021-01-28T14:50:53.753Z</time>
      </trkpt>
      <trkpt lat="45.772690" lon="10.267404">
        <ele>690.209697</ele>
        <time>2021-01-28T14:51:01.652Z</time>
      </trkpt>
      <trkpt lat="45.772462" lon="10.266706">
        <ele>694.397078</ele>
        <time>2021-01-28T14:51:22.265Z</time>
      </trkpt>
      <trkpt lat="45.772321" lon="10.266577">
        <ele>694.495594</ele>
        <time>2021-01-28T14:51:25.900Z</time>
      </trkpt>
      <trkpt lat="45.771770" lon="10.266878">
        <ele>694.349194</ele>
        <time>2021-01-28T14:51:41.571Z</time>
      </trkpt>
      <trkpt lat="45.771679" lon="10.267063">
        <ele>694.309989</ele>
        <time>2021-01-28T14:51:43.472Z</time>
      </trkpt>
      <trkpt lat="45.771596" lon="10.267559">
        <ele>694.221653</ele>
        <time>2021-01-28T14:51:47.118Z</time>
      </trkpt>
      <trkpt lat="45.771502" lon="10.267592">
        <ele>694.197624</ele>
        <time>2021-01-28T14:51:48.019Z</time>
      </trkpt>
      <trkpt lat="45.771344" lon="10.267531">
        <ele>694.156998</ele>
        <time>2021-01-28T14:51:49.696Z</time>
      </trkpt>
      <trkpt lat="45.770994" lon="10.267126">
        <ele>693.804226</ele>
        <time>2021-01-28T14:51:54.280Z</time>
      </trkpt>
      <trkpt lat="45.770765" lon="10.267060">
        <ele>693.404339</ele>
        <time>2021-01-28T14:51:56.548Z</time>
      </trkpt>
      <trkpt lat="45.770667" lon="10.267140">
        <ele>693.211272</ele>
        <time>2021-01-28T14:51:57.912Z</time>
      </trkpt>
      <trkpt lat="45.770585" lon="10.267349">
        <ele>692.924920</ele>
        <time>2021-01-28T14:51:59.500Z</time>
      </trkpt>
      <trkpt lat="45.770572" lon="10.267381">
        <ele>692.880698</ele>
        <time>2021-01-28T14:51:59.775Z</time>
      </trkpt>
      <trkpt lat="45.770543" lon="10.267454">
        <ele>692.780377</ele>
        <time>2021-01-28T14:52:00.387Z</time>
      </trkpt>
      <trkpt lat="45.770447" lon="10.267961">
        <ele>692.153025</ele>
        <time>2021-01-28T14:52:04.485Z</time>
      </trkpt>
      <trkpt lat="45.770502" lon="10.268119">
        <ele>691.942156</ele>
        <time>2021-01-28T14:52:06.108Z</time>
      </trkpt>
      <trkpt lat="45.770625" lon="10.268177">
        <ele>691.720484</ele>
        <time>2021-01-28T14:52:07.489Z</time>
      </trkpt>
      <trkpt lat="45.770696" lon="10.268335">
        <ele>691.496043</ele>
        <time>2021-01-28T14:52:09.681Z</time>
      </trkpt>
      <trkpt lat="45.770737" lon="10.268427">
        <ele>691.365672</ele>
        <time>2021-01-28T14:52:11.254Z</time>
      </trkpt>
      <trkpt lat="45.770791" lon="10.268520">
        <ele>691.221172</ele>
        <time>2021-01-28T14:52:12.117Z</time>
      </trkpt>
      <trkpt lat="45.770833" lon="10.268575">
        <ele>691.123787</ele>
        <time>2021-01-28T14:52:12.809Z</time>
      </trkpt>
      <trkpt lat="45.770845" lon="10.268590">
        <ele>691.096531</ele>
        <time>2021-01-28T14:52:13.325Z</time>
      </trkpt>
      <trkpt lat="45.770879" lon="10.268737">
        <ele>691.277375</ele>
        <time>2021-01-28T14:52:15.484Z</time>
      </trkpt>
      <trkpt lat="45.770893" lon="10.268796">
        <ele>691.488349</ele>
        <time>2021-01-28T14:52:16.440Z</time>
      </trkpt>
      <trkpt lat="45.770935" lon="10.268930">
        <ele>691.985675</ele>
        <time>2021-01-28T14:52:18.024Z</time>
      </trkpt>
      <trkpt lat="45.770987" lon="10.269173">
        <ele>692.846148</ele>
        <time>2021-01-28T14:52:21.649Z</time>
      </trkpt>
      <trkpt lat="45.771100" lon="10.269408">
        <ele>693.812411</ele>
        <time>2021-01-28T14:52:27.114Z</time>
      </trkpt>
      <trkpt lat="45.771144" lon="10.269486">
        <ele>694.152007</ele>
        <time>2021-01-28T14:52:29.714Z</time>
      </trkpt>
      <trkpt lat="45.771166" lon="10.269527">
        <ele>694.327122</ele>
        <time>2021-01-28T14:52:31.923Z</time>
      </trkpt>
      <trkpt lat="45.771252" lon="10.269635">
        <ele>694.881993</ele>
        <time>2021-01-28T14:52:35.495Z</time>
      </trkpt>
      <trkpt lat="45.771856" lon="10.269935">
        <ele>697.984327</ele>
        <time>2021-01-28T14:53:03.280Z</time>
      </trkpt>
      <trkpt lat="45.772293" lon="10.270434">
        <ele>700.958057</ele>
        <time>2021-01-28T14:53:27.602Z</time>
      </trkpt>
      <trkpt lat="45.773389" lon="10.271064">
        <ele>708.255853</ele>
        <time>2021-01-28T14:54:13.801Z</time>
      </trkpt>
      <trkpt lat="45.773448" lon="10.271210">
        <ele>708.983226</ele>
        <time>2021-01-28T14:54:15.553Z</time>
      </trkpt>
      <trkpt lat="45.773310" lon="10.271806">
        <ele>711.623706</ele>
        <time>2021-01-28T14:54:34.787Z</time>
      </trkpt>
      <trkpt lat="45.773330" lon="10.271955">
        <ele>712.225798</ele>
        <time>2021-01-28T14:54:40.427Z</time>
      </trkpt>
      <trkpt lat="45.773561" lon="10.272409">
        <ele>714.455692</ele>
        <time>2021-01-28T14:54:55.353Z</time>
      </trkpt>
      <trkpt lat="45.773594" lon="10.272602">
        <ele>715.244202</ele>
        <time>2021-01-28T14:54:57.264Z</time>
      </trkpt>
      <trkpt lat="45.773676" lon="10.272782">
        <ele>716.097298</ele>
        <time>2021-01-28T14:55:05.748Z</time>
      </trkpt>
      <trkpt lat="45.774397" lon="10.273645">
        <ele>721.163551</ele>
        <time>2021-01-28T14:55:39.148Z</time>
      </trkpt>
      <trkpt lat="45.774588" lon="10.274212">
        <ele>721.715296</ele>
        <time>2021-01-28T14:55:56.843Z</time>
      </trkpt>
      <trkpt lat="45.774527" lon="10.274378">
        <ele>721.879706</ele>
        <time>2021-01-28T14:56:00.594Z</time>
      </trkpt>
      <trkpt lat="45.774345" lon="10.274320">
        <ele>722.113933</ele>
        <time>2021-01-28T14:56:05.692Z</time>
      </trkpt>
      <trkpt lat="45.774220" lon="10.274260">
        <ele>722.279538</ele>
        <time>2021-01-28T14:56:07.261Z</time>
      </trkpt>
      <trkpt lat="45.773949" lon="10.274260">
        <ele>722.619996</ele>
        <time>2021-01-28T14:56:12.168Z</time>
      </trkpt>
      <trkpt lat="45.773794" lon="10.274367">
        <ele>722.836120</ele>
        <time>2021-01-28T14:56:14.300Z</time>
      </trkpt>
      <trkpt lat="45.773641" lon="10.274568">
        <ele>723.096826</ele>
        <time>2021-01-28T14:56:16.593Z</time>
      </trkpt>
      <trkpt lat="45.773505" lon="10.275079">
        <ele>721.898140</ele>
        <time>2021-01-28T14:56:20.448Z</time>
      </trkpt>
      <trkpt lat="45.773423" lon="10.275217">
        <ele>720.905198</ele>
        <time>2021-01-28T14:56:21.718Z</time>
      </trkpt>
      <trkpt lat="45.773415" lon="10.275230">
        <ele>720.810243</ele>
        <time>2021-01-28T14:56:21.822Z</time>
      </trkpt>
      <trkpt lat="45.773371" lon="10.275160">
        <ele>720.294125</ele>
        <time>2021-01-28T14:56:22.409Z</time>
      </trkpt>
      <trkpt lat="45.773259" lon="10.275066">
        <ele>719.275015</ele>
        <time>2021-01-28T14:56:23.681Z</time>
      </trkpt>
      <trkpt lat="45.773137" lon="10.275062">
        <ele>718.316746</ele>
        <time>2021-01-28T14:56:24.781Z</time>
      </trkpt>
      <trkpt lat="45.773009" lon="10.275174">
        <ele>717.139200</ele>
        <time>2021-01-28T14:56:26.071Z</time>
      </trkpt>
      <trkpt lat="45.772943" lon="10.275319">
        <ele>716.190856</ele>
        <time>2021-01-28T14:56:27.152Z</time>
      </trkpt>
      <trkpt lat="45.772939" lon="10.275524">
        <ele>715.067586</ele>
        <time>2021-01-28T14:56:28.403Z</time>
      </trkpt>
      <trkpt lat="45.773153" lon="10.275964">
        <ele>712.129572</ele>
        <time>2021-01-28T14:56:31.607Z</time>
      </trkpt>
      <trkpt lat="45.773104" lon="10.276093">
        <ele>711.325034</ele>
        <time>2021-01-28T14:56:32.455Z</time>
      </trkpt>
      <trkpt lat="45.773026" lon="10.276075">
        <ele>710.704647</ele>
        <time>2021-01-28T14:56:33.175Z</time>
      </trkpt>
      <trkpt lat="45.772843" lon="10.275724">
        <ele>708.064762</ele>
        <time>2021-01-28T14:56:35.770Z</time>
      </trkpt>
      <trkpt lat="45.772599" lon="10.275497">
        <ele>705.183192</ele>
        <time>2021-01-28T14:56:38.332Z</time>
      </trkpt>
      <trkpt lat="45.772565" lon="10.275467">
        <ele>704.787684</ele>
        <time>2021-01-28T14:56:38.657Z</time>
      </trkpt>
      <trkpt lat="45.772421" lon="10.275341">
        <ele>703.116414</ele>
        <time>2021-01-28T14:56:40.194Z</time>
      </trkpt>
      <trkpt lat="45.772366" lon="10.275308">
        <ele>702.525753</ele>
        <time>2021-01-28T14:56:40.720Z</time>
      </trkpt>
      <trkpt lat="45.772263" lon="10.275308">
        <ele>701.505361</ele>
        <time>2021-01-28T14:56:41.590Z</time>
      </trkpt>
      <trkpt lat="45.771838" lon="10.275406">
        <ele>697.240898</ele>
        <time>2021-01-28T14:56:45.334Z</time>
      </trkpt>
      <trkpt lat="45.771682" lon="10.275290">
        <ele>695.499943</ele>
        <time>2021-01-28T14:56:46.838Z</time>
      </trkpt>
      <trkpt lat="45.771643" lon="10.275185">
        <ele>694.677923</ele>
        <time>2021-01-28T14:56:47.553Z</time>
      </trkpt>
      <trkpt lat="45.771686" lon="10.275000">
        <ele>693.330442</ele>
        <time>2021-01-28T14:56:48.724Z</time>
      </trkpt>
      <trkpt lat="45.771939" lon="10.274271">
        <ele>688.067050</ele>
        <time>2021-01-28T14:56:53.579Z</time>
      </trkpt>
      <trkpt lat="45.771932" lon="10.274144">
        <ele>687.273182</ele>
        <time>2021-01-28T14:56:54.357Z</time>
      </trkpt>
      <trkpt lat="45.771861" lon="10.274118">
        <ele>686.618514</ele>
        <time>2021-01-28T14:56:55.022Z</time>
      </trkpt>
      <trkpt lat="45.771709" lon="10.274338">
        <ele>684.688883</ele>
        <time>2021-01-28T14:56:56.909Z</time>
      </trkpt>
      <trkpt lat="45.771664" lon="10.274502">
        <ele>683.590682</ele>
        <time>2021-01-28T14:56:58.034Z</time>
      </trkpt>
      <trkpt lat="45.771600" lon="10.274571">
        <ele>682.875282</ele>
        <time>2021-01-28T14:56:58.743Z</time>
      </trkpt>
      <trkpt lat="45.771541" lon="10.274555">
        <ele>682.338838</ele>
        <time>2021-01-28T14:56:59.244Z</time>
      </trkpt>
      <trkpt lat="45.771514" lon="10.274457">
        <ele>681.682235</ele>
        <time>2021-01-28T14:56:59.911Z</time>
      </trkpt>
      <trkpt lat="45.771768" lon="10.273896">
        <ele>677.514440</ele>
        <time>2021-01-28T14:57:04.054Z</time>
      </trkpt>
      <trkpt lat="45.771799" lon="10.273706">
        <ele>676.298492</ele>
        <time>2021-01-28T14:57:05.251Z</time>
      </trkpt>
      <trkpt lat="45.771703" lon="10.273102">
        <ele>673.015815</ele>
        <time>2021-01-28T14:57:09.012Z</time>
      </trkpt>
      <trkpt lat="45.771510" lon="10.272956">
        <ele>671.455264</ele>
        <time>2021-01-28T14:57:10.962Z</time>
      </trkpt>
      <trkpt lat="45.771460" lon="10.272854">
        <ele>670.833394</ele>
        <time>2021-01-28T14:57:11.701Z</time>
      </trkpt>
      <trkpt lat="45.771527" lon="10.272625">
        <ele>669.594686</ele>
        <time>2021-01-28T14:57:13.227Z</time>
      </trkpt>
      <trkpt lat="45.771635" lon="10.272560">
        <ele>668.757052</ele>
        <time>2021-01-28T14:57:14.282Z</time>
      </trkpt>
      <trkpt lat="45.771659" lon="10.272444">
        <ele>668.153508</ele>
        <time>2021-01-28T14:57:15.046Z</time>
      </trkpt>
      <trkpt lat="45.771593" lon="10.272384">
        <ele>667.594631</ele>
        <time>2021-01-28T14:57:15.752Z</time>
      </trkpt>
      <trkpt lat="45.771337" lon="10.272518">
        <ele>665.645700</ele>
        <time>2021-01-28T14:57:18.227Z</time>
      </trkpt>
      <trkpt lat="45.771284" lon="10.272658">
        <ele>664.851130</ele>
        <time>2021-01-28T14:57:19.239Z</time>
      </trkpt>
      <trkpt lat="45.771256" lon="10.272902">
        <ele>663.617651</ele>
        <time>2021-01-28T14:57:20.852Z</time>
      </trkpt>
      <trkpt lat="45.771297" lon="10.273498">
        <ele>661.112242</ele>
        <time>2021-01-28T14:57:24.822Z</time>
      </trkpt>
      <trkpt lat="45.770827" lon="10.274577">
        <ele>656.428582</ele>
        <time>2021-01-28T14:57:33.263Z</time>
      </trkpt>
      <trkpt lat="45.770736" lon="10.274762">
        <ele>655.595115</ele>
        <time>2021-01-28T14:57:34.747Z</time>
      </trkpt>
      <trkpt lat="45.770335" lon="10.275082">
        <ele>653.172668</ele>
        <time>2021-01-28T14:57:38.988Z</time>
      </trkpt>
      <trkpt lat="45.770234" lon="10.275273">
        <ele>651.987617</ele>
        <time>2021-01-28T14:57:40.520Z</time>
      </trkpt>
      <trkpt lat="45.770255" lon="10.275563">
        <ele>650.440975</ele>
        <time>2021-01-28T14:57:42.407Z</time>
      </trkpt>
      <trkpt lat="45.770701" lon="10.276142">
        <ele>645.865160</ele>
        <time>2021-01-28T14:57:47.871Z</time>
      </trkpt>
      <trkpt lat="45.770690" lon="10.276270">
        <ele>645.181025</ele>
        <time>2021-01-28T14:57:48.677Z</time>
      </trkpt>
      <trkpt lat="45.770631" lon="10.276282">
        <ele>644.727840</ele>
        <time>2021-01-28T14:57:49.193Z</time>
      </trkpt>
      <trkpt lat="45.770316" lon="10.275895">
        <ele>641.572967</ele>
        <time>2021-01-28T14:57:52.808Z</time>
      </trkpt>
      <trkpt lat="45.769840" lon="10.275636">
        <ele>637.695579</ele>
        <time>2021-01-28T14:57:57.209Z</time>
      </trkpt>
      <trkpt lat="45.769518" lon="10.275237">
        <ele>634.447738</ele>
        <time>2021-01-28T14:58:00.899Z</time>
      </trkpt>
      <trkpt lat="45.769462" lon="10.275025">
        <ele>633.241067</ele>
        <time>2021-01-28T14:58:02.287Z</time>
      </trkpt>
      <trkpt lat="45.769499" lon="10.274864">
        <ele>632.338757</ele>
        <time>2021-01-28T14:58:03.337Z</time>
      </trkpt>
      <trkpt lat="45.769866" lon="10.274434">
        <ele>628.721839</ele>
        <time>2021-01-28T14:58:07.644Z</time>
      </trkpt>
      <trkpt lat="45.769927" lon="10.274261">
        <ele>627.690009</ele>
        <time>2021-01-28T14:58:08.888Z</time>
      </trkpt>
      <trkpt lat="45.769972" lon="10.273861">
        <ele>625.538907</ele>
        <time>2021-01-28T14:58:11.776Z</time>
      </trkpt>
      <trkpt lat="45.769978" lon="10.273734">
        <ele>624.957448</ele>
        <time>2021-01-28T14:58:12.515Z</time>
      </trkpt>
      <trkpt lat="45.769979" lon="10.273710">
        <ele>624.847622</ele>
        <time>2021-01-28T14:58:12.672Z</time>
      </trkpt>
      <trkpt lat="45.769994" lon="10.273365">
        <ele>623.268621</ele>
        <time>2021-01-28T14:58:15.168Z</time>
      </trkpt>
      <trkpt lat="45.770051" lon="10.272658">
        <ele>620.017584</ele>
        <time>2021-01-28T14:58:19.577Z</time>
      </trkpt>
      <trkpt lat="45.770070" lon="10.272624">
        <ele>619.818580</ele>
        <time>2021-01-28T14:58:19.839Z</time>
      </trkpt>
      <trkpt lat="45.770099" lon="10.272571">
        <ele>619.510881</ele>
        <time>2021-01-28T14:58:21.202Z</time>
      </trkpt>
      <trkpt lat="45.770445" lon="10.272218">
        <ele>616.729860</ele>
        <time>2021-01-28T14:58:25.096Z</time>
      </trkpt>
      <trkpt lat="45.770476" lon="10.272145">
        <ele>616.339467</ele>
        <time>2021-01-28T14:58:26.353Z</time>
      </trkpt>
      <trkpt lat="45.770470" lon="10.272073">
        <ele>616.008239</ele>
        <time>2021-01-28T14:58:26.821Z</time>
      </trkpt>
      <trkpt lat="45.770429" lon="10.272008">
        <ele>615.607930</ele>
        <time>2021-01-28T14:58:27.321Z</time>
      </trkpt>
      <trkpt lat="45.770076" lon="10.271977">
        <ele>613.192596</ele>
        <time>2021-01-28T14:58:30.516Z</time>
      </trkpt>
      <trkpt lat="45.768936" lon="10.270971">
        <ele>602.691767</ele>
        <time>2021-01-28T14:58:42.286Z</time>
      </trkpt>
      <trkpt lat="45.768865" lon="10.270563">
        <ele>600.390856</ele>
        <time>2021-01-28T14:58:44.891Z</time>
      </trkpt>
      <trkpt lat="45.768988" lon="10.270229">
        <ele>598.848418</ele>
        <time>2021-01-28T14:58:47.257Z</time>
      </trkpt>
      <trkpt lat="45.768806" lon="10.269715">
        <ele>596.909344</ele>
        <time>2021-01-28T14:58:50.936Z</time>
      </trkpt>
      <trkpt lat="45.768790" lon="10.269116">
        <ele>594.892864</ele>
        <time>2021-01-28T14:58:54.880Z</time>
      </trkpt>
      <trkpt lat="45.768713" lon="10.269091">
        <ele>594.512129</ele>
        <time>2021-01-28T14:58:55.642Z</time>
      </trkpt>
      <trkpt lat="45.768644" lon="10.269221">
        <ele>593.962614</ele>
        <time>2021-01-28T14:58:56.780Z</time>
      </trkpt>
      <trkpt lat="45.768757" lon="10.269847">
        <ele>591.787414</ele>
        <time>2021-01-28T14:59:01.409Z</time>
      </trkpt>
      <trkpt lat="45.768745" lon="10.269978">
        <ele>591.342954</ele>
        <time>2021-01-28T14:59:02.380Z</time>
      </trkpt>
      <trkpt lat="45.768667" lon="10.270003">
        <ele>590.970330</ele>
        <time>2021-01-28T14:59:03.235Z</time>
      </trkpt>
      <trkpt lat="45.768626" lon="10.269903">
        <ele>590.673514</ele>
        <time>2021-01-28T14:59:04.149Z</time>
      </trkpt>
      <trkpt lat="45.768496" lon="10.269102">
        <ele>588.569103</ele>
        <time>2021-01-28T14:59:10.059Z</time>
      </trkpt>
      <trkpt lat="45.768644" lon="10.268239">
        <ele>586.295029</ele>
        <time>2021-01-28T14:59:16.270Z</time>
      </trkpt>
      <trkpt lat="45.768614" lon="10.268107">
        <ele>585.939781</ele>
        <time>2021-01-28T14:59:17.197Z</time>
      </trkpt>
      <trkpt lat="45.768416" lon="10.267778">
        <ele>584.827887</ele>
        <time>2021-01-28T14:59:20.148Z</time>
      </trkpt>
      <trkpt lat="45.768396" lon="10.267738">
        <ele>584.701953</ele>
        <time>2021-01-28T14:59:20.468Z</time>
      </trkpt>
      <trkpt lat="45.768184" lon="10.267320">
        <ele>582.433578</ele>
        <time>2021-01-28T14:59:23.871Z</time>
      </trkpt>
      <trkpt lat="45.768021" lon="10.266620">
        <ele>578.816848</ele>
        <time>2021-01-28T14:59:28.585Z</time>
      </trkpt>
      <trkpt lat="45.767929" lon="10.266407">
        <ele>577.589040</ele>
        <time>2021-01-28T14:59:30.152Z</time>
      </trkpt>
      <trkpt lat="45.767870" lon="10.266051">
        <ele>575.795745</ele>
        <time>2021-01-28T14:59:32.418Z</time>
      </trkpt>
      <trkpt lat="45.767701" lon="10.265600">
        <ele>573.286696</ele>
        <time>2021-01-28T14:59:35.542Z</time>
      </trkpt>
      <trkpt lat="45.767509" lon="10.264680">
        <ele>567.684269</ele>
        <time>2021-01-28T14:59:41.446Z</time>
      </trkpt>
      <trkpt lat="45.767623" lon="10.264006">
        <ele>563.332274</ele>
        <time>2021-01-28T14:59:45.590Z</time>
      </trkpt>
      <trkpt lat="45.767573" lon="10.263682">
        <ele>561.249972</ele>
        <time>2021-01-28T14:59:47.549Z</time>
      </trkpt>
      <trkpt lat="45.767599" lon="10.263112">
        <ele>557.665504</ele>
        <time>2021-01-28T14:59:51.056Z</time>
      </trkpt>
      <trkpt lat="45.767691" lon="10.262899">
        <ele>556.093424</ele>
        <time>2021-01-28T14:59:52.708Z</time>
      </trkpt>
      <trkpt lat="45.768007" lon="10.262610">
        <ele>554.229904</ele>
        <time>2021-01-28T14:59:56.112Z</time>
      </trkpt>
      <trkpt lat="45.768023" lon="10.262545">
        <ele>554.024328</ele>
        <time>2021-01-28T14:59:56.507Z</time>
      </trkpt>
      <trkpt lat="45.768012" lon="10.262478">
        <ele>553.819044</ele>
        <time>2021-01-28T14:59:56.973Z</time>
      </trkpt>
      <trkpt lat="45.767887" lon="10.262205">
        <ele>552.845098</ele>
        <time>2021-01-28T14:59:59.473Z</time>
      </trkpt>
      <trkpt lat="45.767811" lon="10.262069">
        <ele>552.325377</ele>
        <time>2021-01-28T15:00:00.529Z</time>
      </trkpt>
      <trkpt lat="45.767557" lon="10.262068">
        <ele>551.239388</ele>
        <time>2021-01-28T15:00:03.653Z</time>
      </trkpt>
      <trkpt lat="45.767324" lon="10.262020">
        <ele>550.232956</ele>
        <time>2021-01-28T15:00:05.901Z</time>
      </trkpt>
      <trkpt lat="45.766953" lon="10.261722">
        <ele>548.414704</ele>
        <time>2021-01-28T15:00:10.245Z</time>
      </trkpt>
      <trkpt lat="45.766866" lon="10.261448">
        <ele>547.719639</ele>
        <time>2021-01-28T15:00:12.253Z</time>
      </trkpt>
      <trkpt lat="45.766872" lon="10.260990">
        <ele>547.065403</ele>
        <time>2021-01-28T15:00:16.549Z</time>
      </trkpt>
      <trkpt lat="45.766890" lon="10.260890">
        <ele>546.917903</ele>
        <time>2021-01-28T15:00:19.412Z</time>
      </trkpt>
      <trkpt lat="45.766959" lon="10.260501">
        <ele>546.344650</ele>
        <time>2021-01-28T15:00:23.018Z</time>
      </trkpt>
      <trkpt lat="45.767030" lon="10.260104">
        <ele>545.759314</ele>
        <time>2021-01-28T15:00:26.490Z</time>
      </trkpt>
      <trkpt lat="45.767043" lon="10.259549">
        <ele>544.966213</ele>
        <time>2021-01-28T15:00:30.523Z</time>
      </trkpt>
      <trkpt lat="45.766781" lon="10.258521">
        <ele>542.941199</ele>
        <time>2021-01-28T15:00:38.103Z</time>
      </trkpt>
      <trkpt lat="45.766664" lon="10.258242">
        <ele>542.214508</ele>
        <time>2021-01-28T15:00:40.476Z</time>
      </trkpt>
      <trkpt lat="45.766617" lon="10.258161">
        <ele>541.979315</ele>
        <time>2021-01-28T15:00:41.210Z</time>
      </trkpt>
      <trkpt lat="45.766565" lon="10.258071">
        <ele>541.718443</ele>
        <time>2021-01-28T15:00:41.970Z</time>
      </trkpt>
      <trkpt lat="45.765583" lon="10.256890">
        <ele>537.593656</ele>
        <time>2021-01-28T15:00:55.169Z</time>
      </trkpt>
      <trkpt lat="45.765112" lon="10.255969">
        <ele>534.975830</ele>
        <time>2021-01-28T15:01:03.435Z</time>
      </trkpt>
      <trkpt lat="45.764833" lon="10.254746">
        <ele>531.680887</ele>
        <time>2021-01-28T15:01:12.382Z</time>
      </trkpt>
      <trkpt lat="45.764533" lon="10.253740">
        <ele>527.542374</ele>
        <time>2021-01-28T15:01:19.598Z</time>
      </trkpt>
      <trkpt lat="45.763814" lon="10.252021">
        <ele>520.353067</ele>
        <time>2021-01-28T15:01:32.358Z</time>
      </trkpt>
      <trkpt lat="45.763670" lon="10.251770">
        <ele>519.293413</ele>
        <time>2021-01-28T15:01:34.376Z</time>
      </trkpt>
      <trkpt lat="45.763461" lon="10.251402">
        <ele>517.746098</ele>
        <time>2021-01-28T15:01:37.456Z</time>
      </trkpt>
      <trkpt lat="45.763445" lon="10.251374">
        <ele>517.628079</ele>
        <time>2021-01-28T15:01:37.670Z</time>
      </trkpt>
      <trkpt lat="45.762979" lon="10.250902">
        <ele>514.961063</ele>
        <time>2021-01-28T15:01:43.532Z</time>
      </trkpt>
      <trkpt lat="45.763069" lon="10.250661">
        <ele>514.734207</ele>
        <time>2021-01-28T15:01:45.497Z</time>
      </trkpt>
      <trkpt lat="45.763136" lon="10.250476">
        <ele>515.433479</ele>
        <time>2021-01-28T15:01:48.219Z</time>
      </trkpt>
      <trkpt lat="45.763220" lon="10.250383">
        <ele>515.943874</ele>
        <time>2021-01-28T15:01:49.545Z</time>
      </trkpt>
      <trkpt lat="45.763124" lon="10.250178">
        <ele>516.772168</ele>
        <time>2021-01-28T15:01:56.302Z</time>
      </trkpt>
      <trkpt lat="45.763018" lon="10.249929">
        <ele>517.750738</ele>
        <time>2021-01-28T15:02:06.923Z</time>
      </trkpt>
      <trkpt lat="45.762968" lon="10.249767">
        <ele>518.345018</ele>
        <time>2021-01-28T15:02:12.661Z</time>
      </trkpt>
      <trkpt lat="45.763246" lon="10.249787">
        <ele>519.683541</ele>
        <time>2021-01-28T15:02:23.019Z</time>
      </trkpt>
      <trkpt lat="45.763949" lon="10.249847">
        <ele>523.097093</ele>
        <time>2021-01-28T15:02:59.770Z</time>
      </trkpt>
      <trkpt lat="45.764147" lon="10.249836">
        <ele>525.140599</ele>
        <time>2021-01-28T15:03:10.290Z</time>
      </trkpt>
      <trkpt lat="45.764636" lon="10.249759">
        <ele>530.213989</ele>
        <time>2021-01-28T15:03:41.386Z</time>
      </trkpt>
      <trkpt lat="45.764809" lon="10.249640">
        <ele>532.192916</ele>
        <time>2021-01-28T15:03:51.795Z</time>
      </trkpt>
      <trkpt lat="45.764940" lon="10.249523">
        <ele>533.784688</ele>
        <time>2021-01-28T15:04:02.309Z</time>
      </trkpt>
      <trkpt lat="45.765031" lon="10.249410">
        <ele>535.026325</ele>
        <time>2021-01-28T15:04:08.514Z</time>
      </trkpt>
      <trkpt lat="45.765212" lon="10.249331">
        <ele>536.977585</ele>
        <time>2021-01-28T15:04:19.922Z</time>
      </trkpt>
      <trkpt lat="45.766021" lon="10.249456">
        <ele>543.654669</ele>
        <time>2021-01-28T15:05:02.956Z</time>
      </trkpt>
      <trkpt lat="45.766181" lon="10.249364">
        <ele>544.624721</ele>
        <time>2021-01-28T15:05:09.710Z</time>
      </trkpt>
      <trkpt lat="45.766629" lon="10.248826">
        <ele>547.913305</ele>
        <time>2021-01-28T15:05:30.509Z</time>
      </trkpt>
      <trkpt lat="45.767467" lon="10.248654">
        <ele>552.032710</ele>
        <time>2021-01-28T15:05:54.914Z</time>
      </trkpt>
      <trkpt lat="45.767934" lon="10.248397">
        <ele>552.958709</ele>
        <time>2021-01-28T15:06:07.602Z</time>
      </trkpt>
      <trkpt lat="45.768856" lon="10.247676">
        <ele>554.902887</ele>
        <time>2021-01-28T15:06:28.961Z</time>
      </trkpt>
      <trkpt lat="45.769503" lon="10.247307">
        <ele>556.044519</ele>
        <time>2021-01-28T15:06:39.044Z</time>
      </trkpt>
      <trkpt lat="45.770030" lon="10.246843">
        <ele>557.042079</ele>
        <time>2021-01-28T15:06:53.771Z</time>
      </trkpt>
      <trkpt lat="45.770595" lon="10.246232">
        <ele>558.601929</ele>
        <time>2021-01-28T15:07:10.670Z</time>
      </trkpt>
      <trkpt lat="45.770681" lon="10.246143">
        <ele>559.076319</ele>
        <time>2021-01-28T15:07:11.907Z</time>
      </trkpt>
      <trkpt lat="45.770732" lon="10.246155">
        <ele>559.307473</ele>
        <time>2021-01-28T15:07:13.591Z</time>
      </trkpt>
      <trkpt lat="45.770771" lon="10.246200">
        <ele>559.531383</ele>
        <time>2021-01-28T15:07:15.262Z</time>
      </trkpt>
      <trkpt lat="45.770767" lon="10.246274">
        <ele>559.762938</ele>
        <time>2021-01-28T15:07:18.574Z</time>
      </trkpt>
      <trkpt lat="45.770634" lon="10.246511">
        <ele>560.711910</ele>
        <time>2021-01-28T15:07:22.646Z</time>
      </trkpt>
      <trkpt lat="45.770042" lon="10.247083">
        <ele>563.904911</ele>
        <time>2021-01-28T15:07:47.329Z</time>
      </trkpt>
      <trkpt lat="45.769695" lon="10.247504">
        <ele>565.938091</ele>
        <time>2021-01-28T15:08:05.944Z</time>
      </trkpt>
      <trkpt lat="45.768934" lon="10.248174">
        <ele>571.216639</ele>
        <time>2021-01-28T15:08:41.880Z</time>
      </trkpt>
      <trkpt lat="45.768276" lon="10.248860">
        <ele>576.041676</ele>
        <time>2021-01-28T15:09:12.959Z</time>
      </trkpt>
      <trkpt lat="45.768108" lon="10.248946">
        <ele>577.037889</ele>
        <time>2021-01-28T15:09:19.169Z</time>
      </trkpt>
      <trkpt lat="45.768114" lon="10.249066">
        <ele>577.465862</ele>
        <time>2021-01-28T15:09:22.435Z</time>
      </trkpt>
      <trkpt lat="45.768192" lon="10.249058">
        <ele>577.864650</ele>
        <time>2021-01-28T15:09:25.245Z</time>
      </trkpt>
      <trkpt lat="45.769126" lon="10.248277">
        <ele>583.378751</ele>
        <time>2021-01-28T15:10:01.271Z</time>
      </trkpt>
      <trkpt lat="45.770191" lon="10.247719">
        <ele>590.957515</ele>
        <time>2021-01-28T15:10:43.174Z</time>
      </trkpt>
      <trkpt lat="45.771380" lon="10.246715">
        <ele>602.020783</ele>
        <time>2021-01-28T15:11:53.498Z</time>
      </trkpt>
      <trkpt lat="45.771546" lon="10.246716">
        <ele>603.486964</ele>
        <time>2021-01-28T15:12:03.502Z</time>
      </trkpt>
      <trkpt lat="45.771783" lon="10.246825">
        <ele>605.685304</ele>
        <time>2021-01-28T15:12:18.664Z</time>
      </trkpt>
      <trkpt lat="45.772227" lon="10.246721">
        <ele>609.658858</ele>
        <time>2021-01-28T15:12:44.955Z</time>
      </trkpt>
      <trkpt lat="45.772792" lon="10.246777">
        <ele>614.661042</ele>
        <time>2021-01-28T15:13:13.584Z</time>
      </trkpt>
      <trkpt lat="45.773379" lon="10.247101">
        <ele>614.312162</ele>
        <time>2021-01-28T15:13:32.708Z</time>
      </trkpt>
      <trkpt lat="45.773583" lon="10.247361">
        <ele>613.471762</ele>
        <time>2021-01-28T15:13:35.543Z</time>
      </trkpt>
      <trkpt lat="45.773856" lon="10.247379">
        <ele>612.630330</ele>
        <time>2021-01-28T15:13:38.101Z</time>
      </trkpt>
      <trkpt lat="45.774016" lon="10.247187">
        <ele>611.987920</ele>
        <time>2021-01-28T15:13:39.933Z</time>
      </trkpt>
      <trkpt lat="45.774032" lon="10.247047">
        <ele>611.683259</ele>
        <time>2021-01-28T15:13:40.814Z</time>
      </trkpt>
      <trkpt lat="45.773873" lon="10.246483">
        <ele>610.376868</ele>
        <time>2021-01-28T15:13:44.587Z</time>
      </trkpt>
      <trkpt lat="45.773723" lon="10.246164">
        <ele>608.886580</ele>
        <time>2021-01-28T15:13:46.878Z</time>
      </trkpt>
      <trkpt lat="45.773529" lon="10.245753">
        <ele>606.876960</ele>
        <time>2021-01-28T15:13:49.897Z</time>
      </trkpt>
      <trkpt lat="45.773237" lon="10.245218">
        <ele>604.126041</ele>
        <time>2021-01-28T15:13:54.158Z</time>
      </trkpt>
      <trkpt lat="45.773165" lon="10.244707">
        <ele>602.014949</ele>
        <time>2021-01-28T15:13:57.493Z</time>
      </trkpt>
      <trkpt lat="45.773200" lon="10.244328">
        <ele>600.466796</ele>
        <time>2021-01-28T15:13:59.938Z</time>
      </trkpt>
      <trkpt lat="45.773400" lon="10.243367">
        <ele>602.580574</ele>
        <time>2021-01-28T15:14:20.622Z</time>
      </trkpt>
      <trkpt lat="45.773541" lon="10.242994">
        <ele>603.935376</ele>
        <time>2021-01-28T15:14:32.460Z</time>
      </trkpt>
      <trkpt lat="45.773838" lon="10.242629">
        <ele>605.726322</ele>
        <time>2021-01-28T15:14:50.189Z</time>
      </trkpt>
      <trkpt lat="45.774203" lon="10.242406">
        <ele>607.542805</ele>
        <time>2021-01-28T15:15:07.461Z</time>
      </trkpt>
      <trkpt lat="45.774721" lon="10.241916">
        <ele>609.568699</ele>
        <time>2021-01-28T15:15:28.635Z</time>
      </trkpt>
      <trkpt lat="45.774792" lon="10.241831">
        <ele>609.841484</ele>
        <time>2021-01-28T15:15:33.624Z</time>
      </trkpt>
      <trkpt lat="45.774988" lon="10.241576">
        <ele>610.622014</ele>
        <time>2021-01-28T15:15:39.447Z</time>
      </trkpt>
      <trkpt lat="45.775356" lon="10.240966">
        <ele>612.280969</ele>
        <time>2021-01-28T15:15:53.127Z</time>
      </trkpt>
      <trkpt lat="45.775373" lon="10.240613">
        <ele>613.008788</ele>
        <time>2021-01-28T15:15:57.959Z</time>
      </trkpt>
      <trkpt lat="45.775342" lon="10.240445">
        <ele>613.366239</ele>
        <time>2021-01-28T15:15:59.267Z</time>
      </trkpt>
      <trkpt lat="45.775236" lon="10.240275">
        <ele>613.837110</ele>
        <time>2021-01-28T15:16:00.890Z</time>
      </trkpt>
      <trkpt lat="45.774929" lon="10.240105">
        <ele>614.811730</ele>
        <time>2021-01-28T15:16:06.879Z</time>
      </trkpt>
      <trkpt lat="45.774217" lon="10.240377">
        <ele>616.993852</ele>
        <time>2021-01-28T15:16:22.273Z</time>
      </trkpt>
      <trkpt lat="45.774002" lon="10.240309">
        <ele>617.645873</ele>
        <time>2021-01-28T15:16:30.538Z</time>
      </trkpt>
      <trkpt lat="45.773918" lon="10.240202">
        <ele>617.978637</ele>
        <time>2021-01-28T15:16:31.767Z</time>
      </trkpt>
      <trkpt lat="45.774086" lon="10.240222">
        <ele>618.477873</ele>
        <time>2021-01-28T15:16:45.493Z</time>
      </trkpt>
      <trkpt lat="45.774212" lon="10.240172">
        <ele>619.153393</ele>
        <time>2021-01-28T15:16:48.817Z</time>
      </trkpt>
      <trkpt lat="45.774433" lon="10.239552">
        <ele>623.527194</ele>
        <time>2021-01-28T15:17:16.310Z</time>
      </trkpt>
      <trkpt lat="45.774747" lon="10.239331">
        <ele>626.677532</ele>
        <time>2021-01-28T15:17:36.256Z</time>
      </trkpt>
      <trkpt lat="45.774871" lon="10.238882">
        <ele>629.711056</ele>
        <time>2021-01-28T15:17:54.414Z</time>
      </trkpt>
      <trkpt lat="45.774917" lon="10.238836">
        <ele>630.216160</ele>
        <time>2021-01-28T15:18:00.735Z</time>
      </trkpt>
      <trkpt lat="45.774995" lon="10.238734">
        <ele>631.166962</ele>
        <time>2021-01-28T15:18:08.796Z</time>
      </trkpt>
      <trkpt lat="45.775126" lon="10.238504">
        <ele>633.032267</ele>
        <time>2021-01-28T15:18:17.367Z</time>
      </trkpt>
      <trkpt lat="45.775179" lon="10.238382">
        <ele>633.935125</ele>
        <time>2021-01-28T15:18:25.318Z</time>
      </trkpt>
      <trkpt lat="45.775209" lon="10.238323">
        <ele>634.393774</ele>
        <time>2021-01-28T15:18:28.239Z</time>
      </trkpt>
      <trkpt lat="45.775294" lon="10.238176">
        <ele>635.675853</ele>
        <time>2021-01-28T15:18:33.149Z</time>
      </trkpt>
      <trkpt lat="45.775381" lon="10.238027">
        <ele>637.046918</ele>
        <time>2021-01-28T15:18:41.630Z</time>
      </trkpt>
      <trkpt lat="45.775442" lon="10.237953">
        <ele>637.855252</ele>
        <time>2021-01-28T15:18:46.584Z</time>
      </trkpt>
      <trkpt lat="45.775377" lon="10.238110">
        <ele>639.143458</ele>
        <time>2021-01-28T15:18:51.407Z</time>
      </trkpt>
      <trkpt lat="45.775272" lon="10.238322">
        <ele>640.978047</ele>
        <time>2021-01-28T15:19:03.978Z</time>
      </trkpt>
      <trkpt lat="45.775238" lon="10.238416">
        <ele>641.725166</ele>
        <time>2021-01-28T15:19:08.336Z</time>
      </trkpt>
      <trkpt lat="45.775211" lon="10.238495">
        <ele>642.345893</ele>
        <time>2021-01-28T15:19:10.619Z</time>
      </trkpt>
      <trkpt lat="45.775199" lon="10.238536">
        <ele>642.659617</ele>
        <time>2021-01-28T15:19:11.859Z</time>
      </trkpt>
      <trkpt lat="45.775196" lon="10.238578">
        <ele>642.957508</ele>
        <time>2021-01-28T15:19:13.325Z</time>
      </trkpt>
      <trkpt lat="45.775109" lon="10.238789">
        <ele>644.686958</ele>
        <time>2021-01-28T15:19:29.547Z</time>
      </trkpt>
      <trkpt lat="45.775102" lon="10.238817">
        <ele>644.896827</ele>
        <time>2021-01-28T15:19:31.399Z</time>
      </trkpt>
      <trkpt lat="45.775197" lon="10.239024">
        <ele>646.645186</ele>
        <time>2021-01-28T15:19:38.714Z</time>
      </trkpt>
      <trkpt lat="45.775290" lon="10.239227">
        <ele>648.358846</ele>
        <time>2021-01-28T15:19:47.502Z</time>
      </trkpt>
      <trkpt lat="45.775374" lon="10.239291">
        <ele>649.321133</ele>
        <time>2021-01-28T15:19:52.285Z</time>
      </trkpt>
      <trkpt lat="45.775452" lon="10.239252">
        <ele>650.156795</ele>
        <time>2021-01-28T15:19:56.167Z</time>
      </trkpt>
      <trkpt lat="45.775556" lon="10.239073">
        <ele>651.800560</ele>
        <time>2021-01-28T15:20:04.283Z</time>
      </trkpt>
      <trkpt lat="45.775695" lon="10.238936">
        <ele>653.686104</ele>
        <time>2021-01-28T15:20:12.852Z</time>
      </trkpt>
      <trkpt lat="45.775917" lon="10.238946">
        <ele>656.968605</ele>
        <time>2021-01-28T15:20:46.895Z</time>
      </trkpt>
      <trkpt lat="45.776646" lon="10.238761">
        <ele>667.909773</ele>
        <time>2021-01-28T15:22:57.473Z</time>
      </trkpt>
      <trkpt lat="45.777168" lon="10.238053">
        <ele>678.529105</ele>
        <time>2021-01-28T15:25:08.473Z</time>
      </trkpt>
      <trkpt lat="45.777252" lon="10.237960">
        <ele>680.016158</ele>
        <time>2021-01-28T15:25:28.594Z</time>
      </trkpt>
      <trkpt lat="45.777286" lon="10.238078">
        <ele>681.062853</ele>
        <time>2021-01-28T15:25:33.064Z</time>
      </trkpt>
      <trkpt lat="45.777379" lon="10.238083">
        <ele>682.156799</ele>
        <time>2021-01-28T15:25:40.785Z</time>
      </trkpt>
      <trkpt lat="45.777629" lon="10.237675">
        <ele>686.609188</ele>
        <time>2021-01-28T15:26:06.416Z</time>
      </trkpt>
      <trkpt lat="45.778287" lon="10.237276">
        <ele>695.006962</ele>
        <time>2021-01-28T15:26:52.097Z</time>
      </trkpt>
      <trkpt lat="45.778509" lon="10.237043">
        <ele>698.240886</ele>
        <time>2021-01-28T15:27:07.476Z</time>
      </trkpt>
      <trkpt lat="45.778566" lon="10.237101">
        <ele>699.062472</ele>
        <time>2021-01-28T15:27:12.320Z</time>
      </trkpt>
      <trkpt lat="45.778554" lon="10.237229">
        <ele>700.121259</ele>
        <time>2021-01-28T15:27:15.822Z</time>
      </trkpt>
      <trkpt lat="45.778389" lon="10.237527">
        <ele>701.984053</ele>
        <time>2021-01-28T15:27:24.729Z</time>
      </trkpt>
      <trkpt lat="45.778396" lon="10.237720">
        <ele>702.738392</ele>
        <time>2021-01-28T15:27:29.401Z</time>
      </trkpt>
      <trkpt lat="45.778336" lon="10.237863">
        <ele>703.389774</ele>
        <time>2021-01-28T15:27:33.811Z</time>
      </trkpt>
      <trkpt lat="45.777803" lon="10.238325">
        <ele>706.875440</ele>
        <time>2021-01-28T15:27:54.128Z</time>
      </trkpt>
      <trkpt lat="45.777711" lon="10.238489">
        <ele>707.696947</ele>
        <time>2021-01-28T15:27:59.018Z</time>
      </trkpt>
      <trkpt lat="45.777761" lon="10.238693">
        <ele>708.540950</ele>
        <time>2021-01-28T15:28:03.632Z</time>
      </trkpt>
      <trkpt lat="45.778177" lon="10.238886">
        <ele>711.035753</ele>
        <time>2021-01-28T15:28:18.816Z</time>
      </trkpt>
      <trkpt lat="45.778197" lon="10.238902">
        <ele>711.240832</ele>
        <time>2021-01-28T15:28:20.252Z</time>
      </trkpt>
      <trkpt lat="45.778263" lon="10.239027">
        <ele>712.219956</ele>
        <time>2021-01-28T15:28:24.237Z</time>
      </trkpt>
      <trkpt lat="45.778352" lon="10.239246">
        <ele>713.802897</ele>
        <time>2021-01-28T15:28:32.169Z</time>
      </trkpt>
      <trkpt lat="45.778407" lon="10.239648">
        <ele>716.361300</ele>
        <time>2021-01-28T15:28:44.856Z</time>
      </trkpt>
      <trkpt lat="45.779024" lon="10.240148">
        <ele>722.707551</ele>
        <time>2021-01-28T15:29:21.578Z</time>
      </trkpt>
      <trkpt lat="45.779098" lon="10.240176">
        <ele>723.392865</ele>
        <time>2021-01-28T15:29:26.864Z</time>
      </trkpt>
      <trkpt lat="45.779710" lon="10.240406">
        <ele>729.868715</ele>
        <time>2021-01-28T15:30:04.194Z</time>
      </trkpt>
      <trkpt lat="45.780079" lon="10.240414">
        <ele>734.483848</ele>
        <time>2021-01-28T15:30:27.922Z</time>
      </trkpt>
      <trkpt lat="45.780151" lon="10.240275">
        <ele>735.993959</ele>
        <time>2021-01-28T15:30:37.156Z</time>
      </trkpt>
      <trkpt lat="45.779796" lon="10.240104">
        <ele>740.677301</ele>
        <time>2021-01-28T15:31:03.117Z</time>
      </trkpt>
      <trkpt lat="45.779668" lon="10.239899">
        <ele>743.077115</ele>
        <time>2021-01-28T15:31:16.099Z</time>
      </trkpt>
      <trkpt lat="45.779451" lon="10.239246">
        <ele>749.385902</ele>
        <time>2021-01-28T15:31:49.004Z</time>
      </trkpt>
      <trkpt lat="45.779462" lon="10.239113">
        <ele>750.502973</ele>
        <time>2021-01-28T15:31:54.918Z</time>
      </trkpt>
      <trkpt lat="45.779499" lon="10.239065">
        <ele>751.096525</ele>
        <time>2021-01-28T15:31:57.945Z</time>
      </trkpt>
      <trkpt lat="45.779563" lon="10.239090">
        <ele>751.885596</ele>
        <time>2021-01-28T15:32:01.842Z</time>
      </trkpt>
      <trkpt lat="45.779722" lon="10.239393">
        <ele>755.031467</ele>
        <time>2021-01-28T15:32:18.475Z</time>
      </trkpt>
      <trkpt lat="45.780165" lon="10.239788">
        <ele>761.237069</ele>
        <time>2021-01-28T15:32:49.499Z</time>
      </trkpt>
      <trkpt lat="45.780265" lon="10.239738">
        <ele>762.496887</ele>
        <time>2021-01-28T15:32:55.968Z</time>
      </trkpt>
      <trkpt lat="45.779976" lon="10.239233">
        <ele>767.916433</ele>
        <time>2021-01-28T15:33:26.544Z</time>
      </trkpt>
      <trkpt lat="45.779864" lon="10.238917">
        <ele>770.857168</ele>
        <time>2021-01-28T15:33:41.477Z</time>
      </trkpt>
      <trkpt lat="45.779874" lon="10.238747">
        <ele>772.116501</ele>
        <time>2021-01-28T15:33:49.547Z</time>
      </trkpt>
      <trkpt lat="45.779943" lon="10.238634">
        <ele>773.220503</ele>
        <time>2021-01-28T15:33:56.181Z</time>
      </trkpt>
      <trkpt lat="45.780016" lon="10.238633">
        <ele>773.989944</ele>
        <time>2021-01-28T15:34:00.107Z</time>
      </trkpt>
      <trkpt lat="45.780416" lon="10.239050">
        <ele>779.202376</ele>
        <time>2021-01-28T15:34:28.169Z</time>
      </trkpt>
      <trkpt lat="45.780476" lon="10.239119">
        <ele>780.013027</ele>
        <time>2021-01-28T15:34:34.582Z</time>
      </trkpt>
      <trkpt lat="45.780524" lon="10.239259">
        <ele>781.159739</ele>
        <time>2021-01-28T15:34:40.026Z</time>
      </trkpt>
      <trkpt lat="45.780738" lon="10.239840">
        <ele>785.989432</ele>
        <time>2021-01-28T15:35:03.866Z</time>
      </trkpt>
      <trkpt lat="45.780821" lon="10.239917">
        <ele>787.031366</ele>
        <time>2021-01-28T15:35:09.251Z</time>
      </trkpt>
      <trkpt lat="45.780944" lon="10.239959">
        <ele>788.364014</ele>
        <time>2021-01-28T15:35:16.760Z</time>
      </trkpt>
      <trkpt lat="45.781393" lon="10.239520">
        <ele>793.334509</ele>
        <time>2021-01-28T15:35:45.582Z</time>
      </trkpt>
      <trkpt lat="45.781590" lon="10.239455">
        <ele>795.083739</ele>
        <time>2021-01-28T15:35:56.776Z</time>
      </trkpt>
      <trkpt lat="45.781821" lon="10.239631">
        <ele>797.347282</ele>
        <time>2021-01-28T15:36:06.938Z</time>
      </trkpt>
      <trkpt lat="45.781926" lon="10.239786">
        <ele>798.651297</ele>
        <time>2021-01-28T15:36:14.015Z</time>
      </trkpt>
      <trkpt lat="45.782187" lon="10.239955">
        <ele>801.129374</ele>
        <time>2021-01-28T15:36:26.671Z</time>
      </trkpt>
      <trkpt lat="45.782232" lon="10.239962">
        <ele>801.521053</ele>
        <time>2021-01-28T15:36:29.893Z</time>
      </trkpt>
      <trkpt lat="45.782276" lon="10.240004">
        <ele>801.978440</ele>
        <time>2021-01-28T15:36:32.008Z</time>
      </trkpt>
      <trkpt lat="45.783009" lon="10.240644">
        <ele>809.938127</ele>
        <time>2021-01-28T15:37:16.412Z</time>
      </trkpt>
      <trkpt lat="45.783220" lon="10.240823">
        <ele>812.343981</ele>
        <time>2021-01-28T15:37:26.903Z</time>
      </trkpt>
      <trkpt lat="45.783255" lon="10.240832">
        <ele>812.692928</ele>
        <time>2021-01-28T15:37:30.480Z</time>
      </trkpt>
      <trkpt lat="45.783237" lon="10.240726">
        <ele>813.439547</ele>
        <time>2021-01-28T15:37:35.915Z</time>
      </trkpt>
      <trkpt lat="45.783018" lon="10.240468">
        <ele>816.220968</ele>
        <time>2021-01-28T15:37:49.442Z</time>
      </trkpt>
      <trkpt lat="45.782637" lon="10.239527">
        <ele>823.784608</ele>
        <time>2021-01-28T15:38:31.650Z</time>
      </trkpt>
      <trkpt lat="45.782638" lon="10.239474">
        <ele>824.219228</ele>
        <time>2021-01-28T15:38:35.561Z</time>
      </trkpt>
      <trkpt lat="45.782680" lon="10.239435">
        <ele>824.807390</ele>
        <time>2021-01-28T15:38:37.707Z</time>
      </trkpt>
      <trkpt lat="45.783354" lon="10.240181">
        <ele>834.815486</ele>
        <time>2021-01-28T15:39:30.754Z</time>
      </trkpt>
      <trkpt lat="45.783434" lon="10.240248">
        <ele>835.904483</ele>
        <time>2021-01-28T15:39:34.950Z</time>
      </trkpt>
      <trkpt lat="45.783472" lon="10.240205">
        <ele>836.473480</ele>
        <time>2021-01-28T15:39:40.038Z</time>
      </trkpt>
      <trkpt lat="45.783248" lon="10.239372">
        <ele>843.791860</ele>
        <time>2021-01-28T15:40:17.979Z</time>
      </trkpt>
      <trkpt lat="45.783189" lon="10.238963">
        <ele>846.976469</ele>
        <time>2021-01-28T15:40:36.188Z</time>
      </trkpt>
      <trkpt lat="45.783180" lon="10.238909">
        <ele>847.395294</ele>
        <time>2021-01-28T15:40:38.636Z</time>
      </trkpt>
      <trkpt lat="45.783064" lon="10.238650">
        <ele>849.717314</ele>
        <time>2021-01-28T15:40:53.626Z</time>
      </trkpt>
      <trkpt lat="45.782826" lon="10.238309">
        <ele>853.356681</ele>
        <time>2021-01-28T15:41:15.035Z</time>
      </trkpt>
      <trkpt lat="45.782492" lon="10.237929">
        <ele>857.968671</ele>
        <time>2021-01-28T15:41:37.383Z</time>
      </trkpt>
      <trkpt lat="45.782434" lon="10.237775">
        <ele>859.288985</ele>
        <time>2021-01-28T15:41:43.415Z</time>
      </trkpt>
      <trkpt lat="45.782413" lon="10.237610">
        <ele>860.554251</ele>
        <time>2021-01-28T15:41:48.372Z</time>
      </trkpt>
      <trkpt lat="45.782426" lon="10.237541">
        <ele>861.093426</ele>
        <time>2021-01-28T15:41:53.403Z</time>
      </trkpt>
      <trkpt lat="45.782468" lon="10.237404">
        <ele>862.222362</ele>
        <time>2021-01-28T15:41:58.492Z</time>
      </trkpt>
      <trkpt lat="45.783376" lon="10.236647">
        <ele>871.781875</ele>
        <time>2021-01-28T15:42:54.466Z</time>
      </trkpt>
      <trkpt lat="45.783589" lon="10.236180">
        <ele>875.225897</ele>
        <time>2021-01-28T15:43:14.333Z</time>
      </trkpt>
      <trkpt lat="45.783662" lon="10.236032">
        <ele>876.344731</ele>
        <time>2021-01-28T15:43:21.923Z</time>
      </trkpt>
      <trkpt lat="45.783893" lon="10.235846">
        <ele>878.689403</ele>
        <time>2021-01-28T15:43:32.702Z</time>
      </trkpt>
      <trkpt lat="45.784232" lon="10.235794">
        <ele>879.910422</ele>
        <time>2021-01-28T15:43:47.094Z</time>
      </trkpt>
      <trkpt lat="45.784400" lon="10.235902">
        <ele>880.155466</ele>
        <time>2021-01-28T15:43:55.676Z</time>
      </trkpt>
      <trkpt lat="45.784694" lon="10.235956">
        <ele>880.549969</ele>
        <time>2021-01-28T15:44:06.607Z</time>
      </trkpt>
      <trkpt lat="45.785144" lon="10.235955">
        <ele>881.148907</ele>
        <time>2021-01-28T15:44:17.341Z</time>
      </trkpt>
      <trkpt lat="45.785963" lon="10.235659">
        <ele>880.579665</ele>
        <time>2021-01-28T15:44:25.552Z</time>
      </trkpt>
      <trkpt lat="45.786570" lon="10.234706">
        <ele>874.700996</ele>
        <time>2021-01-28T15:44:33.242Z</time>
      </trkpt>
      <trkpt lat="45.786493" lon="10.234484">
        <ele>873.571700</ele>
        <time>2021-01-28T15:44:34.935Z</time>
      </trkpt>
      <trkpt lat="45.786264" lon="10.234178">
        <ele>871.527292</ele>
        <time>2021-01-28T15:44:37.783Z</time>
      </trkpt>
      <trkpt lat="45.786114" lon="10.233790">
        <ele>870.674955</ele>
        <time>2021-01-28T15:44:40.942Z</time>
      </trkpt>
      <trkpt lat="45.786016" lon="10.233405">
        <ele>871.787901</ele>
        <time>2021-01-28T15:44:45.499Z</time>
      </trkpt>
      <trkpt lat="45.785988" lon="10.233032">
        <ele>872.806641</ele>
        <time>2021-01-28T15:44:54.537Z</time>
      </trkpt>
      <trkpt lat="45.786035" lon="10.232969">
        <ele>873.057170</ele>
        <time>2021-01-28T15:44:55.086Z</time>
      </trkpt>
      <trkpt lat="45.786210" lon="10.232879">
        <ele>873.781137</ele>
        <time>2021-01-28T15:45:04.592Z</time>
      </trkpt>
      <trkpt lat="45.786579" lon="10.232689">
        <ele>875.307882</ele>
        <time>2021-01-28T15:45:16.847Z</time>
      </trkpt>
      <trkpt lat="45.786845" lon="10.232552">
        <ele>876.408495</ele>
        <time>2021-01-28T15:45:28.546Z</time>
      </trkpt>
      <trkpt lat="45.787138" lon="10.232333">
        <ele>878.577597</ele>
        <time>2021-01-28T15:45:44.268Z</time>
      </trkpt>
      <trkpt lat="45.787312" lon="10.231972">
        <ele>882.093442</ele>
        <time>2021-01-28T15:46:01.635Z</time>
      </trkpt>
      <trkpt lat="45.787439" lon="10.231548">
        <ele>885.790473</ele>
        <time>2021-01-28T15:46:27.763Z</time>
      </trkpt>
      <trkpt lat="45.787585" lon="10.231229">
        <ele>888.847471</ele>
        <time>2021-01-28T15:46:45.802Z</time>
      </trkpt>
      <trkpt lat="45.787665" lon="10.230969">
        <ele>891.124245</ele>
        <time>2021-01-28T15:47:01.088Z</time>
      </trkpt>
      <trkpt lat="45.787800" lon="10.230662">
        <ele>894.031998</ele>
        <time>2021-01-28T15:47:15.360Z</time>
      </trkpt>
      <trkpt lat="45.787913" lon="10.230562">
        <ele>895.557559</ele>
        <time>2021-01-28T15:47:23.208Z</time>
      </trkpt>
      <trkpt lat="45.787976" lon="10.230523">
        <ele>896.345929</ele>
        <time>2021-01-28T15:47:26.396Z</time>
      </trkpt>
      <trkpt lat="45.788080" lon="10.230420">
        <ele>897.798040</ele>
        <time>2021-01-28T15:47:31.411Z</time>
      </trkpt>
      <trkpt lat="45.788178" lon="10.230350">
        <ele>899.130255</ele>
        <time>2021-01-28T15:47:37.283Z</time>
      </trkpt>
      <trkpt lat="45.788320" lon="10.230262">
        <ele>901.022579</ele>
        <time>2021-01-28T15:47:45.516Z</time>
      </trkpt>
      <trkpt lat="45.788409" lon="10.230260">
        <ele>902.111439</ele>
        <time>2021-01-28T15:47:50.049Z</time>
      </trkpt>
      <trkpt lat="45.788568" lon="10.230243">
        <ele>904.061866</ele>
        <time>2021-01-28T15:47:59.457Z</time>
      </trkpt>
      <trkpt lat="45.788771" lon="10.230298">
        <ele>906.589070</ele>
        <time>2021-01-28T15:48:12.305Z</time>
      </trkpt>
      <trkpt lat="45.789050" lon="10.230322">
        <ele>910.008179</ele>
        <time>2021-01-28T15:48:31.151Z</time>
      </trkpt>
      <trkpt lat="45.789120" lon="10.230328">
        <ele>910.866009</ele>
        <time>2021-01-28T15:48:35.384Z</time>
      </trkpt>
      <trkpt lat="45.789413" lon="10.230113">
        <ele>914.892186</ele>
        <time>2021-01-28T15:48:57.423Z</time>
      </trkpt>
      <trkpt lat="45.789554" lon="10.229908">
        <ele>917.348362</ele>
        <time>2021-01-28T15:49:13.018Z</time>
      </trkpt>
      <trkpt lat="45.789567" lon="10.229893">
        <ele>917.552472</ele>
        <time>2021-01-28T15:49:14.523Z</time>
      </trkpt>
      <trkpt lat="45.789709" lon="10.229732">
        <ele>919.766837</ele>
        <time>2021-01-28T15:49:27.731Z</time>
      </trkpt>
      <trkpt lat="45.789846" lon="10.229501">
        <ele>922.551967</ele>
        <time>2021-01-28T15:49:43.140Z</time>
      </trkpt>
      <trkpt lat="45.789912" lon="10.229390">
        <ele>923.897309</ele>
        <time>2021-01-28T15:49:49.972Z</time>
      </trkpt>
      <trkpt lat="45.790051" lon="10.229150">
        <ele>926.774619</ele>
        <time>2021-01-28T15:50:03.395Z</time>
      </trkpt>
      <trkpt lat="45.790358" lon="10.228930">
        <ele>931.313734</ele>
        <time>2021-01-28T15:50:25.298Z</time>
      </trkpt>
      <trkpt lat="45.790507" lon="10.228943">
        <ele>933.288069</ele>
        <time>2021-01-28T15:50:35.045Z</time>
      </trkpt>
      <trkpt lat="45.790579" lon="10.228944">
        <ele>934.240394</ele>
        <time>2021-01-28T15:50:41.017Z</time>
      </trkpt>
      <trkpt lat="45.790816" lon="10.228949">
        <ele>937.375324</ele>
        <time>2021-01-28T15:50:57.636Z</time>
      </trkpt>
      <trkpt lat="45.791489" lon="10.228475">
        <ele>946.218043</ele>
        <time>2021-01-28T15:51:50.012Z</time>
      </trkpt>
      <trkpt lat="45.791927" lon="10.228462">
        <ele>950.280399</ele>
        <time>2021-01-28T15:52:14.386Z</time>
      </trkpt>
      <trkpt lat="45.792070" lon="10.228458">
        <ele>951.606661</ele>
        <time>2021-01-28T15:52:23.455Z</time>
      </trkpt>
      <trkpt lat="45.792219" lon="10.228518">
        <ele>953.041737</ele>
        <time>2021-01-28T15:52:31.663Z</time>
      </trkpt>
      <trkpt lat="45.792495" lon="10.228355">
        <ele>955.809525</ele>
        <time>2021-01-28T15:52:41.593Z</time>
      </trkpt>
      <trkpt lat="45.792529" lon="10.228316">
        <ele>956.213235</ele>
        <time>2021-01-28T15:52:45.053Z</time>
      </trkpt>
      <trkpt lat="45.792590" lon="10.228244">
        <ele>956.945803</ele>
        <time>2021-01-28T15:52:45.997Z</time>
      </trkpt>
      <trkpt lat="45.792689" lon="10.228048">
        <ele>958.510617</ele>
        <time>2021-01-28T15:52:52.522Z</time>
      </trkpt>
      <trkpt lat="45.792759" lon="10.227570">
        <ele>961.202470</ele>
        <time>2021-01-28T15:53:09.296Z</time>
      </trkpt>
      <trkpt lat="45.792721" lon="10.226748">
        <ele>964.605835</ele>
        <time>2021-01-28T15:53:34.134Z</time>
      </trkpt>
      <trkpt lat="45.792734" lon="10.226606">
        <ele>965.197512</ele>
        <time>2021-01-28T15:53:35.318Z</time>
      </trkpt>
      <trkpt lat="45.792774" lon="10.226520">
        <ele>965.624596</ele>
        <time>2021-01-28T15:53:39.370Z</time>
      </trkpt>
      <trkpt lat="45.793075" lon="10.226269">
        <ele>967.687584</ele>
        <time>2021-01-28T15:53:52.396Z</time>
      </trkpt>
      <trkpt lat="45.793159" lon="10.226190">
        <ele>968.282753</ele>
        <time>2021-01-28T15:53:56.963Z</time>
      </trkpt>
      <trkpt lat="45.793350" lon="10.226063">
        <ele>969.530145</ele>
        <time>2021-01-28T15:54:03.233Z</time>
      </trkpt>
      <trkpt lat="45.793776" lon="10.225813">
        <ele>972.352809</ele>
        <time>2021-01-28T15:54:18.636Z</time>
      </trkpt>
      <trkpt lat="45.794021" lon="10.225428">
        <ele>974.674291</ele>
        <time>2021-01-28T15:54:32.656Z</time>
      </trkpt>
      <trkpt lat="45.794104" lon="10.225309">
        <ele>975.423942</ele>
        <time>2021-01-28T15:54:39.134Z</time>
      </trkpt>
      <trkpt lat="45.794122" lon="10.225185">
        <ele>975.988044</ele>
        <time>2021-01-28T15:54:43.356Z</time>
      </trkpt>
      <trkpt lat="45.794131" lon="10.225143">
        <ele>976.183735</ele>
        <time>2021-01-28T15:54:44.864Z</time>
      </trkpt>
      <trkpt lat="45.794121" lon="10.224930">
        <ele>977.134523</ele>
        <time>2021-01-28T15:54:50.118Z</time>
      </trkpt>
      <trkpt lat="45.794049" lon="10.224643">
        <ele>978.492960</ele>
        <time>2021-01-28T15:55:01.662Z</time>
      </trkpt>
      <trkpt lat="45.793912" lon="10.224448">
        <ele>979.725868</ele>
        <time>2021-01-28T15:55:07.844Z</time>
      </trkpt>
      <trkpt lat="45.793887" lon="10.224411">
        <ele>979.955337</ele>
        <time>2021-01-28T15:55:09.140Z</time>
      </trkpt>
      <trkpt lat="45.793572" lon="10.224253">
        <ele>982.086945</ele>
        <time>2021-01-28T15:55:21.513Z</time>
      </trkpt>
      <trkpt lat="45.793415" lon="10.224085">
        <ele>983.500118</ele>
        <time>2021-01-28T15:55:29.381Z</time>
      </trkpt>
      <trkpt lat="45.793370" lon="10.223956">
        <ele>984.270281</ele>
        <time>2021-01-28T15:55:32.616Z</time>
      </trkpt>
      <trkpt lat="45.793412" lon="10.223729">
        <ele>985.524249</ele>
        <time>2021-01-28T15:55:40.925Z</time>
      </trkpt>
      <trkpt lat="45.793799" lon="10.222858">
        <ele>991.038750</ele>
        <time>2021-01-28T15:56:12.710Z</time>
      </trkpt>
      <trkpt lat="45.794019" lon="10.222230">
        <ele>994.791231</ele>
        <time>2021-01-28T15:56:37.313Z</time>
      </trkpt>
      <trkpt lat="45.794129" lon="10.221469">
        <ele>999.086401</ele>
        <time>2021-01-28T15:57:05.520Z</time>
      </trkpt>
      <trkpt lat="45.794060" lon="10.221283">
        <ele>1000.273274</ele>
        <time>2021-01-28T15:57:09.999Z</time>
      </trkpt>
      <trkpt lat="45.794004" lon="10.221179">
        <ele>1001.013512</ele>
        <time>2021-01-28T15:57:18.047Z</time>
      </trkpt>
      <trkpt lat="45.793913" lon="10.221128">
        <ele>1001.802883</ele>
        <time>2021-01-28T15:57:22.015Z</time>
      </trkpt>
      <trkpt lat="45.793799" lon="10.221180">
        <ele>1002.769404</ele>
        <time>2021-01-28T15:57:24.300Z</time>
      </trkpt>
      <trkpt lat="45.793416" lon="10.221334">
        <ele>1005.983152</ele>
        <time>2021-01-28T15:57:42.000Z</time>
      </trkpt>
      <trkpt lat="45.793225" lon="10.221300">
        <ele>1007.538173</ele>
        <time>2021-01-28T15:57:53.390Z</time>
      </trkpt>
      <trkpt lat="45.791777" lon="10.220364">
        <ele>1022.319099</ele>
        <time>2021-01-28T15:59:07.817Z</time>
      </trkpt>
      <trkpt lat="45.791490" lon="10.220396">
        <ele>1025.119857</ele>
        <time>2021-01-28T15:59:26.116Z</time>
      </trkpt>
      <trkpt lat="45.791378" lon="10.220724">
        <ele>1027.597511</ele>
        <time>2021-01-28T15:59:42.762Z</time>
      </trkpt>
      <trkpt lat="45.791318" lon="10.220772">
        <ele>1028.265954</ele>
        <time>2021-01-28T15:59:47.344Z</time>
      </trkpt>
      <trkpt lat="45.790951" lon="10.220613">
        <ele>1032.981764</ele>
        <time>2021-01-28T16:00:13.059Z</time>
      </trkpt>
      <trkpt lat="45.790448" lon="10.220768">
        <ele>1039.332887</ele>
        <time>2021-01-28T16:00:48.342Z</time>
      </trkpt>
      <trkpt lat="45.789861" lon="10.220684">
        <ele>1046.615232</ele>
        <time>2021-01-28T16:01:27.967Z</time>
      </trkpt>
      <trkpt lat="45.789295" lon="10.220283">
        <ele>1052.553678</ele>
        <time>2021-01-28T16:02:04.956Z</time>
      </trkpt>
      <trkpt lat="45.789221" lon="10.220296">
        <ele>1053.033581</ele>
        <time>2021-01-28T16:02:08.735Z</time>
      </trkpt>
      <trkpt lat="45.789031" lon="10.220631">
        <ele>1054.971843</ele>
        <time>2021-01-28T16:02:22.336Z</time>
      </trkpt>
      <trkpt lat="45.788400" lon="10.221409">
        <ele>1060.328439</ele>
        <time>2021-01-28T16:02:51.227Z</time>
      </trkpt>
      <trkpt lat="45.788006" lon="10.221409">
        <ele>1062.353254</ele>
        <time>2021-01-28T16:03:02.177Z</time>
      </trkpt>
      <trkpt lat="45.787399" lon="10.221203">
        <ele>1063.645185</ele>
        <time>2021-01-28T16:03:17.231Z</time>
      </trkpt>
      <trkpt lat="45.787250" lon="10.221284">
        <ele>1063.975221</ele>
        <time>2021-01-28T16:03:20.622Z</time>
      </trkpt>
      <trkpt lat="45.786656" lon="10.221919">
        <ele>1065.509727</ele>
        <time>2021-01-28T16:03:36.376Z</time>
      </trkpt>
      <trkpt lat="45.786501" lon="10.221955">
        <ele>1065.834944</ele>
        <time>2021-01-28T16:03:39.353Z</time>
      </trkpt>
      <trkpt lat="45.786286" lon="10.221872">
        <ele>1065.976124</ele>
        <time>2021-01-28T16:03:44.584Z</time>
      </trkpt>
      <trkpt lat="45.786214" lon="10.221852">
        <ele>1066.022392</ele>
        <time>2021-01-28T16:03:45.390Z</time>
      </trkpt>
      <trkpt lat="45.786113" lon="10.221825">
        <ele>1066.087209</ele>
        <time>2021-01-28T16:03:47.864Z</time>
      </trkpt>
      <trkpt lat="45.785722" lon="10.221851">
        <ele>1066.334151</ele>
        <time>2021-01-28T16:03:54.581Z</time>
      </trkpt>
      <trkpt lat="45.785349" lon="10.221721">
        <ele>1066.576322</ele>
        <time>2021-01-28T16:04:00.746Z</time>
      </trkpt>
      <trkpt lat="45.785265" lon="10.221691">
        <ele>1066.630935</ele>
        <time>2021-01-28T16:04:02.812Z</time>
      </trkpt>
      <trkpt lat="45.785181" lon="10.221661">
        <ele>1066.685548</ele>
        <time>2021-01-28T16:04:03.705Z</time>
      </trkpt>
      <trkpt lat="45.785031" lon="10.221549">
        <ele>1066.792241</ele>
        <time>2021-01-28T16:04:06.553Z</time>
      </trkpt>
      <trkpt lat="45.784918" lon="10.221566">
        <ele>1066.863923</ele>
        <time>2021-01-28T16:04:08.760Z</time>
      </trkpt>
      <trkpt lat="45.784892" lon="10.221594">
        <ele>1066.884436</ele>
        <time>2021-01-28T16:04:09.080Z</time>
      </trkpt>
      <trkpt lat="45.784606" lon="10.221938">
        <ele>1067.479580</ele>
        <time>2021-01-28T16:04:14.562Z</time>
      </trkpt>
      <trkpt lat="45.784487" lon="10.222053">
        <ele>1067.788289</ele>
        <time>2021-01-28T16:04:16.677Z</time>
      </trkpt>
      <trkpt lat="45.784397" lon="10.222041">
        <ele>1067.982739</ele>
        <time>2021-01-28T16:04:18.607Z</time>
      </trkpt>
      <trkpt lat="45.784455" lon="10.221502">
        <ele>1068.800924</ele>
        <time>2021-01-28T16:04:27.137Z</time>
      </trkpt>
      <trkpt lat="45.784387" lon="10.220816">
        <ele>1069.840416</ele>
        <time>2021-01-28T16:04:38.583Z</time>
      </trkpt>
      <trkpt lat="45.784409" lon="10.220502">
        <ele>1070.313855</ele>
        <time>2021-01-28T16:04:43.791Z</time>
      </trkpt>
      <trkpt lat="45.784509" lon="10.220115">
        <ele>1071.097333</ele>
        <time>2021-01-28T16:04:53.290Z</time>
      </trkpt>
      <trkpt lat="45.784538" lon="10.219885">
        <ele>1072.067993</ele>
        <time>2021-01-28T16:04:59.412Z</time>
      </trkpt>
      <trkpt lat="45.784568" lon="10.219548">
        <ele>1073.478886</ele>
        <time>2021-01-28T16:05:07.579Z</time>
      </trkpt>
      <trkpt lat="45.784738" lon="10.218929">
        <ele>1076.241711</ele>
        <time>2021-01-28T16:05:25.346Z</time>
      </trkpt>
      <trkpt lat="45.784738" lon="10.218769">
        <ele>1076.906176</ele>
        <time>2021-01-28T16:05:30.686Z</time>
      </trkpt>
      <trkpt lat="45.784636" lon="10.218502">
        <ele>1078.170484</ele>
        <time>2021-01-28T16:05:38.072Z</time>
      </trkpt>
      <trkpt lat="45.784469" lon="10.218090">
        <ele>1080.149528</ele>
        <time>2021-01-28T16:05:52.467Z</time>
      </trkpt>
      <trkpt lat="45.784403" lon="10.217755">
        <ele>1081.597911</ele>
        <time>2021-01-28T16:06:04.526Z</time>
      </trkpt>
      <trkpt lat="45.784594" lon="10.216442">
        <ele>1087.510798</ele>
        <time>2021-01-28T16:06:43.531Z</time>
      </trkpt>
      <trkpt lat="45.784642" lon="10.215944">
        <ele>1089.727072</ele>
        <time>2021-01-28T16:06:56.470Z</time>
      </trkpt>
      <trkpt lat="45.784690" lon="10.215747">
        <ele>1090.647018</ele>
        <time>2021-01-28T16:07:02.547Z</time>
      </trkpt>
      <trkpt lat="45.784900" lon="10.215403">
        <ele>1092.662492</ele>
        <time>2021-01-28T16:07:13.616Z</time>
      </trkpt>
      <trkpt lat="45.785026" lon="10.215197">
        <ele>1093.589220</ele>
        <time>2021-01-28T16:07:21.576Z</time>
      </trkpt>
      <trkpt lat="45.785067" lon="10.215129">
        <ele>1093.868028</ele>
        <time>2021-01-28T16:07:23.046Z</time>
      </trkpt>
      <trkpt lat="45.785157" lon="10.214837">
        <ele>1094.858200</ele>
        <time>2021-01-28T16:07:32.340Z</time>
      </trkpt>
      <trkpt lat="45.785116" lon="10.214437">
        <ele>1096.112153</ele>
        <time>2021-01-28T16:07:42.727Z</time>
      </trkpt>
      <trkpt lat="45.785217" lon="10.213747">
        <ele>1098.298864</ele>
        <time>2021-01-28T16:07:59.592Z</time>
      </trkpt>
      <trkpt lat="45.785228" lon="10.213709">
        <ele>1098.426474</ele>
        <time>2021-01-28T16:08:00.329Z</time>
      </trkpt>
      <trkpt lat="45.785385" lon="10.213172">
        <ele>1100.232461</ele>
        <time>2021-01-28T16:08:11.442Z</time>
      </trkpt>
      <trkpt lat="45.785480" lon="10.212751">
        <ele>1101.535133</ele>
        <time>2021-01-28T16:08:18.307Z</time>
      </trkpt>
      <trkpt lat="45.785466" lon="10.212104">
        <ele>1103.337927</ele>
        <time>2021-01-28T16:08:29.895Z</time>
      </trkpt>
      <trkpt lat="45.785376" lon="10.211800">
        <ele>1104.257721</ele>
        <time>2021-01-28T16:08:35.686Z</time>
      </trkpt>
      <trkpt lat="45.785267" lon="10.211519">
        <ele>1105.153248</ele>
        <time>2021-01-28T16:08:42.201Z</time>
      </trkpt>
      <trkpt lat="45.785157" lon="10.211315">
        <ele>1105.871437</ele>
        <time>2021-01-28T16:08:47.985Z</time>
      </trkpt>
      <trkpt lat="45.785188" lon="10.210247">
        <ele>1109.604746</ele>
        <time>2021-01-28T16:09:16.349Z</time>
      </trkpt>
      <trkpt lat="45.785086" lon="10.209663">
        <ele>1112.986753</ele>
        <time>2021-01-28T16:09:33.753Z</time>
      </trkpt>
      <trkpt lat="45.785097" lon="10.209396">
        <ele>1114.489267</ele>
        <time>2021-01-28T16:09:41.430Z</time>
      </trkpt>
      <trkpt lat="45.785116" lon="10.209225">
        <ele>1115.461993</ele>
        <time>2021-01-28T16:09:47.668Z</time>
      </trkpt>
      <trkpt lat="45.785130" lon="10.209172">
        <ele>1115.780369</ele>
        <time>2021-01-28T16:09:49.138Z</time>
      </trkpt>
      <trkpt lat="45.785142" lon="10.209139">
        <ele>1115.989440</ele>
        <time>2021-01-28T16:09:50.129Z</time>
      </trkpt>
      <trkpt lat="45.785151" lon="10.209113">
        <ele>1116.152502</ele>
        <time>2021-01-28T16:09:50.907Z</time>
      </trkpt>
      <trkpt lat="45.785166" lon="10.209078">
        <ele>1116.383280</ele>
        <time>2021-01-28T16:09:52.070Z</time>
      </trkpt>
      <trkpt lat="45.785281" lon="10.208806">
        <ele>1118.170160</ele>
        <time>2021-01-28T16:10:03.105Z</time>
      </trkpt>
      <trkpt lat="45.785423" lon="10.208395">
        <ele>1120.746817</ele>
        <time>2021-01-28T16:10:19.426Z</time>
      </trkpt>
      <trkpt lat="45.785472" lon="10.208063">
        <ele>1122.674863</ele>
        <time>2021-01-28T16:10:32.226Z</time>
      </trkpt>
      <trkpt lat="45.785456" lon="10.207825">
        <ele>1124.510991</ele>
        <time>2021-01-28T16:10:43.050Z</time>
      </trkpt>
      <trkpt lat="45.785229" lon="10.207275">
        <ele>1129.418874</ele>
        <time>2021-01-28T16:11:12.208Z</time>
      </trkpt>
      <trkpt lat="45.785235" lon="10.206954">
        <ele>1131.884800</ele>
        <time>2021-01-28T16:11:25.725Z</time>
      </trkpt>
      <trkpt lat="45.785444" lon="10.206452">
        <ele>1136.374548</ele>
        <time>2021-01-28T16:11:49.452Z</time>
      </trkpt>
      <trkpt lat="45.785530" lon="10.206005">
        <ele>1139.935404</ele>
        <time>2021-01-28T16:12:06.759Z</time>
      </trkpt>
      <trkpt lat="45.785534" lon="10.205850">
        <ele>1141.126497</ele>
        <time>2021-01-28T16:12:13.544Z</time>
      </trkpt>
      <trkpt lat="45.785538" lon="10.205695">
        <ele>1142.317589</ele>
        <time>2021-01-28T16:12:18.577Z</time>
      </trkpt>
      <trkpt lat="45.785538" lon="10.205367">
        <ele>1144.877585</ele>
        <time>2021-01-28T16:12:32.064Z</time>
      </trkpt>
      <trkpt lat="45.785499" lon="10.204778">
        <ele>1149.497870</ele>
        <time>2021-01-28T16:12:59.313Z</time>
      </trkpt>
      <trkpt lat="45.785121" lon="10.203645">
        <ele>1159.306134</ele>
        <time>2021-01-28T16:13:50.665Z</time>
      </trkpt>
      <trkpt lat="45.785062" lon="10.203436">
        <ele>1161.066921</ele>
        <time>2021-01-28T16:13:58.342Z</time>
      </trkpt>
      <trkpt lat="45.785051" lon="10.203307">
        <ele>1162.081814</ele>
        <time>2021-01-28T16:14:04.903Z</time>
      </trkpt>
      <trkpt lat="45.785190" lon="10.202742">
        <ele>1167.168151</ele>
        <time>2021-01-28T16:14:29.896Z</time>
      </trkpt>
      <trkpt lat="45.785181" lon="10.201439">
        <ele>1178.327434</ele>
        <time>2021-01-28T16:15:30.502Z</time>
      </trkpt>
      <trkpt lat="45.785139" lon="10.201045">
        <ele>1181.740799</ele>
        <time>2021-01-28T16:15:48.559Z</time>
      </trkpt>
      <trkpt lat="45.785181" lon="10.201013">
        <ele>1182.324866</ele>
        <time>2021-01-28T16:15:52.563Z</time>
      </trkpt>
      <trkpt lat="45.785250" lon="10.201066">
        <ele>1183.286133</ele>
        <time>2021-01-28T16:15:59.349Z</time>
      </trkpt>
      <trkpt lat="45.785400" lon="10.201613">
        <ele>1187.884131</ele>
        <time>2021-01-28T16:16:23.656Z</time>
      </trkpt>
      <trkpt lat="45.785644" lon="10.202190">
        <ele>1192.980561</ele>
        <time>2021-01-28T16:16:50.183Z</time>
      </trkpt>
      <trkpt lat="45.786013" lon="10.202563">
        <ele>1197.870035</ele>
        <time>2021-01-28T16:17:16.222Z</time>
      </trkpt>
      <trkpt lat="45.786144" lon="10.202831">
        <ele>1200.341810</ele>
        <time>2021-01-28T16:17:31.440Z</time>
      </trkpt>
      <trkpt lat="45.786418" lon="10.203029">
        <ele>1203.664797</ele>
        <time>2021-01-28T16:17:46.739Z</time>
      </trkpt>
      <trkpt lat="45.786399" lon="10.203676">
        <ele>1208.280405</ele>
        <time>2021-01-28T16:18:09.927Z</time>
      </trkpt>
      <trkpt lat="45.786443" lon="10.203938">
        <ele>1210.189718</ele>
        <time>2021-01-28T16:18:19.803Z</time>
      </trkpt>
      <trkpt lat="45.786528" lon="10.204132">
        <ele>1211.812974</ele>
        <time>2021-01-28T16:18:28.993Z</time>
      </trkpt>
      <trkpt lat="45.786683" lon="10.204434">
        <ele>1214.469662</ele>
        <time>2021-01-28T16:18:43.476Z</time>
      </trkpt>
      <trkpt lat="45.787240" lon="10.205001">
        <ele>1221.409576</ele>
        <time>2021-01-28T16:19:16.877Z</time>
      </trkpt>
      <trkpt lat="45.787273" lon="10.205068">
        <ele>1221.990724</ele>
        <time>2021-01-28T16:19:23.005Z</time>
      </trkpt>
      <trkpt lat="45.787408" lon="10.205336">
        <ele>1224.872771</ele>
        <time>2021-01-28T16:19:37.129Z</time>
      </trkpt>
      <trkpt lat="45.787571" lon="10.206015">
        <ele>1231.370120</ele>
        <time>2021-01-28T16:20:13.666Z</time>
      </trkpt>
      <trkpt lat="45.788062" lon="10.206629">
        <ele>1239.822875</ele>
        <time>2021-01-28T16:20:54.262Z</time>
      </trkpt>
      <trkpt lat="45.788113" lon="10.206687">
        <ele>1240.667431</ele>
        <time>2021-01-28T16:21:01.162Z</time>
      </trkpt>
      <trkpt lat="45.788147" lon="10.206725">
        <ele>1241.226740</ele>
        <time>2021-01-28T16:21:05.779Z</time>
      </trkpt>
      <trkpt lat="45.788862" lon="10.207413">
        <ele>1251.796071</ele>
        <time>2021-01-28T16:21:59.573Z</time>
      </trkpt>
      <trkpt lat="45.789052" lon="10.207673">
        <ele>1254.895953</ele>
        <time>2021-01-28T16:22:19.008Z</time>
      </trkpt>
      <trkpt lat="45.789125" lon="10.207951">
        <ele>1257.340961</ele>
        <time>2021-01-28T16:22:30.085Z</time>
      </trkpt>
      <trkpt lat="45.789120" lon="10.208506">
        <ele>1261.909392</ele>
        <time>2021-01-28T16:22:56.718Z</time>
      </trkpt>
      <trkpt lat="45.789239" lon="10.208890">
        <ele>1265.368056</ele>
        <time>2021-01-28T16:23:12.368Z</time>
      </trkpt>
      <trkpt lat="45.789328" lon="10.208949">
        <ele>1266.525392</ele>
        <time>2021-01-28T16:23:17.666Z</time>
      </trkpt>
      <trkpt lat="45.789396" lon="10.208924">
        <ele>1267.225343</ele>
        <time>2021-01-28T16:23:21.390Z</time>
      </trkpt>
      <trkpt lat="45.789408" lon="10.208550">
        <ele>1269.317164</ele>
        <time>2021-01-28T16:23:34.683Z</time>
      </trkpt>
      <trkpt lat="45.789592" lon="10.207962">
        <ele>1272.918078</ele>
        <time>2021-01-28T16:23:56.455Z</time>
      </trkpt>
      <trkpt lat="45.789652" lon="10.207517">
        <ele>1275.450423</ele>
        <time>2021-01-28T16:24:10.483Z</time>
      </trkpt>
      <trkpt lat="45.789556" lon="10.206700">
        <ele>1280.079499</ele>
        <time>2021-01-28T16:24:35.346Z</time>
      </trkpt>
      <trkpt lat="45.789413" lon="10.206254">
        <ele>1282.635947</ele>
        <time>2021-01-28T16:24:50.256Z</time>
      </trkpt>
      <trkpt lat="45.789158" lon="10.205904">
        <ele>1285.102619</ele>
        <time>2021-01-28T16:25:05.219Z</time>
      </trkpt>
      <trkpt lat="45.789050" lon="10.205301">
        <ele>1288.136404</ele>
        <time>2021-01-28T16:25:24.069Z</time>
      </trkpt>
      <trkpt lat="45.788951" lon="10.205082">
        <ele>1289.408226</ele>
        <time>2021-01-28T16:25:30.785Z</time>
      </trkpt>
      <trkpt lat="45.788976" lon="10.204832">
        <ele>1290.638937</ele>
        <time>2021-01-28T16:25:39.341Z</time>
      </trkpt>
      <trkpt lat="45.789034" lon="10.204330">
        <ele>1293.118528</ele>
        <time>2021-01-28T16:25:54.504Z</time>
      </trkpt>
      <trkpt lat="45.789000" lon="10.203988">
        <ele>1294.840902</ele>
        <time>2021-01-28T16:26:04.289Z</time>
      </trkpt>
      <trkpt lat="45.788730" lon="10.203121">
        <ele>1299.675883</ele>
        <time>2021-01-28T16:26:33.485Z</time>
      </trkpt>
      <trkpt lat="45.788377" lon="10.201447">
        <ele>1308.998331</ele>
        <time>2021-01-28T16:27:26.884Z</time>
      </trkpt>
      <trkpt lat="45.787988" lon="10.200563">
        <ele>1315.789863</ele>
        <time>2021-01-28T16:28:04.427Z</time>
      </trkpt>
      <trkpt lat="45.787821" lon="10.200200">
        <ele>1318.615402</ele>
        <time>2021-01-28T16:28:20.526Z</time>
      </trkpt>
      <trkpt lat="45.787785" lon="10.200007">
        <ele>1319.913456</ele>
        <time>2021-01-28T16:28:30.344Z</time>
      </trkpt>
      <trkpt lat="45.787792" lon="10.199668">
        <ele>1322.116984</ele>
        <time>2021-01-28T16:28:41.718Z</time>
      </trkpt>
      <trkpt lat="45.787696" lon="10.198996">
        <ele>1326.313585</ele>
        <time>2021-01-28T16:29:09.759Z</time>
      </trkpt>
      <trkpt lat="45.787551" lon="10.198546">
        <ele>1329.229173</ele>
        <time>2021-01-28T16:29:28.503Z</time>
      </trkpt>
      <trkpt lat="45.787427" lon="10.197950">
        <ele>1332.887265</ele>
        <time>2021-01-28T16:29:51.267Z</time>
      </trkpt>
      <trkpt lat="45.787277" lon="10.197702">
        <ele>1334.818129</ele>
        <time>2021-01-28T16:30:00.979Z</time>
      </trkpt>
      <trkpt lat="45.787126" lon="10.197671">
        <ele>1336.104717</ele>
        <time>2021-01-28T16:30:07.015Z</time>
      </trkpt>
      <trkpt lat="45.786947" lon="10.197362">
        <ele>1338.467422</ele>
        <time>2021-01-28T16:30:18.549Z</time>
      </trkpt>
      <trkpt lat="45.786677" lon="10.196589">
        <ele>1341.938719</ele>
        <time>2021-01-28T16:30:41.194Z</time>
      </trkpt>
      <trkpt lat="45.786534" lon="10.196023">
        <ele>1344.224830</ele>
        <time>2021-01-28T16:30:55.198Z</time>
      </trkpt>
      <trkpt lat="45.786396" lon="10.195800">
        <ele>1345.357050</ele>
        <time>2021-01-28T16:31:01.802Z</time>
      </trkpt>
      <trkpt lat="45.786151" lon="10.195508">
        <ele>1347.091907</ele>
        <time>2021-01-28T16:31:12.194Z</time>
      </trkpt>
      <trkpt lat="45.785845" lon="10.195362">
        <ele>1348.873909</ele>
        <time>2021-01-28T16:31:23.359Z</time>
      </trkpt>
      <trkpt lat="45.785449" lon="10.194875">
        <ele>1353.054806</ele>
        <time>2021-01-28T16:31:48.013Z</time>
      </trkpt>
      <trkpt lat="45.785224" lon="10.194362">
        <ele>1356.441768</ele>
        <time>2021-01-28T16:32:08.290Z</time>
      </trkpt>
      <trkpt lat="45.785058" lon="10.193751">
        <ele>1360.106521</ele>
        <time>2021-01-28T16:32:30.135Z</time>
      </trkpt>
      <trkpt lat="45.784986" lon="10.193570">
        <ele>1361.271100</ele>
        <time>2021-01-28T16:32:38.905Z</time>
      </trkpt>
      <trkpt lat="45.784738" lon="10.192950">
        <ele>1365.286381</ele>
        <time>2021-01-28T16:33:03.059Z</time>
      </trkpt>
      <trkpt lat="45.784335" lon="10.192292">
        <ele>1370.229915</ele>
        <time>2021-01-28T16:33:34.392Z</time>
      </trkpt>
      <trkpt lat="45.784225" lon="10.191991">
        <ele>1372.148230</ele>
        <time>2021-01-28T16:33:45.802Z</time>
      </trkpt>
      <trkpt lat="45.784154" lon="10.191614">
        <ele>1374.352632</ele>
        <time>2021-01-28T16:33:59.719Z</time>
      </trkpt>
      <trkpt lat="45.783355" lon="10.190598">
        <ele>1380.531644</ele>
        <time>2021-01-28T16:34:41.457Z</time>
      </trkpt>
      <trkpt lat="45.782865" lon="10.190092">
        <ele>1383.115026</ele>
        <time>2021-01-28T16:35:01.033Z</time>
      </trkpt>
      <trkpt lat="45.782374" lon="10.189294">
        <ele>1385.836146</ele>
        <time>2021-01-28T16:35:18.213Z</time>
      </trkpt>
      <trkpt lat="45.782273" lon="10.189130">
        <ele>1386.130620</ele>
        <time>2021-01-28T16:35:21.896Z</time>
      </trkpt>
      <trkpt lat="45.782006" lon="10.188822">
        <ele>1386.791955</ele>
        <time>2021-01-28T16:35:27.791Z</time>
      </trkpt>
      <trkpt lat="45.781656" lon="10.188205">
        <ele>1387.862409</ele>
        <time>2021-01-28T16:35:36.869Z</time>
      </trkpt>
      <trkpt lat="45.781653" lon="10.188198">
        <ele>1387.873467</ele>
        <time>2021-01-28T16:35:36.914Z</time>
      </trkpt>
      <trkpt lat="45.781576" lon="10.188003">
        <ele>1388.175071</ele>
        <time>2021-01-28T16:35:39.905Z</time>
      </trkpt>
      <trkpt lat="45.781524" lon="10.187800">
        <ele>1388.466140</ele>
        <time>2021-01-28T16:35:47.506Z</time>
      </trkpt>
      <trkpt lat="45.781481" lon="10.187692">
        <ele>1388.633520</ele>
        <time>2021-01-28T16:35:48.456Z</time>
      </trkpt>
      <trkpt lat="45.781333" lon="10.187476">
        <ele>1389.254978</ele>
        <time>2021-01-28T16:35:53.138Z</time>
      </trkpt>
      <trkpt lat="45.780950" lon="10.187218">
        <ele>1391.707300</ele>
        <time>2021-01-28T16:36:09.937Z</time>
      </trkpt>
      <trkpt lat="45.780573" lon="10.186953">
        <ele>1394.140519</ele>
        <time>2021-01-28T16:36:23.483Z</time>
      </trkpt>
      <trkpt lat="45.780386" lon="10.186822">
        <ele>1395.346656</ele>
        <time>2021-01-28T16:36:29.207Z</time>
      </trkpt>
      <trkpt lat="45.780356" lon="10.186792">
        <ele>1395.558620</ele>
        <time>2021-01-28T16:36:30.503Z</time>
      </trkpt>
      <trkpt lat="45.780329" lon="10.186760">
        <ele>1395.761624</ele>
        <time>2021-01-28T16:36:34.323Z</time>
      </trkpt>
      <trkpt lat="45.780083" lon="10.186028">
        <ele>1399.045721</ele>
        <time>2021-01-28T16:36:57.710Z</time>
      </trkpt>
      <trkpt lat="45.779789" lon="10.185355">
        <ele>1401.647504</ele>
        <time>2021-01-28T16:37:25.360Z</time>
      </trkpt>
      <trkpt lat="45.779629" lon="10.185125">
        <ele>1402.685041</ele>
        <time>2021-01-28T16:37:32.525Z</time>
      </trkpt>
      <trkpt lat="45.779525" lon="10.185048">
        <ele>1403.221053</ele>
        <time>2021-01-28T16:37:40.774Z</time>
      </trkpt>
      <trkpt lat="45.779309" lon="10.185028">
        <ele>1404.212282</ele>
        <time>2021-01-28T16:37:46.667Z</time>
      </trkpt>
      <trkpt lat="45.779099" lon="10.185148">
        <ele>1405.247532</ele>
        <time>2021-01-28T16:37:52.243Z</time>
      </trkpt>
      <trkpt lat="45.778824" lon="10.185174">
        <ele>1406.509625</ele>
        <time>2021-01-28T16:37:58.116Z</time>
      </trkpt>
      <trkpt lat="45.778483" lon="10.184968">
        <ele>1407.237811</ele>
        <time>2021-01-28T16:38:04.664Z</time>
      </trkpt>
      <trkpt lat="45.778208" lon="10.184564">
        <ele>1406.181696</ele>
        <time>2021-01-28T16:38:10.088Z</time>
      </trkpt>
      <trkpt lat="45.778022" lon="10.184161">
        <ele>1405.277625</ele>
        <time>2021-01-28T16:38:13.851Z</time>
      </trkpt>
      <trkpt lat="45.777685" lon="10.182865">
        <ele>1402.498324</ele>
        <time>2021-01-28T16:38:23.349Z</time>
      </trkpt>
      <trkpt lat="45.777597" lon="10.182685">
        <ele>1401.102683</ele>
        <time>2021-01-28T16:38:24.816Z</time>
      </trkpt>
      <trkpt lat="45.777606" lon="10.182589">
        <ele>1400.487690</ele>
        <time>2021-01-28T16:38:25.376Z</time>
      </trkpt>
      <trkpt lat="45.777661" lon="10.182522">
        <ele>1399.830698</ele>
        <time>2021-01-28T16:38:26.006Z</time>
      </trkpt>
      <trkpt lat="45.777754" lon="10.182567">
        <ele>1398.937179</ele>
        <time>2021-01-28T16:38:26.871Z</time>
      </trkpt>
      <trkpt lat="45.777901" lon="10.183043">
        <ele>1395.632013</ele>
        <time>2021-01-28T16:38:30.037Z</time>
      </trkpt>
      <trkpt lat="45.778015" lon="10.183246">
        <ele>1393.977283</ele>
        <time>2021-01-28T16:38:31.610Z</time>
      </trkpt>
      <trkpt lat="45.778352" lon="10.183673">
        <ele>1389.883240</ele>
        <time>2021-01-28T16:38:35.476Z</time>
      </trkpt>
      <trkpt lat="45.778548" lon="10.183788">
        <ele>1387.955379</ele>
        <time>2021-01-28T16:38:37.351Z</time>
      </trkpt>
      <trkpt lat="45.778586" lon="10.183801">
        <ele>1387.599742</ele>
        <time>2021-01-28T16:38:37.671Z</time>
      </trkpt>
      <trkpt lat="45.778753" lon="10.183783">
        <ele>1386.005014</ele>
        <time>2021-01-28T16:38:39.093Z</time>
      </trkpt>
      <trkpt lat="45.780392" lon="10.183684">
        <ele>1367.808984</ele>
        <time>2021-01-28T16:38:53.005Z</time>
      </trkpt>
      <trkpt lat="45.781344" lon="10.183951">
        <ele>1358.173242</ele>
        <time>2021-01-28T16:39:01.456Z</time>
      </trkpt>
      <trkpt lat="45.781575" lon="10.183859">
        <ele>1355.832076</ele>
        <time>2021-01-28T16:39:03.536Z</time>
      </trkpt>
      <trkpt lat="45.781801" lon="10.183595">
        <ele>1352.985490</ele>
        <time>2021-01-28T16:39:06.072Z</time>
      </trkpt>
      <trkpt lat="45.782038" lon="10.183564">
        <ele>1350.661518</ele>
        <time>2021-01-28T16:39:08.093Z</time>
      </trkpt>
      <trkpt lat="45.782595" lon="10.183896">
        <ele>1344.741512</ele>
        <time>2021-01-28T16:39:13.254Z</time>
      </trkpt>
      <trkpt lat="45.782950" lon="10.184124">
        <ele>1340.915690</ele>
        <time>2021-01-28T16:39:16.605Z</time>
      </trkpt>
      <trkpt lat="45.783096" lon="10.184217">
        <ele>1339.344403</ele>
        <time>2021-01-28T16:39:18.051Z</time>
      </trkpt>
      <trkpt lat="45.783279" lon="10.184320">
        <ele>1337.410825</ele>
        <time>2021-01-28T16:39:19.716Z</time>
      </trkpt>
      <trkpt lat="45.783439" lon="10.184369">
        <ele>1335.801659</ele>
        <time>2021-01-28T16:39:21.202Z</time>
      </trkpt>
      <trkpt lat="45.783649" lon="10.184307">
        <ele>1333.692885</ele>
        <time>2021-01-28T16:39:23.018Z</time>
      </trkpt>
      <trkpt lat="45.784148" lon="10.183658">
        <ele>1327.899861</ele>
        <time>2021-01-28T16:39:28.841Z</time>
      </trkpt>
      <trkpt lat="45.784527" lon="10.183542">
        <ele>1324.858040</ele>
        <time>2021-01-28T16:39:32.199Z</time>
      </trkpt>
      <trkpt lat="45.784700" lon="10.183544">
        <ele>1323.500099</ele>
        <time>2021-01-28T16:39:33.763Z</time>
      </trkpt>
      <trkpt lat="45.784861" lon="10.183661">
        <ele>1322.083383</ele>
        <time>2021-01-28T16:39:35.400Z</time>
      </trkpt>
      <trkpt lat="45.785229" lon="10.184067">
        <ele>1318.438961</ele>
        <time>2021-01-28T16:39:39.634Z</time>
      </trkpt>
      <trkpt lat="45.785534" lon="10.184205">
        <ele>1315.968721</ele>
        <time>2021-01-28T16:39:42.563Z</time>
      </trkpt>
      <trkpt lat="45.785901" lon="10.184195">
        <ele>1313.188451</ele>
        <time>2021-01-28T16:39:45.917Z</time>
      </trkpt>
      <trkpt lat="45.786703" lon="10.183404">
        <ele>1305.815818</ele>
        <time>2021-01-28T16:39:54.610Z</time>
      </trkpt>
      <trkpt lat="45.786786" lon="10.183417">
        <ele>1305.183413</ele>
        <time>2021-01-28T16:39:55.347Z</time>
      </trkpt>
      <trkpt lat="45.787084" lon="10.183946">
        <ele>1300.363373</ele>
        <time>2021-01-28T16:39:59.478Z</time>
      </trkpt>
      <trkpt lat="45.787172" lon="10.184023">
        <ele>1299.066502</ele>
        <time>2021-01-28T16:40:00.353Z</time>
      </trkpt>
      <trkpt lat="45.787821" lon="10.183909">
        <ele>1290.840884</ele>
        <time>2021-01-28T16:40:05.861Z</time>
      </trkpt>
      <trkpt lat="45.788085" lon="10.184107">
        <ele>1287.092914</ele>
        <time>2021-01-28T16:40:08.358Z</time>
      </trkpt>
      <trkpt lat="45.788279" lon="10.184127">
        <ele>1284.646043</ele>
        <time>2021-01-28T16:40:09.975Z</time>
      </trkpt>
      <trkpt lat="45.788574" lon="10.183995">
        <ele>1280.753647</ele>
        <time>2021-01-28T16:40:12.551Z</time>
      </trkpt>
      <trkpt lat="45.788757" lon="10.183848">
        <ele>1277.918701</ele>
        <time>2021-01-28T16:40:14.284Z</time>
      </trkpt>
      <trkpt lat="45.788830" lon="10.183630">
        <ele>1275.639524</ele>
        <time>2021-01-28T16:40:15.687Z</time>
      </trkpt>
      <trkpt lat="45.788860" lon="10.183405">
        <ele>1273.480585</ele>
        <time>2021-01-28T16:40:17.013Z</time>
      </trkpt>
      <trkpt lat="45.788758" lon="10.182751">
        <ele>1267.164640</ele>
        <time>2021-01-28T16:40:20.900Z</time>
      </trkpt>
      <trkpt lat="45.788840" lon="10.182334">
        <ele>1263.081322</ele>
        <time>2021-01-28T16:40:23.436Z</time>
      </trkpt>
      <trkpt lat="45.789013" lon="10.182254">
        <ele>1260.624558</ele>
        <time>2021-01-28T16:40:24.970Z</time>
      </trkpt>
      <trkpt lat="45.789223" lon="10.182503">
        <ele>1256.941774</ele>
        <time>2021-01-28T16:40:27.302Z</time>
      </trkpt>
      <trkpt lat="45.789768" lon="10.182475">
        <ele>1252.346957</ele>
        <time>2021-01-28T16:40:32.063Z</time>
      </trkpt>
      <trkpt lat="45.789969" lon="10.182166">
        <ele>1249.957043</ele>
        <time>2021-01-28T16:40:34.656Z</time>
      </trkpt>
      <trkpt lat="45.790067" lon="10.181768">
        <ele>1247.569928</ele>
        <time>2021-01-28T16:40:37.254Z</time>
      </trkpt>
      <trkpt lat="45.790338" lon="10.181134">
        <ele>1243.364260</ele>
        <time>2021-01-28T16:40:41.879Z</time>
      </trkpt>
      <trkpt lat="45.790524" lon="10.181102">
        <ele>1241.861965</ele>
        <time>2021-01-28T16:40:43.600Z</time>
      </trkpt>
      <trkpt lat="45.790883" lon="10.181687">
        <ele>1238.404230</ele>
        <time>2021-01-28T16:40:48.695Z</time>
      </trkpt>
      <trkpt lat="45.791082" lon="10.181677">
        <ele>1237.137160</ele>
        <time>2021-01-28T16:40:50.563Z</time>
      </trkpt>
      <trkpt lat="45.791485" lon="10.181308">
        <ele>1234.094678</ele>
        <time>2021-01-28T16:40:54.926Z</time>
      </trkpt>
      <trkpt lat="45.791645" lon="10.181244">
        <ele>1233.037695</ele>
        <time>2021-01-28T16:40:56.429Z</time>
      </trkpt>
      <trkpt lat="45.792153" lon="10.180649">
        <ele>1228.327526</ele>
        <time>2021-01-28T16:41:02.291Z</time>
      </trkpt>
      <trkpt lat="45.792722" lon="10.180226">
        <ele>1222.894204</ele>
        <time>2021-01-28T16:41:08.005Z</time>
      </trkpt>
      <trkpt lat="45.792974" lon="10.180258">
        <ele>1220.749476</ele>
        <time>2021-01-28T16:41:10.240Z</time>
      </trkpt>
      <trkpt lat="45.793416" lon="10.180510">
        <ele>1216.717130</ele>
        <time>2021-01-28T16:41:14.387Z</time>
      </trkpt>
      <trkpt lat="45.793830" lon="10.180905">
        <ele>1211.122764</ele>
        <time>2021-01-28T16:41:18.627Z</time>
      </trkpt>
      <trkpt lat="45.794228" lon="10.180858">
        <ele>1206.026585</ele>
        <time>2021-01-28T16:41:21.990Z</time>
      </trkpt>
      <trkpt lat="45.794327" lon="10.180773">
        <ele>1204.554144</ele>
        <time>2021-01-28T16:41:22.955Z</time>
      </trkpt>
      <trkpt lat="45.794454" lon="10.180170">
        <ele>1198.949443</ele>
        <time>2021-01-28T16:41:26.633Z</time>
      </trkpt>
      <trkpt lat="45.794600" lon="10.178995">
        <ele>1188.819251</ele>
        <time>2021-01-28T16:41:33.608Z</time>
      </trkpt>
      <trkpt lat="45.795206" lon="10.178878">
        <ele>1181.983133</ele>
        <time>2021-01-28T16:41:38.776Z</time>
      </trkpt>
      <trkpt lat="45.795653" lon="10.178291">
        <ele>1175.207437</ele>
        <time>2021-01-28T16:41:43.981Z</time>
      </trkpt>
      <trkpt lat="45.796002" lon="10.178027">
        <ele>1171.279729</ele>
        <time>2021-01-28T16:41:47.417Z</time>
      </trkpt>
      <trkpt lat="45.796219" lon="10.177778">
        <ele>1169.266993</ele>
        <time>2021-01-28T16:41:49.882Z</time>
      </trkpt>
      <trkpt lat="45.796559" lon="10.177693">
        <ele>1166.767356</ele>
        <time>2021-01-28T16:41:52.993Z</time>
      </trkpt>
      <trkpt lat="45.796705" lon="10.177594">
        <ele>1165.597709</ele>
        <time>2021-01-28T16:41:54.457Z</time>
      </trkpt>
      <trkpt lat="45.797104" lon="10.177017">
        <ele>1161.494009</ele>
        <time>2021-01-28T16:41:59.604Z</time>
      </trkpt>
      <trkpt lat="45.797765" lon="10.176576">
        <ele>1156.100892</ele>
        <time>2021-01-28T16:42:06.199Z</time>
      </trkpt>
      <trkpt lat="45.798461" lon="10.175993">
        <ele>1150.037787</ele>
        <time>2021-01-28T16:42:13.377Z</time>
      </trkpt>
      <trkpt lat="45.799015" lon="10.175911">
        <ele>1145.848181</ele>
        <time>2021-01-28T16:42:18.264Z</time>
      </trkpt>
      <trkpt lat="45.799412" lon="10.175563">
        <ele>1142.337919</ele>
        <time>2021-01-28T16:42:22.401Z</time>
      </trkpt>
      <trkpt lat="45.799526" lon="10.175544">
        <ele>1141.471859</ele>
        <time>2021-01-28T16:42:23.408Z</time>
      </trkpt>
      <trkpt lat="45.799598" lon="10.175544">
        <ele>1140.928529</ele>
        <time>2021-01-28T16:42:24.264Z</time>
      </trkpt>
      <trkpt lat="45.799685" lon="10.175532">
        <ele>1140.268978</ele>
        <time>2021-01-28T16:42:25.427Z</time>
      </trkpt>
      <trkpt lat="45.799718" lon="10.175475">
        <ele>1139.879182</ele>
        <time>2021-01-28T16:42:26.115Z</time>
      </trkpt>
      <trkpt lat="45.799691" lon="10.175392">
        <ele>1139.397323</ele>
        <time>2021-01-28T16:42:26.932Z</time>
      </trkpt>
      <trkpt lat="45.799413" lon="10.175382">
        <ele>1137.298807</ele>
        <time>2021-01-28T16:42:30.436Z</time>
      </trkpt>
      <trkpt lat="45.797761" lon="10.175853">
        <ele>1125.095785</ele>
        <time>2021-01-28T16:42:51.985Z</time>
      </trkpt>
      <trkpt lat="45.797523" lon="10.176104">
        <ele>1123.018326</ele>
        <time>2021-01-28T16:42:55.848Z</time>
      </trkpt>
      <trkpt lat="45.796803" lon="10.176290">
        <ele>1117.293489</ele>
        <time>2021-01-28T16:43:05.346Z</time>
      </trkpt>
      <trkpt lat="45.795110" lon="10.176573">
        <ele>1100.488637</ele>
        <time>2021-01-28T16:43:26.093Z</time>
      </trkpt>
      <trkpt lat="45.795055" lon="10.176539">
        <ele>1099.791099</ele>
        <time>2021-01-28T16:43:26.781Z</time>
      </trkpt>
      <trkpt lat="45.795074" lon="10.176411">
        <ele>1098.728389</ele>
        <time>2021-01-28T16:43:27.540Z</time>
      </trkpt>
      <trkpt lat="45.795888" lon="10.175939">
        <ele>1088.502463</ele>
        <time>2021-01-28T16:43:34.993Z</time>
      </trkpt>
      <trkpt lat="45.797034" lon="10.174925">
        <ele>1073.325857</ele>
        <time>2021-01-28T16:43:46.408Z</time>
      </trkpt>
      <trkpt lat="45.797545" lon="10.174709">
        <ele>1067.507236</ele>
        <time>2021-01-28T16:43:50.964Z</time>
      </trkpt>
      <trkpt lat="45.797815" lon="10.174316">
        <ele>1063.305705</ele>
        <time>2021-01-28T16:43:54.282Z</time>
      </trkpt>
      <trkpt lat="45.797815" lon="10.174316">
        <ele>1063.305705</ele>
        <time>2021-01-28T16:43:54.291Z</time>
      </trkpt>
      <trkpt lat="45.797903" lon="10.174236">
        <ele>1062.167746</ele>
        <time>2021-01-28T16:43:55.208Z</time>
      </trkpt>
      <trkpt lat="45.798225" lon="10.173946">
        <ele>1058.578502</ele>
        <time>2021-01-28T16:43:58.477Z</time>
      </trkpt>
      <trkpt lat="45.798431" lon="10.173793">
        <ele>1056.478182</ele>
        <time>2021-01-28T16:44:00.456Z</time>
      </trkpt>
      <trkpt lat="45.799117" lon="10.173414">
        <ele>1049.822392</ele>
        <time>2021-01-28T16:44:06.752Z</time>
      </trkpt>
      <trkpt lat="45.799290" lon="10.173083">
        <ele>1047.211136</ele>
        <time>2021-01-28T16:44:09.368Z</time>
      </trkpt>
      <trkpt lat="45.799298" lon="10.173068">
        <ele>1047.091926</ele>
        <time>2021-01-28T16:44:09.472Z</time>
      </trkpt>
      <trkpt lat="45.799643" lon="10.172422">
        <ele>1043.660896</ele>
        <time>2021-01-28T16:44:14.770Z</time>
      </trkpt>
      <trkpt lat="45.799715" lon="10.172295">
        <ele>1043.201791</ele>
        <time>2021-01-28T16:44:16.407Z</time>
      </trkpt>
      <trkpt lat="45.799809" lon="10.172130">
        <ele>1042.604157</ele>
        <time>2021-01-28T16:44:18.372Z</time>
      </trkpt>
      <trkpt lat="45.799979" lon="10.171754">
        <ele>1041.347241</ele>
        <time>2021-01-28T16:44:22.683Z</time>
      </trkpt>
      <trkpt lat="45.799955" lon="10.171590">
        <ele>1040.877247</ele>
        <time>2021-01-28T16:44:24.394Z</time>
      </trkpt>
      <trkpt lat="45.799968" lon="10.171432">
        <ele>1040.431031</ele>
        <time>2021-01-28T16:44:26.024Z</time>
      </trkpt>
      <trkpt lat="45.800124" lon="10.170887">
        <ele>1038.778656</ele>
        <time>2021-01-28T16:44:31.839Z</time>
      </trkpt>
      <trkpt lat="45.800494" lon="10.170428">
        <ele>1037.377730</ele>
        <time>2021-01-28T16:44:40.098Z</time>
      </trkpt>
      <trkpt lat="45.800961" lon="10.170176">
        <ele>1036.534154</ele>
        <time>2021-01-28T16:44:49.401Z</time>
      </trkpt>
      <trkpt lat="45.801432" lon="10.169831">
        <ele>1035.640020</ele>
        <time>2021-01-28T16:44:58.019Z</time>
      </trkpt>
      <trkpt lat="45.801937" lon="10.169699">
        <ele>1034.772160</ele>
        <time>2021-01-28T16:45:06.007Z</time>
      </trkpt>
      <trkpt lat="45.802277" lon="10.169536">
        <ele>1033.632815</ele>
        <time>2021-01-28T16:45:11.448Z</time>
      </trkpt>
      <trkpt lat="45.802604" lon="10.169101">
        <ele>1032.187675</ele>
        <time>2021-01-28T16:45:18.094Z</time>
      </trkpt>
      <trkpt lat="45.803838" lon="10.168154">
        <ele>1027.127789</ele>
        <time>2021-01-28T16:45:37.931Z</time>
      </trkpt>
      <trkpt lat="45.804672" lon="10.166858">
        <ele>1021.492498</ele>
        <time>2021-01-28T16:45:54.804Z</time>
      </trkpt>
      <trkpt lat="45.805205" lon="10.166402">
        <ele>1017.759378</ele>
        <time>2021-01-28T16:46:03.108Z</time>
      </trkpt>
      <trkpt lat="45.806294" lon="10.165916">
        <ele>1010.241118</ele>
        <time>2021-01-28T16:46:17.856Z</time>
      </trkpt>
      <trkpt lat="45.807092" lon="10.165361">
        <ele>1003.664333</ele>
        <time>2021-01-28T16:46:28.901Z</time>
      </trkpt>
      <trkpt lat="45.808077" lon="10.165125">
        <ele>995.993915</ele>
        <time>2021-01-28T16:46:41.556Z</time>
      </trkpt>
      <trkpt lat="45.808146" lon="10.165109">
        <ele>995.457059</ele>
        <time>2021-01-28T16:46:42.439Z</time>
      </trkpt>
      <trkpt lat="45.808886" lon="10.164583">
        <ele>989.597651</ele>
        <time>2021-01-28T16:46:53.066Z</time>
      </trkpt>
      <trkpt lat="45.809043" lon="10.164392">
        <ele>988.146427</ele>
        <time>2021-01-28T16:46:55.739Z</time>
      </trkpt>
      <trkpt lat="45.809310" lon="10.163752">
        <ele>984.481129</ele>
        <time>2021-01-28T16:47:02.527Z</time>
      </trkpt>
      <trkpt lat="45.809470" lon="10.163598">
        <ele>983.122803</ele>
        <time>2021-01-28T16:47:04.985Z</time>
      </trkpt>
      <trkpt lat="45.810317" lon="10.163202">
        <ele>975.706639</ele>
        <time>2021-01-28T16:47:16.093Z</time>
      </trkpt>
      <trkpt lat="45.811135" lon="10.162997">
        <ele>968.639387</ele>
        <time>2021-01-28T16:47:26.343Z</time>
      </trkpt>
      <trkpt lat="45.811681" lon="10.162768">
        <ele>964.542523</ele>
        <time>2021-01-28T16:47:33.449Z</time>
      </trkpt>
      <trkpt lat="45.811838" lon="10.162360">
        <ele>962.417555</ele>
        <time>2021-01-28T16:47:37.531Z</time>
      </trkpt>
      <trkpt lat="45.812090" lon="10.162100">
        <ele>960.387088</ele>
        <time>2021-01-28T16:47:41.518Z</time>
      </trkpt>
      <trkpt lat="45.812971" lon="10.160524">
        <ele>951.583762</ele>
        <time>2021-01-28T16:48:00.864Z</time>
      </trkpt>
      <trkpt lat="45.813188" lon="10.160038">
        <ele>949.215722</ele>
        <time>2021-01-28T16:48:06.111Z</time>
      </trkpt>
      <trkpt lat="45.813580" lon="10.158737">
        <ele>942.608123</ele>
        <time>2021-01-28T16:48:19.064Z</time>
      </trkpt>
      <trkpt lat="45.813623" lon="10.158734">
        <ele>942.195549</ele>
        <time>2021-01-28T16:48:19.601Z</time>
      </trkpt>
      <trkpt lat="45.813648" lon="10.158816">
        <ele>941.597715</ele>
        <time>2021-01-28T16:48:20.336Z</time>
      </trkpt>
      <trkpt lat="45.813578" lon="10.159270">
        <ele>938.491869</ele>
        <time>2021-01-28T16:48:24.387Z</time>
      </trkpt>
      <trkpt lat="45.813716" lon="10.160425">
        <ele>930.664415</ele>
        <time>2021-01-28T16:48:34.282Z</time>
      </trkpt>
      <trkpt lat="45.813778" lon="10.161083">
        <ele>926.305504</ele>
        <time>2021-01-28T16:48:39.877Z</time>
      </trkpt>
      <trkpt lat="45.813805" lon="10.161373">
        <ele>924.475801</ele>
        <time>2021-01-28T16:48:42.445Z</time>
      </trkpt>
      <trkpt lat="45.813819" lon="10.161522">
        <ele>923.535560</ele>
        <time>2021-01-28T16:48:43.694Z</time>
      </trkpt>
      <trkpt lat="45.813590" lon="10.162094">
        <ele>919.410282</ele>
        <time>2021-01-28T16:48:49.390Z</time>
      </trkpt>
      <trkpt lat="45.813597" lon="10.162253">
        <ele>918.413947</ele>
        <time>2021-01-28T16:48:50.800Z</time>
      </trkpt>
      <trkpt lat="45.813674" lon="10.162394">
        <ele>917.293740</ele>
        <time>2021-01-28T16:48:52.312Z</time>
      </trkpt>
      <trkpt lat="45.813755" lon="10.162436">
        <ele>916.520959</ele>
        <time>2021-01-28T16:48:53.375Z</time>
      </trkpt>
      <trkpt lat="45.813878" lon="10.162362">
        <ele>915.324239</ele>
        <time>2021-01-28T16:48:55.072Z</time>
      </trkpt>
      <trkpt lat="45.814185" lon="10.161657">
        <ele>910.162551</ele>
        <time>2021-01-28T16:49:02.400Z</time>
      </trkpt>
      <trkpt lat="45.814677" lon="10.160205">
        <ele>900.387345</ele>
        <time>2021-01-28T16:49:16.866Z</time>
      </trkpt>
      <trkpt lat="45.814869" lon="10.159290">
        <ele>893.745651</ele>
        <time>2021-01-28T16:49:24.941Z</time>
      </trkpt>
      <trkpt lat="45.815032" lon="10.158926">
        <ele>889.011121</ele>
        <time>2021-01-28T16:49:31.970Z</time>
      </trkpt>
      <trkpt lat="45.815132" lon="10.158700">
        <ele>886.081723</ele>
        <time>2021-01-28T16:49:36.352Z</time>
      </trkpt>
      <trkpt lat="45.815149" lon="10.158456">
        <ele>883.398335</ele>
        <time>2021-01-28T16:49:40.317Z</time>
      </trkpt>
      <trkpt lat="45.815324" lon="10.158165">
        <ele>879.192421</ele>
        <time>2021-01-28T16:49:46.328Z</time>
      </trkpt>
      <trkpt lat="45.815350" lon="10.157865">
        <ele>875.884263</ele>
        <time>2021-01-28T16:49:51.235Z</time>
      </trkpt>
      <trkpt lat="45.815370" lon="10.157805">
        <ele>875.156463</ele>
        <time>2021-01-28T16:49:52.280Z</time>
      </trkpt>
      <trkpt lat="45.815436" lon="10.157895">
        <ele>873.726866</ele>
        <time>2021-01-28T16:49:53.316Z</time>
      </trkpt>
      <trkpt lat="45.815529" lon="10.157880">
        <ele>872.257511</ele>
        <time>2021-01-28T16:49:54.444Z</time>
      </trkpt>
      <trkpt lat="45.815883" lon="10.157019">
        <ele>861.023464</ele>
        <time>2021-01-28T16:50:02.517Z</time>
      </trkpt>
      <trkpt lat="45.815953" lon="10.156929">
        <ele>859.476381</ele>
        <time>2021-01-28T16:50:03.601Z</time>
      </trkpt>
      <trkpt lat="45.816013" lon="10.156741">
        <ele>857.104333</ele>
        <time>2021-01-28T16:50:05.258Z</time>
      </trkpt>
      <trkpt lat="45.816299" lon="10.156341">
        <ele>850.530443</ele>
        <time>2021-01-28T16:50:09.857Z</time>
      </trkpt>
      <trkpt lat="45.816462" lon="10.155897">
        <ele>844.773626</ele>
        <time>2021-01-28T16:50:13.970Z</time>
      </trkpt>
      <trkpt lat="45.816828" lon="10.155503">
        <ele>837.290883</ele>
        <time>2021-01-28T16:50:19.336Z</time>
      </trkpt>
      <trkpt lat="45.816904" lon="10.155343">
        <ele>835.257095</ele>
        <time>2021-01-28T16:50:20.886Z</time>
      </trkpt>
      <trkpt lat="45.816999" lon="10.155089">
        <ele>832.229268</ele>
        <time>2021-01-28T16:50:23.233Z</time>
      </trkpt>
      <trkpt lat="45.817044" lon="10.155023">
        <ele>831.259461</ele>
        <time>2021-01-28T16:50:23.991Z</time>
      </trkpt>
      <trkpt lat="45.817127" lon="10.154866">
        <ele>829.189642</ele>
        <time>2021-01-28T16:50:25.617Z</time>
      </trkpt>
      <trkpt lat="45.817302" lon="10.154489">
        <ele>824.431864</ele>
        <time>2021-01-28T16:50:29.350Z</time>
      </trkpt>
      <trkpt lat="45.817381" lon="10.154401">
        <ele>822.924586</ele>
        <time>2021-01-28T16:50:30.513Z</time>
      </trkpt>
      <trkpt lat="45.817409" lon="10.154166">
        <ele>820.420429</ele>
        <time>2021-01-28T16:50:32.474Z</time>
      </trkpt>
      <trkpt lat="45.817757" lon="10.153667">
        <ele>813.005751</ele>
        <time>2021-01-28T16:50:38.208Z</time>
      </trkpt>
      <trkpt lat="45.818031" lon="10.153101">
        <ele>805.849873</ele>
        <time>2021-01-28T16:50:43.809Z</time>
      </trkpt>
      <trkpt lat="45.818339" lon="10.152150">
        <ele>795.019197</ele>
        <time>2021-01-28T16:50:52.303Z</time>
      </trkpt>
      <trkpt lat="45.818679" lon="10.151435">
        <ele>786.079545</ele>
        <time>2021-01-28T16:50:59.411Z</time>
      </trkpt>
      <trkpt lat="45.818934" lon="10.150681">
        <ele>779.442091</ele>
        <time>2021-01-28T16:51:06.418Z</time>
      </trkpt>
      <trkpt lat="45.818978" lon="10.150322">
        <ele>776.823121</ele>
        <time>2021-01-28T16:51:09.509Z</time>
      </trkpt>
      <trkpt lat="45.819042" lon="10.149607">
        <ele>771.643708</ele>
        <time>2021-01-28T16:51:15.819Z</time>
      </trkpt>
      <trkpt lat="45.819180" lon="10.149202">
        <ele>768.404648</ele>
        <time>2021-01-28T16:51:19.637Z</time>
      </trkpt>
      <trkpt lat="45.819182" lon="10.149031">
        <ele>767.175859</ele>
        <time>2021-01-28T16:51:21.063Z</time>
      </trkpt>
      <trkpt lat="45.819075" lon="10.148580">
        <ele>763.802966</ele>
        <time>2021-01-28T16:51:25.190Z</time>
      </trkpt>
      <trkpt lat="45.818625" lon="10.148116">
        <ele>758.252763</ele>
        <time>2021-01-28T16:51:31.990Z</time>
      </trkpt>
      <trkpt lat="45.818598" lon="10.148071">
        <ele>757.838274</ele>
        <time>2021-01-28T16:51:32.625Z</time>
      </trkpt>
      <trkpt lat="45.818578" lon="10.147905">
        <ele>756.662341</ele>
        <time>2021-01-28T16:51:34.091Z</time>
      </trkpt>
      <trkpt lat="45.818590" lon="10.147809">
        <ele>755.981530</ele>
        <time>2021-01-28T16:51:34.866Z</time>
      </trkpt>
      <trkpt lat="45.818997" lon="10.147076">
        <ele>749.439571</ele>
        <time>2021-01-28T16:51:42.907Z</time>
      </trkpt>
      <trkpt lat="45.819562" lon="10.146471">
        <ele>743.212403</ele>
        <time>2021-01-28T16:51:51.422Z</time>
      </trkpt>
      <trkpt lat="45.819893" lon="10.146265">
        <ele>740.187357</ele>
        <time>2021-01-28T16:51:55.789Z</time>
      </trkpt>
      <trkpt lat="45.820647" lon="10.145446">
        <ele>732.282360</ele>
        <time>2021-01-28T16:52:08.265Z</time>
      </trkpt>
      <trkpt lat="45.820776" lon="10.145049">
        <ele>730.108164</ele>
        <time>2021-01-28T16:52:12.123Z</time>
      </trkpt>
      <trkpt lat="45.820893" lon="10.144106">
        <ele>725.353948</ele>
        <time>2021-01-28T16:52:20.663Z</time>
      </trkpt>
      <trkpt lat="45.820960" lon="10.143944">
        <ele>724.418921</ele>
        <time>2021-01-28T16:52:22.627Z</time>
      </trkpt>
      <trkpt lat="45.821403" lon="10.143377">
        <ele>720.190991</ele>
        <time>2021-01-28T16:52:30.028Z</time>
      </trkpt>
      <trkpt lat="45.821851" lon="10.142877">
        <ele>716.781184</ele>
        <time>2021-01-28T16:52:37.297Z</time>
      </trkpt>
      <trkpt lat="45.822104" lon="10.142442">
        <ele>714.483285</ele>
        <time>2021-01-28T16:52:42.304Z</time>
      </trkpt>
      <trkpt lat="45.822232" lon="10.141533">
        <ele>710.722192</ele>
        <time>2021-01-28T16:52:50.793Z</time>
      </trkpt>
      <trkpt lat="45.822436" lon="10.140909">
        <ele>708.910705</ele>
        <time>2021-01-28T16:52:58.368Z</time>
      </trkpt>
      <trkpt lat="45.822513" lon="10.139988">
        <ele>708.201143</ele>
        <time>2021-01-28T16:53:10.877Z</time>
      </trkpt>
      <trkpt lat="45.822482" lon="10.139575">
        <ele>707.883396</ele>
        <time>2021-01-28T16:53:17.763Z</time>
      </trkpt>
      <trkpt lat="45.822357" lon="10.139130">
        <ele>707.516385</ele>
        <time>2021-01-28T16:53:26.313Z</time>
      </trkpt>
      <trkpt lat="45.822134" lon="10.137162">
        <ele>700.541892</ele>
        <time>2021-01-28T16:53:46.650Z</time>
      </trkpt>
      <trkpt lat="45.822034" lon="10.136849">
        <ele>699.055840</ele>
        <time>2021-01-28T16:53:49.628Z</time>
      </trkpt>
      <trkpt lat="45.821825" lon="10.136569">
        <ele>697.285067</ele>
        <time>2021-01-28T16:53:53.110Z</time>
      </trkpt>
      <trkpt lat="45.821470" lon="10.135847">
        <ele>690.534060</ele>
        <time>2021-01-28T16:54:00.458Z</time>
      </trkpt>
      <trkpt lat="45.821080" lon="10.134689">
        <ele>678.600550</ele>
        <time>2021-01-28T16:54:10.979Z</time>
      </trkpt>
      <trkpt lat="45.821109" lon="10.134146">
        <ele>673.547487</ele>
        <time>2021-01-28T16:54:15.439Z</time>
      </trkpt>
      <trkpt lat="45.820979" lon="10.133246">
        <ele>666.290069</ele>
        <time>2021-01-28T16:54:23.110Z</time>
      </trkpt>
      <trkpt lat="45.821020" lon="10.133135">
        <ele>665.334257</ele>
        <time>2021-01-28T16:54:24.179Z</time>
      </trkpt>
      <trkpt lat="45.821079" lon="10.133131">
        <ele>664.689415</ele>
        <time>2021-01-28T16:54:24.915Z</time>
      </trkpt>
      <trkpt lat="45.821250" lon="10.134027">
        <ele>657.621373</ele>
        <time>2021-01-28T16:54:32.744Z</time>
      </trkpt>
      <trkpt lat="45.821484" lon="10.134809">
        <ele>651.282682</ele>
        <time>2021-01-28T16:54:40.133Z</time>
      </trkpt>
      <trkpt lat="45.821598" lon="10.135005">
        <ele>649.544552</ele>
        <time>2021-01-28T16:54:42.268Z</time>
      </trkpt>
      <trkpt lat="45.821714" lon="10.135089">
        <ele>648.275160</ele>
        <time>2021-01-28T16:54:43.964Z</time>
      </trkpt>
      <trkpt lat="45.821753" lon="10.135066">
        <ele>647.863225</ele>
        <time>2021-01-28T16:54:44.501Z</time>
      </trkpt>
      <trkpt lat="45.821769" lon="10.134993">
        <ele>647.342218</ele>
        <time>2021-01-28T16:54:45.114Z</time>
      </trkpt>
      <trkpt lat="45.821726" lon="10.134871">
        <ele>646.411415</ele>
        <time>2021-01-28T16:54:46.313Z</time>
      </trkpt>
      <trkpt lat="45.821561" lon="10.134677">
        <ele>644.327428</ele>
        <time>2021-01-28T16:54:49.078Z</time>
      </trkpt>
      <trkpt lat="45.821512" lon="10.134414">
        <ele>642.473951</ele>
        <time>2021-01-28T16:54:51.357Z</time>
      </trkpt>
      <trkpt lat="45.821573" lon="10.134083">
        <ele>640.142927</ele>
        <time>2021-01-28T16:54:54.273Z</time>
      </trkpt>
      <trkpt lat="45.821491" lon="10.132962">
        <ele>632.594576</ele>
        <time>2021-01-28T16:55:03.867Z</time>
      </trkpt>
      <trkpt lat="45.821410" lon="10.132838">
        <ele>631.498024</ele>
        <time>2021-01-28T16:55:05.351Z</time>
      </trkpt>
      <trkpt lat="45.820680" lon="10.132233">
        <ele>623.693338</ele>
        <time>2021-01-28T16:55:15.764Z</time>
      </trkpt>
      <trkpt lat="45.820103" lon="10.132186">
        <ele>618.342812</ele>
        <time>2021-01-28T16:55:22.949Z</time>
      </trkpt>
      <trkpt lat="45.819486" lon="10.131835">
        <ele>611.775709</ele>
        <time>2021-01-28T16:55:31.114Z</time>
      </trkpt>
      <trkpt lat="45.818894" lon="10.130930">
        <ele>603.205475</ele>
        <time>2021-01-28T16:55:41.642Z</time>
      </trkpt>
      <trkpt lat="45.818314" lon="10.130277">
        <ele>595.635985</ele>
        <time>2021-01-28T16:55:50.604Z</time>
      </trkpt>
      <trkpt lat="45.818074" lon="10.130207">
        <ele>593.066385</ele>
        <time>2021-01-28T16:55:53.596Z</time>
      </trkpt>
      <trkpt lat="45.817602" lon="10.129551">
        <ele>586.171791</ele>
        <time>2021-01-28T16:56:01.627Z</time>
      </trkpt>
      <trkpt lat="45.817247" lon="10.129275">
        <ele>581.935448</ele>
        <time>2021-01-28T16:56:06.479Z</time>
      </trkpt>
      <trkpt lat="45.816759" lon="10.129286">
        <ele>576.111643</ele>
        <time>2021-01-28T16:56:12.342Z</time>
      </trkpt>
      <trkpt lat="45.816497" lon="10.129150">
        <ele>572.752209</ele>
        <time>2021-01-28T16:56:15.658Z</time>
      </trkpt>
      <trkpt lat="45.816281" lon="10.129003">
        <ele>569.869679</ele>
        <time>2021-01-28T16:56:18.491Z</time>
      </trkpt>
      <trkpt lat="45.816015" lon="10.128837">
        <ele>566.372153</ele>
        <time>2021-01-28T16:56:21.928Z</time>
      </trkpt>
      <trkpt lat="45.815647" lon="10.128518">
        <ele>561.188067</ele>
        <time>2021-01-28T16:56:27.128Z</time>
      </trkpt>
      <trkpt lat="45.815325" lon="10.128354">
        <ele>557.634161</ele>
        <time>2021-01-28T16:56:31.174Z</time>
      </trkpt>
      <trkpt lat="45.815219" lon="10.128251">
        <ele>556.405751</ele>
        <time>2021-01-28T16:56:32.690Z</time>
      </trkpt>
      <trkpt lat="45.815106" lon="10.128130">
        <ele>555.052802</ele>
        <time>2021-01-28T16:56:34.357Z</time>
      </trkpt>
      <trkpt lat="45.815056" lon="10.128093">
        <ele>554.512983</ele>
        <time>2021-01-28T16:56:35.020Z</time>
      </trkpt>
      <trkpt lat="45.814878" lon="10.128025">
        <ele>552.745508</ele>
        <time>2021-01-28T16:56:37.192Z</time>
      </trkpt>
      <trkpt lat="45.814708" lon="10.128041">
        <ele>551.110797</ele>
        <time>2021-01-28T16:56:39.211Z</time>
      </trkpt>
      <trkpt lat="45.814077" lon="10.128192">
        <ele>544.972507</ele>
        <time>2021-01-28T16:56:47.053Z</time>
      </trkpt>
      <trkpt lat="45.813919" lon="10.128028">
        <ele>543.101297</ele>
        <time>2021-01-28T16:57:05.829Z</time>
      </trkpt>
      <trkpt lat="45.813555" lon="10.127867">
        <ele>543.473590</ele>
        <time>2021-01-28T16:57:46.900Z</time>
      </trkpt>
      <trkpt lat="45.813546" lon="10.127863">
        <ele>543.499326</ele>
        <time>2021-01-28T16:57:47.776Z</time>
      </trkpt>
      <trkpt lat="45.813397" lon="10.128083">
        <ele>544.083329</ele>
        <time>2021-01-28T16:58:13.448Z</time>
      </trkpt>
      <trkpt lat="45.813324" lon="10.128297">
        <ele>544.536921</ele>
        <time>2021-01-28T16:58:33.724Z</time>
      </trkpt>
      <trkpt lat="45.813290" lon="10.128373">
        <ele>544.708850</ele>
        <time>2021-01-28T16:58:40.303Z</time>
      </trkpt>
      <trkpt lat="45.812835" lon="10.128410">
        <ele>545.953649</ele>
        <time>2021-01-28T16:58:57.939Z</time>
      </trkpt>
      <trkpt lat="45.812734" lon="10.128507">
        <ele>546.285628</ele>
        <time>2021-01-28T16:59:02.778Z</time>
      </trkpt>
      <trkpt lat="45.812746" lon="10.128649">
        <ele>546.557952</ele>
        <time>2021-01-28T16:59:06.669Z</time>
      </trkpt>
      <trkpt lat="45.812891" lon="10.129008">
        <ele>547.347887</ele>
        <time>2021-01-28T16:59:22.924Z</time>
      </trkpt>
      <trkpt lat="45.812875" lon="10.129254">
        <ele>547.862138</ele>
        <time>2021-01-28T16:59:30.273Z</time>
      </trkpt>
      <trkpt lat="45.812173" lon="10.129975">
        <ele>550.539474</ele>
        <time>2021-01-28T17:00:14.818Z</time>
      </trkpt>
      <trkpt lat="45.811979" lon="10.129953">
        <ele>551.142973</ele>
        <time>2021-01-28T17:00:21.462Z</time>
      </trkpt>
      <trkpt lat="45.811912" lon="10.129673">
        <ele>551.782877</ele>
        <time>2021-01-28T17:00:26.589Z</time>
      </trkpt>
      <trkpt lat="45.811844" lon="10.128763">
        <ele>550.895921</ele>
        <time>2021-01-28T17:00:35.611Z</time>
      </trkpt>
      <trkpt lat="45.811705" lon="10.127789">
        <ele>544.110793</ele>
        <time>2021-01-28T17:00:44.173Z</time>
      </trkpt>
      <trkpt lat="45.811701" lon="10.126854">
        <ele>537.729594</ele>
        <time>2021-01-28T17:00:51.920Z</time>
      </trkpt>
      <trkpt lat="45.811535" lon="10.126586">
        <ele>535.256196</ele>
        <time>2021-01-28T17:00:54.878Z</time>
      </trkpt>
      <trkpt lat="45.811010" lon="10.126603">
        <ele>529.348566</ele>
        <time>2021-01-28T17:01:01.123Z</time>
      </trkpt>
      <trkpt lat="45.810883" lon="10.126525">
        <ele>527.794432</ele>
        <time>2021-01-28T17:01:02.768Z</time>
      </trkpt>
      <trkpt lat="45.810844" lon="10.125969">
        <ele>523.412586</ele>
        <time>2021-01-28T17:01:07.466Z</time>
      </trkpt>
      <trkpt lat="45.810469" lon="10.125546">
        <ele>518.046103</ele>
        <time>2021-01-28T17:01:13.310Z</time>
      </trkpt>
      <trkpt lat="45.810494" lon="10.125232">
        <ele>515.567872</ele>
        <time>2021-01-28T17:01:16.015Z</time>
      </trkpt>
      <trkpt lat="45.810609" lon="10.124867">
        <ele>512.613360</ele>
        <time>2021-01-28T17:01:19.443Z</time>
      </trkpt>
      <trkpt lat="45.810574" lon="10.123472">
        <ele>502.396319</ele>
        <time>2021-01-28T17:01:31.255Z</time>
      </trkpt>
      <trkpt lat="45.810572" lon="10.122802">
        <ele>497.492339</ele>
        <time>2021-01-28T17:01:36.959Z</time>
      </trkpt>
      <trkpt lat="45.810643" lon="10.122771">
        <ele>496.713029</ele>
        <time>2021-01-28T17:01:37.815Z</time>
      </trkpt>
      <trkpt lat="45.810710" lon="10.122530">
        <ele>494.913850</ele>
        <time>2021-01-28T17:01:40.069Z</time>
      </trkpt>
      <trkpt lat="45.810628" lon="10.121717">
        <ele>489.294948</ele>
        <time>2021-01-28T17:01:46.991Z</time>
      </trkpt>
      <trkpt lat="45.810697" lon="10.121695">
        <ele>488.601320</ele>
        <time>2021-01-28T17:01:47.867Z</time>
      </trkpt>
      <trkpt lat="45.810855" lon="10.122388">
        <ele>483.614020</ele>
        <time>2021-01-28T17:01:54.095Z</time>
      </trkpt>
      <trkpt lat="45.810950" lon="10.123331">
        <ele>477.404022</ele>
        <time>2021-01-28T17:02:02.364Z</time>
      </trkpt>
      <trkpt lat="45.811094" lon="10.123451">
        <ele>476.085063</ele>
        <time>2021-01-28T17:02:04.467Z</time>
      </trkpt>
      <trkpt lat="45.811113" lon="10.122301">
        <ele>469.734563</ele>
        <time>2021-01-28T17:02:14.636Z</time>
      </trkpt>
      <trkpt lat="45.811207" lon="10.122228">
        <ele>468.887983</ele>
        <time>2021-01-28T17:02:15.984Z</time>
      </trkpt>
      <trkpt lat="45.811297" lon="10.122277">
        <ele>468.125558</ele>
        <time>2021-01-28T17:02:17.199Z</time>
      </trkpt>
      <trkpt lat="45.811272" lon="10.122914">
        <ele>464.603362</ele>
        <time>2021-01-28T17:02:22.851Z</time>
      </trkpt>
      <trkpt lat="45.811345" lon="10.122970">
        <ele>463.919558</ele>
        <time>2021-01-28T17:02:23.907Z</time>
      </trkpt>
      <trkpt lat="45.811429" lon="10.122900">
        <ele>463.106477</ele>
        <time>2021-01-28T17:02:25.132Z</time>
      </trkpt>
      <trkpt lat="45.811483" lon="10.122293">
        <ele>459.536464</ele>
        <time>2021-01-28T17:02:30.554Z</time>
      </trkpt>
      <trkpt lat="45.811015" lon="10.120812">
        <ele>450.049685</ele>
        <time>2021-01-28T17:02:44.770Z</time>
      </trkpt>
      <trkpt lat="45.811071" lon="10.120201">
        <ele>445.861168</ele>
        <time>2021-01-28T17:02:50.037Z</time>
      </trkpt>
      <trkpt lat="45.811159" lon="10.120023">
        <ele>444.330657</ele>
        <time>2021-01-28T17:02:51.875Z</time>
      </trkpt>
      <trkpt lat="45.811296" lon="10.119970">
        <ele>442.902947</ele>
        <time>2021-01-28T17:02:53.572Z</time>
      </trkpt>
      <trkpt lat="45.811500" lon="10.120128">
        <ele>440.570321</ele>
        <time>2021-01-28T17:02:56.320Z</time>
      </trkpt>
      <trkpt lat="45.811530" lon="10.120511">
        <ele>437.867311</ele>
        <time>2021-01-28T17:02:59.590Z</time>
      </trkpt>
      <trkpt lat="45.811658" lon="10.120897">
        <ele>434.869423</ele>
        <time>2021-01-28T17:03:03.236Z</time>
      </trkpt>
      <trkpt lat="45.811931" lon="10.120875">
        <ele>432.118207</ele>
        <time>2021-01-28T17:03:06.587Z</time>
      </trkpt>
      <trkpt lat="45.812006" lon="10.120757">
        <ele>431.091712</ele>
        <time>2021-01-28T17:03:07.988Z</time>
      </trkpt>
      <trkpt lat="45.812039" lon="10.120539">
        <ele>430.026196</ele>
        <time>2021-01-28T17:03:09.898Z</time>
      </trkpt>
      <trkpt lat="45.812008" lon="10.120035">
        <ele>427.609562</ele>
        <time>2021-01-28T17:03:14.354Z</time>
      </trkpt>
      <trkpt lat="45.811883" lon="10.119760">
        <ele>426.041445</ele>
        <time>2021-01-28T17:03:17.359Z</time>
      </trkpt>
      <trkpt lat="45.811599" lon="10.119306">
        <ele>423.127736</ele>
        <time>2021-01-28T17:03:22.951Z</time>
      </trkpt>
      <trkpt lat="45.811121" lon="10.119086">
        <ele>419.687778</ele>
        <time>2021-01-28T17:03:29.758Z</time>
      </trkpt>
      <trkpt lat="45.810540" lon="10.118965">
        <ele>413.794663</ele>
        <time>2021-01-28T17:03:37.373Z</time>
      </trkpt>
      <trkpt lat="45.810355" lon="10.118860">
        <ele>411.659064</ele>
        <time>2021-01-28T17:03:39.821Z</time>
      </trkpt>
      <trkpt lat="45.809945" lon="10.118396">
        <ele>406.053505</ele>
        <time>2021-01-28T17:03:46.193Z</time>
      </trkpt>
      <trkpt lat="45.809702" lon="10.118228">
        <ele>403.157990</ele>
        <time>2021-01-28T17:03:49.390Z</time>
      </trkpt>
      <trkpt lat="45.809418" lon="10.118031">
        <ele>399.771800</ele>
        <time>2021-01-28T17:03:53.091Z</time>
      </trkpt>
      <trkpt lat="45.808923" lon="10.117833">
        <ele>390.540494</ele>
        <time>2021-01-28T17:03:59.002Z</time>
      </trkpt>
      <trkpt lat="45.808769" lon="10.117657">
        <ele>386.973768</ele>
        <time>2021-01-28T17:04:01.252Z</time>
      </trkpt>
      <trkpt lat="45.808424" lon="10.116807">
        <ele>374.553646</ele>
        <time>2021-01-28T17:04:09.114Z</time>
      </trkpt>
      <trkpt lat="45.808125" lon="10.116568">
        <ele>368.353214</ele>
        <time>2021-01-28T17:04:13.099Z</time>
      </trkpt>
      <trkpt lat="45.808100" lon="10.116508">
        <ele>367.470538</ele>
        <time>2021-01-28T17:04:13.676Z</time>
      </trkpt>
      <trkpt lat="45.808088" lon="10.116469">
        <ele>366.977269</ele>
        <time>2021-01-28T17:04:14.022Z</time>
      </trkpt>
      <trkpt lat="45.808108" lon="10.116382">
        <ele>366.182192</ele>
        <time>2021-01-28T17:04:14.777Z</time>
      </trkpt>
      <trkpt lat="45.808016" lon="10.116332">
        <ele>364.957272</ele>
        <time>2021-01-28T17:04:15.937Z</time>
      </trkpt>
      <trkpt lat="45.807305" lon="10.116360">
        <ele>356.101397</ele>
        <time>2021-01-28T17:04:24.283Z</time>
      </trkpt>
      <trkpt lat="45.807125" lon="10.116458">
        <ele>353.704273</ele>
        <time>2021-01-28T17:04:26.541Z</time>
      </trkpt>
      <trkpt lat="45.806681" lon="10.116865">
        <ele>347.143879</ele>
        <time>2021-01-28T17:04:32.920Z</time>
      </trkpt>
      <trkpt lat="45.805376" lon="10.117266">
        <ele>338.331073</ele>
        <time>2021-01-28T17:04:50.696Z</time>
      </trkpt>
      <trkpt lat="45.804977" lon="10.117646">
        <ele>335.655710</ele>
        <time>2021-01-28T17:04:57.189Z</time>
      </trkpt>
      <trkpt lat="45.804604" lon="10.117913">
        <ele>332.961230</ele>
        <time>2021-01-28T17:05:02.941Z</time>
      </trkpt>
      <trkpt lat="45.804262" lon="10.118062">
        <ele>330.405782</ele>
        <time>2021-01-28T17:05:08.051Z</time>
      </trkpt>
      <trkpt lat="45.803915" lon="10.118152">
        <ele>327.884644</ele>
        <time>2021-01-28T17:05:12.539Z</time>
      </trkpt>
      <trkpt lat="45.803228" lon="10.118066">
        <ele>322.954200</ele>
        <time>2021-01-28T17:05:21.180Z</time>
      </trkpt>
      <trkpt lat="45.802963" lon="10.118303">
        <ele>319.919943</ele>
        <time>2021-01-28T17:05:24.988Z</time>
      </trkpt>
      <trkpt lat="45.802788" lon="10.118432">
        <ele>317.442564</ele>
        <time>2021-01-28T17:05:27.519Z</time>
      </trkpt>
      <trkpt lat="45.802803" lon="10.118309">
        <ele>316.346510</ele>
        <time>2021-01-28T17:05:28.516Z</time>
      </trkpt>
      <trkpt lat="45.803066" lon="10.117708">
        <ele>310.117888</ele>
        <time>2021-01-28T17:05:34.414Z</time>
      </trkpt>
      <trkpt lat="45.803500" lon="10.117233">
        <ele>303.244357</ele>
        <time>2021-01-28T17:05:40.887Z</time>
      </trkpt>
      <trkpt lat="45.803795" lon="10.116941">
        <ele>298.765890</ele>
        <time>2021-01-28T17:05:45.078Z</time>
      </trkpt>
      <trkpt lat="45.803894" lon="10.116842">
        <ele>297.378399</ele>
        <time>2021-01-28T17:05:46.458Z</time>
      </trkpt>
      <trkpt lat="45.803979" lon="10.116588">
        <ele>295.120218</ele>
        <time>2021-01-28T17:05:48.814Z</time>
      </trkpt>
      <trkpt lat="45.804174" lon="10.116239">
        <ele>291.535465</ele>
        <time>2021-01-28T17:05:52.529Z</time>
      </trkpt>
      <trkpt lat="45.804422" lon="10.116106">
        <ele>288.491432</ele>
        <time>2021-01-28T17:05:55.694Z</time>
      </trkpt>
      <trkpt lat="45.804712" lon="10.115782">
        <ele>284.265331</ele>
        <time>2021-01-28T17:06:00.107Z</time>
      </trkpt>
      <trkpt lat="45.804781" lon="10.115655">
        <ele>282.974833</ele>
        <time>2021-01-28T17:06:01.460Z</time>
      </trkpt>
      <trkpt lat="45.804397" lon="10.115990">
        <ele>277.993169</ele>
        <time>2021-01-28T17:06:07.072Z</time>
      </trkpt>
      <trkpt lat="45.804320" lon="10.115998">
        <ele>277.362658</ele>
        <time>2021-01-28T17:06:08.095Z</time>
      </trkpt>
      <trkpt lat="45.804277" lon="10.115851">
        <ele>276.455042</ele>
        <time>2021-01-28T17:06:09.493Z</time>
      </trkpt>
      <trkpt lat="45.804500" lon="10.115640">
        <ele>274.273283</ele>
        <time>2021-01-28T17:06:12.898Z</time>
      </trkpt>
      <trkpt lat="45.805016" lon="10.114835">
        <ele>268.047181</ele>
        <time>2021-01-28T17:06:22.416Z</time>
      </trkpt>
      <trkpt lat="45.805238" lon="10.114644">
        <ele>265.933003</ele>
        <time>2021-01-28T17:06:25.690Z</time>
      </trkpt>
      <trkpt lat="45.805266" lon="10.114551">
        <ele>265.356258</ele>
        <time>2021-01-28T17:06:26.585Z</time>
      </trkpt>
      <trkpt lat="45.805233" lon="10.114461">
        <ele>264.777308</ele>
        <time>2021-01-28T17:06:27.466Z</time>
      </trkpt>
      <trkpt lat="45.805180" lon="10.114443">
        <ele>264.332489</ele>
        <time>2021-01-28T17:06:28.153Z</time>
      </trkpt>
      <trkpt lat="45.804435" lon="10.115026">
        <ele>257.200739</ele>
        <time>2021-01-28T17:06:38.903Z</time>
      </trkpt>
      <trkpt lat="45.803962" lon="10.115100">
        <ele>253.192052</ele>
        <time>2021-01-28T17:06:44.820Z</time>
      </trkpt>
      <trkpt lat="45.803746" lon="10.115022">
        <ele>251.315461</ele>
        <time>2021-01-28T17:06:47.559Z</time>
      </trkpt>
      <trkpt lat="45.803554" lon="10.114855">
        <ele>249.423712</ele>
        <time>2021-01-28T17:06:50.319Z</time>
      </trkpt>
      <trkpt lat="45.803241" lon="10.114373">
        <ele>246.079468</ele>
        <time>2021-01-28T17:06:55.983Z</time>
      </trkpt>
      <trkpt lat="45.802992" lon="10.114116">
        <ele>243.939554</ele>
        <time>2021-01-28T17:06:59.820Z</time>
      </trkpt>
      <trkpt lat="45.802829" lon="10.113930">
        <ele>242.486580</ele>
        <time>2021-01-28T17:07:02.445Z</time>
      </trkpt>
      <trkpt lat="45.802792" lon="10.113857">
        <ele>242.047660</ele>
        <time>2021-01-28T17:07:03.228Z</time>
      </trkpt>
      <trkpt lat="45.802781" lon="10.113748">
        <ele>241.512053</ele>
        <time>2021-01-28T17:07:04.209Z</time>
      </trkpt>
      <trkpt lat="45.802787" lon="10.113598">
        <ele>240.781384</ele>
        <time>2021-01-28T17:07:05.640Z</time>
      </trkpt>
      <trkpt lat="45.802826" lon="10.113449">
        <ele>240.007387</ele>
        <time>2021-01-28T17:07:07.074Z</time>
      </trkpt>
      <trkpt lat="45.802877" lon="10.113356">
        <ele>239.431955</ele>
        <time>2021-01-28T17:07:08.120Z</time>
      </trkpt>
      <trkpt lat="45.802791" lon="10.113254">
        <ele>238.653514</ele>
        <time>2021-01-28T17:07:09.629Z</time>
      </trkpt>
      <trkpt lat="45.802603" lon="10.113161">
        <ele>237.266246</ele>
        <time>2021-01-28T17:07:12.320Z</time>
      </trkpt>
      <trkpt lat="45.802585" lon="10.113157">
        <ele>237.139181</ele>
        <time>2021-01-28T17:07:12.539Z</time>
      </trkpt>
      <trkpt lat="45.802344" lon="10.113193">
        <ele>235.809102</ele>
        <time>2021-01-28T17:07:15.964Z</time>
      </trkpt>
      <trkpt lat="45.802143" lon="10.113198">
        <ele>235.236392</ele>
        <time>2021-01-28T17:07:18.689Z</time>
      </trkpt>
      <trkpt lat="45.801930" lon="10.113110">
        <ele>234.604913</ele>
        <time>2021-01-28T17:07:22.516Z</time>
      </trkpt>
      <trkpt lat="45.801854" lon="10.112978">
        <ele>234.264903</ele>
        <time>2021-01-28T17:07:24.242Z</time>
      </trkpt>
      <trkpt lat="45.801691" lon="10.112967">
        <ele>233.800023</ele>
        <time>2021-01-28T17:07:26.754Z</time>
      </trkpt>
      <trkpt lat="45.801446" lon="10.112958">
        <ele>233.101820</ele>
        <time>2021-01-28T17:07:30.581Z</time>
      </trkpt>
      <trkpt lat="45.800823" lon="10.112555">
        <ele>231.154841</ele>
        <time>2021-01-28T17:07:41.529Z</time>
      </trkpt>
      <trkpt lat="45.800693" lon="10.112509">
        <ele>230.607453</ele>
        <time>2021-01-28T17:07:43.390Z</time>
      </trkpt>
      <trkpt lat="45.800656" lon="10.112493">
        <ele>230.383366</ele>
        <time>2021-01-28T17:07:44.040Z</time>
      </trkpt>
      <trkpt lat="45.800473" lon="10.112411">
        <ele>229.271644</ele>
        <time>2021-01-28T17:07:46.970Z</time>
      </trkpt>
      <trkpt lat="45.800391" lon="10.112343">
        <ele>228.722411</ele>
        <time>2021-01-28T17:07:48.183Z</time>
      </trkpt>
      <trkpt lat="45.800344" lon="10.112094">
        <ele>227.679567</ele>
        <time>2021-01-28T17:07:50.965Z</time>
      </trkpt>
      <trkpt lat="45.800449" lon="10.111117">
        <ele>223.683314</ele>
        <time>2021-01-28T17:08:00.153Z</time>
      </trkpt>
      <trkpt lat="45.800433" lon="10.110145">
        <ele>219.404001</ele>
        <time>2021-01-28T17:08:08.555Z</time>
      </trkpt>
      <trkpt lat="45.800387" lon="10.109994">
        <ele>218.428462</ele>
        <time>2021-01-28T17:08:09.971Z</time>
      </trkpt>
      <trkpt lat="45.799795" lon="10.109125">
        <ele>211.235608</ele>
        <time>2021-01-28T17:08:20.514Z</time>
      </trkpt>
      <trkpt lat="45.799717" lon="10.108872">
        <ele>209.597912</ele>
        <time>2021-01-28T17:08:22.858Z</time>
      </trkpt>
      <trkpt lat="45.799695" lon="10.108784">
        <ele>209.044461</ele>
        <time>2021-01-28T17:08:23.711Z</time>
      </trkpt>
      <trkpt lat="45.799615" lon="10.108392">
        <ele>206.626399</ele>
        <time>2021-01-28T17:08:27.221Z</time>
      </trkpt>
      <trkpt lat="45.799447" lon="10.107148">
        <ele>202.551480</ele>
        <time>2021-01-28T17:08:38.757Z</time>
      </trkpt>
      <trkpt lat="45.799432" lon="10.107037">
        <ele>202.257771</ele>
        <time>2021-01-28T17:08:39.791Z</time>
      </trkpt>
      <trkpt lat="45.799387" lon="10.106690">
        <ele>201.340916</ele>
        <time>2021-01-28T17:08:43.363Z</time>
      </trkpt>
      <trkpt lat="45.799377" lon="10.106496">
        <ele>200.835591</ele>
        <time>2021-01-28T17:08:45.427Z</time>
      </trkpt>
      <trkpt lat="45.799376" lon="10.106432">
        <ele>200.669298</ele>
        <time>2021-01-28T17:08:46.086Z</time>
      </trkpt>
      <trkpt lat="45.799374" lon="10.106378">
        <ele>200.528825</ele>
        <time>2021-01-28T17:08:46.615Z</time>
      </trkpt>
      <trkpt lat="45.799366" lon="10.106169">
        <ele>199.985093</ele>
        <time>2021-01-28T17:08:49.659Z</time>
      </trkpt>
      <trkpt lat="45.799387" lon="10.106104">
        <ele>199.798995</ele>
        <time>2021-01-28T17:08:50.595Z</time>
      </trkpt>
      <trkpt lat="45.799393" lon="10.106033">
        <ele>199.613210</ele>
        <time>2021-01-28T17:08:51.244Z</time>
      </trkpt>
      <trkpt lat="45.799378" lon="10.105943">
        <ele>199.372832</ele>
        <time>2021-01-28T17:08:52.224Z</time>
      </trkpt>
      <trkpt lat="45.799338" lon="10.105870">
        <ele>199.131641</ele>
        <time>2021-01-28T17:08:53.049Z</time>
      </trkpt>
      <trkpt lat="45.799284" lon="10.105827">
        <ele>198.901510</ele>
        <time>2021-01-28T17:08:54.559Z</time>
      </trkpt>
      <trkpt lat="45.799221" lon="10.105818">
        <ele>198.665610</ele>
        <time>2021-01-28T17:08:55.713Z</time>
      </trkpt>
      <trkpt lat="45.799162" lon="10.105844">
        <ele>198.551301</ele>
        <time>2021-01-28T17:08:56.628Z</time>
      </trkpt>
      <trkpt lat="45.799086" lon="10.105862">
        <ele>198.620575</ele>
        <time>2021-01-28T17:08:57.560Z</time>
      </trkpt>
      <trkpt lat="45.798984" lon="10.105850">
        <ele>198.712613</ele>
        <time>2021-01-28T17:08:58.763Z</time>
      </trkpt>
      <trkpt lat="45.798849" lon="10.105799">
        <ele>198.838162</ele>
        <time>2021-01-28T17:09:01.471Z</time>
      </trkpt>
      <trkpt lat="45.798778" lon="10.105762">
        <ele>198.906097</ele>
        <time>2021-01-28T17:09:02.523Z</time>
      </trkpt>
      <trkpt lat="45.798194" lon="10.105445">
        <ele>199.467649</ele>
        <time>2021-01-28T17:09:12.814Z</time>
      </trkpt>
      <trkpt lat="45.797887" lon="10.105193">
        <ele>199.785754</ele>
        <time>2021-01-28T17:09:20.695Z</time>
      </trkpt>
      <trkpt lat="45.797650" lon="10.104943">
        <ele>200.050326</ele>
        <time>2021-01-28T17:09:27.564Z</time>
      </trkpt>
      <trkpt lat="45.797209" lon="10.104342">
        <ele>201.875385</ele>
        <time>2021-01-28T17:09:40.584Z</time>
      </trkpt>
      <trkpt lat="45.796977" lon="10.104023">
        <ele>202.983358</ele>
        <time>2021-01-28T17:09:48.170Z</time>
      </trkpt>
      <trkpt lat="45.796854" lon="10.103873">
        <ele>203.539953</ele>
        <time>2021-01-28T17:09:53.319Z</time>
      </trkpt>
      <trkpt lat="45.796507" lon="10.103551">
        <ele>204.964766</ele>
        <time>2021-01-28T17:10:03.176Z</time>
      </trkpt>
      <trkpt lat="45.796014" lon="10.103231">
        <ele>207.746743</ele>
        <time>2021-01-28T17:10:22.769Z</time>
      </trkpt>
      <trkpt lat="45.795986" lon="10.103213">
        <ele>208.053164</ele>
        <time>2021-01-28T17:10:25.518Z</time>
      </trkpt>
      <trkpt lat="45.795549" lon="10.102948">
        <ele>212.791241</ele>
        <time>2021-01-28T17:10:49.284Z</time>
      </trkpt>
      <trkpt lat="45.795430" lon="10.102809">
        <ele>214.323859</ele>
        <time>2021-01-28T17:10:56.895Z</time>
      </trkpt>
      <trkpt lat="45.795358" lon="10.102660">
        <ele>215.586113</ele>
        <time>2021-01-28T17:11:05.461Z</time>
      </trkpt>
      <trkpt lat="45.795264" lon="10.102470">
        <ele>217.208247</ele>
        <time>2021-01-28T17:11:14.212Z</time>
      </trkpt>
      <trkpt lat="45.795117" lon="10.102256">
        <ele>219.299947</ele>
        <time>2021-01-28T17:11:27.696Z</time>
      </trkpt>
      <trkpt lat="45.795015" lon="10.102154">
        <ele>220.541703</ele>
        <time>2021-01-28T17:11:34.829Z</time>
      </trkpt>
      <trkpt lat="45.794841" lon="10.102038">
        <ele>222.457874</ele>
        <time>2021-01-28T17:11:47.278Z</time>
      </trkpt>
      <trkpt lat="45.794727" lon="10.101941">
        <ele>223.781588</ele>
        <time>2021-01-28T17:11:54.878Z</time>
      </trkpt>
      <trkpt lat="45.794075" lon="10.101055">
        <ele>234.073984</ele>
        <time>2021-01-28T17:12:56.732Z</time>
      </trkpt>
      <trkpt lat="45.793792" lon="10.100634">
        <ele>238.783921</ele>
        <time>2021-01-28T17:13:23.572Z</time>
      </trkpt>
      <trkpt lat="45.793485" lon="10.100028">
        <ele>244.816959</ele>
        <time>2021-01-28T17:13:50.728Z</time>
      </trkpt>
      <trkpt lat="45.793426" lon="10.099929">
        <ele>245.303163</ele>
        <time>2021-01-28T17:13:58.362Z</time>
      </trkpt>
      <trkpt lat="45.793345" lon="10.099794">
        <ele>245.703021</ele>
        <time>2021-01-28T17:14:02.600Z</time>
      </trkpt>
      <trkpt lat="45.793254" lon="10.099594">
        <ele>246.239187</ele>
        <time>2021-01-28T17:14:09.047Z</time>
      </trkpt>
      <trkpt lat="45.793237" lon="10.099071">
        <ele>247.414647</ele>
        <time>2021-01-28T17:14:23.239Z</time>
      </trkpt>
      <trkpt lat="45.793141" lon="10.098649">
        <ele>248.411229</ele>
        <time>2021-01-28T17:14:32.090Z</time>
      </trkpt>
      <trkpt lat="45.792407" lon="10.097470">
        <ele>248.959373</ele>
        <time>2021-01-28T17:14:46.983Z</time>
      </trkpt>
      <trkpt lat="45.791737" lon="10.095868">
        <ele>241.529665</ele>
        <time>2021-01-28T17:14:58.776Z</time>
      </trkpt>
      <trkpt lat="45.791488" lon="10.095456">
        <ele>238.532887</ele>
        <time>2021-01-28T17:15:02.100Z</time>
      </trkpt>
      <trkpt lat="45.791105" lon="10.094822">
        <ele>232.997352</ele>
        <time>2021-01-28T17:15:07.127Z</time>
      </trkpt>
      <trkpt lat="45.790925" lon="10.094016">
        <ele>227.412413</ele>
        <time>2021-01-28T17:15:12.220Z</time>
      </trkpt>
      <trkpt lat="45.790750" lon="10.093689">
        <ele>224.692225</ele>
        <time>2021-01-28T17:15:14.695Z</time>
      </trkpt>
      <trkpt lat="45.790661" lon="10.093217">
        <ele>222.013450</ele>
        <time>2021-01-28T17:15:18.930Z</time>
      </trkpt>
      <trkpt lat="45.790551" lon="10.092768">
        <ele>219.680728</ele>
        <time>2021-01-28T17:15:23.083Z</time>
      </trkpt>
      <trkpt lat="45.790400" lon="10.092395">
        <ele>217.566620</ele>
        <time>2021-01-28T17:15:26.887Z</time>
      </trkpt>
      <trkpt lat="45.789671" lon="10.091199">
        <ele>210.295557</ele>
        <time>2021-01-28T17:15:41.457Z</time>
      </trkpt>
      <trkpt lat="45.788425" lon="10.090025">
        <ele>204.426069</ele>
        <time>2021-01-28T17:16:02.841Z</time>
      </trkpt>
      <trkpt lat="45.788244" lon="10.089675">
        <ele>203.449239</ele>
        <time>2021-01-28T17:16:07.246Z</time>
      </trkpt>
      <trkpt lat="45.788075" lon="10.088585">
        <ele>201.433675</ele>
        <time>2021-01-28T17:16:18.595Z</time>
      </trkpt>
      <trkpt lat="45.787785" lon="10.087888">
        <ele>199.968604</ele>
        <time>2021-01-28T17:16:27.245Z</time>
      </trkpt>
      <trkpt lat="45.787243" lon="10.086896">
        <ele>199.526687</ele>
        <time>2021-01-28T17:16:42.218Z</time>
      </trkpt>
      <trkpt lat="45.786133" lon="10.085568">
        <ele>200.993007</ele>
        <time>2021-01-28T17:17:19.567Z</time>
      </trkpt>
      <trkpt lat="45.785829" lon="10.084813">
        <ele>203.126899</ele>
        <time>2021-01-28T17:17:38.924Z</time>
      </trkpt>
      <trkpt lat="45.785310" lon="10.083888">
        <ele>206.032837</ele>
        <time>2021-01-28T17:18:08.259Z</time>
      </trkpt>
      <trkpt lat="45.785037" lon="10.082848">
        <ele>212.290319</ele>
        <time>2021-01-28T17:18:43.593Z</time>
      </trkpt>
      <trkpt lat="45.784948" lon="10.082566">
        <ele>214.228963</ele>
        <time>2021-01-28T17:18:55.562Z</time>
      </trkpt>
      <trkpt lat="45.784946" lon="10.082489">
        <ele>214.711554</ele>
        <time>2021-01-28T17:18:59.022Z</time>
      </trkpt>
      <trkpt lat="45.784917" lon="10.082321">
        <ele>215.795508</ele>
        <time>2021-01-28T17:19:04.740Z</time>
      </trkpt>
      <trkpt lat="45.784737" lon="10.081925">
        <ele>218.756043</ele>
        <time>2021-01-28T17:19:23.097Z</time>
      </trkpt>
      <trkpt lat="45.784695" lon="10.081824">
        <ele>219.492547</ele>
        <time>2021-01-28T17:19:28.544Z</time>
      </trkpt>
      <trkpt lat="45.784139" lon="10.080976">
        <ele>227.754770</ele>
        <time>2021-01-28T17:20:21.547Z</time>
      </trkpt>
      <trkpt lat="45.783834" lon="10.080284">
        <ele>234.084558</ele>
        <time>2021-01-28T17:20:58.317Z</time>
      </trkpt>
      <trkpt lat="45.783735" lon="10.079793">
        <ele>238.036590</ele>
        <time>2021-01-28T17:21:20.384Z</time>
      </trkpt>
      <trkpt lat="45.783657" lon="10.079060">
        <ele>242.768145</ele>
        <time>2021-01-28T17:21:47.741Z</time>
      </trkpt>
      <trkpt lat="45.783669" lon="10.078803">
        <ele>243.082679</ele>
        <time>2021-01-28T17:21:55.922Z</time>
      </trkpt>
      <trkpt lat="45.783897" lon="10.077965">
        <ele>244.181112</ele>
        <time>2021-01-28T17:22:14.659Z</time>
      </trkpt>
      <trkpt lat="45.784102" lon="10.077773">
        <ele>244.609863</ele>
        <time>2021-01-28T17:22:17.999Z</time>
      </trkpt>
      <trkpt lat="45.784184" lon="10.077587">
        <ele>244.878572</ele>
        <time>2021-01-28T17:22:19.788Z</time>
      </trkpt>
      <trkpt lat="45.784471" lon="10.077222">
        <ele>245.550299</ele>
        <time>2021-01-28T17:22:23.657Z</time>
      </trkpt>
      <trkpt lat="45.784855" lon="10.075287">
        <ele>238.894858</ele>
        <time>2021-01-28T17:22:36.982Z</time>
      </trkpt>
      <trkpt lat="45.785058" lon="10.074766">
        <ele>236.707463</ele>
        <time>2021-01-28T17:22:40.723Z</time>
      </trkpt>
      <trkpt lat="45.785111" lon="10.074147">
        <ele>234.714315</ele>
        <time>2021-01-28T17:22:44.653Z</time>
      </trkpt>
      <trkpt lat="45.784927" lon="10.073584">
        <ele>232.794981</ele>
        <time>2021-01-28T17:22:48.618Z</time>
      </trkpt>
      <trkpt lat="45.783903" lon="10.072439">
        <ele>229.798539</ele>
        <time>2021-01-28T17:23:01.678Z</time>
      </trkpt>
      <trkpt lat="45.783619" lon="10.072404">
        <ele>231.275738</ele>
        <time>2021-01-28T17:23:06.299Z</time>
      </trkpt>
      <trkpt lat="45.782534" lon="10.072589">
        <ele>236.938148</ele>
        <time>2021-01-28T17:23:50.847Z</time>
      </trkpt>
      <trkpt lat="45.781785" lon="10.073430">
        <ele>250.984662</ele>
        <time>2021-01-28T17:25:05.227Z</time>
      </trkpt>
      <trkpt lat="45.781414" lon="10.073276">
        <ele>257.297538</ele>
        <time>2021-01-28T17:25:40.513Z</time>
      </trkpt>
      <trkpt lat="45.781043" lon="10.072948">
        <ele>264.421420</ele>
        <time>2021-01-28T17:26:20.669Z</time>
      </trkpt>
      <trkpt lat="45.779999" lon="10.072874">
        <ele>276.609234</ele>
        <time>2021-01-28T17:27:45.714Z</time>
      </trkpt>
      <trkpt lat="45.778241" lon="10.072609">
        <ele>285.722519</ele>
        <time>2021-01-28T17:28:45.940Z</time>
      </trkpt>
      <trkpt lat="45.777793" lon="10.072473">
        <ele>285.313958</ele>
        <time>2021-01-28T17:28:50.094Z</time>
      </trkpt>
      <trkpt lat="45.777474" lon="10.072291">
        <ele>285.007645</ele>
        <time>2021-01-28T17:28:53.156Z</time>
      </trkpt>
      <trkpt lat="45.776716" lon="10.071708">
        <ele>283.902196</ele>
        <time>2021-01-28T17:29:01.398Z</time>
      </trkpt>
      <trkpt lat="45.776449" lon="10.071397">
        <ele>283.433167</ele>
        <time>2021-01-28T17:29:05.226Z</time>
      </trkpt>
      <trkpt lat="45.776042" lon="10.070995">
        <ele>282.759316</ele>
        <time>2021-01-28T17:29:12.390Z</time>
      </trkpt>
      <trkpt lat="45.775855" lon="10.070731">
        <ele>282.493679</ele>
        <time>2021-01-28T17:29:21.051Z</time>
      </trkpt>
      <trkpt lat="45.775652" lon="10.070572">
        <ele>283.283638</ele>
        <time>2021-01-28T17:29:28.916Z</time>
      </trkpt>
      <trkpt lat="45.775084" lon="10.069506">
        <ele>286.478910</ele>
        <time>2021-01-28T17:30:06.771Z</time>
      </trkpt>
      <trkpt lat="45.774539" lon="10.069168">
        <ele>288.506783</ele>
        <time>2021-01-28T17:30:21.317Z</time>
      </trkpt>
      <trkpt lat="45.773929" lon="10.068949">
        <ele>283.310451</ele>
        <time>2021-01-28T17:30:27.541Z</time>
      </trkpt>
      <trkpt lat="45.773271" lon="10.068487">
        <ele>276.995411</ele>
        <time>2021-01-28T17:30:33.787Z</time>
      </trkpt>
      <trkpt lat="45.772855" lon="10.068188">
        <ele>272.940563</ele>
        <time>2021-01-28T17:30:37.685Z</time>
      </trkpt>
      <trkpt lat="45.772557" lon="10.067993">
        <ele>268.622314</ele>
        <time>2021-01-28T17:30:40.400Z</time>
      </trkpt>
      <trkpt lat="45.772327" lon="10.067919">
        <ele>265.514911</ele>
        <time>2021-01-28T17:30:42.350Z</time>
      </trkpt>
      <trkpt lat="45.772033" lon="10.068032">
        <ele>261.502372</ele>
        <time>2021-01-28T17:30:44.898Z</time>
      </trkpt>
      <trkpt lat="45.771301" lon="10.067922">
        <ele>251.799863</ele>
        <time>2021-01-28T17:30:51.090Z</time>
      </trkpt>
      <trkpt lat="45.771168" lon="10.067822">
        <ele>249.820087</ele>
        <time>2021-01-28T17:30:52.346Z</time>
      </trkpt>
      <trkpt lat="45.770738" lon="10.067860">
        <ele>244.502253</ele>
        <time>2021-01-28T17:30:56.092Z</time>
      </trkpt>
      <trkpt lat="45.769911" lon="10.068347">
        <ele>233.533084</ele>
        <time>2021-01-28T17:31:03.665Z</time>
      </trkpt>
      <trkpt lat="45.769681" lon="10.068441">
        <ele>230.598765</ele>
        <time>2021-01-28T17:31:05.668Z</time>
      </trkpt>
      <trkpt lat="45.769320" lon="10.068466">
        <ele>226.230957</ele>
        <time>2021-01-28T17:31:08.651Z</time>
      </trkpt>
      <trkpt lat="45.768847" lon="10.068723">
        <ele>220.391847</ele>
        <time>2021-01-28T17:31:12.917Z</time>
      </trkpt>
      <trkpt lat="45.768091" lon="10.068869">
        <ele>211.586090</ele>
        <time>2021-01-28T17:31:19.338Z</time>
      </trkpt>
      <trkpt lat="45.767901" lon="10.068966">
        <ele>209.257884</ele>
        <time>2021-01-28T17:31:21.018Z</time>
      </trkpt>
      <trkpt lat="45.767822" lon="10.069024">
        <ele>208.233305</ele>
        <time>2021-01-28T17:31:21.974Z</time>
      </trkpt>
      <trkpt lat="45.767453" lon="10.069658">
        <ele>206.711395</ele>
        <time>2021-01-28T17:31:27.134Z</time>
      </trkpt>
      <trkpt lat="45.766710" lon="10.070005">
        <ele>207.049460</ele>
        <time>2021-01-28T17:31:42.161Z</time>
      </trkpt>
      <trkpt lat="45.766417" lon="10.070158">
        <ele>207.184366</ele>
        <time>2021-01-28T17:31:56.721Z</time>
      </trkpt>
      <trkpt lat="45.766270" lon="10.070249">
        <ele>207.253637</ele>
        <time>2021-01-28T17:32:02.853Z</time>
      </trkpt>
      <trkpt lat="45.766120" lon="10.070810">
        <ele>208.682406</ele>
        <time>2021-01-28T17:32:19.431Z</time>
      </trkpt>
      <trkpt lat="45.765885" lon="10.071096">
        <ele>210.089315</ele>
        <time>2021-01-28T17:32:31.185Z</time>
      </trkpt>
      <trkpt lat="45.765804" lon="10.071564">
        <ele>211.624483</ele>
        <time>2021-01-28T17:32:43.472Z</time>
      </trkpt>
      <trkpt lat="45.765696" lon="10.071761">
        <ele>212.422187</ele>
        <time>2021-01-28T17:32:49.882Z</time>
      </trkpt>
      <trkpt lat="45.765606" lon="10.071888">
        <ele>212.998559</ele>
        <time>2021-01-28T17:32:53.622Z</time>
      </trkpt>
      <trkpt lat="45.765377" lon="10.071956">
        <ele>214.065881</ele>
        <time>2021-01-28T17:33:01.189Z</time>
      </trkpt>
      <trkpt lat="45.765135" lon="10.072278">
        <ele>215.494109</ele>
        <time>2021-01-28T17:33:10.252Z</time>
      </trkpt>
      <trkpt lat="45.765012" lon="10.072314">
        <ele>215.311126</ele>
        <time>2021-01-28T17:33:12.782Z</time>
      </trkpt>
      <trkpt lat="45.764847" lon="10.072522">
        <ele>214.990853</ele>
        <time>2021-01-28T17:33:17.577Z</time>
      </trkpt>
      <trkpt lat="45.763922" lon="10.073012">
        <ele>213.553456</ele>
        <time>2021-01-28T17:33:28.254Z</time>
      </trkpt>
      <trkpt lat="45.763569" lon="10.073029">
        <ele>213.038633</ele>
        <time>2021-01-28T17:33:31.710Z</time>
      </trkpt>
      <trkpt lat="45.763430" lon="10.073262">
        <ele>212.601299</ele>
        <time>2021-01-28T17:33:33.816Z</time>
      </trkpt>
      <trkpt lat="45.762928" lon="10.073562">
        <ele>211.203545</ele>
        <time>2021-01-28T17:33:39.207Z</time>
      </trkpt>
      <trkpt lat="45.762739" lon="10.073867">
        <ele>210.472141</ele>
        <time>2021-01-28T17:33:42.194Z</time>
      </trkpt>
      <trkpt lat="45.761879" lon="10.073911">
        <ele>208.265163</ele>
        <time>2021-01-28T17:33:51.576Z</time>
      </trkpt>
      <trkpt lat="45.761735" lon="10.073967">
        <ele>208.090769</ele>
        <time>2021-01-28T17:33:53.496Z</time>
      </trkpt>
      <trkpt lat="45.761632" lon="10.074046">
        <ele>207.954230</ele>
        <time>2021-01-28T17:33:54.820Z</time>
      </trkpt>
      <trkpt lat="45.761481" lon="10.074306">
        <ele>207.678373</ele>
        <time>2021-01-28T17:33:58.187Z</time>
      </trkpt>
      <trkpt lat="45.760908" lon="10.074621">
        <ele>206.961075</ele>
        <time>2021-01-28T17:34:06.097Z</time>
      </trkpt>
      <trkpt lat="45.760579" lon="10.074640">
        <ele>206.576222</ele>
        <time>2021-01-28T17:34:10.053Z</time>
      </trkpt>
      <trkpt lat="45.760355" lon="10.074916">
        <ele>206.230970</ele>
        <time>2021-01-28T17:34:13.536Z</time>
      </trkpt>
      <trkpt lat="45.760095" lon="10.075099">
        <ele>205.478476</ele>
        <time>2021-01-28T17:34:16.752Z</time>
      </trkpt>
      <trkpt lat="45.759382" lon="10.075474">
        <ele>203.251183</ele>
        <time>2021-01-28T17:34:24.857Z</time>
      </trkpt>
      <trkpt lat="45.758904" lon="10.075402">
        <ele>201.841663</ele>
        <time>2021-01-28T17:34:29.621Z</time>
      </trkpt>
      <trkpt lat="45.758801" lon="10.075455">
        <ele>201.520726</ele>
        <time>2021-01-28T17:34:30.608Z</time>
      </trkpt>
      <trkpt lat="45.758721" lon="10.075590">
        <ele>201.158321</ele>
        <time>2021-01-28T17:34:31.841Z</time>
      </trkpt>
      <trkpt lat="45.758608" lon="10.076045">
        <ele>200.086504</ele>
        <time>2021-01-28T17:34:35.072Z</time>
      </trkpt>
      <trkpt lat="45.758610" lon="10.076209">
        <ele>199.712011</ele>
        <time>2021-01-28T17:34:36.414Z</time>
      </trkpt>
      <trkpt lat="45.758576" lon="10.076475">
        <ele>199.094586</ele>
        <time>2021-01-28T17:34:38.179Z</time>
      </trkpt>
      <trkpt lat="45.758512" lon="10.076657">
        <ele>198.629256</ele>
        <time>2021-01-28T17:34:39.985Z</time>
      </trkpt>
      <trkpt lat="45.758402" lon="10.076879">
        <ele>198.007576</ele>
        <time>2021-01-28T17:34:41.764Z</time>
      </trkpt>
      <trkpt lat="45.758237" lon="10.077169">
        <ele>197.153205</ele>
        <time>2021-01-28T17:34:44.488Z</time>
      </trkpt>
      <trkpt lat="45.758041" lon="10.077383">
        <ele>196.346901</ele>
        <time>2021-01-28T17:34:47.272Z</time>
      </trkpt>
      <trkpt lat="45.757911" lon="10.077526">
        <ele>195.810635</ele>
        <time>2021-01-28T17:34:48.776Z</time>
      </trkpt>
      <trkpt lat="45.757873" lon="10.077573">
        <ele>195.646382</ele>
        <time>2021-01-28T17:34:49.904Z</time>
      </trkpt>
      <trkpt lat="45.757335" lon="10.078291">
        <ele>194.519032</ele>
        <time>2021-01-28T17:34:57.679Z</time>
      </trkpt>
      <trkpt lat="45.755435" lon="10.079703">
        <ele>193.119369</ele>
        <time>2021-01-28T17:35:28.607Z</time>
      </trkpt>
      <trkpt lat="45.755204" lon="10.079995">
        <ele>193.027431</ele>
        <time>2021-01-28T17:35:33.435Z</time>
      </trkpt>
      <trkpt lat="45.755075" lon="10.080179">
        <ele>192.973106</ele>
        <time>2021-01-28T17:35:36.702Z</time>
      </trkpt>
      <trkpt lat="45.754950" lon="10.080387">
        <ele>192.915933</ele>
        <time>2021-01-28T17:35:38.841Z</time>
      </trkpt>
      <trkpt lat="45.754822" lon="10.080510">
        <ele>192.869933</ele>
        <time>2021-01-28T17:35:41.504Z</time>
      </trkpt>
      <trkpt lat="45.754761" lon="10.080569">
        <ele>192.847967</ele>
        <time>2021-01-28T17:35:42.336Z</time>
      </trkpt>
      <trkpt lat="45.754703" lon="10.080639">
        <ele>192.741708</ele>
        <time>2021-01-28T17:35:43.143Z</time>
      </trkpt>
      <trkpt lat="45.754591" lon="10.080776">
        <ele>192.515098</ele>
        <time>2021-01-28T17:35:45.015Z</time>
      </trkpt>
      <trkpt lat="45.754361" lon="10.081125">
        <ele>191.999602</ele>
        <time>2021-01-28T17:35:48.841Z</time>
      </trkpt>
      <trkpt lat="45.754279" lon="10.081250">
        <ele>191.815367</ele>
        <time>2021-01-28T17:35:50.273Z</time>
      </trkpt>
      <trkpt lat="45.754131" lon="10.081424">
        <ele>191.520767</ele>
        <time>2021-01-28T17:35:52.336Z</time>
      </trkpt>
      <trkpt lat="45.754017" lon="10.081464">
        <ele>191.340141</ele>
        <time>2021-01-28T17:35:53.903Z</time>
      </trkpt>
      <trkpt lat="45.753922" lon="10.081501">
        <ele>191.188634</ele>
        <time>2021-01-28T17:35:54.968Z</time>
      </trkpt>
      <trkpt lat="45.753777" lon="10.081541">
        <ele>190.961385</ele>
        <time>2021-01-28T17:35:56.571Z</time>
      </trkpt>
      <trkpt lat="45.753473" lon="10.081826">
        <ele>190.402327</ele>
        <time>2021-01-28T17:36:00.628Z</time>
      </trkpt>
      <trkpt lat="45.753372" lon="10.081978">
        <ele>190.176933</ele>
        <time>2021-01-28T17:36:02.331Z</time>
      </trkpt>
      <trkpt lat="45.753049" lon="10.082466">
        <ele>189.759848</ele>
        <time>2021-01-28T17:36:07.329Z</time>
      </trkpt>
      <trkpt lat="45.752324" lon="10.083512">
        <ele>188.952590</ele>
        <time>2021-01-28T17:36:20.382Z</time>
      </trkpt>
      <trkpt lat="45.752077" lon="10.084077">
        <ele>188.770713</ele>
        <time>2021-01-28T17:36:28.112Z</time>
      </trkpt>
      <trkpt lat="45.752027" lon="10.084193">
        <ele>188.870417</ele>
        <time>2021-01-28T17:36:30.148Z</time>
      </trkpt>
      <trkpt lat="45.751957" lon="10.084376">
        <ele>189.023025</ele>
        <time>2021-01-28T17:36:32.812Z</time>
      </trkpt>
      <trkpt lat="45.751859" lon="10.084535">
        <ele>189.178158</ele>
        <time>2021-01-28T17:36:35.356Z</time>
      </trkpt>
      <trkpt lat="45.751281" lon="10.084930">
        <ele>189.849238</ele>
        <time>2021-01-28T17:36:47.404Z</time>
      </trkpt>
      <trkpt lat="45.749884" lon="10.086405">
        <ele>192.627928</ele>
        <time>2021-01-28T17:37:23.599Z</time>
      </trkpt>
      <trkpt lat="45.749834" lon="10.086585">
        <ele>192.891417</ele>
        <time>2021-01-28T17:37:27.012Z</time>
      </trkpt>
      <trkpt lat="45.749775" lon="10.086645">
        <ele>193.032423</ele>
        <time>2021-01-28T17:37:28.677Z</time>
      </trkpt>
      <trkpt lat="45.749039" lon="10.087368">
        <ele>195.358957</ele>
        <time>2021-01-28T17:37:56.111Z</time>
      </trkpt>
      <trkpt lat="45.748266" lon="10.088076">
        <ele>198.615832</ele>
        <time>2021-01-28T17:38:27.325Z</time>
      </trkpt>
      <trkpt lat="45.747943" lon="10.088288">
        <ele>199.877077</ele>
        <time>2021-01-28T17:38:40.127Z</time>
      </trkpt>
      <trkpt lat="45.746771" lon="10.088806">
        <ele>207.032839</ele>
        <time>2021-01-28T17:39:28.961Z</time>
      </trkpt>
      <trkpt lat="45.744909" lon="10.089768">
        <ele>219.314548</ele>
        <time>2021-01-28T17:41:14.344Z</time>
      </trkpt>
      <trkpt lat="45.743916" lon="10.090221">
        <ele>220.730748</ele>
        <time>2021-01-28T17:41:45.689Z</time>
      </trkpt>
      <trkpt lat="45.743807" lon="10.090271">
        <ele>220.262691</ele>
        <time>2021-01-28T17:41:47.803Z</time>
      </trkpt>
      <trkpt lat="45.743273" lon="10.090470">
        <ele>218.006166</ele>
        <time>2021-01-28T17:41:55.427Z</time>
      </trkpt>
      <trkpt lat="45.742710" lon="10.090691">
        <ele>215.618854</ele>
        <time>2021-01-28T17:42:02.698Z</time>
      </trkpt>
      <trkpt lat="45.742628" lon="10.090727">
        <ele>215.123263</ele>
        <time>2021-01-28T17:42:03.430Z</time>
      </trkpt>
      <trkpt lat="45.742289" lon="10.090923">
        <ele>211.774843</ele>
        <time>2021-01-28T17:42:06.507Z</time>
      </trkpt>
      <trkpt lat="45.741932" lon="10.091305">
        <ele>207.693629</ele>
        <time>2021-01-28T17:42:10.274Z</time>
      </trkpt>
      <trkpt lat="45.741738" lon="10.091583">
        <ele>205.180479</ele>
        <time>2021-01-28T17:42:12.635Z</time>
      </trkpt>
      <trkpt lat="45.741652" lon="10.091681">
        <ele>204.173997</ele>
        <time>2021-01-28T17:42:13.595Z</time>
      </trkpt>
      <trkpt lat="45.741526" lon="10.091822">
        <ele>202.709598</ele>
        <time>2021-01-28T17:42:15.575Z</time>
      </trkpt>
      <trkpt lat="45.741417" lon="10.091890">
        <ele>201.620653</ele>
        <time>2021-01-28T17:42:17.152Z</time>
      </trkpt>
      <trkpt lat="45.741265" lon="10.091938">
        <ele>200.194952</ele>
        <time>2021-01-28T17:42:19.133Z</time>
      </trkpt>
      <trkpt lat="45.741128" lon="10.091932">
        <ele>198.939474</ele>
        <time>2021-01-28T17:42:20.992Z</time>
      </trkpt>
      <trkpt lat="45.740954" lon="10.091912">
        <ele>198.641931</ele>
        <time>2021-01-28T17:42:23.362Z</time>
      </trkpt>
      <trkpt lat="45.740651" lon="10.091866">
        <ele>198.165600</ele>
        <time>2021-01-28T17:42:27.694Z</time>
      </trkpt>
      <trkpt lat="45.740490" lon="10.091847">
        <ele>197.913056</ele>
        <time>2021-01-28T17:42:30.030Z</time>
      </trkpt>
      <trkpt lat="45.740422" lon="10.091840">
        <ele>197.806478</ele>
        <time>2021-01-28T17:42:31.179Z</time>
      </trkpt>
      <trkpt lat="45.740365" lon="10.091833">
        <ele>197.717043</ele>
        <time>2021-01-28T17:42:32.185Z</time>
      </trkpt>
      <trkpt lat="45.740306" lon="10.091827">
        <ele>197.624576</ele>
        <time>2021-01-28T17:42:33.237Z</time>
      </trkpt>
      <trkpt lat="45.740286" lon="10.091824">
        <ele>197.593139</ele>
        <time>2021-01-28T17:42:33.543Z</time>
      </trkpt>
      <trkpt lat="45.740189" lon="10.091816">
        <ele>197.441248</ele>
        <time>2021-01-28T17:42:35.028Z</time>
      </trkpt>
      <trkpt lat="45.740012" lon="10.091805">
        <ele>197.164284</ele>
        <time>2021-01-28T17:42:37.834Z</time>
      </trkpt>
      <trkpt lat="45.739955" lon="10.091805">
        <ele>197.075176</ele>
        <time>2021-01-28T17:42:38.768Z</time>
      </trkpt>
      <trkpt lat="45.739246" lon="10.092243">
        <ele>196.268532</ele>
        <time>2021-01-28T17:42:53.651Z</time>
      </trkpt>
      <trkpt lat="45.739147" lon="10.092288">
        <ele>196.389095</ele>
        <time>2021-01-28T17:42:55.950Z</time>
      </trkpt>
      <trkpt lat="45.739076" lon="10.092308">
        <ele>196.473089</ele>
        <time>2021-01-28T17:42:57.273Z</time>
      </trkpt>
      <trkpt lat="45.739050" lon="10.092317">
        <ele>196.504138</ele>
        <time>2021-01-28T17:42:57.792Z</time>
      </trkpt>
      <trkpt lat="45.739022" lon="10.092326">
        <ele>196.537448</ele>
        <time>2021-01-28T17:42:58.256Z</time>
      </trkpt>
      <trkpt lat="45.738935" lon="10.092348">
        <ele>196.639998</ele>
        <time>2021-01-28T17:43:00.317Z</time>
      </trkpt>
      <trkpt lat="45.738846" lon="10.092359">
        <ele>196.743693</ele>
        <time>2021-01-28T17:43:02.038Z</time>
      </trkpt>
      <trkpt lat="45.738809" lon="10.092359">
        <ele>196.786643</ele>
        <time>2021-01-28T17:43:02.854Z</time>
      </trkpt>
      <trkpt lat="45.738670" lon="10.092349">
        <ele>196.948197</ele>
        <time>2021-01-28T17:43:05.473Z</time>
      </trkpt>
      <trkpt lat="45.738301" lon="10.092304">
        <ele>197.378080</ele>
        <time>2021-01-28T17:43:13.627Z</time>
      </trkpt>
      <trkpt lat="45.738034" lon="10.092267">
        <ele>197.689460</ele>
        <time>2021-01-28T17:43:19.261Z</time>
      </trkpt>
      <trkpt lat="45.737944" lon="10.092256">
        <ele>197.794311</ele>
        <time>2021-01-28T17:43:20.781Z</time>
      </trkpt>
      <trkpt lat="45.737832" lon="10.092239">
        <ele>197.925048</ele>
        <time>2021-01-28T17:43:23.191Z</time>
      </trkpt>
      <trkpt lat="45.737308" lon="10.092159">
        <ele>197.948821</ele>
        <time>2021-01-28T17:43:31.789Z</time>
      </trkpt>
      <trkpt lat="45.737017" lon="10.092109">
        <ele>197.719112</ele>
        <time>2021-01-28T17:43:35.784Z</time>
      </trkpt>
      <trkpt lat="45.736618" lon="10.092065">
        <ele>197.405466</ele>
        <time>2021-01-28T17:43:40.886Z</time>
      </trkpt>
      <trkpt lat="45.736280" lon="10.091998">
        <ele>197.138031</ele>
        <time>2021-01-28T17:43:45.177Z</time>
      </trkpt>
      <trkpt lat="45.736220" lon="10.091986">
        <ele>197.090549</ele>
        <time>2021-01-28T17:43:45.877Z</time>
      </trkpt>
      <trkpt lat="45.736180" lon="10.091978">
        <ele>197.058895</ele>
        <time>2021-01-28T17:43:46.312Z</time>
      </trkpt>
      <trkpt lat="45.736102" lon="10.091963">
        <ele>196.997213</ele>
        <time>2021-01-28T17:43:47.138Z</time>
      </trkpt>
      <trkpt lat="45.735845" lon="10.091907">
        <ele>196.793470</ele>
        <time>2021-01-28T17:43:50.105Z</time>
      </trkpt>
      <trkpt lat="45.735780" lon="10.091893">
        <ele>196.695778</ele>
        <time>2021-01-28T17:43:50.756Z</time>
      </trkpt>
      <trkpt lat="45.735177" lon="10.091831">
        <ele>195.580829</ele>
        <time>2021-01-28T17:43:57.266Z</time>
      </trkpt>
      <trkpt lat="45.734782" lon="10.091884">
        <ele>194.849159</ele>
        <time>2021-01-28T17:44:01.537Z</time>
      </trkpt>
      <trkpt lat="45.734584" lon="10.091931">
        <ele>194.479017</ele>
        <time>2021-01-28T17:44:03.681Z</time>
      </trkpt>
      <trkpt lat="45.734314" lon="10.092028">
        <ele>193.965651</ele>
        <time>2021-01-28T17:44:06.772Z</time>
      </trkpt>
      <trkpt lat="45.733919" lon="10.092230">
        <ele>193.402587</ele>
        <time>2021-01-28T17:44:11.799Z</time>
      </trkpt>
      <trkpt lat="45.732947" lon="10.092897">
        <ele>192.982895</ele>
        <time>2021-01-28T17:44:26.117Z</time>
      </trkpt>
      <trkpt lat="45.732660" lon="10.093086">
        <ele>192.859891</ele>
        <time>2021-01-28T17:44:31.223Z</time>
      </trkpt>
      <trkpt lat="45.732243" lon="10.093370">
        <ele>192.763125</ele>
        <time>2021-01-28T17:44:38.546Z</time>
      </trkpt>
      <trkpt lat="45.731966" lon="10.093560">
        <ele>192.770190</ele>
        <time>2021-01-28T17:44:43.484Z</time>
      </trkpt>
      <trkpt lat="45.731694" lon="10.093743">
        <ele>192.777103</ele>
        <time>2021-01-28T17:44:48.386Z</time>
      </trkpt>
      <trkpt lat="45.731310" lon="10.094005">
        <ele>192.786887</ele>
        <time>2021-01-28T17:44:55.175Z</time>
      </trkpt>
      <trkpt lat="45.729471" lon="10.095250">
        <ele>191.592695</ele>
        <time>2021-01-28T17:45:22.200Z</time>
      </trkpt>
      <trkpt lat="45.729135" lon="10.095560">
        <ele>191.170464</ele>
        <time>2021-01-28T17:45:26.647Z</time>
      </trkpt>
      <trkpt lat="45.729069" lon="10.095621">
        <ele>191.001493</ele>
        <time>2021-01-28T17:45:27.500Z</time>
      </trkpt>
      <trkpt lat="45.728962" lon="10.095730">
        <ele>190.719040</ele>
        <time>2021-01-28T17:45:29.028Z</time>
      </trkpt>
      <trkpt lat="45.728889" lon="10.095805">
        <ele>190.525783</ele>
        <time>2021-01-28T17:45:29.951Z</time>
      </trkpt>
      <trkpt lat="45.728775" lon="10.095936">
        <ele>190.211384</ele>
        <time>2021-01-28T17:45:31.536Z</time>
      </trkpt>
      <trkpt lat="45.728481" lon="10.096278">
        <ele>189.396641</ele>
        <time>2021-01-28T17:45:35.641Z</time>
      </trkpt>
      <trkpt lat="45.728074" lon="10.096601">
        <ele>188.395684</ele>
        <time>2021-01-28T17:45:40.576Z</time>
      </trkpt>
      <trkpt lat="45.727982" lon="10.096684">
        <ele>188.161786</ele>
        <time>2021-01-28T17:45:41.637Z</time>
      </trkpt>
      <trkpt lat="45.727876" lon="10.096800">
        <ele>187.874824</ele>
        <time>2021-01-28T17:45:43.119Z</time>
      </trkpt>
      <trkpt lat="45.727359" lon="10.097514">
        <ele>186.591672</ele>
        <time>2021-01-28T17:45:50.962Z</time>
      </trkpt>
      <trkpt lat="45.727263" lon="10.097656">
        <ele>186.363996</ele>
        <time>2021-01-28T17:45:52.525Z</time>
      </trkpt>
      <trkpt lat="45.727192" lon="10.097775">
        <ele>186.183697</ele>
        <time>2021-01-28T17:45:53.670Z</time>
      </trkpt>
      <trkpt lat="45.727089" lon="10.097958">
        <ele>185.912949</ele>
        <time>2021-01-28T17:45:55.721Z</time>
      </trkpt>
      <trkpt lat="45.726663" lon="10.098965">
        <ele>184.556773</ele>
        <time>2021-01-28T17:46:05.078Z</time>
      </trkpt>
      <trkpt lat="45.726596" lon="10.099195">
        <ele>184.546599</ele>
        <time>2021-01-28T17:46:07.253Z</time>
      </trkpt>
      <trkpt lat="45.726431" lon="10.099805">
        <ele>184.760191</ele>
        <time>2021-01-28T17:46:13.262Z</time>
      </trkpt>
      <trkpt lat="45.726185" lon="10.100788">
        <ele>185.101138</ele>
        <time>2021-01-28T17:46:26.322Z</time>
      </trkpt>
      <trkpt lat="45.726086" lon="10.101216">
        <ele>185.248351</ele>
        <time>2021-01-28T17:46:32.431Z</time>
      </trkpt>
      <trkpt lat="45.726002" lon="10.101589">
        <ele>185.604467</ele>
        <time>2021-01-28T17:46:38.414Z</time>
      </trkpt>
      <trkpt lat="45.725956" lon="10.101833">
        <ele>186.066301</ele>
        <time>2021-01-28T17:46:42.267Z</time>
      </trkpt>
      <trkpt lat="45.725938" lon="10.101946">
        <ele>186.278093</ele>
        <time>2021-01-28T17:46:44.515Z</time>
      </trkpt>
      <trkpt lat="45.725906" lon="10.102248">
        <ele>186.836259</ele>
        <time>2021-01-28T17:46:50.144Z</time>
      </trkpt>
      <trkpt lat="45.725894" lon="10.102377">
        <ele>187.074065</ele>
        <time>2021-01-28T17:46:52.659Z</time>
      </trkpt>
      <trkpt lat="45.725887" lon="10.102472">
        <ele>187.248623</ele>
        <time>2021-01-28T17:46:54.686Z</time>
      </trkpt>
      <trkpt lat="45.725863" lon="10.102819">
        <ele>187.885801</ele>
        <time>2021-01-28T17:47:01.333Z</time>
      </trkpt>
      <trkpt lat="45.725796" lon="10.103411">
        <ele>188.981690</ele>
        <time>2021-01-28T17:47:13.100Z</time>
      </trkpt>
      <trkpt lat="45.725753" lon="10.103609">
        <ele>189.360600</ele>
        <time>2021-01-28T17:47:17.319Z</time>
      </trkpt>
      <trkpt lat="45.725737" lon="10.103677">
        <ele>189.491725</ele>
        <time>2021-01-28T17:47:18.605Z</time>
      </trkpt>
      <trkpt lat="45.725666" lon="10.103856">
        <ele>189.867925</ele>
        <time>2021-01-28T17:47:22.004Z</time>
      </trkpt>
      <trkpt lat="45.725645" lon="10.103916">
        <ele>189.990571</ele>
        <time>2021-01-28T17:47:23.292Z</time>
      </trkpt>
      <trkpt lat="45.725607" lon="10.103957">
        <ele>190.053829</ele>
        <time>2021-01-28T17:47:24.524Z</time>
      </trkpt>
      <trkpt lat="45.725582" lon="10.104015">
        <ele>190.083403</ele>
        <time>2021-01-28T17:47:25.606Z</time>
      </trkpt>
      <trkpt lat="45.725574" lon="10.104081">
        <ele>190.112466</ele>
        <time>2021-01-28T17:47:26.808Z</time>
      </trkpt>
      <trkpt lat="45.725512" lon="10.104213">
        <ele>190.181491</ele>
        <time>2021-01-28T17:47:29.128Z</time>
      </trkpt>
      <trkpt lat="45.725472" lon="10.104298">
        <ele>190.225966</ele>
        <time>2021-01-28T17:47:30.591Z</time>
      </trkpt>
      <trkpt lat="45.725338" lon="10.104442">
        <ele>190.330075</ele>
        <time>2021-01-28T17:47:35.424Z</time>
      </trkpt>
      <trkpt lat="45.725257" lon="10.104524">
        <ele>190.391718</ele>
        <time>2021-01-28T17:47:37.933Z</time>
      </trkpt>
      <trkpt lat="45.724748" lon="10.105000">
        <ele>190.769499</ele>
        <time>2021-01-28T17:47:52.283Z</time>
      </trkpt>
      <trkpt lat="45.724284" lon="10.105447">
        <ele>191.117018</ele>
        <time>2021-01-28T17:48:02.433Z</time>
      </trkpt>
      <trkpt lat="45.724176" lon="10.105550">
        <ele>191.055301</ele>
        <time>2021-01-28T17:48:04.506Z</time>
      </trkpt>
      <trkpt lat="45.724051" lon="10.105672">
        <ele>190.852377</ele>
        <time>2021-01-28T17:48:06.937Z</time>
      </trkpt>
      <trkpt lat="45.723639" lon="10.106069">
        <ele>190.186222</ele>
        <time>2021-01-28T17:48:14.860Z</time>
      </trkpt>
      <trkpt lat="45.723410" lon="10.106297">
        <ele>189.812077</ele>
        <time>2021-01-28T17:48:19.400Z</time>
      </trkpt>
      <trkpt lat="45.723035" lon="10.106675">
        <ele>189.196903</ele>
        <time>2021-01-28T17:48:27.078Z</time>
      </trkpt>
      <trkpt lat="45.722574" lon="10.107133">
        <ele>188.731217</ele>
        <time>2021-01-28T17:48:36.869Z</time>
      </trkpt>
      <trkpt lat="45.722142" lon="10.107666">
        <ele>188.709591</ele>
        <time>2021-01-28T17:48:46.905Z</time>
      </trkpt>
      <trkpt lat="45.721747" lon="10.108284">
        <ele>188.687404</ele>
        <time>2021-01-28T17:48:59.587Z</time>
      </trkpt>
      <trkpt lat="45.721572" lon="10.108480">
        <ele>188.678978</ele>
        <time>2021-01-28T17:49:05.042Z</time>
      </trkpt>
      <trkpt lat="45.721459" lon="10.108556">
        <ele>188.674243</ele>
        <time>2021-01-28T17:49:07.733Z</time>
      </trkpt>
      <trkpt lat="45.721361" lon="10.108623">
        <ele>188.713649</ele>
        <time>2021-01-28T17:49:10.124Z</time>
      </trkpt>
      <trkpt lat="45.721259" lon="10.108691">
        <ele>188.861498</ele>
        <time>2021-01-28T17:49:13.357Z</time>
      </trkpt>
      <trkpt lat="45.721011" lon="10.108844">
        <ele>189.216349</ele>
        <time>2021-01-28T17:49:19.784Z</time>
      </trkpt>
      <trkpt lat="45.720937" lon="10.108890">
        <ele>189.322358</ele>
        <time>2021-01-28T17:49:22.314Z</time>
      </trkpt>
      <trkpt lat="45.720687" lon="10.109129">
        <ele>189.717348</ele>
        <time>2021-01-28T17:49:29.642Z</time>
      </trkpt>
      <trkpt lat="45.720360" lon="10.109581">
        <ele>190.314539</ele>
        <time>2021-01-28T17:49:41.356Z</time>
      </trkpt>
      <trkpt lat="45.720058" lon="10.109722">
        <ele>190.731961</ele>
        <time>2021-01-28T17:49:49.521Z</time>
      </trkpt>
      <trkpt lat="45.719825" lon="10.109768">
        <ele>191.040640</ele>
        <time>2021-01-28T17:49:55.742Z</time>
      </trkpt>
      <trkpt lat="45.719203" lon="10.109917">
        <ele>191.813149</ele>
        <time>2021-01-28T17:50:09.502Z</time>
      </trkpt>
      <trkpt lat="45.718945" lon="10.110021">
        <ele>192.141466</ele>
        <time>2021-01-28T17:50:14.829Z</time>
      </trkpt>
      <trkpt lat="45.718884" lon="10.110048">
        <ele>192.219676</ele>
        <time>2021-01-28T17:50:16.151Z</time>
      </trkpt>
      <trkpt lat="45.718731" lon="10.110128">
        <ele>192.419193</ele>
        <time>2021-01-28T17:50:19.243Z</time>
      </trkpt>
      <trkpt lat="45.718573" lon="10.110207">
        <ele>192.624191</ele>
        <time>2021-01-28T17:50:22.470Z</time>
      </trkpt>
      <trkpt lat="45.718059" lon="10.110504">
        <ele>193.236295</ele>
        <time>2021-01-28T17:50:32.520Z</time>
      </trkpt>
      <trkpt lat="45.717864" lon="10.110531">
        <ele>193.228955</ele>
        <time>2021-01-28T17:50:36.270Z</time>
      </trkpt>
      <trkpt lat="45.717664" lon="10.110508">
        <ele>193.221436</ele>
        <time>2021-01-28T17:50:39.699Z</time>
      </trkpt>
      <trkpt lat="45.717554" lon="10.110488">
        <ele>193.217281</ele>
        <time>2021-01-28T17:50:41.697Z</time>
      </trkpt>
      <trkpt lat="45.717405" lon="10.110460">
        <ele>193.211650</ele>
        <time>2021-01-28T17:50:44.183Z</time>
      </trkpt>
      <trkpt lat="45.717332" lon="10.110445">
        <ele>193.208887</ele>
        <time>2021-01-28T17:50:45.132Z</time>
      </trkpt>
      <trkpt lat="45.717101" lon="10.110396">
        <ele>193.200137</ele>
        <time>2021-01-28T17:50:48.559Z</time>
      </trkpt>
      <trkpt lat="45.716548" lon="10.110117">
        <ele>193.178168</ele>
        <time>2021-01-28T17:50:55.965Z</time>
      </trkpt>
      <trkpt lat="45.716452" lon="10.110097">
        <ele>193.174533</ele>
        <time>2021-01-28T17:50:57.237Z</time>
      </trkpt>
      <trkpt lat="45.716343" lon="10.110074">
        <ele>193.164801</ele>
        <time>2021-01-28T17:50:58.623Z</time>
      </trkpt>
      <trkpt lat="45.716130" lon="10.110067">
        <ele>193.063335</ele>
        <time>2021-01-28T17:51:01.290Z</time>
      </trkpt>
      <trkpt lat="45.716053" lon="10.110064">
        <ele>193.026651</ele>
        <time>2021-01-28T17:51:02.333Z</time>
      </trkpt>
      <trkpt lat="45.715796" lon="10.110093">
        <ele>192.903878</ele>
        <time>2021-01-28T17:51:05.798Z</time>
      </trkpt>
      <trkpt lat="45.715744" lon="10.110098">
        <ele>192.879058</ele>
        <time>2021-01-28T17:51:06.540Z</time>
      </trkpt>
      <trkpt lat="45.714934" lon="10.110293">
        <ele>192.487892</ele>
        <time>2021-01-28T17:51:17.835Z</time>
      </trkpt>
      <trkpt lat="45.714724" lon="10.110355">
        <ele>192.385779</ele>
        <time>2021-01-28T17:51:20.512Z</time>
      </trkpt>
      <trkpt lat="45.714461" lon="10.110429">
        <ele>192.281240</ele>
        <time>2021-01-28T17:51:23.867Z</time>
      </trkpt>
      <trkpt lat="45.714424" lon="10.110443">
        <ele>192.270512</ele>
        <time>2021-01-28T17:51:24.359Z</time>
      </trkpt>
      <trkpt lat="45.714357" lon="10.110462">
        <ele>192.251367</ele>
        <time>2021-01-28T17:51:25.205Z</time>
      </trkpt>
      <trkpt lat="45.714311" lon="10.110466">
        <ele>192.238449</ele>
        <time>2021-01-28T17:51:25.783Z</time>
      </trkpt>
      <trkpt lat="45.714261" lon="10.110467">
        <ele>192.224432</ele>
        <time>2021-01-28T17:51:26.653Z</time>
      </trkpt>
      <trkpt lat="45.714169" lon="10.110462">
        <ele>192.198625</ele>
        <time>2021-01-28T17:51:27.942Z</time>
      </trkpt>
      <trkpt lat="45.713921" lon="10.110408">
        <ele>192.128309</ele>
        <time>2021-01-28T17:51:31.698Z</time>
      </trkpt>
      <trkpt lat="45.713567" lon="10.110249">
        <ele>192.024313</ele>
        <time>2021-01-28T17:51:37.185Z</time>
      </trkpt>
      <trkpt lat="45.713264" lon="10.110090">
        <ele>191.933857</ele>
        <time>2021-01-28T17:51:41.834Z</time>
      </trkpt>
      <trkpt lat="45.711982" lon="10.109664">
        <ele>191.481994</ele>
        <time>2021-01-28T17:51:59.691Z</time>
      </trkpt>
      <trkpt lat="45.711625" lon="10.109692">
        <ele>191.347860</ele>
        <time>2021-01-28T17:52:04.414Z</time>
      </trkpt>
      <trkpt lat="45.711531" lon="10.109695">
        <ele>191.312586</ele>
        <time>2021-01-28T17:52:05.946Z</time>
      </trkpt>
      <trkpt lat="45.711249" lon="10.109682">
        <ele>191.206736</ele>
        <time>2021-01-28T17:52:09.615Z</time>
      </trkpt>
      <trkpt lat="45.710781" lon="10.109666">
        <ele>191.004085</ele>
        <time>2021-01-28T17:52:16.154Z</time>
      </trkpt>
      <trkpt lat="45.710781" lon="10.109587">
        <ele>190.978023</ele>
        <time>2021-01-28T17:52:16.771Z</time>
      </trkpt>
      <trkpt lat="45.710567" lon="10.109577">
        <ele>190.876868</ele>
        <time>2021-01-28T17:52:19.759Z</time>
      </trkpt>
      <trkpt lat="45.709600" lon="10.109657">
        <ele>190.419259</ele>
        <time>2021-01-28T17:52:32.522Z</time>
      </trkpt>
      <trkpt lat="45.708451" lon="10.109613">
        <ele>190.147877</ele>
        <time>2021-01-28T17:52:47.941Z</time>
      </trkpt>
      <trkpt lat="45.707725" lon="10.109419">
        <ele>190.030500</ele>
        <time>2021-01-28T17:52:58.589Z</time>
      </trkpt>
      <trkpt lat="45.706666" lon="10.108988">
        <ele>190.800550</ele>
        <time>2021-01-28T17:53:16.956Z</time>
      </trkpt>
      <trkpt lat="45.706481" lon="10.108924">
        <ele>190.968537</ele>
        <time>2021-01-28T17:53:20.814Z</time>
      </trkpt>
      <trkpt lat="45.706383" lon="10.108888">
        <ele>191.057837</ele>
        <time>2021-01-28T17:53:22.921Z</time>
      </trkpt>
      <trkpt lat="45.706266" lon="10.108846">
        <ele>191.164302</ele>
        <time>2021-01-28T17:53:25.153Z</time>
      </trkpt>
      <trkpt lat="45.706066" lon="10.108751">
        <ele>191.350290</ele>
        <time>2021-01-28T17:53:30.120Z</time>
      </trkpt>
      <trkpt lat="45.705302" lon="10.108320">
        <ele>192.040618</ele>
        <time>2021-01-28T17:53:46.188Z</time>
      </trkpt>
      <trkpt lat="45.705145" lon="10.108260">
        <ele>192.173912</ele>
        <time>2021-01-28T17:53:49.107Z</time>
      </trkpt>
      <trkpt lat="45.705090" lon="10.108239">
        <ele>192.220605</ele>
        <time>2021-01-28T17:53:50.828Z</time>
      </trkpt>
      <trkpt lat="45.704803" lon="10.108179">
        <ele>192.458525</ele>
        <time>2021-01-28T17:53:55.568Z</time>
      </trkpt>
      <trkpt lat="45.704663" lon="10.108171">
        <ele>192.573458</ele>
        <time>2021-01-28T17:53:58.756Z</time>
      </trkpt>
      <trkpt lat="45.704550" lon="10.108165">
        <ele>192.666215</ele>
        <time>2021-01-28T17:54:00.150Z</time>
      </trkpt>
      <trkpt lat="45.702067" lon="10.108273">
        <ele>194.143707</ele>
        <time>2021-01-28T17:54:39.893Z</time>
      </trkpt>
      <trkpt lat="45.701969" lon="10.108347">
        <ele>194.329083</ele>
        <time>2021-01-28T17:54:42.148Z</time>
      </trkpt>
      <trkpt lat="45.701638" lon="10.108318">
        <ele>194.883946</ele>
        <time>2021-01-28T17:54:49.391Z</time>
      </trkpt>
      <trkpt lat="45.701494" lon="10.108306">
        <ele>195.125294</ele>
        <time>2021-01-28T17:54:52.520Z</time>
      </trkpt>
      <trkpt lat="45.701318" lon="10.108271">
        <ele>195.422603</ele>
        <time>2021-01-28T17:54:56.831Z</time>
      </trkpt>
      <trkpt lat="45.701103" lon="10.108216">
        <ele>195.788035</ele>
        <time>2021-01-28T17:55:01.531Z</time>
      </trkpt>
      <trkpt lat="45.700967" lon="10.108161">
        <ele>196.024492</ele>
        <time>2021-01-28T17:55:05.180Z</time>
      </trkpt>
      <trkpt lat="45.699952" lon="10.107795">
        <ele>197.153961</ele>
        <time>2021-01-28T17:55:30.025Z</time>
      </trkpt>
      <trkpt lat="45.698546" lon="10.106821">
        <ele>197.684132</ele>
        <time>2021-01-28T17:55:52.232Z</time>
      </trkpt>
      <trkpt lat="45.698333" lon="10.106617">
        <ele>197.537896</ele>
        <time>2021-01-28T17:55:55.244Z</time>
      </trkpt>
      <trkpt lat="45.698059" lon="10.106385">
        <ele>197.356242</ele>
        <time>2021-01-28T17:55:59.075Z</time>
      </trkpt>
      <trkpt lat="45.697381" lon="10.105750">
        <ele>196.893912</ele>
        <time>2021-01-28T17:56:09.822Z</time>
      </trkpt>
      <trkpt lat="45.697006" lon="10.105293">
        <ele>197.064691</ele>
        <time>2021-01-28T17:56:16.586Z</time>
      </trkpt>
      <trkpt lat="45.696739" lon="10.105020">
        <ele>197.233690</ele>
        <time>2021-01-28T17:56:22.104Z</time>
      </trkpt>
      <trkpt lat="45.696690" lon="10.104972">
        <ele>197.264272</ele>
        <time>2021-01-28T17:56:23.154Z</time>
      </trkpt>
      <trkpt lat="45.696468" lon="10.104787">
        <ele>197.396582</ele>
        <time>2021-01-28T17:56:27.876Z</time>
      </trkpt>
      <trkpt lat="45.695900" lon="10.104279">
        <ele>197.741547</ele>
        <time>2021-01-28T17:56:40.200Z</time>
      </trkpt>
      <trkpt lat="45.695455" lon="10.104029">
        <ele>197.936115</ele>
        <time>2021-01-28T17:56:49.232Z</time>
      </trkpt>
      <trkpt lat="45.694919" lon="10.103826">
        <ele>198.151764</ele>
        <time>2021-01-28T17:56:59.148Z</time>
      </trkpt>
      <trkpt lat="45.694202" lon="10.103697">
        <ele>198.432834</ele>
        <time>2021-01-28T17:57:10.103Z</time>
      </trkpt>
      <trkpt lat="45.693977" lon="10.103661">
        <ele>198.374475</ele>
        <time>2021-01-28T17:57:13.203Z</time>
      </trkpt>
      <trkpt lat="45.693889" lon="10.103647">
        <ele>198.295586</ele>
        <time>2021-01-28T17:57:14.484Z</time>
      </trkpt>
      <trkpt lat="45.693234" lon="10.103539">
        <ele>197.708129</ele>
        <time>2021-01-28T17:57:22.751Z</time>
      </trkpt>
      <trkpt lat="45.692798" lon="10.103439">
        <ele>197.314703</ele>
        <time>2021-01-28T17:57:27.996Z</time>
      </trkpt>
      <trkpt lat="45.692446" lon="10.103184">
        <ele>196.963207</ele>
        <time>2021-01-28T17:57:32.505Z</time>
      </trkpt>
      <trkpt lat="45.692306" lon="10.103000">
        <ele>197.041758</ele>
        <time>2021-01-28T17:57:34.588Z</time>
      </trkpt>
      <trkpt lat="45.692161" lon="10.102762">
        <ele>197.454605</ele>
        <time>2021-01-28T17:57:36.939Z</time>
      </trkpt>
      <trkpt lat="45.691444" lon="10.101108">
        <ele>199.999382</ele>
        <time>2021-01-28T17:58:05.812Z</time>
      </trkpt>
      <trkpt lat="45.691349" lon="10.100974">
        <ele>200.289205</ele>
        <time>2021-01-28T17:58:10.099Z</time>
      </trkpt>
      <trkpt lat="45.691305" lon="10.101001">
        <ele>200.780025</ele>
        <time>2021-01-28T17:58:14.417Z</time>
      </trkpt>
      <trkpt lat="45.691054" lon="10.101416">
        <ele>204.711495</ele>
        <time>2021-01-28T17:58:42.226Z</time>
      </trkpt>
      <trkpt lat="45.690625" lon="10.101872">
        <ele>210.189818</ele>
        <time>2021-01-28T17:59:22.120Z</time>
      </trkpt>
      <trkpt lat="45.690593" lon="10.101905">
        <ele>210.594171</ele>
        <time>2021-01-28T17:59:26.543Z</time>
      </trkpt>
      <trkpt lat="45.690529" lon="10.101968">
        <ele>211.390509</ele>
        <time>2021-01-28T17:59:32.322Z</time>
      </trkpt>
      <trkpt lat="45.690492" lon="10.102006">
        <ele>211.857389</ele>
        <time>2021-01-28T17:59:36.823Z</time>
      </trkpt>
      <trkpt lat="45.690452" lon="10.102045">
        <ele>212.353584</ele>
        <time>2021-01-28T17:59:41.914Z</time>
      </trkpt>
      <trkpt lat="45.690021" lon="10.102442">
        <ele>217.608258</ele>
        <time>2021-01-28T18:00:12.478Z</time>
      </trkpt>
      <trkpt lat="45.689825" lon="10.102622">
        <ele>220.192416</ele>
        <time>2021-01-28T18:00:30.527Z</time>
      </trkpt>
      <trkpt lat="45.689643" lon="10.102567">
        <ele>222.384820</ele>
        <time>2021-01-28T18:00:40.916Z</time>
      </trkpt>
      <trkpt lat="45.689523" lon="10.102565">
        <ele>223.799286</ele>
        <time>2021-01-28T18:00:49.846Z</time>
      </trkpt>
      <trkpt lat="45.689399" lon="10.102563">
        <ele>225.260895</ele>
        <time>2021-01-28T18:00:57.082Z</time>
      </trkpt>
      <trkpt lat="45.689177" lon="10.102674">
        <ele>228.032491</ele>
        <time>2021-01-28T18:01:13.331Z</time>
      </trkpt>
      <trkpt lat="45.688938" lon="10.102875">
        <ele>231.299598</ele>
        <time>2021-01-28T18:01:28.519Z</time>
      </trkpt>
      <trkpt lat="45.688439" lon="10.103292">
        <ele>238.109820</ele>
        <time>2021-01-28T18:02:02.388Z</time>
      </trkpt>
      <trkpt lat="45.688309" lon="10.103421">
        <ele>239.976392</ele>
        <time>2021-01-28T18:02:11.128Z</time>
      </trkpt>
      <trkpt lat="45.688192" lon="10.103631">
        <ele>242.240238</ele>
        <time>2021-01-28T18:02:25.650Z</time>
      </trkpt>
      <trkpt lat="45.688080" lon="10.103936">
        <ele>245.144293</ele>
        <time>2021-01-28T18:02:37.929Z</time>
      </trkpt>
      <trkpt lat="45.687893" lon="10.104345">
        <ele>249.264028</ele>
        <time>2021-01-28T18:03:00.654Z</time>
      </trkpt>
      <trkpt lat="45.687845" lon="10.104457">
        <ele>250.371452</ele>
        <time>2021-01-28T18:03:08.293Z</time>
      </trkpt>
      <trkpt lat="45.687508" lon="10.105171">
        <ele>257.633875</ele>
        <time>2021-01-28T18:03:44.556Z</time>
      </trkpt>
      <trkpt lat="45.687486" lon="10.105262">
        <ele>258.445461</ele>
        <time>2021-01-28T18:03:47.685Z</time>
      </trkpt>
      <trkpt lat="45.687489" lon="10.105344">
        <ele>259.137511</ele>
        <time>2021-01-28T18:03:53.726Z</time>
      </trkpt>
      <trkpt lat="45.687515" lon="10.105388">
        <ele>259.623223</ele>
        <time>2021-01-28T18:03:57.025Z</time>
      </trkpt>
      <trkpt lat="45.687658" lon="10.105407">
        <ele>261.355897</ele>
        <time>2021-01-28T18:04:04.309Z</time>
      </trkpt>
      <trkpt lat="45.687824" lon="10.105307">
        <ele>263.329727</ele>
        <time>2021-01-28T18:04:16.231Z</time>
      </trkpt>
      <trkpt lat="45.687889" lon="10.105381">
        <ele>264.229322</ele>
        <time>2021-01-28T18:04:21.734Z</time>
      </trkpt>
      <trkpt lat="45.687897" lon="10.105457">
        <ele>264.810897</ele>
        <time>2021-01-28T18:04:24.794Z</time>
      </trkpt>
      <trkpt lat="45.687743" lon="10.105881">
        <ele>268.427001</ele>
        <time>2021-01-28T18:04:46.131Z</time>
      </trkpt>
      <trkpt lat="45.687456" lon="10.105719">
        <ele>271.768740</ele>
        <time>2021-01-28T18:05:04.127Z</time>
      </trkpt>
      <trkpt lat="45.687393" lon="10.105810">
        <ele>272.738198</ele>
        <time>2021-01-28T18:05:08.385Z</time>
      </trkpt>
      <trkpt lat="45.687417" lon="10.105881">
        <ele>273.335042</ele>
        <time>2021-01-28T18:05:10.606Z</time>
      </trkpt>
      <trkpt lat="45.687488" lon="10.105892">
        <ele>274.108605</ele>
        <time>2021-01-28T18:05:12.955Z</time>
      </trkpt>
      <trkpt lat="45.687724" lon="10.106377">
        <ele>278.581130</ele>
        <time>2021-01-28T18:05:37.617Z</time>
      </trkpt>
      <trkpt lat="45.687802" lon="10.106441">
        <ele>279.554977</ele>
        <time>2021-01-28T18:05:43.163Z</time>
      </trkpt>
      <trkpt lat="45.687891" lon="10.106402">
        <ele>280.563182</ele>
        <time>2021-01-28T18:05:49.971Z</time>
      </trkpt>
      <trkpt lat="45.687971" lon="10.106026">
        <ele>283.874722</ele>
        <time>2021-01-28T18:06:03.103Z</time>
      </trkpt>
      <trkpt lat="45.688159" lon="10.105769">
        <ele>287.074562</ele>
        <time>2021-01-28T18:06:16.760Z</time>
      </trkpt>
      <trkpt lat="45.688258" lon="10.105722">
        <ele>288.358452</ele>
        <time>2021-01-28T18:06:23.852Z</time>
      </trkpt>
      <trkpt lat="45.688417" lon="10.105751">
        <ele>290.331455</ele>
        <time>2021-01-28T18:06:33.915Z</time>
      </trkpt>
      <trkpt lat="45.688491" lon="10.105825">
        <ele>291.442585</ele>
        <time>2021-01-28T18:06:37.970Z</time>
      </trkpt>
      <trkpt lat="45.688508" lon="10.105867">
        <ele>291.859979</ele>
        <time>2021-01-28T18:06:39.790Z</time>
      </trkpt>
      <trkpt lat="45.688539" lon="10.106091">
        <ele>293.823540</ele>
        <time>2021-01-28T18:06:52.437Z</time>
      </trkpt>
      <trkpt lat="45.688616" lon="10.106371">
        <ele>296.411041</ele>
        <time>2021-01-28T18:07:03.264Z</time>
      </trkpt>
      <trkpt lat="45.688996" lon="10.106641">
        <ele>301.633060</ele>
        <time>2021-01-28T18:07:35.385Z</time>
      </trkpt>
      <trkpt lat="45.689265" lon="10.107083">
        <ele>306.752103</ele>
        <time>2021-01-28T18:08:06.933Z</time>
      </trkpt>
      <trkpt lat="45.689244" lon="10.107252">
        <ele>308.261408</ele>
        <time>2021-01-28T18:08:16.639Z</time>
      </trkpt>
      <trkpt lat="45.688981" lon="10.107601">
        <ele>312.775361</ele>
        <time>2021-01-28T18:08:43.655Z</time>
      </trkpt>
      <trkpt lat="45.688853" lon="10.107965">
        <ele>316.358600</ele>
        <time>2021-01-28T18:08:58.284Z</time>
      </trkpt>
      <trkpt lat="45.688838" lon="10.107990">
        <ele>316.648375</ele>
        <time>2021-01-28T18:09:00.850Z</time>
      </trkpt>
      <trkpt lat="45.688830" lon="10.108003">
        <ele>316.800711</ele>
        <time>2021-01-28T18:09:01.640Z</time>
      </trkpt>
      <trkpt lat="45.688777" lon="10.108103">
        <ele>317.904428</ele>
        <time>2021-01-28T18:09:05.526Z</time>
      </trkpt>
      <trkpt lat="45.688752" lon="10.108179">
        <ele>318.643068</ele>
        <time>2021-01-28T18:09:08.844Z</time>
      </trkpt>
      <trkpt lat="45.688748" lon="10.108333">
        <ele>319.998103</ele>
        <time>2021-01-28T18:09:14.122Z</time>
      </trkpt>
      <trkpt lat="45.688906" lon="10.108624">
        <ele>323.238821</ele>
        <time>2021-01-28T18:09:30.139Z</time>
      </trkpt>
      <trkpt lat="45.688936" lon="10.108661">
        <ele>323.737255</ele>
        <time>2021-01-28T18:09:32.478Z</time>
      </trkpt>
      <trkpt lat="45.688918" lon="10.108690">
        <ele>324.078363</ele>
        <time>2021-01-28T18:09:34.272Z</time>
      </trkpt>
      <trkpt lat="45.688743" lon="10.108755">
        <ele>326.287976</ele>
        <time>2021-01-28T18:09:46.102Z</time>
      </trkpt>
      <trkpt lat="45.688586" lon="10.108741">
        <ele>328.011615</ele>
        <time>2021-01-28T18:09:54.949Z</time>
      </trkpt>
      <trkpt lat="45.688743" lon="10.108755">
        <ele>329.735255</ele>
        <time>2021-01-28T18:10:06.263Z</time>
      </trkpt>
      <trkpt lat="45.688918" lon="10.108690">
        <ele>331.716287</ele>
        <time>2021-01-28T18:10:17.676Z</time>
      </trkpt>
      <trkpt lat="45.688936" lon="10.108661">
        <ele>332.013228</ele>
        <time>2021-01-28T18:10:18.989Z</time>
      </trkpt>
      <trkpt lat="45.689172" lon="10.108801">
        <ele>334.812405</ele>
        <time>2021-01-28T18:10:35.026Z</time>
      </trkpt>
      <trkpt lat="45.689293" lon="10.108927">
        <ele>336.451915</ele>
        <time>2021-01-28T18:10:44.035Z</time>
      </trkpt>
      <trkpt lat="45.689326" lon="10.109000">
        <ele>337.117469</ele>
        <time>2021-01-28T18:10:46.983Z</time>
      </trkpt>
      <trkpt lat="45.689341" lon="10.109064">
        <ele>337.634178</ele>
        <time>2021-01-28T18:10:49.412Z</time>
      </trkpt>
      <trkpt lat="45.689348" lon="10.109128">
        <ele>338.130019</ele>
        <time>2021-01-28T18:10:51.134Z</time>
      </trkpt>
      <trkpt lat="45.689353" lon="10.109233">
        <ele>338.935579</ele>
        <time>2021-01-28T18:10:56.863Z</time>
      </trkpt>
      <trkpt lat="45.689354" lon="10.109290">
        <ele>339.372009</ele>
        <time>2021-01-28T18:10:58.505Z</time>
      </trkpt>
      <trkpt lat="45.689344" lon="10.109423">
        <ele>340.395903</ele>
        <time>2021-01-28T18:11:03.750Z</time>
      </trkpt>
      <trkpt lat="45.689265" lon="10.109628">
        <ele>342.187958</ele>
        <time>2021-01-28T18:11:12.071Z</time>
      </trkpt>
      <trkpt lat="45.689158" lon="10.109675">
        <ele>343.414347</ele>
        <time>2021-01-28T18:11:20.188Z</time>
      </trkpt>
      <trkpt lat="45.689010" lon="10.109655">
        <ele>345.043246</ele>
        <time>2021-01-28T18:11:26.768Z</time>
      </trkpt>
      <trkpt lat="45.688929" lon="10.109664">
        <ele>346.023881</ele>
        <time>2021-01-28T18:11:30.591Z</time>
      </trkpt>
      <trkpt lat="45.688908" lon="10.109675">
        <ele>346.326997</ele>
        <time>2021-01-28T18:11:32.394Z</time>
      </trkpt>
      <trkpt lat="45.688850" lon="10.109706">
        <ele>347.166208</ele>
        <time>2021-01-28T18:11:38.135Z</time>
      </trkpt>
      <trkpt lat="45.688719" lon="10.109868">
        <ele>349.512761</ele>
        <time>2021-01-28T18:11:46.688Z</time>
      </trkpt>
      <trkpt lat="45.688504" lon="10.110328">
        <ele>354.753584</ele>
        <time>2021-01-28T18:12:14.099Z</time>
      </trkpt>
      <trkpt lat="45.688436" lon="10.110528">
        <ele>356.859806</ele>
        <time>2021-01-28T18:12:26.997Z</time>
      </trkpt>
      <trkpt lat="45.688419" lon="10.110655">
        <ele>358.084260</ele>
        <time>2021-01-28T18:12:32.766Z</time>
      </trkpt>
      <trkpt lat="45.688498" lon="10.110889">
        <ele>360.545227</ele>
        <time>2021-01-28T18:12:45.145Z</time>
      </trkpt>
      <trkpt lat="45.688530" lon="10.110915">
        <ele>361.043990</ele>
        <time>2021-01-28T18:12:48.347Z</time>
      </trkpt>
      <trkpt lat="45.688634" lon="10.111002">
        <ele>362.676786</ele>
        <time>2021-01-28T18:12:56.930Z</time>
      </trkpt>
      <trkpt lat="45.688908" lon="10.111361">
        <ele>367.711710</ele>
        <time>2021-01-28T18:13:23.372Z</time>
      </trkpt>
      <trkpt lat="45.688925" lon="10.111447">
        <ele>368.558022</ele>
        <time>2021-01-28T18:13:27.656Z</time>
      </trkpt>
      <trkpt lat="45.688919" lon="10.111556">
        <ele>369.593343</ele>
        <time>2021-01-28T18:13:33.806Z</time>
      </trkpt>
      <trkpt lat="45.688905" lon="10.111655">
        <ele>370.617225</ele>
        <time>2021-01-28T18:13:39.616Z</time>
      </trkpt>
      <trkpt lat="45.688852" lon="10.111803">
        <ele>372.364228</ele>
        <time>2021-01-28T18:13:48.075Z</time>
      </trkpt>
      <trkpt lat="45.688715" lon="10.112066">
        <ele>375.810387</ele>
        <time>2021-01-28T18:14:05.585Z</time>
      </trkpt>
      <trkpt lat="45.688664" lon="10.112331">
        <ele>378.697727</ele>
        <time>2021-01-28T18:14:18.770Z</time>
      </trkpt>
      <trkpt lat="45.688704" lon="10.112602">
        <ele>381.607237</ele>
        <time>2021-01-28T18:14:34.196Z</time>
      </trkpt>
      <trkpt lat="45.688646" lon="10.112742">
        <ele>383.317006</ele>
        <time>2021-01-28T18:14:42.815Z</time>
      </trkpt>
      <trkpt lat="45.688373" lon="10.112874">
        <ele>387.649981</ele>
        <time>2021-01-28T18:15:04.766Z</time>
      </trkpt>
      <trkpt lat="45.688195" lon="10.112879">
        <ele>390.327102</ele>
        <time>2021-01-28T18:15:18.220Z</time>
      </trkpt>
      <trkpt lat="45.688033" lon="10.112773">
        <ele>393.005527</ele>
        <time>2021-01-28T18:15:32.649Z</time>
      </trkpt>
      <trkpt lat="45.687873" lon="10.112819">
        <ele>395.459508</ele>
        <time>2021-01-28T18:15:45.044Z</time>
      </trkpt>
      <trkpt lat="45.687843" lon="10.112892">
        <ele>396.349182</ele>
        <time>2021-01-28T18:15:49.427Z</time>
      </trkpt>
      <trkpt lat="45.687877" lon="10.113003">
        <ele>397.582286</ele>
        <time>2021-01-28T18:15:56.636Z</time>
      </trkpt>
      <trkpt lat="45.688055" lon="10.113264">
        <ele>401.175167</ele>
        <time>2021-01-28T18:16:13.433Z</time>
      </trkpt>
      <trkpt lat="45.688184" lon="10.113375">
        <ele>403.297431</ele>
        <time>2021-01-28T18:16:24.477Z</time>
      </trkpt>
      <trkpt lat="45.688275" lon="10.113444">
        <ele>404.749451</ele>
        <time>2021-01-28T18:16:32.175Z</time>
      </trkpt>
      <trkpt lat="45.688576" lon="10.113606">
        <ele>409.283725</ele>
        <time>2021-01-28T18:16:54.842Z</time>
      </trkpt>
      <trkpt lat="45.688882" lon="10.113925">
        <ele>414.621306</ele>
        <time>2021-01-28T18:17:22.881Z</time>
      </trkpt>
      <trkpt lat="45.689032" lon="10.114359">
        <ele>419.390770</ele>
        <time>2021-01-28T18:17:45.156Z</time>
      </trkpt>
      <trkpt lat="45.689210" lon="10.114683">
        <ele>423.481689</ele>
        <time>2021-01-28T18:18:03.808Z</time>
      </trkpt>
      <trkpt lat="45.689240" lon="10.115403">
        <ele>430.783638</ele>
        <time>2021-01-28T18:18:40.137Z</time>
      </trkpt>
      <trkpt lat="45.689162" lon="10.115540">
        <ele>432.572881</ele>
        <time>2021-01-28T18:18:49.119Z</time>
      </trkpt>
      <trkpt lat="45.688577" lon="10.115278">
        <ele>441.456109</ele>
        <time>2021-01-28T18:19:32.915Z</time>
      </trkpt>
      <trkpt lat="45.688548" lon="10.115421">
        <ele>442.963572</ele>
        <time>2021-01-28T18:19:43.423Z</time>
      </trkpt>
      <trkpt lat="45.688624" lon="10.115496">
        <ele>444.301340</ele>
        <time>2021-01-28T18:19:50.076Z</time>
      </trkpt>
      <trkpt lat="45.688698" lon="10.115703">
        <ele>446.655416</ele>
        <time>2021-01-28T18:20:01.279Z</time>
      </trkpt>
      <trkpt lat="45.688632" lon="10.115962">
        <ele>449.578301</ele>
        <time>2021-01-28T18:20:17.597Z</time>
      </trkpt>
      <trkpt lat="45.688597" lon="10.116098">
        <ele>451.231764</ele>
        <time>2021-01-28T18:20:25.213Z</time>
      </trkpt>
      <trkpt lat="45.688403" lon="10.117267">
        <ele>464.939212</ele>
        <time>2021-01-28T18:21:26.980Z</time>
      </trkpt>
      <trkpt lat="45.688379" lon="10.117322">
        <ele>465.679026</ele>
        <time>2021-01-28T18:21:31.830Z</time>
      </trkpt>
      <trkpt lat="45.688328" lon="10.117319">
        <ele>466.512619</ele>
        <time>2021-01-28T18:21:37.309Z</time>
      </trkpt>
      <trkpt lat="45.688262" lon="10.117305">
        <ele>467.602245</ele>
        <time>2021-01-28T18:21:42.565Z</time>
      </trkpt>
      <trkpt lat="45.688013" lon="10.117154">
        <ele>472.018539</ele>
        <time>2021-01-28T18:22:06.564Z</time>
      </trkpt>
      <trkpt lat="45.687784" lon="10.117027">
        <ele>476.029224</ele>
        <time>2021-01-28T18:22:31.199Z</time>
      </trkpt>
      <trkpt lat="45.687550" lon="10.116924">
        <ele>479.729906</ele>
        <time>2021-01-28T18:22:57.858Z</time>
      </trkpt>
      <trkpt lat="45.687412" lon="10.116922">
        <ele>481.685280</ele>
        <time>2021-01-28T18:23:05.133Z</time>
      </trkpt>
      <trkpt lat="45.687364" lon="10.116979">
        <ele>482.568923</ele>
        <time>2021-01-28T18:23:11.754Z</time>
      </trkpt>
      <trkpt lat="45.687337" lon="10.117079">
        <ele>483.630064</ele>
        <time>2021-01-28T18:23:19.730Z</time>
      </trkpt>
      <trkpt lat="45.687349" lon="10.117251">
        <ele>485.340963</ele>
        <time>2021-01-28T18:23:25.528Z</time>
      </trkpt>
      <trkpt lat="45.687513" lon="10.117919">
        <ele>492.349146</ele>
        <time>2021-01-28T18:24:03.706Z</time>
      </trkpt>
      <trkpt lat="45.687609" lon="10.118038">
        <ele>494.148430</ele>
        <time>2021-01-28T18:24:14.682Z</time>
      </trkpt>
      <trkpt lat="45.687885" lon="10.118458">
        <ele>499.855757</ele>
        <time>2021-01-28T18:24:39.083Z</time>
      </trkpt>
      <trkpt lat="45.688090" lon="10.119255">
        <ele>506.104122</ele>
        <time>2021-01-28T18:25:15.337Z</time>
      </trkpt>
      <trkpt lat="45.688104" lon="10.119519">
        <ele>507.592836</ele>
        <time>2021-01-28T18:25:21.349Z</time>
      </trkpt>
      <trkpt lat="45.688120" lon="10.119656">
        <ele>508.373863</ele>
        <time>2021-01-28T18:25:28.263Z</time>
      </trkpt>
      <trkpt lat="45.688222" lon="10.119750">
        <ele>509.350306</ele>
        <time>2021-01-28T18:25:34.141Z</time>
      </trkpt>
      <trkpt lat="45.688345" lon="10.119780">
        <ele>510.354627</ele>
        <time>2021-01-28T18:25:36.205Z</time>
      </trkpt>
      <trkpt lat="45.688637" lon="10.119253">
        <ele>514.136829</ele>
        <time>2021-01-28T18:25:58.681Z</time>
      </trkpt>
      <trkpt lat="45.688930" lon="10.119159">
        <ele>516.553749</ele>
        <time>2021-01-28T18:26:10.555Z</time>
      </trkpt>
      <trkpt lat="45.689197" lon="10.119259">
        <ele>518.800243</ele>
        <time>2021-01-28T18:26:21.795Z</time>
      </trkpt>
      <trkpt lat="45.689811" lon="10.119548">
        <ele>524.128884</ele>
        <time>2021-01-28T18:26:48.653Z</time>
      </trkpt>
      <trkpt lat="45.689903" lon="10.119650">
        <ele>525.088238</ele>
        <time>2021-01-28T18:26:56.311Z</time>
      </trkpt>
      <trkpt lat="45.690295" lon="10.119844">
        <ele>528.507701</ele>
        <time>2021-01-28T18:27:16.393Z</time>
      </trkpt>
      <trkpt lat="45.690312" lon="10.119939">
        <ele>529.072472</ele>
        <time>2021-01-28T18:27:19.457Z</time>
      </trkpt>
      <trkpt lat="45.690014" lon="10.120060">
        <ele>531.626206</ele>
        <time>2021-01-28T18:27:36.581Z</time>
      </trkpt>
      <trkpt lat="45.689809" lon="10.120361">
        <ele>534.088203</ele>
        <time>2021-01-28T18:27:53.546Z</time>
      </trkpt>
      <trkpt lat="45.689628" lon="10.120424">
        <ele>535.666568</ele>
        <time>2021-01-28T18:28:02.097Z</time>
      </trkpt>
      <trkpt lat="45.689004" lon="10.120448">
        <ele>540.955869</ele>
        <time>2021-01-28T18:28:32.610Z</time>
      </trkpt>
      <trkpt lat="45.688544" lon="10.120759">
        <ele>545.266465</ele>
        <time>2021-01-28T18:28:55.791Z</time>
      </trkpt>
      <trkpt lat="45.688295" lon="10.121151">
        <ele>548.504731</ele>
        <time>2021-01-28T18:29:11.600Z</time>
      </trkpt>
      <trkpt lat="45.687942" lon="10.121062">
        <ele>552.067624</ele>
        <time>2021-01-28T18:29:30.429Z</time>
      </trkpt>
      <trkpt lat="45.687718" lon="10.121118">
        <ele>554.327927</ele>
        <time>2021-01-28T18:29:44.183Z</time>
      </trkpt>
      <trkpt lat="45.687525" lon="10.121257">
        <ele>556.475505</ele>
        <time>2021-01-28T18:29:52.648Z</time>
      </trkpt>
      <trkpt lat="45.687387" lon="10.121332">
        <ele>557.942787</ele>
        <time>2021-01-28T18:30:04.025Z</time>
      </trkpt>
      <trkpt lat="45.687244" lon="10.121356">
        <ele>559.373970</ele>
        <time>2021-01-28T18:30:09.889Z</time>
      </trkpt>
      <trkpt lat="45.686980" lon="10.121263">
        <ele>562.076473</ele>
        <time>2021-01-28T18:30:26.742Z</time>
      </trkpt>
      <trkpt lat="45.686890" lon="10.121289">
        <ele>562.989126</ele>
        <time>2021-01-28T18:30:30.464Z</time>
      </trkpt>
      <trkpt lat="45.686839" lon="10.121387">
        <ele>563.837710</ele>
        <time>2021-01-28T18:30:34.275Z</time>
      </trkpt>
      <trkpt lat="45.686776" lon="10.121563">
        <ele>565.210958</ele>
        <time>2021-01-28T18:30:46.135Z</time>
      </trkpt>
      <trkpt lat="45.686611" lon="10.121860">
        <ele>568.417368</ele>
        <time>2021-01-28T18:31:00.116Z</time>
      </trkpt>
      <trkpt lat="45.685759" lon="10.122532">
        <ele>580.651339</ele>
        <time>2021-01-28T18:32:05.543Z</time>
      </trkpt>
      <trkpt lat="45.685430" lon="10.122644">
        <ele>584.904368</ele>
        <time>2021-01-28T18:32:31.385Z</time>
      </trkpt>
      <trkpt lat="45.684849" lon="10.122657">
        <ele>591.287031</ele>
        <time>2021-01-28T18:33:07.489Z</time>
      </trkpt>
      <trkpt lat="45.684638" lon="10.122774">
        <ele>593.457788</ele>
        <time>2021-01-28T18:33:18.200Z</time>
      </trkpt>
      <trkpt lat="45.684605" lon="10.122833">
        <ele>593.964320</ele>
        <time>2021-01-28T18:33:22.625Z</time>
      </trkpt>
      <trkpt lat="45.684523" lon="10.122977">
        <ele>595.209391</ele>
        <time>2021-01-28T18:33:30.442Z</time>
      </trkpt>
      <trkpt lat="45.684376" lon="10.123130">
        <ele>596.952995</ele>
        <time>2021-01-28T18:33:37.720Z</time>
      </trkpt>
      <trkpt lat="45.683657" lon="10.123218">
        <ele>603.875746</ele>
        <time>2021-01-28T18:34:15.612Z</time>
      </trkpt>
      <trkpt lat="45.683319" lon="10.123176">
        <ele>606.178972</ele>
        <time>2021-01-28T18:34:32.034Z</time>
      </trkpt>
      <trkpt lat="45.682932" lon="10.123251">
        <ele>607.645555</ele>
        <time>2021-01-28T18:34:47.596Z</time>
      </trkpt>
      <trkpt lat="45.682867" lon="10.123283">
        <ele>607.903688</ele>
        <time>2021-01-28T18:34:48.362Z</time>
      </trkpt>
      <trkpt lat="45.682822" lon="10.123343">
        <ele>608.134638</ele>
        <time>2021-01-28T18:34:51.626Z</time>
      </trkpt>
      <trkpt lat="45.682699" lon="10.124021">
        <ele>609.972438</ele>
        <time>2021-01-28T18:35:03.026Z</time>
      </trkpt>
      <trkpt lat="45.682664" lon="10.124063">
        <ele>610.143955</ele>
        <time>2021-01-28T18:35:05.822Z</time>
      </trkpt>
      <trkpt lat="45.682627" lon="10.124080">
        <ele>610.289886</ele>
        <time>2021-01-28T18:35:06.183Z</time>
      </trkpt>
      <trkpt lat="45.681934" lon="10.123951">
        <ele>612.213520</ele>
        <time>2021-01-28T18:35:21.113Z</time>
      </trkpt>
      <trkpt lat="45.681208" lon="10.124077">
        <ele>611.713519</ele>
        <time>2021-01-28T18:35:31.302Z</time>
      </trkpt>
      <trkpt lat="45.680470" lon="10.123850">
        <ele>611.197430</ele>
        <time>2021-01-28T18:35:39.454Z</time>
      </trkpt>
      <trkpt lat="45.679871" lon="10.123943">
        <ele>610.955885</ele>
        <time>2021-01-28T18:35:46.743Z</time>
      </trkpt>
      <trkpt lat="45.679793" lon="10.123944">
        <ele>610.932229</ele>
        <time>2021-01-28T18:35:47.636Z</time>
      </trkpt>
      <trkpt lat="45.679738" lon="10.123928">
        <ele>610.915209</ele>
        <time>2021-01-28T18:35:48.327Z</time>
      </trkpt>
      <trkpt lat="45.679689" lon="10.123888">
        <ele>610.898101</ele>
        <time>2021-01-28T18:35:49.007Z</time>
      </trkpt>
      <trkpt lat="45.679645" lon="10.123826">
        <ele>610.879376</ele>
        <time>2021-01-28T18:35:50.147Z</time>
      </trkpt>
      <trkpt lat="45.679240" lon="10.123086">
        <ele>610.680202</ele>
        <time>2021-01-28T18:35:59.887Z</time>
      </trkpt>
      <trkpt lat="45.679133" lon="10.122602">
        <ele>610.572638</ele>
        <time>2021-01-28T18:36:06.188Z</time>
      </trkpt>
      <trkpt lat="45.679079" lon="10.122459">
        <ele>610.566617</ele>
        <time>2021-01-28T18:36:07.909Z</time>
      </trkpt>
      <trkpt lat="45.678976" lon="10.122310">
        <ele>610.678999</ele>
        <time>2021-01-28T18:36:10.376Z</time>
      </trkpt>
      <trkpt lat="45.678024" lon="10.121552">
        <ele>611.514994</ele>
        <time>2021-01-28T18:36:29.975Z</time>
      </trkpt>
      <trkpt lat="45.677929" lon="10.121483">
        <ele>611.596746</ele>
        <time>2021-01-28T18:36:31.858Z</time>
      </trkpt>
      <trkpt lat="45.677850" lon="10.121405">
        <ele>611.670396</ele>
        <time>2021-01-28T18:36:33.770Z</time>
      </trkpt>
      <trkpt lat="45.677683" lon="10.121169">
        <ele>611.850494</ele>
        <time>2021-01-28T18:36:38.431Z</time>
      </trkpt>
      <trkpt lat="45.677324" lon="10.120465">
        <ele>612.578768</ele>
        <time>2021-01-28T18:36:49.454Z</time>
      </trkpt>
      <trkpt lat="45.677276" lon="10.120405">
        <ele>612.660290</ele>
        <time>2021-01-28T18:36:50.257Z</time>
      </trkpt>
      <trkpt lat="45.677234" lon="10.120368">
        <ele>612.723378</ele>
        <time>2021-01-28T18:36:51.238Z</time>
      </trkpt>
      <trkpt lat="45.677212" lon="10.120348">
        <ele>612.756718</ele>
        <time>2021-01-28T18:36:51.770Z</time>
      </trkpt>
      <trkpt lat="45.677170" lon="10.120308">
        <ele>612.821251</ele>
        <time>2021-01-28T18:36:52.371Z</time>
      </trkpt>
      <trkpt lat="45.677117" lon="10.120251">
        <ele>612.906056</ele>
        <time>2021-01-28T18:36:54.251Z</time>
      </trkpt>
      <trkpt lat="45.676480" lon="10.119224">
        <ele>614.133466</ele>
        <time>2021-01-28T18:37:12.623Z</time>
      </trkpt>
      <trkpt lat="45.676346" lon="10.118893">
        <ele>615.259946</ele>
        <time>2021-01-28T18:37:19.493Z</time>
      </trkpt>
      <trkpt lat="45.676258" lon="10.118342">
        <ele>617.362942</ele>
        <time>2021-01-28T18:37:30.404Z</time>
      </trkpt>
      <trkpt lat="45.676249" lon="10.118145">
        <ele>618.097492</ele>
        <time>2021-01-28T18:37:33.855Z</time>
      </trkpt>
      <trkpt lat="45.676244" lon="10.118047">
        <ele>618.463094</ele>
        <time>2021-01-28T18:37:35.577Z</time>
      </trkpt>
      <trkpt lat="45.676242" lon="10.118002">
        <ele>618.630865</ele>
        <time>2021-01-28T18:37:36.338Z</time>
      </trkpt>
      <trkpt lat="45.676242" lon="10.117947">
        <ele>618.835506</ele>
        <time>2021-01-28T18:37:37.736Z</time>
      </trkpt>
      <trkpt lat="45.676219" lon="10.117574">
        <ele>620.228733</ele>
        <time>2021-01-28T18:37:46.089Z</time>
      </trkpt>
      <trkpt lat="45.676265" lon="10.117049">
        <ele>622.197416</ele>
        <time>2021-01-28T18:38:03.196Z</time>
      </trkpt>
      <trkpt lat="45.675957" lon="10.115815">
        <ele>632.249481</ele>
        <time>2021-01-28T18:38:52.707Z</time>
      </trkpt>
      <trkpt lat="45.675873" lon="10.115389">
        <ele>636.505497</ele>
        <time>2021-01-28T18:39:16.407Z</time>
      </trkpt>
      <trkpt lat="45.675830" lon="10.115125">
        <ele>639.111944</ele>
        <time>2021-01-28T18:39:32.299Z</time>
      </trkpt>
      <trkpt lat="45.675817" lon="10.114488">
        <ele>645.239386</ele>
        <time>2021-01-28T18:40:07.253Z</time>
      </trkpt>
      <trkpt lat="45.675855" lon="10.113707">
        <ele>653.259673</ele>
        <time>2021-01-28T18:40:50.550Z</time>
      </trkpt>
      <trkpt lat="45.675822" lon="10.113467">
        <ele>655.886778</ele>
        <time>2021-01-28T18:41:06.882Z</time>
      </trkpt>
      <trkpt lat="45.675554" lon="10.112773">
        <ele>664.403199</ele>
        <time>2021-01-28T18:41:49.630Z</time>
      </trkpt>
      <trkpt lat="45.675232" lon="10.112288">
        <ele>671.588813</ele>
        <time>2021-01-28T18:42:25.936Z</time>
      </trkpt>
      <trkpt lat="45.675054" lon="10.111900">
        <ele>676.488504</ele>
        <time>2021-01-28T18:42:49.066Z</time>
      </trkpt>
      <trkpt lat="45.674922" lon="10.110863">
        <ele>685.189927</ele>
        <time>2021-01-28T18:43:34.383Z</time>
      </trkpt>
      <trkpt lat="45.674824" lon="10.110708">
        <ele>686.915548</ele>
        <time>2021-01-28T18:43:43.312Z</time>
      </trkpt>
      <trkpt lat="45.674549" lon="10.110476">
        <ele>690.686996</ele>
        <time>2021-01-28T18:44:02.696Z</time>
      </trkpt>
      <trkpt lat="45.674399" lon="10.110142">
        <ele>693.964629</ele>
        <time>2021-01-28T18:44:19.477Z</time>
      </trkpt>
      <trkpt lat="45.674378" lon="10.109696">
        <ele>697.629031</ele>
        <time>2021-01-28T18:44:38.069Z</time>
      </trkpt>
      <trkpt lat="45.674447" lon="10.108705">
        <ele>704.793759</ele>
        <time>2021-01-28T18:45:18.020Z</time>
      </trkpt>
      <trkpt lat="45.674644" lon="10.107390">
        <ele>714.469061</ele>
        <time>2021-01-28T18:46:09.907Z</time>
      </trkpt>
      <trkpt lat="45.674671" lon="10.106877">
        <ele>718.008797</ele>
        <time>2021-01-28T18:46:29.300Z</time>
      </trkpt>
      <trkpt lat="45.674832" lon="10.106209">
        <ele>722.719068</ele>
        <time>2021-01-28T18:46:55.222Z</time>
      </trkpt>
      <trkpt lat="45.674839" lon="10.104697">
        <ele>732.798095</ele>
        <time>2021-01-28T18:47:50.285Z</time>
      </trkpt>
      <trkpt lat="45.674627" lon="10.102857">
        <ele>746.568636</ele>
        <time>2021-01-28T18:49:02.404Z</time>
      </trkpt>
      <trkpt lat="45.674438" lon="10.101890">
        <ele>754.238349</ele>
        <time>2021-01-28T18:49:45.591Z</time>
      </trkpt>
      <trkpt lat="45.673974" lon="10.100305">
        <ele>768.613369</ele>
        <time>2021-01-28T18:51:04.032Z</time>
      </trkpt>
      <trkpt lat="45.673441" lon="10.098985">
        <ele>779.963786</ele>
        <time>2021-01-28T18:52:06.918Z</time>
      </trkpt>
      <trkpt lat="45.673401" lon="10.098982">
        <ele>780.355303</ele>
        <time>2021-01-28T18:52:11.215Z</time>
      </trkpt>
      <trkpt lat="45.673379" lon="10.099013">
        <ele>780.657082</ele>
        <time>2021-01-28T18:52:11.992Z</time>
      </trkpt>
      <trkpt lat="45.673489" lon="10.099407">
        <ele>783.554920</ele>
        <time>2021-01-28T18:52:26.049Z</time>
      </trkpt>
      <trkpt lat="45.673567" lon="10.100377">
        <ele>790.223655</ele>
        <time>2021-01-28T18:52:59.728Z</time>
      </trkpt>
      <trkpt lat="45.673438" lon="10.101024">
        <ele>794.321366</ele>
        <time>2021-01-28T18:53:24.660Z</time>
      </trkpt>
      <trkpt lat="45.673408" lon="10.101108">
        <ele>794.874436</ele>
        <time>2021-01-28T18:53:27.359Z</time>
      </trkpt>
      <trkpt lat="45.673120" lon="10.101211">
        <ele>797.365175</ele>
        <time>2021-01-28T18:53:39.917Z</time>
      </trkpt>
      <trkpt lat="45.672925" lon="10.101558">
        <ele>799.975853</ele>
        <time>2021-01-28T18:53:54.251Z</time>
      </trkpt>
      <trkpt lat="45.672729" lon="10.102602">
        <ele>806.313703</ele>
        <time>2021-01-28T18:54:31.578Z</time>
      </trkpt>
      <trkpt lat="45.672452" lon="10.103475">
        <ele>811.961891</ele>
        <time>2021-01-28T18:55:05.849Z</time>
      </trkpt>
      <trkpt lat="45.672414" lon="10.104037">
        <ele>815.288322</ele>
        <time>2021-01-28T18:55:25.496Z</time>
      </trkpt>
      <trkpt lat="45.672305" lon="10.104487">
        <ele>818.094220</ele>
        <time>2021-01-28T18:55:41.585Z</time>
      </trkpt>
      <trkpt lat="45.671706" lon="10.105769">
        <ele>826.776233</ele>
        <time>2021-01-28T18:56:30.534Z</time>
      </trkpt>
      <trkpt lat="45.671610" lon="10.106326">
        <ele>829.913281</ele>
        <time>2021-01-28T18:56:47.265Z</time>
      </trkpt>
      <trkpt lat="45.671531" lon="10.106507">
        <ele>831.080228</ele>
        <time>2021-01-28T18:56:53.279Z</time>
      </trkpt>
      <trkpt lat="45.671318" lon="10.106754">
        <ele>833.225575</ele>
        <time>2021-01-28T18:57:04.813Z</time>
      </trkpt>
      <trkpt lat="45.670953" lon="10.106993">
        <ele>836.718555</ele>
        <time>2021-01-28T18:57:26.206Z</time>
      </trkpt>
      <trkpt lat="45.670617" lon="10.107341">
        <ele>841.527816</ele>
        <time>2021-01-28T18:57:49.131Z</time>
      </trkpt>
      <trkpt lat="45.670063" lon="10.107398">
        <ele>847.968102</ele>
        <time>2021-01-28T18:58:23.626Z</time>
      </trkpt>
      <trkpt lat="45.669868" lon="10.107325">
        <ele>850.305239</ele>
        <time>2021-01-28T18:58:35.260Z</time>
      </trkpt>
      <trkpt lat="45.669830" lon="10.107310">
        <ele>850.762309</ele>
        <time>2021-01-28T18:58:39.460Z</time>
      </trkpt>
      <trkpt lat="45.669544" lon="10.107014">
        <ele>854.854916</ele>
        <time>2021-01-28T18:59:02.403Z</time>
      </trkpt>
      <trkpt lat="45.669233" lon="10.106990">
        <ele>858.723806</ele>
        <time>2021-01-28T18:59:21.573Z</time>
      </trkpt>
      <trkpt lat="45.668950" lon="10.106842">
        <ele>862.673197</ele>
        <time>2021-01-28T18:59:43.193Z</time>
      </trkpt>
      <trkpt lat="45.668372" lon="10.107174">
        <ele>870.836914</ele>
        <time>2021-01-28T19:00:33.733Z</time>
      </trkpt>
      <trkpt lat="45.667908" lon="10.107220">
        <ele>876.933410</ele>
        <time>2021-01-28T19:01:01.699Z</time>
      </trkpt>
      <trkpt lat="45.667500" lon="10.107467">
        <ele>881.203429</ele>
        <time>2021-01-28T19:01:25.966Z</time>
      </trkpt>
      <trkpt lat="45.667479" lon="10.107504">
        <ele>881.388995</ele>
        <time>2021-01-28T19:01:29.567Z</time>
      </trkpt>
      <trkpt lat="45.667475" lon="10.107558">
        <ele>881.600397</ele>
        <time>2021-01-28T19:01:31.491Z</time>
      </trkpt>
      <trkpt lat="45.667448" lon="10.107889">
        <ele>882.897744</ele>
        <time>2021-01-28T19:01:40.748Z</time>
      </trkpt>
      <trkpt lat="45.667054" lon="10.108676">
        <ele>886.666668</ele>
        <time>2021-01-28T19:02:08.391Z</time>
      </trkpt>
      <trkpt lat="45.666889" lon="10.109868">
        <ele>888.829965</ele>
        <time>2021-01-28T19:02:26.964Z</time>
      </trkpt>
      <trkpt lat="45.666413" lon="10.110209">
        <ele>885.982920</ele>
        <time>2021-01-28T19:02:32.453Z</time>
      </trkpt>
      <trkpt lat="45.666340" lon="10.110397">
        <ele>885.179060</ele>
        <time>2021-01-28T19:02:33.933Z</time>
      </trkpt>
      <trkpt lat="45.666443" lon="10.110577">
        <ele>884.309521</ele>
        <time>2021-01-28T19:02:35.480Z</time>
      </trkpt>
      <trkpt lat="45.666946" lon="10.110886">
        <ele>881.381857</ele>
        <time>2021-01-28T19:02:40.268Z</time>
      </trkpt>
      <trkpt lat="45.666997" lon="10.110979">
        <ele>880.940014</ele>
        <time>2021-01-28T19:02:41.017Z</time>
      </trkpt>
      <trkpt lat="45.667002" lon="10.111239">
        <ele>879.086644</ele>
        <time>2021-01-28T19:02:42.553Z</time>
      </trkpt>
      <trkpt lat="45.666786" lon="10.111859">
        <ele>871.932089</ele>
        <time>2021-01-28T19:02:46.571Z</time>
      </trkpt>
      <trkpt lat="45.666297" lon="10.112009">
        <ele>864.541396</ele>
        <time>2021-01-28T19:02:50.733Z</time>
      </trkpt>
      <trkpt lat="45.666242" lon="10.112054">
        <ele>863.605114</ele>
        <time>2021-01-28T19:02:51.255Z</time>
      </trkpt>
      <trkpt lat="45.666191" lon="10.112128">
        <ele>862.531755</ele>
        <time>2021-01-28T19:02:51.847Z</time>
      </trkpt>
      <trkpt lat="45.666148" lon="10.112247">
        <ele>861.148211</ele>
        <time>2021-01-28T19:02:52.633Z</time>
      </trkpt>
      <trkpt lat="45.666125" lon="10.112626">
        <ele>857.219342</ele>
        <time>2021-01-28T19:02:54.838Z</time>
      </trkpt>
      <trkpt lat="45.666135" lon="10.112888">
        <ele>854.509494</ele>
        <time>2021-01-28T19:02:56.380Z</time>
      </trkpt>
      <trkpt lat="45.666146" lon="10.113008">
        <ele>853.356632</ele>
        <time>2021-01-28T19:02:57.091Z</time>
      </trkpt>
      <trkpt lat="45.666190" lon="10.113195">
        <ele>851.634059</ele>
        <time>2021-01-28T19:02:58.220Z</time>
      </trkpt>
      <trkpt lat="45.666405" lon="10.114060">
        <ele>843.619149</ele>
        <time>2021-01-28T19:03:03.557Z</time>
      </trkpt>
      <trkpt lat="45.666578" lon="10.115434">
        <ele>831.430966</ele>
        <time>2021-01-28T19:03:11.961Z</time>
      </trkpt>
      <trkpt lat="45.666506" lon="10.117111">
        <ele>821.615976</ele>
        <time>2021-01-28T19:03:22.357Z</time>
      </trkpt>
      <trkpt lat="45.666297" lon="10.118601">
        <ele>812.341288</ele>
        <time>2021-01-28T19:03:31.749Z</time>
      </trkpt>
      <trkpt lat="45.666088" lon="10.119441">
        <ele>806.562565</ele>
        <time>2021-01-28T19:03:37.215Z</time>
      </trkpt>
      <trkpt lat="45.665998" lon="10.121018">
        <ele>795.000614</ele>
        <time>2021-01-28T19:03:46.735Z</time>
      </trkpt>
      <trkpt lat="45.665970" lon="10.121260">
        <ele>792.799682</ele>
        <time>2021-01-28T19:03:48.248Z</time>
      </trkpt>
      <trkpt lat="45.665923" lon="10.121595">
        <ele>789.733879</ele>
        <time>2021-01-28T19:03:50.241Z</time>
      </trkpt>
      <trkpt lat="45.665906" lon="10.121989">
        <ele>786.191933</ele>
        <time>2021-01-28T19:03:52.561Z</time>
      </trkpt>
      <trkpt lat="45.665987" lon="10.122905">
        <ele>777.907477</ele>
        <time>2021-01-28T19:03:58.005Z</time>
      </trkpt>
      <trkpt lat="45.665977" lon="10.122939">
        <ele>777.576490</ele>
        <time>2021-01-28T19:03:58.221Z</time>
      </trkpt>
      <trkpt lat="45.665949" lon="10.122951">
        <ele>777.201212</ele>
        <time>2021-01-28T19:03:58.463Z</time>
      </trkpt>
      <trkpt lat="45.665692" lon="10.122595">
        <ele>771.983225</ele>
        <time>2021-01-28T19:04:01.421Z</time>
      </trkpt>
      <trkpt lat="45.665586" lon="10.122319">
        <ele>768.716350</ele>
        <time>2021-01-28T19:04:03.286Z</time>
      </trkpt>
      <trkpt lat="45.665316" lon="10.121548">
        <ele>759.770581</ele>
        <time>2021-01-28T19:04:08.289Z</time>
      </trkpt>
      <trkpt lat="45.665276" lon="10.121382">
        <ele>757.949124</ele>
        <time>2021-01-28T19:04:09.339Z</time>
      </trkpt>
      <trkpt lat="45.665262" lon="10.121262">
        <ele>756.687099</ele>
        <time>2021-01-28T19:04:10.045Z</time>
      </trkpt>
      <trkpt lat="45.665277" lon="10.120942">
        <ele>753.360177</ele>
        <time>2021-01-28T19:04:11.884Z</time>
      </trkpt>
      <trkpt lat="45.665054" lon="10.119271">
        <ele>740.255817</ele>
        <time>2021-01-28T19:04:21.954Z</time>
      </trkpt>
      <trkpt lat="45.665060" lon="10.118828">
        <ele>737.129481</ele>
        <time>2021-01-28T19:04:24.635Z</time>
      </trkpt>
      <trkpt lat="45.665116" lon="10.118418">
        <ele>734.181843</ele>
        <time>2021-01-28T19:04:27.319Z</time>
      </trkpt>
      <trkpt lat="45.665253" lon="10.117739">
        <ele>730.549700</ele>
        <time>2021-01-28T19:04:31.928Z</time>
      </trkpt>
      <trkpt lat="45.665286" lon="10.117257">
        <ele>728.938696</ele>
        <time>2021-01-28T19:04:35.089Z</time>
      </trkpt>
      <trkpt lat="45.665153" lon="10.116023">
        <ele>724.785375</ele>
        <time>2021-01-28T19:04:43.643Z</time>
      </trkpt>
      <trkpt lat="45.665032" lon="10.115327">
        <ele>722.198401</ele>
        <time>2021-01-28T19:04:48.585Z</time>
      </trkpt>
      <trkpt lat="45.664983" lon="10.115109">
        <ele>721.244311</ele>
        <time>2021-01-28T19:04:50.060Z</time>
      </trkpt>
      <trkpt lat="45.664392" lon="10.113585">
        <ele>713.982673</ele>
        <time>2021-01-28T19:05:01.212Z</time>
      </trkpt>
      <trkpt lat="45.664257" lon="10.112944">
        <ele>710.503968</ele>
        <time>2021-01-28T19:05:05.441Z</time>
      </trkpt>
      <trkpt lat="45.664049" lon="10.112471">
        <ele>706.921668</ele>
        <time>2021-01-28T19:05:08.955Z</time>
      </trkpt>
      <trkpt lat="45.663793" lon="10.112212">
        <ele>704.045913</ele>
        <time>2021-01-28T19:05:11.657Z</time>
      </trkpt>
      <trkpt lat="45.663414" lon="10.112022">
        <ele>700.362440</ele>
        <time>2021-01-28T19:05:15.112Z</time>
      </trkpt>
      <trkpt lat="45.663003" lon="10.112003">
        <ele>696.590671</ele>
        <time>2021-01-28T19:05:18.629Z</time>
      </trkpt>
      <trkpt lat="45.662694" lon="10.111883">
        <ele>693.088956</ele>
        <time>2021-01-28T19:05:21.367Z</time>
      </trkpt>
      <trkpt lat="45.662475" lon="10.111897">
        <ele>690.589002</ele>
        <time>2021-01-28T19:05:23.208Z</time>
      </trkpt>
      <trkpt lat="45.662078" lon="10.111789">
        <ele>685.980539</ele>
        <time>2021-01-28T19:05:26.668Z</time>
      </trkpt>
      <trkpt lat="45.661956" lon="10.111812">
        <ele>684.577234</ele>
        <time>2021-01-28T19:05:27.743Z</time>
      </trkpt>
      <trkpt lat="45.661793" lon="10.111923">
        <ele>682.518605</ele>
        <time>2021-01-28T19:05:29.259Z</time>
      </trkpt>
      <trkpt lat="45.661700" lon="10.112207">
        <ele>680.018942</ele>
        <time>2021-01-28T19:05:31.154Z</time>
      </trkpt>
      <trkpt lat="45.661601" lon="10.112261">
        <ele>678.810699</ele>
        <time>2021-01-28T19:05:32.025Z</time>
      </trkpt>
      <trkpt lat="45.661432" lon="10.112029">
        <ele>676.139849</ele>
        <time>2021-01-28T19:05:34.000Z</time>
      </trkpt>
      <trkpt lat="45.661361" lon="10.112055">
        <ele>675.314221</ele>
        <time>2021-01-28T19:05:34.621Z</time>
      </trkpt>
      <trkpt lat="45.661922" lon="10.113074">
        <ele>665.630474</ele>
        <time>2021-01-28T19:05:42.336Z</time>
      </trkpt>
      <trkpt lat="45.662029" lon="10.113267">
        <ele>663.791426</ele>
        <time>2021-01-28T19:05:43.872Z</time>
      </trkpt>
      <trkpt lat="45.662090" lon="10.113409">
        <ele>662.547137</ele>
        <time>2021-01-28T19:05:44.838Z</time>
      </trkpt>
      <trkpt lat="45.662119" lon="10.113729">
        <ele>660.138289</ele>
        <time>2021-01-28T19:05:46.869Z</time>
      </trkpt>
      <trkpt lat="45.662084" lon="10.113889">
        <ele>658.886724</ele>
        <time>2021-01-28T19:05:47.859Z</time>
      </trkpt>
      <trkpt lat="45.662040" lon="10.113990">
        <ele>657.998257</ele>
        <time>2021-01-28T19:05:48.578Z</time>
      </trkpt>
      <trkpt lat="45.661900" lon="10.114031">
        <ele>656.471851</ele>
        <time>2021-01-28T19:05:49.862Z</time>
      </trkpt>
      <trkpt lat="45.661574" lon="10.113656">
        <ele>652.734897</ele>
        <time>2021-01-28T19:05:53.479Z</time>
      </trkpt>
      <trkpt lat="45.661272" lon="10.113464">
        <ele>649.812370</ele>
        <time>2021-01-28T19:05:56.325Z</time>
      </trkpt>
      <trkpt lat="45.661045" lon="10.113144">
        <ele>646.994240</ele>
        <time>2021-01-28T19:05:59.054Z</time>
      </trkpt>
      <trkpt lat="45.660903" lon="10.113120">
        <ele>645.729726</ele>
        <time>2021-01-28T19:06:00.351Z</time>
      </trkpt>
      <trkpt lat="45.661523" lon="10.114411">
        <ele>636.753001</ele>
        <time>2021-01-28T19:06:10.125Z</time>
      </trkpt>
      <trkpt lat="45.661635" lon="10.114545">
        <ele>635.673645</ele>
        <time>2021-01-28T19:06:11.419Z</time>
      </trkpt>
      <trkpt lat="45.661795" lon="10.114623">
        <ele>634.423980</ele>
        <time>2021-01-28T19:06:12.949Z</time>
      </trkpt>
      <trkpt lat="45.662161" lon="10.114515">
        <ele>631.661172</ele>
        <time>2021-01-28T19:06:16.268Z</time>
      </trkpt>
      <trkpt lat="45.662286" lon="10.114563">
        <ele>630.704337</ele>
        <time>2021-01-28T19:06:17.428Z</time>
      </trkpt>
      <trkpt lat="45.662322" lon="10.114729">
        <ele>629.806283</ele>
        <time>2021-01-28T19:06:18.512Z</time>
      </trkpt>
      <trkpt lat="45.662280" lon="10.115144">
        <ele>627.639647</ele>
        <time>2021-01-28T19:06:21.155Z</time>
      </trkpt>
      <trkpt lat="45.662317" lon="10.115341">
        <ele>626.607456</ele>
        <time>2021-01-28T19:06:22.452Z</time>
      </trkpt>
      <trkpt lat="45.662438" lon="10.115610">
        <ele>625.032480</ele>
        <time>2021-01-28T19:06:24.390Z</time>
      </trkpt>
      <trkpt lat="45.662957" lon="10.116039">
        <ele>620.810131</ele>
        <time>2021-01-28T19:06:29.811Z</time>
      </trkpt>
      <trkpt lat="45.663124" lon="10.116510">
        <ele>618.209911</ele>
        <time>2021-01-28T19:06:33.137Z</time>
      </trkpt>
      <trkpt lat="45.663158" lon="10.116827">
        <ele>616.630962</ele>
        <time>2021-01-28T19:06:35.132Z</time>
      </trkpt>
      <trkpt lat="45.663061" lon="10.116955">
        <ele>615.701416</ele>
        <time>2021-01-28T19:06:36.395Z</time>
      </trkpt>
      <trkpt lat="45.663002" lon="10.116980">
        <ele>615.267946</ele>
        <time>2021-01-28T19:06:36.907Z</time>
      </trkpt>
      <trkpt lat="45.662882" lon="10.116858">
        <ele>614.251649</ele>
        <time>2021-01-28T19:06:38.311Z</time>
      </trkpt>
      <trkpt lat="45.662624" lon="10.116627">
        <ele>612.410437</ele>
        <time>2021-01-28T19:06:41.071Z</time>
      </trkpt>
      <trkpt lat="45.662519" lon="10.116613">
        <ele>611.772466</ele>
        <time>2021-01-28T19:06:42.091Z</time>
      </trkpt>
      <trkpt lat="45.662289" lon="10.116755">
        <ele>610.257032</ele>
        <time>2021-01-28T19:06:44.343Z</time>
      </trkpt>
      <trkpt lat="45.662029" lon="10.116790">
        <ele>608.677163</ele>
        <time>2021-01-28T19:06:46.702Z</time>
      </trkpt>
      <trkpt lat="45.660802" lon="10.116590">
        <ele>601.418804</ele>
        <time>2021-01-28T19:06:58.193Z</time>
      </trkpt>
      <trkpt lat="45.660694" lon="10.116708">
        <ele>600.673054</ele>
        <time>2021-01-28T19:06:59.463Z</time>
      </trkpt>
      <trkpt lat="45.660679" lon="10.116910">
        <ele>599.893903</ele>
        <time>2021-01-28T19:07:00.782Z</time>
      </trkpt>
      <trkpt lat="45.660894" lon="10.117122">
        <ele>598.460930</ele>
        <time>2021-01-28T19:07:03.211Z</time>
      </trkpt>
      <trkpt lat="45.661523" lon="10.117561">
        <ele>594.620205</ele>
        <time>2021-01-28T19:07:09.773Z</time>
      </trkpt>
      <trkpt lat="45.661686" lon="10.117620">
        <ele>593.697482</ele>
        <time>2021-01-28T19:07:11.374Z</time>
      </trkpt>
      <trkpt lat="45.661787" lon="10.117623">
        <ele>593.038347</ele>
        <time>2021-01-28T19:07:12.292Z</time>
      </trkpt>
      <trkpt lat="45.662180" lon="10.117475">
        <ele>590.323837</ele>
        <time>2021-01-28T19:07:15.962Z</time>
      </trkpt>
      <trkpt lat="45.662285" lon="10.117498">
        <ele>589.614301</ele>
        <time>2021-01-28T19:07:16.906Z</time>
      </trkpt>
      <trkpt lat="45.662364" lon="10.117600">
        <ele>588.903528</ele>
        <time>2021-01-28T19:07:17.932Z</time>
      </trkpt>
      <trkpt lat="45.662491" lon="10.118848">
        <ele>583.016033</ele>
        <time>2021-01-28T19:07:25.887Z</time>
      </trkpt>
      <trkpt lat="45.662469" lon="10.118984">
        <ele>582.364358</ele>
        <time>2021-01-28T19:07:26.738Z</time>
      </trkpt>
      <trkpt lat="45.662418" lon="10.119113">
        <ele>581.672468</ele>
        <time>2021-01-28T19:07:27.702Z</time>
      </trkpt>
      <trkpt lat="45.662314" lon="10.119342">
        <ele>580.283100</ele>
        <time>2021-01-28T19:07:29.409Z</time>
      </trkpt>
      <trkpt lat="45.661749" lon="10.120869">
        <ele>571.456485</ele>
        <time>2021-01-28T19:07:40.121Z</time>
      </trkpt>
      <trkpt lat="45.661333" lon="10.121944">
        <ele>565.355713</ele>
        <time>2021-01-28T19:07:47.968Z</time>
      </trkpt>
      <trkpt lat="45.661212" lon="10.122424">
        <ele>562.889125</ele>
        <time>2021-01-28T19:07:51.265Z</time>
      </trkpt>
      <trkpt lat="45.661159" lon="10.123221">
        <ele>559.019098</ele>
        <time>2021-01-28T19:07:56.244Z</time>
      </trkpt>
      <trkpt lat="45.661141" lon="10.123504">
        <ele>557.645447</ele>
        <time>2021-01-28T19:07:58.031Z</time>
      </trkpt>
      <trkpt lat="45.661059" lon="10.123847">
        <ele>555.891564</ele>
        <time>2021-01-28T19:08:00.300Z</time>
      </trkpt>
      <trkpt lat="45.660845" lon="10.124264">
        <ele>553.361375</ele>
        <time>2021-01-28T19:08:03.542Z</time>
      </trkpt>
      <trkpt lat="45.660771" lon="10.124314">
        <ele>552.788707</ele>
        <time>2021-01-28T19:08:04.279Z</time>
      </trkpt>
      <trkpt lat="45.660581" lon="10.124408">
        <ele>551.381899</ele>
        <time>2021-01-28T19:08:06.063Z</time>
      </trkpt>
      <trkpt lat="45.660422" lon="10.124654">
        <ele>549.743152</ele>
        <time>2021-01-28T19:08:08.169Z</time>
      </trkpt>
      <trkpt lat="45.660299" lon="10.125033">
        <ele>547.699453</ele>
        <time>2021-01-28T19:08:10.792Z</time>
      </trkpt>
      <trkpt lat="45.660212" lon="10.125522">
        <ele>545.231582</ele>
        <time>2021-01-28T19:08:13.980Z</time>
      </trkpt>
      <trkpt lat="45.660219" lon="10.126285">
        <ele>541.831092</ele>
        <time>2021-01-28T19:08:18.823Z</time>
      </trkpt>
      <trkpt lat="45.660163" lon="10.126546">
        <ele>540.724275</ele>
        <time>2021-01-28T19:08:20.576Z</time>
      </trkpt>
      <trkpt lat="45.660071" lon="10.126567">
        <ele>540.183893</ele>
        <time>2021-01-28T19:08:21.427Z</time>
      </trkpt>
      <trkpt lat="45.659961" lon="10.126378">
        <ele>539.186819</ele>
        <time>2021-01-28T19:08:23.156Z</time>
      </trkpt>
      <trkpt lat="45.660004" lon="10.125791">
        <ele>536.794107</ele>
        <time>2021-01-28T19:08:27.045Z</time>
      </trkpt>
      <trkpt lat="45.660148" lon="10.125105">
        <ele>533.890370</ele>
        <time>2021-01-28T19:08:31.600Z</time>
      </trkpt>
      <trkpt lat="45.660113" lon="10.124929">
        <ele>533.148555</ele>
        <time>2021-01-28T19:08:32.841Z</time>
      </trkpt>
      <trkpt lat="45.660036" lon="10.124882">
        <ele>532.651985</ele>
        <time>2021-01-28T19:08:33.866Z</time>
      </trkpt>
      <trkpt lat="45.659974" lon="10.124890">
        <ele>532.279266</ele>
        <time>2021-01-28T19:08:34.375Z</time>
      </trkpt>
      <trkpt lat="45.659873" lon="10.125019">
        <ele>531.468660</ele>
        <time>2021-01-28T19:08:35.678Z</time>
      </trkpt>
      <trkpt lat="45.659752" lon="10.126140">
        <ele>526.722088</ele>
        <time>2021-01-28T19:08:42.988Z</time>
      </trkpt>
      <trkpt lat="45.659488" lon="10.127087">
        <ele>522.455636</ele>
        <time>2021-01-28T19:08:49.432Z</time>
      </trkpt>
      <trkpt lat="45.659520" lon="10.127234">
        <ele>521.986507</ele>
        <time>2021-01-28T19:08:50.445Z</time>
      </trkpt>
      <trkpt lat="45.659697" lon="10.127326">
        <ele>521.324904</ele>
        <time>2021-01-28T19:08:52.222Z</time>
      </trkpt>
      <trkpt lat="45.660673" lon="10.127222">
        <ele>517.886501</ele>
        <time>2021-01-28T19:09:01.881Z</time>
      </trkpt>
      <trkpt lat="45.660968" lon="10.127382">
        <ele>516.778137</ele>
        <time>2021-01-28T19:09:05.271Z</time>
      </trkpt>
      <trkpt lat="45.661080" lon="10.127527">
        <ele>516.247489</ele>
        <time>2021-01-28T19:09:06.953Z</time>
      </trkpt>
      <trkpt lat="45.661239" lon="10.127968">
        <ele>515.765999</ele>
        <time>2021-01-28T19:09:11.022Z</time>
      </trkpt>
      <trkpt lat="45.661611" lon="10.128678">
        <ele>515.397109</ele>
        <time>2021-01-28T19:09:19.025Z</time>
      </trkpt>
      <trkpt lat="45.661408" lon="10.128583">
        <ele>515.270067</ele>
        <time>2021-01-28T19:09:22.495Z</time>
      </trkpt>
      <trkpt lat="45.661123" lon="10.128104">
        <ele>515.008551</ele>
        <time>2021-01-28T19:09:28.900Z</time>
      </trkpt>
      <trkpt lat="45.660986" lon="10.127730">
        <ele>514.823542</ele>
        <time>2021-01-28T19:09:33.202Z</time>
      </trkpt>
      <trkpt lat="45.660862" lon="10.127572">
        <ele>514.654579</ele>
        <time>2021-01-28T19:09:35.398Z</time>
      </trkpt>
      <trkpt lat="45.660634" lon="10.127465">
        <ele>514.410406</ele>
        <time>2021-01-28T19:09:38.791Z</time>
      </trkpt>
      <trkpt lat="45.660322" lon="10.127511">
        <ele>514.091236</ele>
        <time>2021-01-28T19:09:43.064Z</time>
      </trkpt>
      <trkpt lat="45.659302" lon="10.128043">
        <ele>512.992691</ele>
        <time>2021-01-28T19:09:55.663Z</time>
      </trkpt>
      <trkpt lat="45.658840" lon="10.128026">
        <ele>512.621233</ele>
        <time>2021-01-28T19:10:00.581Z</time>
      </trkpt>
      <trkpt lat="45.658240" lon="10.128095">
        <ele>512.137425</ele>
        <time>2021-01-28T19:10:07.910Z</time>
      </trkpt>
      <trkpt lat="45.657880" lon="10.127983">
        <ele>511.841311</ele>
        <time>2021-01-28T19:10:12.766Z</time>
      </trkpt>
      <trkpt lat="45.657763" lon="10.128050">
        <ele>511.740019</ele>
        <time>2021-01-28T19:10:14.142Z</time>
      </trkpt>
      <trkpt lat="45.657653" lon="10.128339">
        <ele>511.630369</ele>
        <time>2021-01-28T19:10:18.759Z</time>
      </trkpt>
      <trkpt lat="45.657449" lon="10.129129">
        <ele>513.494700</ele>
        <time>2021-01-28T19:10:30.554Z</time>
      </trkpt>
      <trkpt lat="45.657086" lon="10.130175">
        <ele>516.079914</ele>
        <time>2021-01-28T19:10:54.628Z</time>
      </trkpt>
      <trkpt lat="45.657117" lon="10.130262">
        <ele>516.296087</ele>
        <time>2021-01-28T19:10:57.081Z</time>
      </trkpt>
      <trkpt lat="45.657202" lon="10.130258">
        <ele>516.565440</ele>
        <time>2021-01-28T19:11:00.158Z</time>
      </trkpt>
      <trkpt lat="45.658003" lon="10.129431">
        <ele>521.834544</ele>
        <time>2021-01-28T19:11:37.735Z</time>
      </trkpt>
      <trkpt lat="45.658077" lon="10.129472">
        <ele>522.307553</ele>
        <time>2021-01-28T19:11:40.878Z</time>
      </trkpt>
      <trkpt lat="45.658089" lon="10.129628">
        <ele>522.961396</ele>
        <time>2021-01-28T19:11:45.256Z</time>
      </trkpt>
      <trkpt lat="45.658029" lon="10.129839">
        <ele>523.910422</ele>
        <time>2021-01-28T19:11:51.201Z</time>
      </trkpt>
      <trkpt lat="45.657967" lon="10.130501">
        <ele>526.693066</ele>
        <time>2021-01-28T19:12:08.869Z</time>
      </trkpt>
      <trkpt lat="45.657946" lon="10.131243">
        <ele>530.187472</ele>
        <time>2021-01-28T19:12:30.728Z</time>
      </trkpt>
      <trkpt lat="45.657908" lon="10.131711">
        <ele>532.587469</ele>
        <time>2021-01-28T19:12:45.805Z</time>
      </trkpt>
      <trkpt lat="45.657823" lon="10.131903">
        <ele>533.745192</ele>
        <time>2021-01-28T19:12:53.058Z</time>
      </trkpt>
      <trkpt lat="45.657728" lon="10.132341">
        <ele>536.081303</ele>
        <time>2021-01-28T19:13:09.255Z</time>
      </trkpt>
      <trkpt lat="45.657610" lon="10.133230">
        <ele>540.690774</ele>
        <time>2021-01-28T19:13:37.837Z</time>
      </trkpt>
      <trkpt lat="45.657471" lon="10.134040">
        <ele>544.617203</ele>
        <time>2021-01-28T19:13:59.324Z</time>
      </trkpt>
      <trkpt lat="45.657401" lon="10.134410">
        <ele>546.406064</ele>
        <time>2021-01-28T19:14:09.744Z</time>
      </trkpt>
      <trkpt lat="45.657382" lon="10.134513">
        <ele>546.903206</ele>
        <time>2021-01-28T19:14:12.828Z</time>
      </trkpt>
      <trkpt lat="45.657311" lon="10.134725">
        <ele>548.000286</ele>
        <time>2021-01-28T19:14:19.157Z</time>
      </trkpt>
      <trkpt lat="45.657221" lon="10.134856">
        <ele>548.857529</ele>
        <time>2021-01-28T19:14:25.538Z</time>
      </trkpt>
      <trkpt lat="45.656993" lon="10.134943">
        <ele>550.433083</ele>
        <time>2021-01-28T19:14:35.711Z</time>
      </trkpt>
      <trkpt lat="45.656725" lon="10.134917">
        <ele>552.226610</ele>
        <time>2021-01-28T19:14:47.391Z</time>
      </trkpt>
      <trkpt lat="45.656624" lon="10.134929">
        <ele>552.903302</ele>
        <time>2021-01-28T19:14:52.241Z</time>
      </trkpt>
      <trkpt lat="45.656540" lon="10.134979">
        <ele>553.645410</ele>
        <time>2021-01-28T19:14:56.412Z</time>
      </trkpt>
      <trkpt lat="45.656474" lon="10.135111">
        <ele>554.654893</ele>
        <time>2021-01-28T19:15:00.960Z</time>
      </trkpt>
      <trkpt lat="45.656237" lon="10.135741">
        <ele>559.105000</ele>
        <time>2021-01-28T19:15:21.394Z</time>
      </trkpt>
      <trkpt lat="45.656142" lon="10.135971">
        <ele>560.766722</ele>
        <time>2021-01-28T19:15:30.317Z</time>
      </trkpt>
      <trkpt lat="45.655938" lon="10.136359">
        <ele>563.786649</ele>
        <time>2021-01-28T19:15:48.384Z</time>
      </trkpt>
      <trkpt lat="45.655722" lon="10.136751">
        <ele>566.891457</ele>
        <time>2021-01-28T19:16:08.952Z</time>
      </trkpt>
      <trkpt lat="45.655575" lon="10.137223">
        <ele>569.967415</ele>
        <time>2021-01-28T19:16:30.249Z</time>
      </trkpt>
      <trkpt lat="45.655547" lon="10.137394">
        <ele>570.907908</ele>
        <time>2021-01-28T19:16:38.291Z</time>
      </trkpt>
      <trkpt lat="45.655329" lon="10.137969">
        <ele>574.410823</ele>
        <time>2021-01-28T19:17:04.976Z</time>
      </trkpt>
      <trkpt lat="45.654571" lon="10.139505">
        <ele>582.829517</ele>
        <time>2021-01-28T19:17:56.599Z</time>
      </trkpt>
      <trkpt lat="45.654478" lon="10.139546">
        <ele>582.800162</ele>
        <time>2021-01-28T19:17:59.032Z</time>
      </trkpt>
      <trkpt lat="45.654335" lon="10.139400">
        <ele>582.747171</ele>
        <time>2021-01-28T19:18:02.127Z</time>
      </trkpt>
      <trkpt lat="45.654260" lon="10.139205">
        <ele>582.700243</ele>
        <time>2021-01-28T19:18:05.134Z</time>
      </trkpt>
      <trkpt lat="45.654197" lon="10.139081">
        <ele>582.667922</ele>
        <time>2021-01-28T19:18:06.475Z</time>
      </trkpt>
      <trkpt lat="45.654157" lon="10.139091">
        <ele>582.655674</ele>
        <time>2021-01-28T19:18:07.161Z</time>
      </trkpt>
      <trkpt lat="45.654106" lon="10.139103">
        <ele>582.640084</ele>
        <time>2021-01-28T19:18:07.905Z</time>
      </trkpt>
      <trkpt lat="45.654056" lon="10.139112">
        <ele>582.624883</ele>
        <time>2021-01-28T19:18:08.913Z</time>
      </trkpt>
      <trkpt lat="45.653997" lon="10.139153">
        <ele>582.605098</ele>
        <time>2021-01-28T19:18:09.914Z</time>
      </trkpt>
      <trkpt lat="45.653919" lon="10.139198">
        <ele>582.579729</ele>
        <time>2021-01-28T19:18:10.974Z</time>
      </trkpt>
      <trkpt lat="45.653883" lon="10.139204">
        <ele>582.568797</ele>
        <time>2021-01-28T19:18:11.371Z</time>
      </trkpt>
      <trkpt lat="45.653710" lon="10.139209">
        <ele>582.516603</ele>
        <time>2021-01-28T19:18:13.545Z</time>
      </trkpt>
      <trkpt lat="45.653343" lon="10.139067">
        <ele>582.401924</ele>
        <time>2021-01-28T19:18:17.352Z</time>
      </trkpt>
      <trkpt lat="45.653052" lon="10.139090">
        <ele>581.445002</ele>
        <time>2021-01-28T19:18:20.109Z</time>
      </trkpt>
      <trkpt lat="45.652642" lon="10.139248">
        <ele>578.178914</ele>
        <time>2021-01-28T19:18:23.972Z</time>
      </trkpt>
      <trkpt lat="45.652483" lon="10.139307">
        <ele>576.915433</ele>
        <time>2021-01-28T19:18:25.412Z</time>
      </trkpt>
      <trkpt lat="45.652339" lon="10.139338">
        <ele>575.795330</ele>
        <time>2021-01-28T19:18:26.783Z</time>
      </trkpt>
      <trkpt lat="45.652147" lon="10.139348">
        <ele>574.317509</ele>
        <time>2021-01-28T19:18:28.458Z</time>
      </trkpt>
      <trkpt lat="45.651766" lon="10.139218">
        <ele>571.304696</ele>
        <time>2021-01-28T19:18:31.905Z</time>
      </trkpt>
      <trkpt lat="45.651066" lon="10.138794">
        <ele>564.036023</ele>
        <time>2021-01-28T19:18:38.412Z</time>
      </trkpt>
      <trkpt lat="45.649921" lon="10.137920">
        <ele>549.411110</ele>
        <time>2021-01-28T19:18:49.399Z</time>
      </trkpt>
      <trkpt lat="45.648281" lon="10.137326">
        <ele>532.439337</ele>
        <time>2021-01-28T19:19:03.870Z</time>
      </trkpt>
      <trkpt lat="45.648098" lon="10.137087">
        <ele>530.245232</ele>
        <time>2021-01-28T19:19:06.050Z</time>
      </trkpt>
      <trkpt lat="45.647448" lon="10.135938">
        <ele>527.456840</ele>
        <time>2021-01-28T19:19:15.729Z</time>
      </trkpt>
      <trkpt lat="45.647082" lon="10.135370">
        <ele>525.999552</ele>
        <time>2021-01-28T19:19:25.018Z</time>
      </trkpt>
      <trkpt lat="45.646891" lon="10.135138">
        <ele>525.959051</ele>
        <time>2021-01-28T19:19:31.546Z</time>
      </trkpt>
      <trkpt lat="45.646619" lon="10.134800">
        <ele>528.638796</ele>
        <time>2021-01-28T19:19:44.488Z</time>
      </trkpt>
      <trkpt lat="45.646495" lon="10.134471">
        <ele>530.582186</ele>
        <time>2021-01-28T19:19:56.180Z</time>
      </trkpt>
      <trkpt lat="45.646485" lon="10.134182">
        <ele>532.086666</ele>
        <time>2021-01-28T19:20:06.331Z</time>
      </trkpt>
      <trkpt lat="45.646537" lon="10.133899">
        <ele>533.608088</ele>
        <time>2021-01-28T19:20:16.628Z</time>
      </trkpt>
      <trkpt lat="45.646724" lon="10.133555">
        <ele>535.873808</ele>
        <time>2021-01-28T19:20:33.145Z</time>
      </trkpt>
      <trkpt lat="45.647072" lon="10.133130">
        <ele>539.125954</ele>
        <time>2021-01-28T19:20:59.265Z</time>
      </trkpt>
      <trkpt lat="45.647455" lon="10.132778">
        <ele>541.254762</ele>
        <time>2021-01-28T19:21:20.988Z</time>
      </trkpt>
      <trkpt lat="45.647734" lon="10.132637">
        <ele>542.638465</ele>
        <time>2021-01-28T19:21:33.123Z</time>
      </trkpt>
      <trkpt lat="45.648148" lon="10.132556">
        <ele>544.592459</ele>
        <time>2021-01-28T19:21:46.841Z</time>
      </trkpt>
      <trkpt lat="45.648681" lon="10.132344">
        <ele>547.179457</ele>
        <time>2021-01-28T19:21:58.528Z</time>
      </trkpt>
      <trkpt lat="45.648746" lon="10.132227">
        <ele>547.024277</ele>
        <time>2021-01-28T19:22:00.190Z</time>
      </trkpt>
      <trkpt lat="45.648601" lon="10.129811">
        <ele>541.766519</ele>
        <time>2021-01-28T19:22:17.089Z</time>
      </trkpt>
      <trkpt lat="45.648487" lon="10.129609">
        <ele>540.725662</ele>
        <time>2021-01-28T19:22:18.778Z</time>
      </trkpt>
      <trkpt lat="45.648309" lon="10.129566">
        <ele>539.628960</ele>
        <time>2021-01-28T19:22:20.461Z</time>
      </trkpt>
      <trkpt lat="45.647281" lon="10.129808">
        <ele>533.299621</ele>
        <time>2021-01-28T19:22:29.953Z</time>
      </trkpt>
      <trkpt lat="45.646687" lon="10.129765">
        <ele>529.541098</ele>
        <time>2021-01-28T19:22:35.304Z</time>
      </trkpt>
      <trkpt lat="45.645692" lon="10.129556">
        <ele>522.616451</ele>
        <time>2021-01-28T19:22:44.332Z</time>
      </trkpt>
      <trkpt lat="45.645233" lon="10.129309">
        <ele>519.239709</ele>
        <time>2021-01-28T19:22:48.760Z</time>
      </trkpt>
      <trkpt lat="45.645021" lon="10.129044">
        <ele>517.128789</ele>
        <time>2021-01-28T19:22:51.333Z</time>
      </trkpt>
      <trkpt lat="45.644844" lon="10.128691">
        <ele>514.706782</ele>
        <time>2021-01-28T19:22:54.075Z</time>
      </trkpt>
      <trkpt lat="45.644649" lon="10.128145">
        <ele>511.288363</ele>
        <time>2021-01-28T19:22:57.868Z</time>
      </trkpt>
      <trkpt lat="45.644501" lon="10.127336">
        <ele>506.625940</ele>
        <time>2021-01-28T19:23:03.040Z</time>
      </trkpt>
      <trkpt lat="45.644499" lon="10.126872">
        <ele>504.037765</ele>
        <time>2021-01-28T19:23:05.876Z</time>
      </trkpt>
      <trkpt lat="45.644479" lon="10.126479">
        <ele>501.492316</ele>
        <time>2021-01-28T19:23:08.258Z</time>
      </trkpt>
      <trkpt lat="45.644482" lon="10.125590">
        <ele>495.749419</ele>
        <time>2021-01-28T19:23:13.642Z</time>
      </trkpt>
      <trkpt lat="45.643883" lon="10.123723">
        <ele>483.087659</ele>
        <time>2021-01-28T19:23:26.184Z</time>
      </trkpt>
      <trkpt lat="45.643770" lon="10.123426">
        <ele>481.171933</ele>
        <time>2021-01-28T19:23:28.244Z</time>
      </trkpt>
      <trkpt lat="45.643754" lon="10.123226">
        <ele>480.031418</ele>
        <time>2021-01-28T19:23:29.652Z</time>
      </trkpt>
      <trkpt lat="45.643824" lon="10.123077">
        <ele>479.014348</ele>
        <time>2021-01-28T19:23:30.744Z</time>
      </trkpt>
      <trkpt lat="45.644040" lon="10.122877">
        <ele>476.929155</ele>
        <time>2021-01-28T19:23:33.087Z</time>
      </trkpt>
      <trkpt lat="45.644106" lon="10.122657">
        <ele>475.572818</ele>
        <time>2021-01-28T19:23:34.532Z</time>
      </trkpt>
      <trkpt lat="45.644098" lon="10.122332">
        <ele>473.730367</ele>
        <time>2021-01-28T19:23:36.599Z</time>
      </trkpt>
      <trkpt lat="45.643869" lon="10.121332">
        <ele>466.763546</ele>
        <time>2021-01-28T19:23:43.070Z</time>
      </trkpt>
      <trkpt lat="45.643648" lon="10.120826">
        <ele>462.714726</ele>
        <time>2021-01-28T19:23:46.671Z</time>
      </trkpt>
      <trkpt lat="45.643127" lon="10.120059">
        <ele>455.457447</ele>
        <time>2021-01-28T19:23:53.065Z</time>
      </trkpt>
      <trkpt lat="45.642772" lon="10.119646">
        <ele>450.883956</ele>
        <time>2021-01-28T19:23:56.969Z</time>
      </trkpt>
      <trkpt lat="45.641991" lon="10.119111">
        <ele>442.225400</ele>
        <time>2021-01-28T19:24:04.388Z</time>
      </trkpt>
      <trkpt lat="45.641277" lon="10.118927">
        <ele>435.254087</ele>
        <time>2021-01-28T19:24:10.763Z</time>
      </trkpt>
      <trkpt lat="45.640924" lon="10.118989">
        <ele>432.111037</ele>
        <time>2021-01-28T19:24:13.874Z</time>
      </trkpt>
      <trkpt lat="45.639929" lon="10.119480">
        <ele>422.809145</ele>
        <time>2021-01-28T19:24:23.080Z</time>
      </trkpt>
      <trkpt lat="45.639736" lon="10.119622">
        <ele>420.695631</ele>
        <time>2021-01-28T19:24:24.981Z</time>
      </trkpt>
      <trkpt lat="45.639385" lon="10.120015">
        <ele>415.514336</ele>
        <time>2021-01-28T19:24:28.836Z</time>
      </trkpt>
      <trkpt lat="45.638624" lon="10.120679">
        <ele>405.152751</ele>
        <time>2021-01-28T19:24:36.398Z</time>
      </trkpt>
      <trkpt lat="45.638263" lon="10.121083">
        <ele>399.600552</ele>
        <time>2021-01-28T19:24:40.233Z</time>
      </trkpt>
      <trkpt lat="45.638193" lon="10.121120">
        <ele>398.483649</ele>
        <time>2021-01-28T19:24:40.847Z</time>
      </trkpt>
      <trkpt lat="45.638150" lon="10.121142">
        <ele>397.800157</ele>
        <time>2021-01-28T19:24:41.232Z</time>
      </trkpt>
      <trkpt lat="45.638097" lon="10.121170">
        <ele>396.954554</ele>
        <time>2021-01-28T19:24:41.690Z</time>
      </trkpt>
      <trkpt lat="45.637640" lon="10.121229">
        <ele>390.087109</ele>
        <time>2021-01-28T19:24:45.531Z</time>
      </trkpt>
      <trkpt lat="45.637327" lon="10.121106">
        <ele>385.229021</ele>
        <time>2021-01-28T19:24:48.205Z</time>
      </trkpt>
      <trkpt lat="45.637144" lon="10.121072">
        <ele>382.467160</ele>
        <time>2021-01-28T19:24:49.729Z</time>
      </trkpt>
      <trkpt lat="45.636679" lon="10.121146">
        <ele>375.464843</ele>
        <time>2021-01-28T19:24:53.587Z</time>
      </trkpt>
      <trkpt lat="45.636312" lon="10.121117">
        <ele>371.191664</ele>
        <time>2021-01-28T19:24:56.699Z</time>
      </trkpt>
      <trkpt lat="45.635877" lon="10.120930">
        <ele>366.636506</ele>
        <time>2021-01-28T19:25:00.552Z</time>
      </trkpt>
      <trkpt lat="45.635821" lon="10.120906">
        <ele>366.050242</ele>
        <time>2021-01-28T19:25:01.048Z</time>
      </trkpt>
      <trkpt lat="45.635613" lon="10.120801">
        <ele>363.838210</ele>
        <time>2021-01-28T19:25:02.938Z</time>
      </trkpt>
      <trkpt lat="45.635233" lon="10.120608">
        <ele>359.794248</ele>
        <time>2021-01-28T19:25:06.452Z</time>
      </trkpt>
      <trkpt lat="45.634819" lon="10.120447">
        <ele>355.567209</ele>
        <time>2021-01-28T19:25:10.324Z</time>
      </trkpt>
      <trkpt lat="45.634681" lon="10.120417">
        <ele>354.844433</ele>
        <time>2021-01-28T19:25:11.570Z</time>
      </trkpt>
      <trkpt lat="45.634373" lon="10.120323">
        <ele>353.213689</ele>
        <time>2021-01-28T19:25:15.855Z</time>
      </trkpt>
      <trkpt lat="45.634367" lon="10.120321">
        <ele>353.181788</ele>
        <time>2021-01-28T19:25:15.932Z</time>
      </trkpt>
      <trkpt lat="45.634373" lon="10.120323">
        <ele>353.149887</ele>
        <time>2021-01-28T19:25:16.003Z</time>
      </trkpt>
      <trkpt lat="45.634681" lon="10.120417">
        <ele>351.519143</ele>
        <time>2021-01-28T19:25:20.510Z</time>
      </trkpt>
      <trkpt lat="45.634593" lon="10.120397">
        <ele>351.057758</ele>
        <time>2021-01-28T19:25:21.291Z</time>
      </trkpt>
      <trkpt lat="45.633865" lon="10.120442">
        <ele>347.284633</ele>
        <time>2021-01-28T19:25:28.414Z</time>
      </trkpt>
      <trkpt lat="45.633151" lon="10.120441">
        <ele>341.459475</ele>
        <time>2021-01-28T19:25:35.048Z</time>
      </trkpt>
      <trkpt lat="45.632645" lon="10.120424">
        <ele>336.808263</ele>
        <time>2021-01-28T19:25:39.438Z</time>
      </trkpt>
      <trkpt lat="45.632372" lon="10.120397">
        <ele>334.293515</ele>
        <time>2021-01-28T19:25:41.839Z</time>
      </trkpt>
      <trkpt lat="45.632167" lon="10.120434">
        <ele>332.394706</ele>
        <time>2021-01-28T19:25:43.563Z</time>
      </trkpt>
      <trkpt lat="45.631950" lon="10.120632">
        <ele>330.029240</ele>
        <time>2021-01-28T19:25:45.711Z</time>
      </trkpt>
      <trkpt lat="45.631689" lon="10.120986">
        <ele>324.924765</ele>
        <time>2021-01-28T19:25:48.732Z</time>
      </trkpt>
      <trkpt lat="45.631472" lon="10.121339">
        <ele>320.141681</ele>
        <time>2021-01-28T19:25:51.553Z</time>
      </trkpt>
      <trkpt lat="45.631463" lon="10.121353">
        <ele>319.948152</ele>
        <time>2021-01-28T19:25:51.692Z</time>
      </trkpt>
      <trkpt lat="45.631209" lon="10.121696">
        <ele>314.864047</ele>
        <time>2021-01-28T19:25:54.639Z</time>
      </trkpt>
      <trkpt lat="45.630962" lon="10.121916">
        <ele>310.629218</ele>
        <time>2021-01-28T19:25:57.049Z</time>
      </trkpt>
      <trkpt lat="45.630575" lon="10.122092">
        <ele>304.719221</ele>
        <time>2021-01-28T19:26:00.420Z</time>
      </trkpt>
      <trkpt lat="45.630228" lon="10.122113">
        <ele>299.391746</ele>
        <time>2021-01-28T19:26:03.266Z</time>
      </trkpt>
      <trkpt lat="45.629731" lon="10.121942">
        <ele>291.440173</ele>
        <time>2021-01-28T19:26:07.492Z</time>
      </trkpt>
      <trkpt lat="45.629303" lon="10.121891">
        <ele>284.759458</ele>
        <time>2021-01-28T19:26:11.040Z</time>
      </trkpt>
      <trkpt lat="45.629101" lon="10.121895">
        <ele>281.616998</ele>
        <time>2021-01-28T19:26:12.764Z</time>
      </trkpt>
      <trkpt lat="45.628946" lon="10.121996">
        <ele>278.967419</ele>
        <time>2021-01-28T19:26:14.154Z</time>
      </trkpt>
      <trkpt lat="45.628415" lon="10.122334">
        <ele>271.589575</ele>
        <time>2021-01-28T19:26:19.061Z</time>
      </trkpt>
      <trkpt lat="45.628050" lon="10.122423">
        <ele>267.503316</ele>
        <time>2021-01-28T19:26:22.190Z</time>
      </trkpt>
      <trkpt lat="45.627922" lon="10.122420">
        <ele>266.090526</ele>
        <time>2021-01-28T19:26:23.236Z</time>
      </trkpt>
      <trkpt lat="45.627895" lon="10.122409">
        <ele>265.780699</ele>
        <time>2021-01-28T19:26:23.494Z</time>
      </trkpt>
      <trkpt lat="45.627751" lon="10.122298">
        <ele>263.975336</ele>
        <time>2021-01-28T19:26:24.994Z</time>
      </trkpt>
      <trkpt lat="45.627353" lon="10.121708">
        <ele>257.648733</ele>
        <time>2021-01-28T19:26:29.916Z</time>
      </trkpt>
      <trkpt lat="45.627258" lon="10.121486">
        <ele>255.704861</ele>
        <time>2021-01-28T19:26:31.632Z</time>
      </trkpt>
      <trkpt lat="45.627246" lon="10.121458">
        <ele>255.553010</ele>
        <time>2021-01-28T19:26:31.830Z</time>
      </trkpt>
      <trkpt lat="45.627137" lon="10.121089">
        <ele>253.700786</ele>
        <time>2021-01-28T19:26:34.296Z</time>
      </trkpt>
      <trkpt lat="45.627101" lon="10.121000">
        <ele>253.225367</ele>
        <time>2021-01-28T19:26:34.976Z</time>
      </trkpt>
      <trkpt lat="45.627029" lon="10.120819">
        <ele>252.262497</ele>
        <time>2021-01-28T19:26:36.218Z</time>
      </trkpt>
      <trkpt lat="45.626839" lon="10.120624">
        <ele>250.716109</ele>
        <time>2021-01-28T19:26:38.387Z</time>
      </trkpt>
      <trkpt lat="45.626766" lon="10.120554">
        <ele>250.134944</ele>
        <time>2021-01-28T19:26:39.192Z</time>
      </trkpt>
      <trkpt lat="45.626420" lon="10.120107">
        <ele>247.051728</ele>
        <time>2021-01-28T19:26:43.564Z</time>
      </trkpt>
      <trkpt lat="45.626312" lon="10.120453">
        <ele>245.299670</ele>
        <time>2021-01-28T19:26:46.004Z</time>
      </trkpt>
      <trkpt lat="45.626080" lon="10.120931">
        <ele>243.093791</ele>
        <time>2021-01-28T19:26:49.766Z</time>
      </trkpt>
      <trkpt lat="45.625980" lon="10.121058">
        <ele>242.539175</ele>
        <time>2021-01-28T19:26:50.938Z</time>
      </trkpt>
      <trkpt lat="45.626067" lon="10.121251">
        <ele>241.873283</ele>
        <time>2021-01-28T19:26:52.458Z</time>
      </trkpt>
      <trkpt lat="45.626237" lon="10.121825">
        <ele>240.065577</ele>
        <time>2021-01-28T19:26:56.761Z</time>
      </trkpt>
      <trkpt lat="45.626241" lon="10.121873">
        <ele>239.925394</ele>
        <time>2021-01-28T19:26:57.046Z</time>
      </trkpt>
      <trkpt lat="45.626240" lon="10.121926">
        <ele>239.771640</ele>
        <time>2021-01-28T19:26:57.368Z</time>
      </trkpt>
      <trkpt lat="45.626212" lon="10.122078">
        <ele>239.315808</ele>
        <time>2021-01-28T19:26:58.424Z</time>
      </trkpt>
      <trkpt lat="45.626058" lon="10.122645">
        <ele>237.551867</ele>
        <time>2021-01-28T19:27:02.780Z</time>
      </trkpt>
      <trkpt lat="45.626006" lon="10.122822">
        <ele>236.995117</ele>
        <time>2021-01-28T19:27:04.438Z</time>
      </trkpt>
      <trkpt lat="45.625982" lon="10.122902">
        <ele>236.742673</ele>
        <time>2021-01-28T19:27:04.985Z</time>
      </trkpt>
      <trkpt lat="45.625931" lon="10.123071">
        <ele>236.373687</ele>
        <time>2021-01-28T19:27:06.384Z</time>
      </trkpt>
      <trkpt lat="45.625908" lon="10.123135">
        <ele>236.307427</ele>
        <time>2021-01-28T19:27:06.966Z</time>
      </trkpt>
      <trkpt lat="45.625863" lon="10.123234">
        <ele>236.198698</ele>
        <time>2021-01-28T19:27:08.791Z</time>
      </trkpt>
      <trkpt lat="45.625732" lon="10.123503">
        <ele>235.896848</ele>
        <time>2021-01-28T19:27:11.426Z</time>
      </trkpt>
      <trkpt lat="45.625639" lon="10.123581">
        <ele>235.754880</ele>
        <time>2021-01-28T19:27:13.172Z</time>
      </trkpt>
      <trkpt lat="45.625603" lon="10.123586">
        <ele>235.707255</ele>
        <time>2021-01-28T19:27:14.356Z</time>
      </trkpt>
      <trkpt lat="45.625565" lon="10.123581">
        <ele>235.657007</ele>
        <time>2021-01-28T19:27:14.699Z</time>
      </trkpt>
      <trkpt lat="45.625123" lon="10.123432">
        <ele>235.059053</ele>
        <time>2021-01-28T19:27:20.276Z</time>
      </trkpt>
      <trkpt lat="45.624719" lon="10.123549">
        <ele>234.516288</ele>
        <time>2021-01-28T19:27:25.527Z</time>
      </trkpt>
      <trkpt lat="45.624585" lon="10.123601">
        <ele>234.333463</ele>
        <time>2021-01-28T19:27:27.336Z</time>
      </trkpt>
      <trkpt lat="45.624475" lon="10.123643">
        <ele>234.183546</ele>
        <time>2021-01-28T19:27:28.894Z</time>
      </trkpt>
      <trkpt lat="45.624269" lon="10.123695">
        <ele>233.718983</ele>
        <time>2021-01-28T19:27:31.161Z</time>
      </trkpt>
      <trkpt lat="45.624249" lon="10.123638">
        <ele>233.596396</ele>
        <time>2021-01-28T19:27:31.706Z</time>
      </trkpt>
      <trkpt lat="45.624209" lon="10.123608">
        <ele>233.472245</ele>
        <time>2021-01-28T19:27:32.486Z</time>
      </trkpt>
      <trkpt lat="45.624182" lon="10.123609">
        <ele>233.398007</ele>
        <time>2021-01-28T19:27:32.767Z</time>
      </trkpt>
      <trkpt lat="45.624134" lon="10.123330">
        <ele>232.845699</ele>
        <time>2021-01-28T19:27:34.836Z</time>
      </trkpt>
      <trkpt lat="45.623994" lon="10.123076">
        <ele>232.224027</ele>
        <time>2021-01-28T19:27:37.203Z</time>
      </trkpt>
      <trkpt lat="45.623302" lon="10.122509">
        <ele>230.031818</ele>
        <time>2021-01-28T19:27:45.241Z</time>
      </trkpt>
      <trkpt lat="45.622990" lon="10.122354">
        <ele>229.121909</ele>
        <time>2021-01-28T19:27:48.564Z</time>
      </trkpt>
      <trkpt lat="45.622750" lon="10.122232">
        <ele>228.321190</ele>
        <time>2021-01-28T19:27:51.128Z</time>
      </trkpt>
      <trkpt lat="45.622646" lon="10.122179">
        <ele>227.974114</ele>
        <time>2021-01-28T19:27:52.286Z</time>
      </trkpt>
      <trkpt lat="45.622490" lon="10.122106">
        <ele>227.458121</ele>
        <time>2021-01-28T19:27:53.968Z</time>
      </trkpt>
      <trkpt lat="45.621999" lon="10.121875">
        <ele>225.833217</ele>
        <time>2021-01-28T19:27:59.239Z</time>
      </trkpt>
      <trkpt lat="45.621507" lon="10.121636">
        <ele>224.199753</ele>
        <time>2021-01-28T19:28:04.475Z</time>
      </trkpt>
      <trkpt lat="45.621185" lon="10.121456">
        <ele>223.118556</ele>
        <time>2021-01-28T19:28:07.953Z</time>
      </trkpt>
      <trkpt lat="45.620928" lon="10.121313">
        <ele>222.264826</ele>
        <time>2021-01-28T19:28:10.861Z</time>
      </trkpt>
      <trkpt lat="45.620298" lon="10.120774">
        <ele>219.992003</ele>
        <time>2021-01-28T19:28:18.391Z</time>
      </trkpt>
      <trkpt lat="45.620263" lon="10.120744">
        <ele>219.865673</ele>
        <time>2021-01-28T19:28:18.759Z</time>
      </trkpt>
      <trkpt lat="45.619653" lon="10.120072">
        <ele>217.634547</ele>
        <time>2021-01-28T19:28:26.606Z</time>
      </trkpt>
      <trkpt lat="45.619214" lon="10.119722">
        <ele>216.626189</ele>
        <time>2021-01-28T19:28:31.805Z</time>
      </trkpt>
      <trkpt lat="45.618820" lon="10.119496">
        <ele>215.774537</ele>
        <time>2021-01-28T19:28:36.304Z</time>
      </trkpt>
      <trkpt lat="45.618119" lon="10.119218">
        <ele>214.315147</ele>
        <time>2021-01-28T19:28:44.999Z</time>
      </trkpt>
      <trkpt lat="45.617988" lon="10.119165">
        <ele>214.395375</ele>
        <time>2021-01-28T19:28:46.651Z</time>
      </trkpt>
      <trkpt lat="45.617566" lon="10.118996">
        <ele>214.685983</ele>
        <time>2021-01-28T19:28:53.107Z</time>
      </trkpt>
      <trkpt lat="45.616048" lon="10.118337">
        <ele>215.269715</ele>
        <time>2021-01-28T19:29:25.929Z</time>
      </trkpt>
      <trkpt lat="45.615276" lon="10.118132">
        <ele>214.764537</ele>
        <time>2021-01-28T19:29:35.749Z</time>
      </trkpt>
      <trkpt lat="45.614689" lon="10.117732">
        <ele>214.346171</ele>
        <time>2021-01-28T19:29:43.043Z</time>
      </trkpt>
      <trkpt lat="45.614514" lon="10.117569">
        <ele>213.656129</ele>
        <time>2021-01-28T19:29:45.563Z</time>
      </trkpt>
      <trkpt lat="45.614434" lon="10.117373">
        <ele>213.121881</ele>
        <time>2021-01-28T19:29:47.186Z</time>
      </trkpt>
      <trkpt lat="45.614373" lon="10.117153">
        <ele>212.564736</ele>
        <time>2021-01-28T19:29:49.045Z</time>
      </trkpt>
      <trkpt lat="45.614373" lon="10.117085">
        <ele>212.404646</ele>
        <time>2021-01-28T19:29:49.574Z</time>
      </trkpt>
      <trkpt lat="45.614359" lon="10.117020">
        <ele>212.244529</ele>
        <time>2021-01-28T19:29:50.021Z</time>
      </trkpt>
      <trkpt lat="45.614331" lon="10.116959">
        <ele>212.072759</ele>
        <time>2021-01-28T19:29:50.552Z</time>
      </trkpt>
      <trkpt lat="45.614244" lon="10.116886">
        <ele>211.733233</ele>
        <time>2021-01-28T19:29:51.624Z</time>
      </trkpt>
      <trkpt lat="45.614193" lon="10.116882">
        <ele>211.561323</ele>
        <time>2021-01-28T19:29:52.136Z</time>
      </trkpt>
      <trkpt lat="45.614144" lon="10.116899">
        <ele>211.391617</ele>
        <time>2021-01-28T19:29:52.689Z</time>
      </trkpt>
      <trkpt lat="45.614101" lon="10.116936">
        <ele>211.222699</ele>
        <time>2021-01-28T19:29:53.238Z</time>
      </trkpt>
      <trkpt lat="45.613995" lon="10.116942">
        <ele>210.865654</ele>
        <time>2021-01-28T19:29:54.240Z</time>
      </trkpt>
      <trkpt lat="45.613849" lon="10.116944">
        <ele>210.374238</ele>
        <time>2021-01-28T19:29:55.679Z</time>
      </trkpt>
      <trkpt lat="45.613758" lon="10.116973">
        <ele>210.060441</ele>
        <time>2021-01-28T19:29:56.645Z</time>
      </trkpt>
      <trkpt lat="45.613569" lon="10.117043">
        <ele>209.403321</ele>
        <time>2021-01-28T19:29:58.474Z</time>
      </trkpt>
      <trkpt lat="45.612846" lon="10.117420">
        <ele>206.363797</ele>
        <time>2021-01-28T19:30:05.709Z</time>
      </trkpt>
      <trkpt lat="45.612166" lon="10.117772">
        <ele>203.188899</ele>
        <time>2021-01-28T19:30:12.825Z</time>
      </trkpt>
      <trkpt lat="45.611997" lon="10.117863">
        <ele>202.396100</ele>
        <time>2021-01-28T19:30:14.506Z</time>
      </trkpt>
      <trkpt lat="45.611421" lon="10.118327">
        <ele>199.817434</ele>
        <time>2021-01-28T19:30:20.891Z</time>
      </trkpt>
      <trkpt lat="45.611269" lon="10.118473">
        <ele>199.302864</ele>
        <time>2021-01-28T19:30:22.632Z</time>
      </trkpt>
      <trkpt lat="45.610936" lon="10.118792">
        <ele>198.176484</ele>
        <time>2021-01-28T19:30:26.643Z</time>
      </trkpt>
      <trkpt lat="45.610889" lon="10.118839">
        <ele>198.015310</ele>
        <time>2021-01-28T19:30:27.240Z</time>
      </trkpt>
      <trkpt lat="45.610790" lon="10.118930">
        <ele>197.684580</ele>
        <time>2021-01-28T19:30:28.399Z</time>
      </trkpt>
      <trkpt lat="45.610245" lon="10.119406">
        <ele>195.889952</ele>
        <time>2021-01-28T19:30:35.634Z</time>
      </trkpt>
      <trkpt lat="45.609729" lon="10.119677">
        <ele>195.002060</ele>
        <time>2021-01-28T19:30:42.053Z</time>
      </trkpt>
      <trkpt lat="45.609415" lon="10.119758">
        <ele>194.697939</ele>
        <time>2021-01-28T19:30:45.977Z</time>
      </trkpt>
      <trkpt lat="45.609057" lon="10.119714">
        <ele>194.355454</ele>
        <time>2021-01-28T19:30:50.381Z</time>
      </trkpt>
      <trkpt lat="45.608800" lon="10.119586">
        <ele>194.096054</ele>
        <time>2021-01-28T19:30:53.680Z</time>
      </trkpt>
      <trkpt lat="45.608642" lon="10.119422">
        <ele>193.909943</ele>
        <time>2021-01-28T19:30:56.158Z</time>
      </trkpt>
      <trkpt lat="45.608608" lon="10.119386">
        <ele>193.869615</ele>
        <time>2021-01-28T19:30:56.650Z</time>
      </trkpt>
      <trkpt lat="45.608477" lon="10.119231">
        <ele>193.707529</ele>
        <time>2021-01-28T19:30:58.900Z</time>
      </trkpt>
      <trkpt lat="45.608412" lon="10.119152">
        <ele>193.626208</ele>
        <time>2021-01-28T19:31:00.053Z</time>
      </trkpt>
      <trkpt lat="45.608402" lon="10.119140">
        <ele>193.635414</ele>
        <time>2021-01-28T19:31:00.236Z</time>
      </trkpt>
      <trkpt lat="45.608290" lon="10.119014">
        <ele>193.764978</ele>
        <time>2021-01-28T19:31:02.118Z</time>
      </trkpt>
      <trkpt lat="45.608217" lon="10.118930">
        <ele>193.850169</ele>
        <time>2021-01-28T19:31:03.454Z</time>
      </trkpt>
      <trkpt lat="45.607696" lon="10.118274">
        <ele>194.481322</ele>
        <time>2021-01-28T19:31:14.188Z</time>
      </trkpt>
      <trkpt lat="45.605828" lon="10.116042">
        <ele>196.885368</ele>
        <time>2021-01-28T19:32:10.285Z</time>
      </trkpt>
      <trkpt lat="45.604852" lon="10.114556">
        <ele>192.770948</ele>
        <time>2021-01-28T19:32:24.773Z</time>
      </trkpt>
      <trkpt lat="45.604490" lon="10.113978">
        <ele>190.816325</ele>
        <time>2021-01-28T19:32:29.763Z</time>
      </trkpt>
      <trkpt lat="45.604379" lon="10.113765">
        <ele>190.365838</ele>
        <time>2021-01-28T19:32:31.469Z</time>
      </trkpt>
      <trkpt lat="45.604046" lon="10.113198">
        <ele>189.337206</ele>
        <time>2021-01-28T19:32:36.541Z</time>
      </trkpt>
      <trkpt lat="45.603943" lon="10.112989">
        <ele>188.981987</ele>
        <time>2021-01-28T19:32:38.274Z</time>
      </trkpt>
      <trkpt lat="45.603846" lon="10.112710">
        <ele>188.549091</ele>
        <time>2021-01-28T19:32:40.746Z</time>
      </trkpt>
      <trkpt lat="45.603825" lon="10.112579">
        <ele>188.362351</ele>
        <time>2021-01-28T19:32:41.662Z</time>
      </trkpt>
      <trkpt lat="45.603832" lon="10.112547">
        <ele>188.315765</ele>
        <time>2021-01-28T19:32:41.936Z</time>
      </trkpt>
      <trkpt lat="45.603834" lon="10.112496">
        <ele>188.244790</ele>
        <time>2021-01-28T19:32:42.323Z</time>
      </trkpt>
      <trkpt lat="45.603823" lon="10.112448">
        <ele>188.174607</ele>
        <time>2021-01-28T19:32:43.106Z</time>
      </trkpt>
      <trkpt lat="45.603803" lon="10.112407">
        <ele>188.105158</ele>
        <time>2021-01-28T19:32:43.868Z</time>
      </trkpt>
      <trkpt lat="45.603761" lon="10.112368">
        <ele>188.005686</ele>
        <time>2021-01-28T19:32:45.046Z</time>
      </trkpt>
      <trkpt lat="45.603711" lon="10.112361">
        <ele>187.905907</ele>
        <time>2021-01-28T19:32:46.270Z</time>
      </trkpt>
      <trkpt lat="45.603566" lon="10.112293">
        <ele>187.602822</ele>
        <time>2021-01-28T19:32:48.970Z</time>
      </trkpt>
      <trkpt lat="45.603323" lon="10.112112">
        <ele>187.063079</ele>
        <time>2021-01-28T19:32:55.154Z</time>
      </trkpt>
      <trkpt lat="45.603226" lon="10.112007">
        <ele>187.098786</ele>
        <time>2021-01-28T19:32:57.397Z</time>
      </trkpt>
      <trkpt lat="45.603171" lon="10.111962">
        <ele>187.117384</ele>
        <time>2021-01-28T19:32:58.899Z</time>
      </trkpt>
      <trkpt lat="45.603049" lon="10.111871">
        <ele>187.157768</ele>
        <time>2021-01-28T19:33:02.467Z</time>
      </trkpt>
      <trkpt lat="45.602982" lon="10.111825">
        <ele>187.179580</ele>
        <time>2021-01-28T19:33:03.868Z</time>
      </trkpt>
      <trkpt lat="45.602294" lon="10.111351">
        <ele>187.403711</ele>
        <time>2021-01-28T19:33:21.989Z</time>
      </trkpt>
      <trkpt lat="45.601924" lon="10.111079">
        <ele>187.525812</ele>
        <time>2021-01-28T19:33:27.070Z</time>
      </trkpt>
      <trkpt lat="45.601145" lon="10.110511">
        <ele>184.755938</ele>
        <time>2021-01-28T19:33:35.647Z</time>
      </trkpt>
      <trkpt lat="45.600977" lon="10.110446">
        <ele>184.002373</ele>
        <time>2021-01-28T19:33:37.332Z</time>
      </trkpt>
      <trkpt lat="45.600836" lon="10.110395">
        <ele>183.372643</ele>
        <time>2021-01-28T19:33:38.591Z</time>
      </trkpt>
      <trkpt lat="45.600527" lon="10.110369">
        <ele>182.032456</ele>
        <time>2021-01-28T19:33:41.433Z</time>
      </trkpt>
      <trkpt lat="45.600515" lon="10.110368">
        <ele>181.980412</ele>
        <time>2021-01-28T19:33:41.538Z</time>
      </trkpt>
      <trkpt lat="45.600297" lon="10.110321">
        <ele>181.025864</ele>
        <time>2021-01-28T19:33:43.653Z</time>
      </trkpt>
      <trkpt lat="45.598824" lon="10.109505">
        <ele>176.466072</ele>
        <time>2021-01-28T19:33:59.740Z</time>
      </trkpt>
      <trkpt lat="45.598687" lon="10.109417">
        <ele>176.079747</ele>
        <time>2021-01-28T19:34:01.512Z</time>
      </trkpt>
      <trkpt lat="45.598604" lon="10.109382">
        <ele>175.857167</ele>
        <time>2021-01-28T19:34:02.653Z</time>
      </trkpt>
      <trkpt lat="45.597855" lon="10.109079">
        <ele>175.021783</ele>
        <time>2021-01-28T19:34:12.339Z</time>
      </trkpt>
      <trkpt lat="45.597601" lon="10.109004">
        <ele>174.943657</ele>
        <time>2021-01-28T19:34:15.946Z</time>
      </trkpt>
      <trkpt lat="45.597525" lon="10.108958">
        <ele>174.918795</ele>
        <time>2021-01-28T19:34:17.088Z</time>
      </trkpt>
      <trkpt lat="45.597391" lon="10.108839">
        <ele>174.871274</ele>
        <time>2021-01-28T19:34:19.687Z</time>
      </trkpt>
      <trkpt lat="45.597334" lon="10.108761">
        <ele>174.847503</ele>
        <time>2021-01-28T19:34:20.661Z</time>
      </trkpt>
      <trkpt lat="45.597258" lon="10.108546">
        <ele>174.796734</ele>
        <time>2021-01-28T19:34:23.404Z</time>
      </trkpt>
      <trkpt lat="45.597246" lon="10.108485">
        <ele>174.783379</ele>
        <time>2021-01-28T19:34:24.148Z</time>
      </trkpt>
      <trkpt lat="45.597182" lon="10.108398">
        <ele>174.756773</ele>
        <time>2021-01-28T19:34:25.625Z</time>
      </trkpt>
      <trkpt lat="45.597095" lon="10.108391">
        <ele>174.730525</ele>
        <time>2021-01-28T19:34:26.853Z</time>
      </trkpt>
      <trkpt lat="45.597055" lon="10.108420">
        <ele>174.717015</ele>
        <time>2021-01-28T19:34:27.506Z</time>
      </trkpt>
      <trkpt lat="45.597029" lon="10.108457">
        <ele>174.705963</ele>
        <time>2021-01-28T19:34:28.010Z</time>
      </trkpt>
      <trkpt lat="45.597007" lon="10.108607">
        <ele>174.673661</ele>
        <time>2021-01-28T19:34:29.896Z</time>
      </trkpt>
      <trkpt lat="45.597073" lon="10.108727">
        <ele>174.641491</ele>
        <time>2021-01-28T19:34:31.668Z</time>
      </trkpt>
      <trkpt lat="45.597108" lon="10.108744">
        <ele>174.633486</ele>
        <time>2021-01-28T19:34:32.150Z</time>
      </trkpt>
      <trkpt lat="45.597194" lon="10.108815">
        <ele>174.624822</ele>
        <time>2021-01-28T19:34:33.417Z</time>
      </trkpt>
      <trkpt lat="45.597280" lon="10.108887">
        <ele>174.616127</ele>
        <time>2021-01-28T19:34:35.044Z</time>
      </trkpt>
      <trkpt lat="45.597312" lon="10.108965">
        <ele>174.610608</ele>
        <time>2021-01-28T19:34:36.240Z</time>
      </trkpt>
      <trkpt lat="45.597332" lon="10.109036">
        <ele>174.605937</ele>
        <time>2021-01-28T19:34:36.994Z</time>
      </trkpt>
      <trkpt lat="45.597397" lon="10.109304">
        <ele>174.588623</ele>
        <time>2021-01-28T19:34:39.621Z</time>
      </trkpt>
      <trkpt lat="45.597430" lon="10.109566">
        <ele>174.572374</ele>
        <time>2021-01-28T19:34:42.549Z</time>
      </trkpt>
      <trkpt lat="45.597437" lon="10.109616">
        <ele>174.569262</ele>
        <time>2021-01-28T19:34:43.072Z</time>
      </trkpt>
      <trkpt lat="45.597472" lon="10.109951">
        <ele>174.548587</ele>
        <time>2021-01-28T19:34:46.695Z</time>
      </trkpt>
      <trkpt lat="45.597478" lon="10.110008">
        <ele>174.545069</ele>
        <time>2021-01-28T19:34:47.330Z</time>
      </trkpt>
      <trkpt lat="45.597492" lon="10.110157">
        <ele>174.535893</ele>
        <time>2021-01-28T19:34:48.963Z</time>
      </trkpt>
      <trkpt lat="45.597570" lon="10.110653">
        <ele>174.504863</ele>
        <time>2021-01-28T19:34:54.439Z</time>
      </trkpt>
      <trkpt lat="45.597577" lon="10.110718">
        <ele>174.500849</ele>
        <time>2021-01-28T19:34:54.979Z</time>
      </trkpt>
      <trkpt lat="45.597490" lon="10.111056">
        <ele>174.478866</ele>
        <time>2021-01-28T19:34:58.916Z</time>
      </trkpt>
      <trkpt lat="45.596906" lon="10.112196">
        <ele>173.256785</ele>
        <time>2021-01-28T19:35:11.018Z</time>
      </trkpt>
      <trkpt lat="45.596803" lon="10.112713">
        <ele>172.786709</ele>
        <time>2021-01-28T19:35:15.213Z</time>
      </trkpt>
      <trkpt lat="45.596784" lon="10.112882">
        <ele>172.637026</ele>
        <time>2021-01-28T19:35:16.479Z</time>
      </trkpt>
      <trkpt lat="45.596738" lon="10.113497">
        <ele>172.083726</ele>
        <time>2021-01-28T19:35:21.316Z</time>
      </trkpt>
      <trkpt lat="45.596737" lon="10.113718">
        <ele>171.872505</ele>
        <time>2021-01-28T19:35:23.168Z</time>
      </trkpt>
      <trkpt lat="45.596745" lon="10.113820">
        <ele>171.774410</ele>
        <time>2021-01-28T19:35:23.946Z</time>
      </trkpt>
      <trkpt lat="45.596761" lon="10.113955">
        <ele>171.643548</ele>
        <time>2021-01-28T19:35:24.963Z</time>
      </trkpt>
      <trkpt lat="45.596859" lon="10.114729">
        <ele>170.891798</ele>
        <time>2021-01-28T19:35:31.470Z</time>
      </trkpt>
      <trkpt lat="45.596917" lon="10.115226">
        <ele>170.410239</ele>
        <time>2021-01-28T19:35:35.666Z</time>
      </trkpt>
      <trkpt lat="45.596970" lon="10.115641">
        <ele>170.007059</ele>
        <time>2021-01-28T19:35:39.213Z</time>
      </trkpt>
      <trkpt lat="45.597026" lon="10.116057">
        <ele>169.636009</ele>
        <time>2021-01-28T19:35:42.790Z</time>
      </trkpt>
      <trkpt lat="45.597059" lon="10.116358">
        <ele>169.402434</ele>
        <time>2021-01-28T19:35:45.437Z</time>
      </trkpt>
      <trkpt lat="45.597070" lon="10.116513">
        <ele>169.282995</ele>
        <time>2021-01-28T19:35:46.964Z</time>
      </trkpt>
      <trkpt lat="45.597073" lon="10.116773">
        <ele>169.083640</ele>
        <time>2021-01-28T19:35:49.227Z</time>
      </trkpt>
      <trkpt lat="45.597065" lon="10.117045">
        <ele>168.874929</ele>
        <time>2021-01-28T19:35:51.665Z</time>
      </trkpt>
      <trkpt lat="45.597058" lon="10.117206">
        <ele>168.751261</ele>
        <time>2021-01-28T19:35:53.043Z</time>
      </trkpt>
      <trkpt lat="45.597053" lon="10.117305">
        <ele>168.675166</ele>
        <time>2021-01-28T19:35:53.872Z</time>
      </trkpt>
      <trkpt lat="45.597049" lon="10.117360">
        <ele>168.632774</ele>
        <time>2021-01-28T19:35:54.325Z</time>
      </trkpt>
      <trkpt lat="45.597016" lon="10.117884">
        <ele>168.229428</ele>
        <time>2021-01-28T19:35:58.728Z</time>
      </trkpt>
      <trkpt lat="45.596937" lon="10.118783">
        <ele>167.525961</ele>
        <time>2021-01-28T19:36:06.244Z</time>
      </trkpt>
      <trkpt lat="45.596915" lon="10.118921">
        <ele>167.413869</ele>
        <time>2021-01-28T19:36:07.345Z</time>
      </trkpt>
      <trkpt lat="45.596906" lon="10.118986">
        <ele>167.361393</ele>
        <time>2021-01-28T19:36:08.872Z</time>
      </trkpt>
      <trkpt lat="45.596869" lon="10.119298">
        <ele>167.110775</ele>
        <time>2021-01-28T19:36:16.212Z</time>
      </trkpt>
      <trkpt lat="45.596848" lon="10.119627">
        <ele>166.849135</ele>
        <time>2021-01-28T19:36:23.763Z</time>
      </trkpt>
      <trkpt lat="45.596831" lon="10.119965">
        <ele>166.580759</ele>
        <time>2021-01-28T19:36:26.583Z</time>
      </trkpt>
      <trkpt lat="45.596820" lon="10.120112">
        <ele>166.463676</ele>
        <time>2021-01-28T19:36:27.808Z</time>
      </trkpt>
      <trkpt lat="45.596768" lon="10.120933">
        <ele>165.810811</ele>
        <time>2021-01-28T19:36:34.917Z</time>
      </trkpt>
      <trkpt lat="45.596756" lon="10.121395">
        <ele>165.681173</ele>
        <time>2021-01-28T19:36:39.047Z</time>
      </trkpt>
      <trkpt lat="45.596752" lon="10.121438">
        <ele>165.672056</ele>
        <time>2021-01-28T19:36:39.504Z</time>
      </trkpt>
      <trkpt lat="45.596749" lon="10.121472">
        <ele>165.664855</ele>
        <time>2021-01-28T19:36:39.861Z</time>
      </trkpt>
      <trkpt lat="45.596536" lon="10.122422">
        <ele>165.455205</ele>
        <time>2021-01-28T19:36:50.108Z</time>
      </trkpt>
      <trkpt lat="45.596516" lon="10.122568">
        <ele>165.423940</ele>
        <time>2021-01-28T19:36:51.778Z</time>
      </trkpt>
      <trkpt lat="45.596502" lon="10.122723">
        <ele>165.391095</ele>
        <time>2021-01-28T19:36:53.237Z</time>
      </trkpt>
      <trkpt lat="45.596549" lon="10.123197">
        <ele>165.290484</ele>
        <time>2021-01-28T19:36:58.175Z</time>
      </trkpt>
      <trkpt lat="45.596555" lon="10.123305">
        <ele>165.267716</ele>
        <time>2021-01-28T19:36:59.241Z</time>
      </trkpt>
      <trkpt lat="45.596544" lon="10.123782">
        <ele>165.055189</ele>
        <time>2021-01-28T19:37:03.823Z</time>
      </trkpt>
      <trkpt lat="45.596501" lon="10.124567">
        <ele>164.574725</ele>
        <time>2021-01-28T19:37:10.997Z</time>
      </trkpt>
      <trkpt lat="45.596511" lon="10.124646">
        <ele>164.525737</ele>
        <time>2021-01-28T19:37:11.728Z</time>
      </trkpt>
      <trkpt lat="45.596557" lon="10.124759">
        <ele>164.445966</ele>
        <time>2021-01-28T19:37:12.787Z</time>
      </trkpt>
      <trkpt lat="45.596594" lon="10.124918">
        <ele>164.343721</ele>
        <time>2021-01-28T19:37:14.290Z</time>
      </trkpt>
      <trkpt lat="45.596520" lon="10.127299">
        <ele>163.114121</ele>
        <time>2021-01-28T19:37:33.968Z</time>
      </trkpt>
      <trkpt lat="45.596596" lon="10.127905">
        <ele>162.848304</ele>
        <time>2021-01-28T19:37:39.728Z</time>
      </trkpt>
      <trkpt lat="45.596700" lon="10.128732">
        <ele>162.646085</ele>
        <time>2021-01-28T19:37:48.837Z</time>
      </trkpt>
      <trkpt lat="45.596777" lon="10.129379">
        <ele>163.091286</ele>
        <time>2021-01-28T19:37:57.430Z</time>
      </trkpt>
      <trkpt lat="45.596761" lon="10.130906">
        <ele>164.127255</ele>
        <time>2021-01-28T19:38:18.385Z</time>
      </trkpt>
      <trkpt lat="45.596754" lon="10.130975">
        <ele>164.174551</ele>
        <time>2021-01-28T19:38:19.681Z</time>
      </trkpt>
      <trkpt lat="45.596718" lon="10.131122">
        <ele>164.280202</ele>
        <time>2021-01-28T19:38:21.694Z</time>
      </trkpt>
      <trkpt lat="45.596681" lon="10.131252">
        <ele>164.356052</ele>
        <time>2021-01-28T19:38:23.519Z</time>
      </trkpt>
      <trkpt lat="45.596551" lon="10.131303">
        <ele>164.456516</ele>
        <time>2021-01-28T19:38:26.778Z</time>
      </trkpt>
      <trkpt lat="45.596427" lon="10.131360">
        <ele>164.553588</ele>
        <time>2021-01-28T19:38:30.097Z</time>
      </trkpt>
      <trkpt lat="45.596368" lon="10.131373">
        <ele>164.598076</ele>
        <time>2021-01-28T19:38:31.558Z</time>
      </trkpt>
      <trkpt lat="45.596317" lon="10.131418">
        <ele>164.642743</ele>
        <time>2021-01-28T19:38:32.922Z</time>
      </trkpt>
      <trkpt lat="45.596286" lon="10.131476">
        <ele>164.680802</ele>
        <time>2021-01-28T19:38:34.069Z</time>
      </trkpt>
      <trkpt lat="45.596271" lon="10.131617">
        <ele>164.755171</ele>
        <time>2021-01-28T19:38:36.943Z</time>
      </trkpt>
      <trkpt lat="45.596288" lon="10.131686">
        <ele>164.793316</ele>
        <time>2021-01-28T19:38:38.193Z</time>
      </trkpt>
      <trkpt lat="45.596342" lon="10.131881">
        <ele>164.902673</ele>
        <time>2021-01-28T19:38:41.810Z</time>
      </trkpt>
      <trkpt lat="45.596350" lon="10.132125">
        <ele>165.030046</ele>
        <time>2021-01-28T19:38:46.067Z</time>
      </trkpt>
      <trkpt lat="45.596320" lon="10.132228">
        <ele>165.088222</ele>
        <time>2021-01-28T19:38:47.909Z</time>
      </trkpt>
      <trkpt lat="45.596190" lon="10.132597">
        <ele>165.303650</ele>
        <time>2021-01-28T19:38:54.740Z</time>
      </trkpt>
      <trkpt lat="45.596166" lon="10.132689">
        <ele>165.354850</ele>
        <time>2021-01-28T19:38:56.272Z</time>
      </trkpt>
      <trkpt lat="45.596119" lon="10.132877">
        <ele>165.458952</ele>
        <time>2021-01-28T19:38:59.212Z</time>
      </trkpt>
      <trkpt lat="45.595920" lon="10.133967">
        <ele>165.160180</ele>
        <time>2021-01-28T19:39:14.305Z</time>
      </trkpt>
      <trkpt lat="45.595910" lon="10.134023">
        <ele>165.125839</ele>
        <time>2021-01-28T19:39:14.976Z</time>
      </trkpt>
      <trkpt lat="45.595794" lon="10.134570">
        <ele>164.786227</ele>
        <time>2021-01-28T19:39:22.379Z</time>
      </trkpt>
      <trkpt lat="45.595684" lon="10.135191">
        <ele>164.405603</ele>
        <time>2021-01-28T19:39:30.025Z</time>
      </trkpt>
      <trkpt lat="45.595678" lon="10.135224">
        <ele>164.385344</ele>
        <time>2021-01-28T19:39:30.400Z</time>
      </trkpt>
      <trkpt lat="45.595566" lon="10.135903">
        <ele>163.878762</ele>
        <time>2021-01-28T19:39:36.072Z</time>
      </trkpt>
      <trkpt lat="45.595387" lon="10.136583">
        <ele>163.150365</ele>
        <time>2021-01-28T19:39:41.560Z</time>
      </trkpt>
      <trkpt lat="45.595360" lon="10.136691">
        <ele>163.035384</ele>
        <time>2021-01-28T19:39:42.387Z</time>
      </trkpt>
      <trkpt lat="45.595288" lon="10.137159">
        <ele>162.554971</ele>
        <time>2021-01-28T19:39:46.060Z</time>
      </trkpt>
      <trkpt lat="45.595244" lon="10.137597">
        <ele>162.111341</ele>
        <time>2021-01-28T19:39:49.645Z</time>
      </trkpt>
      <trkpt lat="45.595254" lon="10.138213">
        <ele>161.562704</ele>
        <time>2021-01-28T19:39:55.282Z</time>
      </trkpt>
      <trkpt lat="45.595257" lon="10.138355">
        <ele>161.709082</ele>
        <time>2021-01-28T19:39:56.550Z</time>
      </trkpt>
      <trkpt lat="45.595252" lon="10.138472">
        <ele>161.829858</ele>
        <time>2021-01-28T19:39:58.006Z</time>
      </trkpt>
      <trkpt lat="45.595248" lon="10.138542">
        <ele>161.902223</ele>
        <time>2021-01-28T19:39:58.916Z</time>
      </trkpt>
      <trkpt lat="45.595245" lon="10.138606">
        <ele>161.968314</ele>
        <time>2021-01-28T19:39:59.629Z</time>
      </trkpt>
      <trkpt lat="45.595259" lon="10.138879">
        <ele>162.250356</ele>
        <time>2021-01-28T19:40:02.413Z</time>
      </trkpt>
      <trkpt lat="45.595276" lon="10.139187">
        <ele>162.568692</ele>
        <time>2021-01-28T19:40:06.588Z</time>
      </trkpt>
      <trkpt lat="45.595296" lon="10.139244">
        <ele>162.634393</ele>
        <time>2021-01-28T19:40:07.614Z</time>
      </trkpt>
      <trkpt lat="45.595316" lon="10.139367">
        <ele>162.764504</ele>
        <time>2021-01-28T19:40:08.992Z</time>
      </trkpt>
      <trkpt lat="45.595336" lon="10.139520">
        <ele>162.924876</ele>
        <time>2021-01-28T19:40:11.382Z</time>
      </trkpt>
      <trkpt lat="45.595387" lon="10.140481">
        <ele>163.917892</ele>
        <time>2021-01-28T19:40:27.288Z</time>
      </trkpt>
      <trkpt lat="45.595704" lon="10.141861">
        <ele>167.226753</ele>
        <time>2021-01-28T19:40:57.530Z</time>
      </trkpt>
      <trkpt lat="45.595713" lon="10.142279">
        <ele>168.288312</ele>
        <time>2021-01-28T19:41:05.506Z</time>
      </trkpt>
      <trkpt lat="45.595699" lon="10.142966">
        <ele>170.032942</ele>
        <time>2021-01-28T19:41:22.682Z</time>
      </trkpt>
      <trkpt lat="45.595695" lon="10.143098">
        <ele>170.368327</ele>
        <time>2021-01-28T19:41:26.116Z</time>
      </trkpt>
      <trkpt lat="45.595692" lon="10.143177">
        <ele>170.569157</ele>
        <time>2021-01-28T19:41:28.143Z</time>
      </trkpt>
      <trkpt lat="45.595647" lon="10.143491">
        <ele>171.557593</ele>
        <time>2021-01-28T19:41:36.283Z</time>
      </trkpt>
      <trkpt lat="45.595403" lon="10.144331">
        <ele>174.458581</ele>
        <time>2021-01-28T19:41:57.012Z</time>
      </trkpt>
      <trkpt lat="45.595312" lon="10.144731">
        <ele>175.800179</ele>
        <time>2021-01-28T19:42:07.233Z</time>
      </trkpt>
      <trkpt lat="45.595240" lon="10.145201">
        <ele>177.334820</ele>
        <time>2021-01-28T19:42:18.164Z</time>
      </trkpt>
      <trkpt lat="45.595230" lon="10.145872">
        <ele>179.469849</ele>
        <time>2021-01-28T19:42:33.425Z</time>
      </trkpt>
      <trkpt lat="45.595281" lon="10.147045">
        <ele>183.181301</ele>
        <time>2021-01-28T19:43:05.907Z</time>
      </trkpt>
      <trkpt lat="45.595251" lon="10.147023">
        <ele>183.333482</ele>
        <time>2021-01-28T19:43:08.833Z</time>
      </trkpt>
      <trkpt lat="45.595262" lon="10.147148">
        <ele>183.731338</ele>
        <time>2021-01-28T19:43:11.405Z</time>
      </trkpt>
      <trkpt lat="45.595251" lon="10.147302">
        <ele>184.220194</ele>
        <time>2021-01-28T19:43:14.532Z</time>
      </trkpt>
      <trkpt lat="45.595167" lon="10.147367">
        <ele>184.651307</ele>
        <time>2021-01-28T19:43:17.439Z</time>
      </trkpt>
      <trkpt lat="45.595148" lon="10.147372">
        <ele>184.738499</ele>
        <time>2021-01-28T19:43:17.873Z</time>
      </trkpt>
      <trkpt lat="45.594412" lon="10.147272">
        <ele>186.970501</ele>
        <time>2021-01-28T19:43:36.566Z</time>
      </trkpt>
      <trkpt lat="45.594389" lon="10.147299">
        <ele>186.964476</ele>
        <time>2021-01-28T19:43:38.975Z</time>
      </trkpt>
      <trkpt lat="45.594315" lon="10.148282">
        <ele>186.824437</ele>
        <time>2021-01-28T19:43:48.501Z</time>
      </trkpt>
      <trkpt lat="45.594294" lon="10.148542">
        <ele>186.787365</ele>
        <time>2021-01-28T19:43:51.187Z</time>
      </trkpt>
      <trkpt lat="45.594253" lon="10.149039">
        <ele>186.716481</ele>
        <time>2021-01-28T19:43:55.458Z</time>
      </trkpt>
      <trkpt lat="45.593958" lon="10.149674">
        <ele>186.064339</ele>
        <time>2021-01-28T19:44:01.021Z</time>
      </trkpt>
      <trkpt lat="45.593715" lon="10.150802">
        <ele>183.889480</ele>
        <time>2021-01-28T19:44:09.315Z</time>
      </trkpt>
      <trkpt lat="45.593585" lon="10.151194">
        <ele>183.090114</ele>
        <time>2021-01-28T19:44:12.631Z</time>
      </trkpt>
      <trkpt lat="45.593544" lon="10.151715">
        <ele>182.124002</ele>
        <time>2021-01-28T19:44:16.679Z</time>
      </trkpt>
      <trkpt lat="45.593476" lon="10.151751">
        <ele>181.933036</ele>
        <time>2021-01-28T19:44:17.493Z</time>
      </trkpt>
      <trkpt lat="45.593411" lon="10.152103">
        <ele>181.410409</ele>
        <time>2021-01-28T19:44:20.208Z</time>
      </trkpt>
      <trkpt lat="45.593383" lon="10.152174">
        <ele>181.294210</ele>
        <time>2021-01-28T19:44:20.812Z</time>
      </trkpt>
      <trkpt lat="45.593365" lon="10.152260">
        <ele>181.166226</ele>
        <time>2021-01-28T19:44:21.515Z</time>
      </trkpt>
      <trkpt lat="45.593321" lon="10.152481">
        <ele>180.838625</ele>
        <time>2021-01-28T19:44:26.628Z</time>
      </trkpt>
      <trkpt lat="45.593267" lon="10.152678">
        <ele>180.536966</ele>
        <time>2021-01-28T19:44:31.195Z</time>
      </trkpt>
      <trkpt lat="45.593164" lon="10.152649">
        <ele>180.323064</ele>
        <time>2021-01-28T19:44:34.600Z</time>
      </trkpt>
      <trkpt lat="45.593057" lon="10.152650">
        <ele>180.105041</ele>
        <time>2021-01-28T19:44:38.039Z</time>
      </trkpt>
      <trkpt lat="45.592856" lon="10.152636">
        <ele>179.695007</ele>
        <time>2021-01-28T19:44:40.250Z</time>
      </trkpt>
      <trkpt lat="45.592796" lon="10.152628">
        <ele>179.572223</ele>
        <time>2021-01-28T19:44:40.949Z</time>
      </trkpt>
      <trkpt lat="45.592786" lon="10.152626">
        <ele>179.551649</ele>
        <time>2021-01-28T19:44:41.044Z</time>
      </trkpt>
      <trkpt lat="45.592671" lon="10.152614">
        <ele>179.316707</ele>
        <time>2021-01-28T19:44:42.369Z</time>
      </trkpt>
      <trkpt lat="45.592374" lon="10.152582">
        <ele>178.709836</ele>
        <time>2021-01-28T19:44:45.645Z</time>
      </trkpt>
      <trkpt lat="45.592313" lon="10.152600">
        <ele>178.582923</ele>
        <time>2021-01-28T19:44:46.356Z</time>
      </trkpt>
      <trkpt lat="45.592259" lon="10.152668">
        <ele>178.436273</ele>
        <time>2021-01-28T19:44:47.083Z</time>
      </trkpt>
      <trkpt lat="45.592243" lon="10.152747">
        <ele>178.319012</ele>
        <time>2021-01-28T19:44:47.716Z</time>
      </trkpt>
      <trkpt lat="45.592211" lon="10.153777">
        <ele>176.819559</ele>
        <time>2021-01-28T19:44:55.486Z</time>
      </trkpt>
      <trkpt lat="45.592208" lon="10.153850">
        <ele>176.713110</ele>
        <time>2021-01-28T19:44:56.042Z</time>
      </trkpt>
      <trkpt lat="45.592195" lon="10.154012">
        <ele>176.475740</ele>
        <time>2021-01-28T19:44:57.300Z</time>
      </trkpt>
      <trkpt lat="45.592180" lon="10.154073">
        <ele>176.381619</ele>
        <time>2021-01-28T19:44:57.808Z</time>
      </trkpt>
      <trkpt lat="45.592039" lon="10.154445">
        <ele>175.765760</ele>
        <time>2021-01-28T19:45:01.038Z</time>
      </trkpt>
      <trkpt lat="45.591917" lon="10.154766">
        <ele>175.234003</ele>
        <time>2021-01-28T19:45:03.785Z</time>
      </trkpt>
      <trkpt lat="45.591700" lon="10.155354">
        <ele>174.294897</ele>
        <time>2021-01-28T19:45:09.047Z</time>
      </trkpt>
      <trkpt lat="45.591670" lon="10.155508">
        <ele>174.089418</ele>
        <time>2021-01-28T19:45:10.301Z</time>
      </trkpt>
      <trkpt lat="45.591619" lon="10.156367">
        <ele>172.981294</ele>
        <time>2021-01-28T19:45:16.935Z</time>
      </trkpt>
      <trkpt lat="45.591517" lon="10.156394">
        <ele>172.790744</ele>
        <time>2021-01-28T19:45:18.098Z</time>
      </trkpt>
      <trkpt lat="45.591342" lon="10.156380">
        <ele>172.468784</ele>
        <time>2021-01-28T19:45:20.001Z</time>
      </trkpt>
      <trkpt lat="45.590629" lon="10.156312">
        <ele>171.156672</ele>
        <time>2021-01-28T19:45:28.179Z</time>
      </trkpt>
      <trkpt lat="45.589203" lon="10.156222">
        <ele>168.560925</ele>
        <time>2021-01-28T19:45:44.226Z</time>
      </trkpt>
      <trkpt lat="45.588947" lon="10.156212">
        <ele>168.095208</ele>
        <time>2021-01-28T19:45:47.052Z</time>
      </trkpt>
      <trkpt lat="45.588608" lon="10.156206">
        <ele>167.342938</ele>
        <time>2021-01-28T19:45:50.717Z</time>
      </trkpt>
      <trkpt lat="45.587956" lon="10.156216">
        <ele>165.805167</ele>
        <time>2021-01-28T19:45:57.658Z</time>
      </trkpt>
      <trkpt lat="45.587729" lon="10.156209">
        <ele>165.269683</ele>
        <time>2021-01-28T19:46:00.087Z</time>
      </trkpt>
      <trkpt lat="45.586909" lon="10.156185">
        <ele>163.377884</ele>
        <time>2021-01-28T19:46:08.692Z</time>
      </trkpt>
      <trkpt lat="45.586761" lon="10.156180">
        <ele>163.070124</ele>
        <time>2021-01-28T19:46:10.257Z</time>
      </trkpt>
      <trkpt lat="45.586566" lon="10.156174">
        <ele>162.664648</ele>
        <time>2021-01-28T19:46:12.306Z</time>
      </trkpt>
      <trkpt lat="45.586493" lon="10.156171">
        <ele>162.512826</ele>
        <time>2021-01-28T19:46:13.078Z</time>
      </trkpt>
      <trkpt lat="45.586313" lon="10.156241">
        <ele>162.125017</ele>
        <time>2021-01-28T19:46:15.124Z</time>
      </trkpt>
      <trkpt lat="45.586258" lon="10.156243">
        <ele>162.010641</ele>
        <time>2021-01-28T19:46:15.715Z</time>
      </trkpt>
      <trkpt lat="45.586229" lon="10.156194">
        <ele>161.917278</ele>
        <time>2021-01-28T19:46:16.195Z</time>
      </trkpt>
      <trkpt lat="45.586181" lon="10.156150">
        <ele>161.798723</ele>
        <time>2021-01-28T19:46:16.812Z</time>
      </trkpt>
      <trkpt lat="45.586127" lon="10.156136">
        <ele>161.684631</ele>
        <time>2021-01-28T19:46:17.419Z</time>
      </trkpt>
      <trkpt lat="45.586075" lon="10.156150">
        <ele>161.574627</ele>
        <time>2021-01-28T19:46:17.998Z</time>
      </trkpt>
      <trkpt lat="45.586060" lon="10.156159">
        <ele>161.540806</ele>
        <time>2021-01-28T19:46:18.181Z</time>
      </trkpt>
      <trkpt lat="45.586025" lon="10.156193">
        <ele>161.452823</ele>
        <time>2021-01-28T19:46:18.665Z</time>
      </trkpt>
      <trkpt lat="45.585994" lon="10.156255">
        <ele>161.341964</ele>
        <time>2021-01-28T19:46:19.259Z</time>
      </trkpt>
      <trkpt lat="45.585977" lon="10.156337">
        <ele>161.217539</ele>
        <time>2021-01-28T19:46:19.902Z</time>
      </trkpt>
      <trkpt lat="45.585981" lon="10.156463">
        <ele>161.034035</ele>
        <time>2021-01-28T19:46:20.867Z</time>
      </trkpt>
      <trkpt lat="45.585968" lon="10.156626">
        <ele>160.795355</ele>
        <time>2021-01-28T19:46:22.161Z</time>
      </trkpt>
      <trkpt lat="45.585924" lon="10.156748">
        <ele>160.595676</ele>
        <time>2021-01-28T19:46:23.262Z</time>
      </trkpt>
      <trkpt lat="45.585886" lon="10.156811">
        <ele>160.474673</ele>
        <time>2021-01-28T19:46:23.897Z</time>
      </trkpt>
      <trkpt lat="45.585710" lon="10.156924">
        <ele>160.073551</ele>
        <time>2021-01-28T19:46:26.083Z</time>
      </trkpt>
      <trkpt lat="45.585551" lon="10.157051">
        <ele>159.787798</ele>
        <time>2021-01-28T19:46:28.161Z</time>
      </trkpt>
      <trkpt lat="45.585285" lon="10.157312">
        <ele>159.356801</ele>
        <time>2021-01-28T19:46:31.917Z</time>
      </trkpt>
      <trkpt lat="45.584940" lon="10.157748">
        <ele>158.741611</ele>
        <time>2021-01-28T19:46:37.344Z</time>
      </trkpt>
      <trkpt lat="45.584367" lon="10.158740">
        <ele>157.537143</ele>
        <time>2021-01-28T19:46:48.116Z</time>
      </trkpt>
      <trkpt lat="45.583864" lon="10.159632">
        <ele>156.294267</ele>
        <time>2021-01-28T19:46:57.467Z</time>
      </trkpt>
      <trkpt lat="45.583596" lon="10.160102">
        <ele>155.636490</ele>
        <time>2021-01-28T19:47:02.247Z</time>
      </trkpt>
      <trkpt lat="45.583497" lon="10.160288">
        <ele>155.382949</ele>
        <time>2021-01-28T19:47:04.063Z</time>
      </trkpt>
      <trkpt lat="45.583298" lon="10.160645">
        <ele>154.887757</ele>
        <time>2021-01-28T19:47:07.682Z</time>
      </trkpt>
      <trkpt lat="45.583272" lon="10.160695">
        <ele>154.820172</ele>
        <time>2021-01-28T19:47:08.177Z</time>
      </trkpt>
      <trkpt lat="45.583156" lon="10.160915">
        <ele>154.536669</ele>
        <time>2021-01-28T19:47:10.383Z</time>
      </trkpt>
      <trkpt lat="45.583030" lon="10.161162">
        <ele>154.226031</ele>
        <time>2021-01-28T19:47:12.767Z</time>
      </trkpt>
      <trkpt lat="45.582762" lon="10.161730">
        <ele>153.529823</ele>
        <time>2021-01-28T19:47:18.291Z</time>
      </trkpt>
      <trkpt lat="45.582739" lon="10.161790">
        <ele>153.460295</ele>
        <time>2021-01-28T19:47:18.868Z</time>
      </trkpt>
      <trkpt lat="45.582513" lon="10.162307">
        <ele>152.840779</ele>
        <time>2021-01-28T19:47:23.776Z</time>
      </trkpt>
      <trkpt lat="45.582438" lon="10.162509">
        <ele>152.608379</ele>
        <time>2021-01-28T19:47:25.658Z</time>
      </trkpt>
      <trkpt lat="45.582367" lon="10.162627">
        <ele>152.450224</ele>
        <time>2021-01-28T19:47:26.935Z</time>
      </trkpt>
      <trkpt lat="45.582295" lon="10.162776">
        <ele>152.266202</ele>
        <time>2021-01-28T19:47:28.451Z</time>
      </trkpt>
      <trkpt lat="45.582267" lon="10.162791">
        <ele>152.222777</ele>
        <time>2021-01-28T19:47:28.830Z</time>
      </trkpt>
      <trkpt lat="45.582229" lon="10.162826">
        <ele>152.157123</ele>
        <time>2021-01-28T19:47:29.373Z</time>
      </trkpt>
      <trkpt lat="45.582198" lon="10.162887">
        <ele>152.091897</ele>
        <time>2021-01-28T19:47:30.033Z</time>
      </trkpt>
      <trkpt lat="45.582186" lon="10.162970">
        <ele>152.019475</ele>
        <time>2021-01-28T19:47:30.750Z</time>
      </trkpt>
      <trkpt lat="45.582197" lon="10.163046">
        <ele>151.953158</ele>
        <time>2021-01-28T19:47:31.411Z</time>
      </trkpt>
      <trkpt lat="45.582208" lon="10.163225">
        <ele>151.799612</ele>
        <time>2021-01-28T19:47:32.975Z</time>
      </trkpt>
      <trkpt lat="45.582228" lon="10.163526">
        <ele>151.541248</ele>
        <time>2021-01-28T19:47:35.560Z</time>
      </trkpt>
      <trkpt lat="45.582228" lon="10.163754">
        <ele>151.346419</ele>
        <time>2021-01-28T19:47:37.541Z</time>
      </trkpt>
      <trkpt lat="45.582227" lon="10.163920">
        <ele>151.204565</ele>
        <time>2021-01-28T19:47:38.995Z</time>
      </trkpt>
      <trkpt lat="45.582257" lon="10.164213">
        <ele>150.951528</ele>
        <time>2021-01-28T19:47:41.441Z</time>
      </trkpt>
      <trkpt lat="45.582421" lon="10.164944">
        <ele>150.295574</ele>
        <time>2021-01-28T19:47:47.814Z</time>
      </trkpt>
      <trkpt lat="45.582577" lon="10.165569">
        <ele>149.717365</ele>
        <time>2021-01-28T19:47:53.166Z</time>
      </trkpt>
      <trkpt lat="45.582591" lon="10.165623">
        <ele>149.665735</ele>
        <time>2021-01-28T19:47:53.634Z</time>
      </trkpt>
      <trkpt lat="45.582597" lon="10.165649">
        <ele>149.641190</ele>
        <time>2021-01-28T19:47:53.849Z</time>
      </trkpt>
      <trkpt lat="45.582755" lon="10.166276">
        <ele>149.043718</ele>
        <time>2021-01-28T19:47:59.231Z</time>
      </trkpt>
      <trkpt lat="45.582798" lon="10.166696">
        <ele>148.663154</ele>
        <time>2021-01-28T19:48:02.725Z</time>
      </trkpt>
      <trkpt lat="45.582910" lon="10.167350">
        <ele>148.059506</ele>
        <time>2021-01-28T19:48:08.287Z</time>
      </trkpt>
      <trkpt lat="45.582926" lon="10.167545">
        <ele>147.883479</ele>
        <time>2021-01-28T19:48:09.897Z</time>
      </trkpt>
      <trkpt lat="45.582938" lon="10.167790">
        <ele>147.663285</ele>
        <time>2021-01-28T19:48:12.001Z</time>
      </trkpt>
      <trkpt lat="45.582987" lon="10.168145">
        <ele>147.642110</ele>
        <time>2021-01-28T19:48:15.073Z</time>
      </trkpt>
      <trkpt lat="45.582988" lon="10.168618">
        <ele>147.628823</ele>
        <time>2021-01-28T19:48:19.506Z</time>
      </trkpt>
      <trkpt lat="45.582994" lon="10.169683">
        <ele>147.598906</ele>
        <time>2021-01-28T19:48:31.746Z</time>
      </trkpt>
      <trkpt lat="45.582995" lon="10.169858">
        <ele>147.593991</ele>
        <time>2021-01-28T19:48:33.586Z</time>
      </trkpt>
      <trkpt lat="45.582995" lon="10.170290">
        <ele>147.581856</ele>
        <time>2021-01-28T19:48:38.609Z</time>
      </trkpt>
      <trkpt lat="45.582995" lon="10.170373">
        <ele>147.585579</ele>
        <time>2021-01-28T19:48:39.451Z</time>
      </trkpt>
      <trkpt lat="45.583124" lon="10.170345">
        <ele>147.735949</ele>
        <time>2021-01-28T19:48:41.735Z</time>
      </trkpt>
      <trkpt lat="45.583529" lon="10.170248">
        <ele>148.209200</ele>
        <time>2021-01-28T19:48:48.550Z</time>
      </trkpt>
      <trkpt lat="45.583532" lon="10.170494">
        <ele>148.407643</ele>
        <time>2021-01-28T19:48:51.677Z</time>
      </trkpt>
      <trkpt lat="45.583547" lon="10.171690">
        <ele>149.372441</ele>
        <time>2021-01-28T19:49:09.437Z</time>
      </trkpt>
      <trkpt lat="45.583633" lon="10.172029">
        <ele>149.675131</ele>
        <time>2021-01-28T19:49:14.944Z</time>
      </trkpt>
      <trkpt lat="45.583714" lon="10.172215">
        <ele>150.047405</ele>
        <time>2021-01-28T19:49:18.214Z</time>
      </trkpt>
      <trkpt lat="45.583746" lon="10.172290">
        <ele>150.196673</ele>
        <time>2021-01-28T19:49:19.529Z</time>
      </trkpt>
      <trkpt lat="45.583841" lon="10.172401">
        <ele>150.494648</ele>
        <time>2021-01-28T19:49:21.933Z</time>
      </trkpt>
      <trkpt lat="45.584066" lon="10.172666">
        <ele>151.202648</ele>
        <time>2021-01-28T19:49:27.990Z</time>
      </trkpt>
      <trkpt lat="45.584153" lon="10.172793">
        <ele>151.504643</ele>
        <time>2021-01-28T19:49:30.570Z</time>
      </trkpt>
      <trkpt lat="45.584152" lon="10.172818">
        <ele>151.547196</ele>
        <time>2021-01-28T19:49:31.185Z</time>
      </trkpt>
      <trkpt lat="45.584266" lon="10.172904">
        <ele>151.860211</ele>
        <time>2021-01-28T19:49:34.130Z</time>
      </trkpt>
      <trkpt lat="45.584782" lon="10.173585">
        <ele>153.565782</ele>
        <time>2021-01-28T19:49:52.660Z</time>
      </trkpt>
      <trkpt lat="45.585027" lon="10.173900">
        <ele>154.564406</ele>
        <time>2021-01-28T19:50:02.282Z</time>
      </trkpt>
      <trkpt lat="45.585414" lon="10.175007">
        <ele>157.872056</ele>
        <time>2021-01-28T19:50:28.481Z</time>
      </trkpt>
      <trkpt lat="45.585422" lon="10.175214">
        <ele>158.426208</ele>
        <time>2021-01-28T19:50:32.571Z</time>
      </trkpt>
      <trkpt lat="45.585376" lon="10.175415">
        <ele>158.991476</ele>
        <time>2021-01-28T19:50:37.787Z</time>
      </trkpt>
      <trkpt lat="45.585582" lon="10.176184">
        <ele>161.202778</ele>
        <time>2021-01-28T19:50:55.316Z</time>
      </trkpt>
      <trkpt lat="45.585578" lon="10.176342">
        <ele>161.639813</ele>
        <time>2021-01-28T19:50:59.521Z</time>
      </trkpt>
      <trkpt lat="45.585347" lon="10.176423">
        <ele>162.579288</ele>
        <time>2021-01-28T19:51:05.754Z</time>
      </trkpt>
      <trkpt lat="45.585217" lon="10.176555">
        <ele>163.209203</ele>
        <time>2021-01-28T19:51:10.852Z</time>
      </trkpt>
      <trkpt lat="45.585331" lon="10.176952">
        <ele>164.395397</ele>
        <time>2021-01-28T19:51:20.863Z</time>
      </trkpt>
      <trkpt lat="45.585609" lon="10.177653">
        <ele>166.622619</ele>
        <time>2021-01-28T19:51:37.775Z</time>
      </trkpt>
      <trkpt lat="45.585791" lon="10.177944">
        <ele>167.701419</ele>
        <time>2021-01-28T19:51:46.285Z</time>
      </trkpt>
      <trkpt lat="45.585897" lon="10.178378">
        <ele>168.945790</ele>
        <time>2021-01-28T19:51:54.634Z</time>
      </trkpt>
      <trkpt lat="45.585896" lon="10.178445">
        <ele>169.126061</ele>
        <time>2021-01-28T19:51:56.793Z</time>
      </trkpt>
      <trkpt lat="45.585894" lon="10.178773">
        <ele>170.008418</ele>
        <time>2021-01-28T19:52:03.790Z</time>
      </trkpt>
      <trkpt lat="45.585894" lon="10.178829">
        <ele>170.159058</ele>
        <time>2021-01-28T19:52:04.893Z</time>
      </trkpt>
      <trkpt lat="45.585898" lon="10.179239">
        <ele>171.262069</ele>
        <time>2021-01-28T19:52:13.469Z</time>
      </trkpt>
      <trkpt lat="45.585879" lon="10.179404">
        <ele>171.711888</ele>
        <time>2021-01-28T19:52:16.559Z</time>
      </trkpt>
      <trkpt lat="45.585864" lon="10.179484">
        <ele>171.934679</ele>
        <time>2021-01-28T19:52:20.127Z</time>
      </trkpt>
      <trkpt lat="45.585831" lon="10.179555">
        <ele>172.163954</ele>
        <time>2021-01-28T19:52:23.040Z</time>
      </trkpt>
      <trkpt lat="45.585824" lon="10.179570">
        <ele>172.212452</ele>
        <time>2021-01-28T19:52:23.646Z</time>
      </trkpt>
      <trkpt lat="45.585766" lon="10.179688">
        <ele>172.600340</ele>
        <time>2021-01-28T19:52:28.486Z</time>
      </trkpt>
      <trkpt lat="45.585792" lon="10.179762">
        <ele>172.823080</ele>
        <time>2021-01-28T19:52:31.265Z</time>
      </trkpt>
      <trkpt lat="45.585832" lon="10.179940">
        <ele>173.325981</ele>
        <time>2021-01-28T19:52:35.575Z</time>
      </trkpt>
      <trkpt lat="45.585864" lon="10.180076">
        <ele>173.711946</ele>
        <time>2021-01-28T19:52:38.870Z</time>
      </trkpt>
      <trkpt lat="45.585843" lon="10.180395">
        <ele>174.573848</ele>
        <time>2021-01-28T19:52:45.465Z</time>
      </trkpt>
      <trkpt lat="45.585684" lon="10.180410">
        <ele>175.345272</ele>
        <time>2021-01-28T19:52:51.148Z</time>
      </trkpt>
      <trkpt lat="45.585698" lon="10.180707">
        <ele>176.602305</ele>
        <time>2021-01-28T19:52:57.130Z</time>
      </trkpt>
      <trkpt lat="45.584999" lon="10.180845">
        <ele>180.860160</ele>
        <time>2021-01-28T19:53:22.074Z</time>
      </trkpt>
      <trkpt lat="45.585011" lon="10.181056">
        <ele>181.754133</ele>
        <time>2021-01-28T19:53:28.654Z</time>
      </trkpt>
      <trkpt lat="45.585083" lon="10.181859">
        <ele>185.172851</ele>
        <time>2021-01-28T19:53:52.531Z</time>
      </trkpt>
      <trkpt lat="45.585151" lon="10.182180">
        <ele>187.103830</ele>
        <time>2021-01-28T19:54:04.128Z</time>
      </trkpt>
      <trkpt lat="45.585172" lon="10.182358">
        <ele>188.339571</ele>
        <time>2021-01-28T19:54:10.149Z</time>
      </trkpt>
      <trkpt lat="45.585225" lon="10.182810">
        <ele>191.476989</ele>
        <time>2021-01-28T19:54:27.366Z</time>
      </trkpt>
      <trkpt lat="45.585254" lon="10.183052">
        <ele>193.157776</ele>
        <time>2021-01-28T19:54:37.608Z</time>
      </trkpt>
      <trkpt lat="45.585297" lon="10.183557">
        <ele>196.640379</ele>
        <time>2021-01-28T19:54:56.722Z</time>
      </trkpt>
      <trkpt lat="45.585399" lon="10.183853">
        <ele>198.899041</ele>
        <time>2021-01-28T19:55:09.148Z</time>
      </trkpt>
      <trkpt lat="45.585431" lon="10.183946">
        <ele>199.608484</ele>
        <time>2021-01-28T19:55:13.796Z</time>
      </trkpt>
      <trkpt lat="45.585549" lon="10.184201">
        <ele>201.701241</ele>
        <time>2021-01-28T19:55:25.260Z</time>
      </trkpt>
      <trkpt lat="45.585595" lon="10.184285">
        <ele>202.431405</ele>
        <time>2021-01-28T19:55:29.243Z</time>
      </trkpt>
      <trkpt lat="45.585660" lon="10.184330">
        <ele>203.137919</ele>
        <time>2021-01-28T19:55:33.665Z</time>
      </trkpt>
      <trkpt lat="45.585786" lon="10.184326">
        <ele>204.688332</ele>
        <time>2021-01-28T19:55:41.086Z</time>
      </trkpt>
      <trkpt lat="45.585913" lon="10.184293">
        <ele>206.345592</ele>
        <time>2021-01-28T19:55:48.604Z</time>
      </trkpt>
      <trkpt lat="45.586409" lon="10.184100">
        <ele>212.945496</ele>
        <time>2021-01-28T19:56:21.505Z</time>
      </trkpt>
      <trkpt lat="45.586803" lon="10.184065">
        <ele>218.013724</ele>
        <time>2021-01-28T19:56:48.185Z</time>
      </trkpt>
      <trkpt lat="45.586927" lon="10.184129">
        <ele>219.706396</ele>
        <time>2021-01-28T19:56:57.926Z</time>
      </trkpt>
      <trkpt lat="45.587031" lon="10.184397">
        <ele>222.459766</ele>
        <time>2021-01-28T19:57:12.390Z</time>
      </trkpt>
      <trkpt lat="45.587055" lon="10.184577">
        <ele>224.106133</ele>
        <time>2021-01-28T19:57:22.235Z</time>
      </trkpt>
      <trkpt lat="45.587085" lon="10.185347">
        <ele>231.441277</ele>
        <time>2021-01-28T19:58:00.793Z</time>
      </trkpt>
      <trkpt lat="45.587065" lon="10.185788">
        <ele>235.763321</ele>
        <time>2021-01-28T19:58:24.027Z</time>
      </trkpt>
      <trkpt lat="45.587008" lon="10.186168">
        <ele>239.564149</ele>
        <time>2021-01-28T19:58:44.340Z</time>
      </trkpt>
      <trkpt lat="45.586827" lon="10.187068">
        <ele>248.722451</ele>
        <time>2021-01-28T19:59:31.859Z</time>
      </trkpt>
      <trkpt lat="45.586787" lon="10.187213">
        <ele>250.246762</ele>
        <time>2021-01-28T19:59:40.316Z</time>
      </trkpt>
      <trkpt lat="45.586727" lon="10.187354">
        <ele>251.768283</ele>
        <time>2021-01-28T19:59:46.636Z</time>
      </trkpt>
      <trkpt lat="45.586568" lon="10.187553">
        <ele>253.740121</ele>
        <time>2021-01-28T19:59:58.618Z</time>
      </trkpt>
      <trkpt lat="45.586297" lon="10.187892">
        <ele>257.100175</ele>
        <time>2021-01-28T20:00:20.982Z</time>
      </trkpt>
      <trkpt lat="45.586282" lon="10.187910">
        <ele>257.282910</ele>
        <time>2021-01-28T20:00:23.128Z</time>
      </trkpt>
      <trkpt lat="45.585957" lon="10.188310">
        <ele>261.284466</ele>
        <time>2021-01-28T20:00:43.969Z</time>
      </trkpt>
      <trkpt lat="45.585868" lon="10.189211">
        <ele>267.225202</ele>
        <time>2021-01-28T20:01:10.888Z</time>
      </trkpt>
      <trkpt lat="45.585783" lon="10.189359">
        <ele>268.469042</ele>
        <time>2021-01-28T20:01:16.304Z</time>
      </trkpt>
      <trkpt lat="45.585655" lon="10.189415">
        <ele>269.649960</ele>
        <time>2021-01-28T20:01:22.286Z</time>
      </trkpt>
      <trkpt lat="45.585423" lon="10.189488">
        <ele>271.745626</ele>
        <time>2021-01-28T20:01:31.981Z</time>
      </trkpt>
      <trkpt lat="45.584859" lon="10.189748">
        <ele>276.973586</ele>
        <time>2021-01-28T20:02:02.744Z</time>
      </trkpt>
      <trkpt lat="45.584478" lon="10.190112">
        <ele>281.016739</ele>
        <time>2021-01-28T20:02:27.036Z</time>
      </trkpt>
      <trkpt lat="45.584465" lon="10.190129">
        <ele>281.172199</ele>
        <time>2021-01-28T20:02:28.754Z</time>
      </trkpt>
      <trkpt lat="45.584175" lon="10.190495">
        <ele>284.603996</ele>
        <time>2021-01-28T20:02:50.004Z</time>
      </trkpt>
      <trkpt lat="45.584161" lon="10.190521">
        <ele>284.817025</ele>
        <time>2021-01-28T20:02:51.811Z</time>
      </trkpt>
      <trkpt lat="45.584126" lon="10.190588">
        <ele>285.359948</ele>
        <time>2021-01-28T20:02:55.608Z</time>
      </trkpt>
      <trkpt lat="45.584115" lon="10.190732">
        <ele>286.300613</ele>
        <time>2021-01-28T20:02:59.046Z</time>
      </trkpt>
      <trkpt lat="45.584139" lon="10.191015">
        <ele>288.151809</ele>
        <time>2021-01-28T20:03:09.591Z</time>
      </trkpt>
      <trkpt lat="45.584143" lon="10.191060">
        <ele>288.446378</ele>
        <time>2021-01-28T20:03:11.692Z</time>
      </trkpt>
      <trkpt lat="45.584140" lon="10.191143">
        <ele>288.986084</ele>
        <time>2021-01-28T20:03:14.339Z</time>
      </trkpt>
      <trkpt lat="45.584136" lon="10.191237">
        <ele>289.597631</ele>
        <time>2021-01-28T20:03:16.898Z</time>
      </trkpt>
      <trkpt lat="45.584128" lon="10.191336">
        <ele>290.244791</ele>
        <time>2021-01-28T20:03:20.162Z</time>
      </trkpt>
      <trkpt lat="45.584108" lon="10.191394">
        <ele>290.664668</ele>
        <time>2021-01-28T20:03:22.480Z</time>
      </trkpt>
      <trkpt lat="45.584098" lon="10.191423">
        <ele>290.874607</ele>
        <time>2021-01-28T20:03:24.022Z</time>
      </trkpt>
      <trkpt lat="45.583900" lon="10.191708">
        <ele>293.482388</ele>
        <time>2021-01-28T20:03:38.841Z</time>
      </trkpt>
      <trkpt lat="45.583710" lon="10.192120">
        <ele>296.686474</ele>
        <time>2021-01-28T20:03:58.803Z</time>
      </trkpt>
      <trkpt lat="45.583696" lon="10.192150">
        <ele>296.920628</ele>
        <time>2021-01-28T20:04:00.618Z</time>
      </trkpt>
      <trkpt lat="45.583643" lon="10.192355">
        <ele>298.339802</ele>
        <time>2021-01-28T20:04:09.679Z</time>
      </trkpt>
      <trkpt lat="45.583642" lon="10.192668">
        <ele>300.372408</ele>
        <time>2021-01-28T20:04:20.816Z</time>
      </trkpt>
      <trkpt lat="45.583555" lon="10.192946">
        <ele>301.512647</ele>
        <time>2021-01-28T20:04:29.639Z</time>
      </trkpt>
      <trkpt lat="45.583497" lon="10.193169">
        <ele>302.153904</ele>
        <time>2021-01-28T20:04:38.445Z</time>
      </trkpt>
      <trkpt lat="45.583486" lon="10.193192">
        <ele>302.228993</ele>
        <time>2021-01-28T20:04:39.551Z</time>
      </trkpt>
      <trkpt lat="45.583477" lon="10.193279">
        <ele>302.466047</ele>
        <time>2021-01-28T20:04:41.879Z</time>
      </trkpt>
      <trkpt lat="45.583551" lon="10.193929">
        <ele>304.241136</ele>
        <time>2021-01-28T20:04:56.093Z</time>
      </trkpt>
      <trkpt lat="45.583555" lon="10.194001">
        <ele>304.435820</ele>
        <time>2021-01-28T20:04:56.866Z</time>
      </trkpt>
      <trkpt lat="45.583536" lon="10.194075">
        <ele>304.648285</ele>
        <time>2021-01-28T20:04:59.326Z</time>
      </trkpt>
      <trkpt lat="45.583451" lon="10.194131">
        <ele>305.008778</ele>
        <time>2021-01-28T20:05:02.441Z</time>
      </trkpt>
      <trkpt lat="45.583012" lon="10.194158">
        <ele>306.701109</ele>
        <time>2021-01-28T20:05:11.438Z</time>
      </trkpt>
      <trkpt lat="45.582897" lon="10.194246">
        <ele>307.203539</ele>
        <time>2021-01-28T20:05:13.090Z</time>
      </trkpt>
      <trkpt lat="45.582890" lon="10.194264">
        <ele>307.259045</ele>
        <time>2021-01-28T20:05:13.927Z</time>
      </trkpt>
      <trkpt lat="45.582866" lon="10.194314">
        <ele>307.422472</ele>
        <time>2021-01-28T20:05:15.186Z</time>
      </trkpt>
      <trkpt lat="45.582845" lon="10.194353">
        <ele>307.555110</ele>
        <time>2021-01-28T20:05:15.801Z</time>
      </trkpt>
      <trkpt lat="45.582787" lon="10.194406">
        <ele>307.820268</ele>
        <time>2021-01-28T20:05:17.205Z</time>
      </trkpt>
      <trkpt lat="45.582730" lon="10.194597">
        <ele>307.402866</ele>
        <time>2021-01-28T20:05:19.237Z</time>
      </trkpt>
      <trkpt lat="45.582807" lon="10.194661">
        <ele>307.118431</ele>
        <time>2021-01-28T20:05:20.631Z</time>
      </trkpt>
      <trkpt lat="45.582839" lon="10.194686">
        <ele>307.001979</ele>
        <time>2021-01-28T20:05:21.265Z</time>
      </trkpt>
      <trkpt lat="45.582938" lon="10.194765">
        <ele>306.639913</ele>
        <time>2021-01-28T20:05:22.458Z</time>
      </trkpt>
      <trkpt lat="45.583111" lon="10.194863">
        <ele>306.045693</ele>
        <time>2021-01-28T20:05:24.586Z</time>
      </trkpt>
      <trkpt lat="45.583668" lon="10.195269">
        <ele>304.049132</ele>
        <time>2021-01-28T20:05:31.146Z</time>
      </trkpt>
      <trkpt lat="45.583988" lon="10.195540">
        <ele>302.861383</ele>
        <time>2021-01-28T20:05:34.841Z</time>
      </trkpt>
      <trkpt lat="45.584018" lon="10.195690">
        <ele>302.512764</ele>
        <time>2021-01-28T20:05:35.820Z</time>
      </trkpt>
      <trkpt lat="45.583948" lon="10.195774">
        <ele>302.220886</ele>
        <time>2021-01-28T20:05:36.661Z</time>
      </trkpt>
      <trkpt lat="45.583867" lon="10.195791">
        <ele>301.678126</ele>
        <time>2021-01-28T20:05:37.362Z</time>
      </trkpt>
      <trkpt lat="45.583852" lon="10.195794">
        <ele>301.534738</ele>
        <time>2021-01-28T20:05:37.567Z</time>
      </trkpt>
      <trkpt lat="45.583137" lon="10.195783">
        <ele>294.765488</ele>
        <time>2021-01-28T20:05:43.720Z</time>
      </trkpt>
      <trkpt lat="45.582937" lon="10.195902">
        <ele>292.714495</ele>
        <time>2021-01-28T20:05:45.553Z</time>
      </trkpt>
      <trkpt lat="45.582914" lon="10.195952">
        <ele>292.318061</ele>
        <time>2021-01-28T20:05:45.985Z</time>
      </trkpt>
      <trkpt lat="45.582895" lon="10.196060">
        <ele>291.580227</ele>
        <time>2021-01-28T20:05:46.659Z</time>
      </trkpt>
      <trkpt lat="45.582930" lon="10.196233">
        <ele>290.387054</ele>
        <time>2021-01-28T20:05:47.874Z</time>
      </trkpt>
      <trkpt lat="45.582958" lon="10.196287">
        <ele>289.941773</ele>
        <time>2021-01-28T20:05:48.254Z</time>
      </trkpt>
      <trkpt lat="45.583009" lon="10.196322">
        <ele>289.406155</ele>
        <time>2021-01-28T20:05:48.718Z</time>
      </trkpt>
      <trkpt lat="45.583233" lon="10.196455">
        <ele>287.109756</ele>
        <time>2021-01-28T20:05:50.955Z</time>
      </trkpt>
      <trkpt lat="45.583241" lon="10.196487">
        <ele>286.884614</ele>
        <time>2021-01-28T20:05:51.152Z</time>
      </trkpt>
      <trkpt lat="45.583264" lon="10.196594">
        <ele>286.142987</ele>
        <time>2021-01-28T20:05:51.792Z</time>
      </trkpt>
      <trkpt lat="45.583566" lon="10.197743">
        <ele>278.405729</ele>
        <time>2021-01-28T20:05:59.305Z</time>
      </trkpt>
      <trkpt lat="45.583698" lon="10.197979">
        <ele>276.515941</ele>
        <time>2021-01-28T20:06:01.114Z</time>
      </trkpt>
      <trkpt lat="45.583947" lon="10.198226">
        <ele>273.806645</ele>
        <time>2021-01-28T20:06:03.800Z</time>
      </trkpt>
      <trkpt lat="45.584304" lon="10.198630">
        <ele>269.736276</ele>
        <time>2021-01-28T20:06:07.818Z</time>
      </trkpt>
      <trkpt lat="45.584620" lon="10.199150">
        <ele>265.180918</ele>
        <time>2021-01-28T20:06:12.082Z</time>
      </trkpt>
      <trkpt lat="45.584647" lon="10.199389">
        <ele>263.561580</ele>
        <time>2021-01-28T20:06:13.646Z</time>
      </trkpt>
      <trkpt lat="45.584616" lon="10.199500">
        <ele>262.762179</ele>
        <time>2021-01-28T20:06:14.426Z</time>
      </trkpt>
      <trkpt lat="45.584574" lon="10.199573">
        <ele>262.130070</ele>
        <time>2021-01-28T20:06:16.948Z</time>
      </trkpt>
      <trkpt lat="45.584548" lon="10.199582">
        <ele>261.874386</ele>
        <time>2021-01-28T20:06:17.186Z</time>
      </trkpt>
      <trkpt lat="45.584538" lon="10.199585">
        <ele>261.776726</ele>
        <time>2021-01-28T20:06:17.320Z</time>
      </trkpt>
      <trkpt lat="45.584154" lon="10.199531">
        <ele>258.088899</ele>
        <time>2021-01-28T20:06:20.629Z</time>
      </trkpt>
      <trkpt lat="45.583852" lon="10.199726">
        <ele>254.921487</ele>
        <time>2021-01-28T20:06:23.506Z</time>
      </trkpt>
      <trkpt lat="45.583657" lon="10.199999">
        <ele>252.312257</ele>
        <time>2021-01-28T20:06:25.862Z</time>
      </trkpt>
      <trkpt lat="45.583548" lon="10.200426">
        <ele>249.018105</ele>
        <time>2021-01-28T20:06:28.532Z</time>
      </trkpt>
      <trkpt lat="45.583542" lon="10.200659">
        <ele>247.302391</ele>
        <time>2021-01-28T20:06:29.894Z</time>
      </trkpt>
      <trkpt lat="45.583560" lon="10.200894">
        <ele>245.562795</ele>
        <time>2021-01-28T20:06:31.288Z</time>
      </trkpt>
      <trkpt lat="45.583576" lon="10.201070">
        <ele>244.256802</ele>
        <time>2021-01-28T20:06:32.386Z</time>
      </trkpt>
      <trkpt lat="45.583575" lon="10.201120">
        <ele>243.888722</ele>
        <time>2021-01-28T20:06:32.701Z</time>
      </trkpt>
      <trkpt lat="45.583557" lon="10.201148">
        <ele>243.608953</ele>
        <time>2021-01-28T20:06:32.930Z</time>
      </trkpt>
      <trkpt lat="45.583542" lon="10.201163">
        <ele>243.416450</ele>
        <time>2021-01-28T20:06:33.087Z</time>
      </trkpt>
      <trkpt lat="45.583529" lon="10.201176">
        <ele>243.249615</ele>
        <time>2021-01-28T20:06:33.216Z</time>
      </trkpt>
      <trkpt lat="45.583510" lon="10.201187">
        <ele>243.034068</ele>
        <time>2021-01-28T20:06:33.383Z</time>
      </trkpt>
      <trkpt lat="45.583445" lon="10.201144">
        <ele>242.280945</ele>
        <time>2021-01-28T20:06:33.993Z</time>
      </trkpt>
      <trkpt lat="45.583410" lon="10.200945">
        <ele>240.771049</ele>
        <time>2021-01-28T20:06:35.243Z</time>
      </trkpt>
      <trkpt lat="45.583356" lon="10.200091">
        <ele>234.461191</ele>
        <time>2021-01-28T20:06:40.402Z</time>
      </trkpt>
      <trkpt lat="45.583314" lon="10.199959">
        <ele>233.394182</ele>
        <time>2021-01-28T20:06:41.319Z</time>
      </trkpt>
      <trkpt lat="45.583211" lon="10.200029">
        <ele>232.447074</ele>
        <time>2021-01-28T20:06:42.341Z</time>
      </trkpt>
      <trkpt lat="45.583194" lon="10.200113">
        <ele>232.034739</ele>
        <time>2021-01-28T20:06:42.858Z</time>
      </trkpt>
      <trkpt lat="45.583197" lon="10.200552">
        <ele>229.964513</ele>
        <time>2021-01-28T20:06:45.620Z</time>
      </trkpt>
      <trkpt lat="45.583214" lon="10.201055">
        <ele>227.589827</ele>
        <time>2021-01-28T20:06:48.976Z</time>
      </trkpt>
      <trkpt lat="45.583301" lon="10.201596">
        <ele>224.972238</ele>
        <time>2021-01-28T20:06:52.608Z</time>
      </trkpt>
      <trkpt lat="45.583440" lon="10.202278">
        <ele>221.622648</ele>
        <time>2021-01-28T20:06:57.150Z</time>
      </trkpt>
      <trkpt lat="45.583639" lon="10.202951">
        <ele>217.427437</ele>
        <time>2021-01-28T20:07:01.703Z</time>
      </trkpt>
      <trkpt lat="45.583641" lon="10.202971">
        <ele>217.304693</ele>
        <time>2021-01-28T20:07:01.823Z</time>
      </trkpt>
      <trkpt lat="45.583683" lon="10.203591">
        <ele>213.520275</ele>
        <time>2021-01-28T20:07:05.654Z</time>
      </trkpt>
      <trkpt lat="45.583695" lon="10.203889">
        <ele>211.706781</ele>
        <time>2021-01-28T20:07:07.474Z</time>
      </trkpt>
      <trkpt lat="45.583694" lon="10.204008">
        <ele>210.983744</ele>
        <time>2021-01-28T20:07:08.201Z</time>
      </trkpt>
      <trkpt lat="45.583635" lon="10.204533">
        <ele>207.753244</ele>
        <time>2021-01-28T20:07:11.427Z</time>
      </trkpt>
      <trkpt lat="45.583581" lon="10.205171">
        <ele>203.946201</ele>
        <time>2021-01-28T20:07:15.328Z</time>
      </trkpt>
      <trkpt lat="45.583536" lon="10.205792">
        <ele>200.433934</ele>
        <time>2021-01-28T20:07:19.127Z</time>
      </trkpt>
      <trkpt lat="45.583534" lon="10.205893">
        <ele>199.865506</ele>
        <time>2021-01-28T20:07:19.746Z</time>
      </trkpt>
      <trkpt lat="45.583723" lon="10.206343">
        <ele>196.913049</ele>
        <time>2021-01-28T20:07:22.968Z</time>
      </trkpt>
      <trkpt lat="45.584177" lon="10.207393">
        <ele>190.364842</ele>
        <time>2021-01-28T20:07:30.741Z</time>
      </trkpt>
      <trkpt lat="45.584223" lon="10.207560">
        <ele>189.896934</ele>
        <time>2021-01-28T20:07:31.875Z</time>
      </trkpt>
      <trkpt lat="45.584389" lon="10.207851">
        <ele>188.918146</ele>
        <time>2021-01-28T20:07:34.451Z</time>
      </trkpt>
      <trkpt lat="45.584421" lon="10.207930">
        <ele>188.680169</ele>
        <time>2021-01-28T20:07:35.047Z</time>
      </trkpt>
      <trkpt lat="45.584471" lon="10.208051">
        <ele>188.313816</ele>
        <time>2021-01-28T20:07:35.976Z</time>
      </trkpt>
      <trkpt lat="45.584516" lon="10.208326">
        <ele>187.577507</ele>
        <time>2021-01-28T20:07:38.129Z</time>
      </trkpt>
      <trkpt lat="45.584529" lon="10.208656">
        <ele>186.715780</ele>
        <time>2021-01-28T20:07:40.447Z</time>
      </trkpt>
      <trkpt lat="45.584516" lon="10.208695">
        <ele>186.603156</ele>
        <time>2021-01-28T20:07:40.768Z</time>
      </trkpt>
      <trkpt lat="45.584447" lon="10.208785">
        <ele>186.255118</ele>
        <time>2021-01-28T20:07:41.845Z</time>
      </trkpt>
      <trkpt lat="45.584419" lon="10.208799">
        <ele>186.144608</ele>
        <time>2021-01-28T20:07:42.123Z</time>
      </trkpt>
      <trkpt lat="45.583876" lon="10.208611">
        <ele>184.063238</ele>
        <time>2021-01-28T20:07:47.936Z</time>
      </trkpt>
      <trkpt lat="45.583474" lon="10.208466">
        <ele>183.596036</ele>
        <time>2021-01-28T20:07:52.561Z</time>
      </trkpt>
      <trkpt lat="45.582808" lon="10.208228">
        <ele>182.891461</ele>
        <time>2021-01-28T20:08:00.968Z</time>
      </trkpt>
      <trkpt lat="45.582787" lon="10.208504">
        <ele>182.692045</ele>
        <time>2021-01-28T20:08:03.618Z</time>
      </trkpt>
      <trkpt lat="45.582790" lon="10.208684">
        <ele>182.562716</ele>
        <time>2021-01-28T20:08:05.351Z</time>
      </trkpt>
      <trkpt lat="45.582801" lon="10.208708">
        <ele>182.542109</ele>
        <time>2021-01-28T20:08:05.603Z</time>
      </trkpt>
      <trkpt lat="45.582930" lon="10.209264">
        <ele>182.171427</ele>
        <time>2021-01-28T20:08:11.375Z</time>
      </trkpt>
      <trkpt lat="45.582903" lon="10.209757">
        <ele>182.279587</ele>
        <time>2021-01-28T20:08:16.321Z</time>
      </trkpt>
      <trkpt lat="45.582908" lon="10.209855">
        <ele>182.301079</ele>
        <time>2021-01-28T20:08:17.313Z</time>
      </trkpt>
      <trkpt lat="45.582914" lon="10.209939">
        <ele>182.319547</ele>
        <time>2021-01-28T20:08:18.154Z</time>
      </trkpt>
      <trkpt lat="45.582969" lon="10.210243">
        <ele>182.388225</ele>
        <time>2021-01-28T20:08:21.330Z</time>
      </trkpt>
      <trkpt lat="45.582990" lon="10.210384">
        <ele>182.419755</ele>
        <time>2021-01-28T20:08:22.790Z</time>
      </trkpt>
      <trkpt lat="45.582997" lon="10.210469">
        <ele>182.438475</ele>
        <time>2021-01-28T20:08:23.732Z</time>
      </trkpt>
      <trkpt lat="45.582974" lon="10.210795">
        <ele>182.510140</ele>
        <time>2021-01-28T20:08:27.538Z</time>
      </trkpt>
      <trkpt lat="45.582886" lon="10.211161">
        <ele>182.594785</ele>
        <time>2021-01-28T20:08:32.419Z</time>
      </trkpt>
      <trkpt lat="45.583760" lon="10.211500">
        <ele>183.194089</ele>
        <time>2021-01-28T20:08:49.279Z</time>
      </trkpt>
      <trkpt lat="45.584391" lon="10.211761">
        <ele>183.815706</ele>
        <time>2021-01-28T20:09:01.559Z</time>
      </trkpt>
      <trkpt lat="45.584360" lon="10.211975">
        <ele>183.960434</ele>
        <time>2021-01-28T20:09:04.465Z</time>
      </trkpt>
      <trkpt lat="45.584386" lon="10.212088">
        <ele>184.039210</ele>
        <time>2021-01-28T20:09:06.119Z</time>
      </trkpt>
      <trkpt lat="45.584361" lon="10.212120">
        <ele>184.070971</ele>
        <time>2021-01-28T20:09:06.667Z</time>
      </trkpt>
      <trkpt lat="45.584308" lon="10.212219">
        <ele>184.153518</ele>
        <time>2021-01-28T20:09:08.201Z</time>
      </trkpt>
      <trkpt lat="45.584742" lon="10.212332">
        <ele>184.476074</ele>
        <time>2021-01-28T20:09:16.341Z</time>
      </trkpt>
      <trkpt lat="45.584736" lon="10.212391">
        <ele>184.490087</ele>
        <time>2021-01-28T20:09:17.209Z</time>
      </trkpt>
      <trkpt lat="45.584668" lon="10.213005">
        <ele>184.636200</ele>
        <time>2021-01-28T20:09:25.323Z</time>
      </trkpt>
      <trkpt lat="45.584748" lon="10.213084">
        <ele>184.668860</ele>
        <time>2021-01-28T20:09:26.926Z</time>
      </trkpt>
      <trkpt lat="45.585373" lon="10.213295">
        <ele>184.884543</ele>
        <time>2021-01-28T20:09:36.679Z</time>
      </trkpt>
      <trkpt lat="45.585417" lon="10.213453">
        <ele>184.924512</ele>
        <time>2021-01-28T20:09:38.407Z</time>
      </trkpt>
      <trkpt lat="45.585384" lon="10.213620">
        <ele>184.965298</ele>
        <time>2021-01-28T20:09:40.138Z</time>
      </trkpt>
      <trkpt lat="45.585362" lon="10.213744">
        <ele>184.995365</ele>
        <time>2021-01-28T20:09:41.428Z</time>
      </trkpt>
      <trkpt lat="45.585120" lon="10.214869">
        <ele>184.602789</ele>
        <time>2021-01-28T20:09:52.970Z</time>
      </trkpt>
      <trkpt lat="45.585088" lon="10.215019">
        <ele>184.538584</ele>
        <time>2021-01-28T20:09:54.371Z</time>
      </trkpt>
      <trkpt lat="45.585032" lon="10.215303">
        <ele>184.417777</ele>
        <time>2021-01-28T20:09:57.016Z</time>
      </trkpt>
      <trkpt lat="45.584976" lon="10.215644">
        <ele>184.274367</ele>
        <time>2021-01-28T20:10:00.044Z</time>
      </trkpt>
      <trkpt lat="45.584959" lon="10.215782">
        <ele>184.216996</ele>
        <time>2021-01-28T20:10:01.237Z</time>
      </trkpt>
      <trkpt lat="45.584955" lon="10.215846">
        <ele>184.190687</ele>
        <time>2021-01-28T20:10:01.775Z</time>
      </trkpt>
      <trkpt lat="45.584961" lon="10.216126">
        <ele>184.075991</ele>
        <time>2021-01-28T20:10:04.203Z</time>
      </trkpt>
      <trkpt lat="45.584912" lon="10.216298">
        <ele>183.999957</ele>
        <time>2021-01-28T20:10:05.819Z</time>
      </trkpt>
      <trkpt lat="45.584895" lon="10.216327">
        <ele>183.984468</ele>
        <time>2021-01-28T20:10:06.137Z</time>
      </trkpt>
      <trkpt lat="45.584880" lon="10.216399">
        <ele>183.938065</ele>
        <time>2021-01-28T20:10:06.805Z</time>
      </trkpt>
      <trkpt lat="45.584885" lon="10.216437">
        <ele>183.910953</ele>
        <time>2021-01-28T20:10:07.121Z</time>
      </trkpt>
      <trkpt lat="45.584899" lon="10.216476">
        <ele>183.880219</ele>
        <time>2021-01-28T20:10:07.497Z</time>
      </trkpt>
      <trkpt lat="45.584948" lon="10.216526">
        <ele>183.819892</ele>
        <time>2021-01-28T20:10:08.319Z</time>
      </trkpt>
      <trkpt lat="45.584979" lon="10.216531">
        <ele>183.788636</ele>
        <time>2021-01-28T20:10:08.705Z</time>
      </trkpt>
      <trkpt lat="45.584970" lon="10.217076">
        <ele>183.406382</ele>
        <time>2021-01-28T20:10:13.453Z</time>
      </trkpt>
      <trkpt lat="45.584960" lon="10.217854">
        <ele>182.860767</ele>
        <time>2021-01-28T20:10:20.241Z</time>
      </trkpt>
      <trkpt lat="45.584958" lon="10.217960">
        <ele>182.786414</ele>
        <time>2021-01-28T20:10:21.136Z</time>
      </trkpt>
      <trkpt lat="45.584952" lon="10.218310">
        <ele>182.540925</ele>
        <time>2021-01-28T20:10:24.002Z</time>
      </trkpt>
      <trkpt lat="45.584950" lon="10.218541">
        <ele>182.378938</ele>
        <time>2021-01-28T20:10:25.915Z</time>
      </trkpt>
      <trkpt lat="45.584941" lon="10.219530">
        <ele>182.149085</ele>
        <time>2021-01-28T20:10:34.282Z</time>
      </trkpt>
      <trkpt lat="45.584941" lon="10.219690">
        <ele>182.143454</ele>
        <time>2021-01-28T20:10:35.856Z</time>
      </trkpt>
      <trkpt lat="45.584938" lon="10.219853">
        <ele>182.137715</ele>
        <time>2021-01-28T20:10:37.529Z</time>
      </trkpt>
      <trkpt lat="45.584934" lon="10.220251">
        <ele>182.123707</ele>
        <time>2021-01-28T20:10:42.002Z</time>
      </trkpt>
      <trkpt lat="45.584934" lon="10.220297">
        <ele>182.122088</ele>
        <time>2021-01-28T20:10:42.536Z</time>
      </trkpt>
      <trkpt lat="45.584927" lon="10.221016">
        <ele>182.096780</ele>
        <time>2021-01-28T20:10:51.025Z</time>
      </trkpt>
      <trkpt lat="45.584926" lon="10.221081">
        <ele>182.094492</ele>
        <time>2021-01-28T20:10:51.769Z</time>
      </trkpt>
      <trkpt lat="45.584926" lon="10.221151">
        <ele>182.092029</ele>
        <time>2021-01-28T20:10:52.544Z</time>
      </trkpt>
      <trkpt lat="45.584921" lon="10.221432">
        <ele>182.096770</ele>
        <time>2021-01-28T20:10:56.032Z</time>
      </trkpt>
      <trkpt lat="45.584919" lon="10.221596">
        <ele>182.175336</ele>
        <time>2021-01-28T20:10:57.989Z</time>
      </trkpt>
      <trkpt lat="45.584918" lon="10.221640">
        <ele>182.196423</ele>
        <time>2021-01-28T20:10:58.477Z</time>
      </trkpt>
      <trkpt lat="45.584921" lon="10.221940">
        <ele>182.340135</ele>
        <time>2021-01-28T20:11:02.150Z</time>
      </trkpt>
      <trkpt lat="45.584910" lon="10.222419">
        <ele>182.569695</ele>
        <time>2021-01-28T20:11:08.307Z</time>
      </trkpt>
      <trkpt lat="45.584892" lon="10.222741">
        <ele>182.724421</ele>
        <time>2021-01-28T20:11:12.538Z</time>
      </trkpt>
      <trkpt lat="45.584856" lon="10.223093">
        <ele>182.894816</ele>
        <time>2021-01-28T20:11:17.525Z</time>
      </trkpt>
      <trkpt lat="45.584831" lon="10.223252">
        <ele>182.972874</ele>
        <time>2021-01-28T20:11:19.406Z</time>
      </trkpt>
      <trkpt lat="45.584775" lon="10.223612">
        <ele>183.149519</ele>
        <time>2021-01-28T20:11:24.264Z</time>
      </trkpt>
      <trkpt lat="45.584650" lon="10.224468">
        <ele>183.096460</ele>
        <time>2021-01-28T20:11:33.815Z</time>
      </trkpt>
      <trkpt lat="45.584634" lon="10.224574">
        <ele>183.051978</ele>
        <time>2021-01-28T20:11:35.116Z</time>
      </trkpt>
      <trkpt lat="45.584541" lon="10.224570">
        <ele>182.997443</ele>
        <time>2021-01-28T20:11:36.256Z</time>
      </trkpt>
      <trkpt lat="45.584209" lon="10.224484">
        <ele>182.799677</ele>
        <time>2021-01-28T20:11:40.775Z</time>
      </trkpt>
      <trkpt lat="45.584182" lon="10.224473">
        <ele>182.783221</ele>
        <time>2021-01-28T20:11:41.121Z</time>
      </trkpt>
      <trkpt lat="45.584165" lon="10.224466">
        <ele>182.772851</ele>
        <time>2021-01-28T20:11:41.353Z</time>
      </trkpt>
      <trkpt lat="45.583939" lon="10.224381">
        <ele>182.635874</ele>
        <time>2021-01-28T20:11:44.449Z</time>
      </trkpt>
      <trkpt lat="45.583878" lon="10.224357">
        <ele>182.598789</ele>
        <time>2021-01-28T20:11:45.188Z</time>
      </trkpt>
      <trkpt lat="45.583707" lon="10.224338">
        <ele>182.498259</ele>
        <time>2021-01-28T20:11:47.277Z</time>
      </trkpt>
      <trkpt lat="45.583667" lon="10.224345">
        <ele>182.474638</ele>
        <time>2021-01-28T20:11:47.724Z</time>
      </trkpt>
      <trkpt lat="45.583333" lon="10.224400">
        <ele>182.277575</ele>
        <time>2021-01-28T20:11:51.684Z</time>
      </trkpt>
      <trkpt lat="45.583291" lon="10.224410">
        <ele>182.245300</ele>
        <time>2021-01-28T20:11:52.171Z</time>
      </trkpt>
      <trkpt lat="45.582656" lon="10.224456">
        <ele>181.499244</ele>
        <time>2021-01-28T20:11:59.453Z</time>
      </trkpt>
      <trkpt lat="45.582399" lon="10.224518">
        <ele>181.193416</ele>
        <time>2021-01-28T20:12:02.434Z</time>
      </trkpt>
      <trkpt lat="45.582207" lon="10.224571">
        <ele>180.963961</ele>
        <time>2021-01-28T20:12:04.780Z</time>
      </trkpt>
      <trkpt lat="45.582088" lon="10.224605">
        <ele>180.821564</ele>
        <time>2021-01-28T20:12:06.222Z</time>
      </trkpt>
      <trkpt lat="45.581968" lon="10.224615">
        <ele>180.680519</ele>
        <time>2021-01-28T20:12:07.775Z</time>
      </trkpt>
      <trkpt lat="45.581515" lon="10.224606">
        <ele>180.149392</ele>
        <time>2021-01-28T20:12:13.334Z</time>
      </trkpt>
      <trkpt lat="45.581442" lon="10.224605">
        <ele>180.143624</ele>
        <time>2021-01-28T20:12:14.215Z</time>
      </trkpt>
      <trkpt lat="45.581255" lon="10.224612">
        <ele>180.128842</ele>
        <time>2021-01-28T20:12:16.739Z</time>
      </trkpt>
      <trkpt lat="45.581116" lon="10.224621">
        <ele>180.117848</ele>
        <time>2021-01-28T20:12:18.590Z</time>
      </trkpt>
      <trkpt lat="45.580612" lon="10.224732">
        <ele>180.077553</ele>
        <time>2021-01-28T20:12:25.672Z</time>
      </trkpt>
      <trkpt lat="45.580266" lon="10.224811">
        <ele>180.049866</ele>
        <time>2021-01-28T20:12:31.107Z</time>
      </trkpt>
      <trkpt lat="45.580109" lon="10.224842">
        <ele>180.037343</ele>
        <time>2021-01-28T20:12:33.591Z</time>
      </trkpt>
      <trkpt lat="45.580011" lon="10.224869">
        <ele>180.029457</ele>
        <time>2021-01-28T20:12:35.127Z</time>
      </trkpt>
      <trkpt lat="45.579856" lon="10.224943">
        <ele>180.016543</ele>
        <time>2021-01-28T20:12:38.078Z</time>
      </trkpt>
      <trkpt lat="45.579814" lon="10.224959">
        <ele>180.013109</ele>
        <time>2021-01-28T20:12:38.747Z</time>
      </trkpt>
      <trkpt lat="45.579678" lon="10.225026">
        <ele>180.007303</ele>
        <time>2021-01-28T20:12:41.121Z</time>
      </trkpt>
      <trkpt lat="45.579485" lon="10.225084">
        <ele>180.007303</ele>
        <time>2021-01-28T20:12:44.699Z</time>
      </trkpt>
      <trkpt lat="45.579468" lon="10.225063">
        <ele>180.007303</ele>
        <time>2021-01-28T20:12:45.025Z</time>
      </trkpt>
      <trkpt lat="45.579418" lon="10.225042">
        <ele>180.007303</ele>
        <time>2021-01-28T20:12:45.870Z</time>
      </trkpt>
      <trkpt lat="45.579388" lon="10.225058">
        <ele>180.007303</ele>
        <time>2021-01-28T20:12:46.314Z</time>
      </trkpt>
      <trkpt lat="45.579369" lon="10.225072">
        <ele>180.007303</ele>
        <time>2021-01-28T20:12:46.682Z</time>
      </trkpt>
      <trkpt lat="45.579344" lon="10.225146">
        <ele>180.007303</ele>
        <time>2021-01-28T20:12:47.564Z</time>
      </trkpt>
      <trkpt lat="45.579345" lon="10.225168">
        <ele>180.007303</ele>
        <time>2021-01-28T20:12:47.822Z</time>
      </trkpt>
      <trkpt lat="45.579346" lon="10.225182">
        <ele>180.007303</ele>
        <time>2021-01-28T20:12:48.032Z</time>
      </trkpt>
      <trkpt lat="45.579369" lon="10.225237">
        <ele>180.007303</ele>
        <time>2021-01-28T20:12:48.716Z</time>
      </trkpt>
      <trkpt lat="45.579392" lon="10.225258">
        <ele>180.007303</ele>
        <time>2021-01-28T20:12:49.254Z</time>
      </trkpt>
      <trkpt lat="45.579410" lon="10.225265">
        <ele>180.007303</ele>
        <time>2021-01-28T20:12:49.600Z</time>
      </trkpt>
      <trkpt lat="45.579439" lon="10.225264">
        <ele>180.007303</ele>
        <time>2021-01-28T20:12:50.129Z</time>
      </trkpt>
      <trkpt lat="45.579582" lon="10.225789">
        <ele>180.007303</ele>
        <time>2021-01-28T20:12:56.381Z</time>
      </trkpt>
      <trkpt lat="45.579778" lon="10.226711">
        <ele>180.007303</ele>
        <time>2021-01-28T20:13:06.193Z</time>
      </trkpt>
      <trkpt lat="45.579809" lon="10.226844">
        <ele>180.007303</ele>
        <time>2021-01-28T20:13:07.557Z</time>
      </trkpt>
      <trkpt lat="45.579854" lon="10.226824">
        <ele>180.007303</ele>
        <time>2021-01-28T20:13:08.112Z</time>
      </trkpt>
      <trkpt lat="45.579978" lon="10.226776">
        <ele>180.007303</ele>
        <time>2021-01-28T20:13:09.744Z</time>
      </trkpt>
      <trkpt lat="45.579999" lon="10.226866">
        <ele>180.007303</ele>
        <time>2021-01-28T20:13:10.788Z</time>
      </trkpt>
      <trkpt lat="45.580047" lon="10.227067">
        <ele>180.007303</ele>
        <time>2021-01-28T20:13:12.868Z</time>
      </trkpt>
      <trkpt lat="45.580095" lon="10.227265">
        <ele>180.007303</ele>
        <time>2021-01-28T20:13:14.650Z</time>
      </trkpt>
      <trkpt lat="45.580418" lon="10.227165">
        <ele>180.007303</ele>
        <time>2021-01-28T20:13:18.934Z</time>
      </trkpt>
    </trkseg>
  </trk>
</gpx>